<?xml version="1.0" encoding="UTF-8" standalone="no" ?>
<gpx xmlns="http://www.topografix.com/GPX/1/1" xmlns:xsi="http://www.w3.org/2001/XMLSchema-instance" xsi:schemaLocation="http://www.topografix.com/GPX/1/1 http://www.topografix.com/GPX/1/1/gpx.xsd" version="1.1" creator="VisuGPX - https://www.visugpx.com">
  <metadata>
    <name>Valentine-Valentine-</name>
    <desc><![CDATA[Balade commingeoise]]></desc>
  </metadata>
  <trk>
    <name><![CDATA[Valentine-Valentine-_1]]></name>
    <desc><![CDATA[

]]></desc>
    <trkseg>
      <trkpt lat="43.09617" lon="0.70209">
        <ele>365</ele>
        <time>2024-08-03T16:11:24Z</time>
      </trkpt>
      <trkpt lat="43.09604" lon="0.70203">
        <ele>365</ele>
        <time>2024-08-03T16:11:27Z</time>
      </trkpt>
      <trkpt lat="43.09596" lon="0.70195">
        <ele>365</ele>
        <time>2024-08-03T16:11:28Z</time>
      </trkpt>
      <trkpt lat="43.09595" lon="0.70184">
        <ele>365</ele>
        <time>2024-08-03T16:11:30Z</time>
      </trkpt>
      <trkpt lat="43.09591" lon="0.70178">
        <ele>365</ele>
        <time>2024-08-03T16:11:31Z</time>
      </trkpt>
      <trkpt lat="43.09585" lon="0.70172">
        <ele>365</ele>
        <time>2024-08-03T16:11:32Z</time>
      </trkpt>
      <trkpt lat="43.09578" lon="0.70172">
        <ele>365</ele>
        <time>2024-08-03T16:11:34Z</time>
      </trkpt>
      <trkpt lat="43.09575" lon="0.70158">
        <ele>365</ele>
        <time>2024-08-03T16:11:35Z</time>
      </trkpt>
      <trkpt lat="43.09575" lon="0.70158">
        <ele>365</ele>
        <time>2024-08-03T16:11:35Z</time>
      </trkpt>
      <trkpt lat="43.09578" lon="0.70172">
        <ele>365</ele>
        <time>2024-08-03T16:11:37Z</time>
      </trkpt>
      <trkpt lat="43.09571" lon="0.70176">
        <ele>365</ele>
        <time>2024-08-03T16:11:39Z</time>
      </trkpt>
      <trkpt lat="43.09565" lon="0.70187">
        <ele>366</ele>
        <time>2024-08-03T16:11:40Z</time>
      </trkpt>
      <trkpt lat="43.09566" lon="0.70201">
        <ele>366</ele>
        <time>2024-08-03T16:11:42Z</time>
      </trkpt>
      <trkpt lat="43.09549" lon="0.70205">
        <ele>366</ele>
        <time>2024-08-03T16:11:45Z</time>
      </trkpt>
      <trkpt lat="43.09533" lon="0.70206">
        <ele>366</ele>
        <time>2024-08-03T16:11:48Z</time>
      </trkpt>
      <trkpt lat="43.09515" lon="0.70203">
        <ele>367</ele>
        <time>2024-08-03T16:11:51Z</time>
      </trkpt>
      <trkpt lat="43.095" lon="0.70189">
        <ele>367</ele>
        <time>2024-08-03T16:11:55Z</time>
      </trkpt>
      <trkpt lat="43.09484" lon="0.70169">
        <ele>368</ele>
        <time>2024-08-03T16:11:59Z</time>
      </trkpt>
      <trkpt lat="43.09468" lon="0.70143">
        <ele>369</ele>
        <time>2024-08-03T16:12:03Z</time>
      </trkpt>
      <trkpt lat="43.09451" lon="0.70137">
        <ele>369</ele>
        <time>2024-08-03T16:12:06Z</time>
      </trkpt>
      <trkpt lat="43.09447" lon="0.70241">
        <ele>369</ele>
        <time>2024-08-03T16:12:20Z</time>
      </trkpt>
      <trkpt lat="43.09452" lon="0.70369">
        <ele>371</ele>
        <time>2024-08-03T16:12:36Z</time>
      </trkpt>
      <trkpt lat="43.09334" lon="0.70355">
        <ele>371</ele>
        <time>2024-08-03T16:12:57Z</time>
      </trkpt>
      <trkpt lat="43.09234" lon="0.70349">
        <ele>370</ele>
        <time>2024-08-03T16:13:15Z</time>
      </trkpt>
      <trkpt lat="43.09152" lon="0.70214">
        <ele>372</ele>
        <time>2024-08-03T16:13:38Z</time>
      </trkpt>
      <trkpt lat="43.0904" lon="0.70043">
        <ele>377</ele>
        <time>2024-08-03T16:14:08Z</time>
      </trkpt>
      <trkpt lat="43.0903" lon="0.70028">
        <ele>377</ele>
        <time>2024-08-03T16:14:10Z</time>
      </trkpt>
      <trkpt lat="43.09015" lon="0.70013">
        <ele>378</ele>
        <time>2024-08-03T16:14:14Z</time>
      </trkpt>
      <trkpt lat="43.08975" lon="0.6999">
        <ele>377</ele>
        <time>2024-08-03T16:14:21Z</time>
      </trkpt>
      <trkpt lat="43.08625" lon="0.69831">
        <ele>377</ele>
        <time>2024-08-03T16:15:27Z</time>
      </trkpt>
      <trkpt lat="43.08534" lon="0.69787">
        <ele>380</ele>
        <time>2024-08-03T16:15:44Z</time>
      </trkpt>
      <trkpt lat="43.08516" lon="0.69775">
        <ele>381</ele>
        <time>2024-08-03T16:15:48Z</time>
      </trkpt>
      <trkpt lat="43.08499" lon="0.6975">
        <ele>383</ele>
        <time>2024-08-03T16:15:52Z</time>
      </trkpt>
      <trkpt lat="43.0849" lon="0.69728">
        <ele>384</ele>
        <time>2024-08-03T16:15:56Z</time>
      </trkpt>
      <trkpt lat="43.08469" lon="0.69535">
        <ele>384</ele>
        <time>2024-08-03T16:16:21Z</time>
      </trkpt>
      <trkpt lat="43.08444" lon="0.69432">
        <ele>383</ele>
        <time>2024-08-03T16:16:35Z</time>
      </trkpt>
      <trkpt lat="43.08442" lon="0.69395">
        <ele>384</ele>
        <time>2024-08-03T16:16:40Z</time>
      </trkpt>
      <trkpt lat="43.08442" lon="0.6935">
        <ele>386</ele>
        <time>2024-08-03T16:16:46Z</time>
      </trkpt>
      <trkpt lat="43.08437" lon="0.69316">
        <ele>387</ele>
        <time>2024-08-03T16:16:50Z</time>
      </trkpt>
      <trkpt lat="43.08431" lon="0.69294">
        <ele>387</ele>
        <time>2024-08-03T16:16:53Z</time>
      </trkpt>
      <trkpt lat="43.08424" lon="0.6928">
        <ele>388</ele>
        <time>2024-08-03T16:16:55Z</time>
      </trkpt>
      <trkpt lat="43.0841" lon="0.69261">
        <ele>388</ele>
        <time>2024-08-03T16:16:59Z</time>
      </trkpt>
      <trkpt lat="43.08301" lon="0.6916">
        <ele>386</ele>
        <time>2024-08-03T16:17:22Z</time>
      </trkpt>
      <trkpt lat="43.08213" lon="0.69074">
        <ele>390</ele>
        <time>2024-08-03T16:17:42Z</time>
      </trkpt>
      <trkpt lat="43.0748" lon="0.68364">
        <ele>420</ele>
        <time>2024-08-03T16:20:21Z</time>
      </trkpt>
      <trkpt lat="43.07401" lon="0.68316">
        <ele>429</ele>
        <time>2024-08-03T16:20:37Z</time>
      </trkpt>
      <trkpt lat="43.07357" lon="0.68283">
        <ele>433</ele>
        <time>2024-08-03T16:20:46Z</time>
      </trkpt>
      <trkpt lat="43.0731" lon="0.68242">
        <ele>438</ele>
        <time>2024-08-03T16:20:56Z</time>
      </trkpt>
      <trkpt lat="43.07158" lon="0.68097">
        <ele>448</ele>
        <time>2024-08-03T16:21:29Z</time>
      </trkpt>
      <trkpt lat="43.06935" lon="0.67917">
        <ele>444</ele>
        <time>2024-08-03T16:22:15Z</time>
      </trkpt>
      <trkpt lat="43.06911" lon="0.67905">
        <ele>444</ele>
        <time>2024-08-03T16:22:19Z</time>
      </trkpt>
      <trkpt lat="43.069" lon="0.67902">
        <ele>444</ele>
        <time>2024-08-03T16:22:21Z</time>
      </trkpt>
      <trkpt lat="43.069" lon="0.67902">
        <ele>444</ele>
        <time>2024-08-03T16:22:21Z</time>
      </trkpt>
      <trkpt lat="43.06884" lon="0.67899">
        <ele>444</ele>
        <time>2024-08-03T16:22:24Z</time>
      </trkpt>
      <trkpt lat="43.06834" lon="0.67905">
        <ele>444</ele>
        <time>2024-08-03T16:22:33Z</time>
      </trkpt>
      <trkpt lat="43.06801" lon="0.67913">
        <ele>445</ele>
        <time>2024-08-03T16:22:39Z</time>
      </trkpt>
      <trkpt lat="43.06771" lon="0.67925">
        <ele>445</ele>
        <time>2024-08-03T16:22:44Z</time>
      </trkpt>
      <trkpt lat="43.06449" lon="0.68095">
        <ele>448</ele>
        <time>2024-08-03T16:23:46Z</time>
      </trkpt>
      <trkpt lat="43.06423" lon="0.68112">
        <ele>448</ele>
        <time>2024-08-03T16:23:51Z</time>
      </trkpt>
      <trkpt lat="43.06402" lon="0.68117">
        <ele>447</ele>
        <time>2024-08-03T16:23:55Z</time>
      </trkpt>
      <trkpt lat="43.06371" lon="0.68111">
        <ele>447</ele>
        <time>2024-08-03T16:24:00Z</time>
      </trkpt>
      <trkpt lat="43.05946" lon="0.67933">
        <ele>475</ele>
        <time>2024-08-03T16:25:19Z</time>
      </trkpt>
      <trkpt lat="43.05837" lon="0.67872">
        <ele>477</ele>
        <time>2024-08-03T16:25:40Z</time>
      </trkpt>
      <trkpt lat="43.05808" lon="0.67834">
        <ele>475</ele>
        <time>2024-08-03T16:25:48Z</time>
      </trkpt>
      <trkpt lat="43.05762" lon="0.67759">
        <ele>474</ele>
        <time>2024-08-03T16:26:00Z</time>
      </trkpt>
      <trkpt lat="43.05726" lon="0.67682">
        <ele>473</ele>
        <time>2024-08-03T16:26:12Z</time>
      </trkpt>
      <trkpt lat="43.05665" lon="0.67522">
        <ele>475</ele>
        <time>2024-08-03T16:26:36Z</time>
      </trkpt>
      <trkpt lat="43.05651" lon="0.675">
        <ele>476</ele>
        <time>2024-08-03T16:26:39Z</time>
      </trkpt>
      <trkpt lat="43.05558" lon="0.67432">
        <ele>479</ele>
        <time>2024-08-03T16:26:58Z</time>
      </trkpt>
      <trkpt lat="43.05518" lon="0.67419">
        <ele>478</ele>
        <time>2024-08-03T16:27:05Z</time>
      </trkpt>
      <trkpt lat="43.0545" lon="0.67407">
        <ele>476</ele>
        <time>2024-08-03T16:27:18Z</time>
      </trkpt>
      <trkpt lat="43.05435" lon="0.67401">
        <ele>477</ele>
        <time>2024-08-03T16:27:20Z</time>
      </trkpt>
      <trkpt lat="43.05401" lon="0.67379">
        <ele>478</ele>
        <time>2024-08-03T16:27:27Z</time>
      </trkpt>
      <trkpt lat="43.05384" lon="0.67372">
        <ele>478</ele>
        <time>2024-08-03T16:27:30Z</time>
      </trkpt>
      <trkpt lat="43.0533" lon="0.67362">
        <ele>475</ele>
        <time>2024-08-03T16:27:40Z</time>
      </trkpt>
      <trkpt lat="43.05311" lon="0.67356">
        <ele>475</ele>
        <time>2024-08-03T16:27:43Z</time>
      </trkpt>
      <trkpt lat="43.05295" lon="0.67347">
        <ele>475</ele>
        <time>2024-08-03T16:27:47Z</time>
      </trkpt>
      <trkpt lat="43.0522" lon="0.67297">
        <ele>473</ele>
        <time>2024-08-03T16:28:01Z</time>
      </trkpt>
      <trkpt lat="43.05198" lon="0.67288">
        <ele>472</ele>
        <time>2024-08-03T16:28:05Z</time>
      </trkpt>
      <trkpt lat="43.05177" lon="0.67288">
        <ele>471</ele>
        <time>2024-08-03T16:28:09Z</time>
      </trkpt>
      <trkpt lat="43.05119" lon="0.67307">
        <ele>468</ele>
        <time>2024-08-03T16:28:20Z</time>
      </trkpt>
      <trkpt lat="43.05093" lon="0.67304">
        <ele>468</ele>
        <time>2024-08-03T16:28:24Z</time>
      </trkpt>
      <trkpt lat="43.05068" lon="0.67289">
        <ele>468</ele>
        <time>2024-08-03T16:28:29Z</time>
      </trkpt>
      <trkpt lat="43.0491" lon="0.67175">
        <ele>466</ele>
        <time>2024-08-03T16:29:01Z</time>
      </trkpt>
      <trkpt lat="43.04812" lon="0.67102">
        <ele>458</ele>
        <time>2024-08-03T16:29:21Z</time>
      </trkpt>
      <trkpt lat="43.04778" lon="0.67081">
        <ele>457</ele>
        <time>2024-08-03T16:29:28Z</time>
      </trkpt>
      <trkpt lat="43.04607" lon="0.67012">
        <ele>453</ele>
        <time>2024-08-03T16:29:59Z</time>
      </trkpt>
      <trkpt lat="43.04564" lon="0.66982">
        <ele>454</ele>
        <time>2024-08-03T16:30:08Z</time>
      </trkpt>
      <trkpt lat="43.04545" lon="0.66974">
        <ele>454</ele>
        <time>2024-08-03T16:30:11Z</time>
      </trkpt>
      <trkpt lat="43.04414" lon="0.66927">
        <ele>460</ele>
        <time>2024-08-03T16:30:36Z</time>
      </trkpt>
      <trkpt lat="43.04361" lon="0.66903">
        <ele>461</ele>
        <time>2024-08-03T16:30:45Z</time>
      </trkpt>
      <trkpt lat="43.04232" lon="0.6684">
        <ele>463</ele>
        <time>2024-08-03T16:31:10Z</time>
      </trkpt>
      <trkpt lat="43.04201" lon="0.66832">
        <ele>464</ele>
        <time>2024-08-03T16:31:15Z</time>
      </trkpt>
      <trkpt lat="43.0405" lon="0.66816">
        <ele>475</ele>
        <time>2024-08-03T16:31:42Z</time>
      </trkpt>
      <trkpt lat="43.04028" lon="0.66809">
        <ele>477</ele>
        <time>2024-08-03T16:31:46Z</time>
      </trkpt>
      <trkpt lat="43.04013" lon="0.6679">
        <ele>479</ele>
        <time>2024-08-03T16:31:50Z</time>
      </trkpt>
      <trkpt lat="43.03989" lon="0.66689">
        <ele>482</ele>
        <time>2024-08-03T16:32:04Z</time>
      </trkpt>
      <trkpt lat="43.03982" lon="0.6667">
        <ele>483</ele>
        <time>2024-08-03T16:32:07Z</time>
      </trkpt>
      <trkpt lat="43.03972" lon="0.66653">
        <ele>484</ele>
        <time>2024-08-03T16:32:09Z</time>
      </trkpt>
      <trkpt lat="43.03957" lon="0.6664">
        <ele>485</ele>
        <time>2024-08-03T16:32:13Z</time>
      </trkpt>
      <trkpt lat="43.03855" lon="0.66601">
        <ele>491</ele>
        <time>2024-08-03T16:32:31Z</time>
      </trkpt>
      <trkpt lat="43.03824" lon="0.66602">
        <ele>492</ele>
        <time>2024-08-03T16:32:37Z</time>
      </trkpt>
      <trkpt lat="43.03805" lon="0.66613">
        <ele>491</ele>
        <time>2024-08-03T16:32:41Z</time>
      </trkpt>
      <trkpt lat="43.03783" lon="0.66655">
        <ele>491</ele>
        <time>2024-08-03T16:32:47Z</time>
      </trkpt>
      <trkpt lat="43.03768" lon="0.66674">
        <ele>490</ele>
        <time>2024-08-03T16:32:51Z</time>
      </trkpt>
      <trkpt lat="43.0376" lon="0.66677">
        <ele>490</ele>
        <time>2024-08-03T16:32:52Z</time>
      </trkpt>
      <trkpt lat="43.0375" lon="0.66669">
        <ele>489</ele>
        <time>2024-08-03T16:32:55Z</time>
      </trkpt>
      <trkpt lat="43.03743" lon="0.66659">
        <ele>488</ele>
        <time>2024-08-03T16:32:56Z</time>
      </trkpt>
      <trkpt lat="43.03739" lon="0.66645">
        <ele>488</ele>
        <time>2024-08-03T16:32:58Z</time>
      </trkpt>
      <trkpt lat="43.0373" lon="0.66627">
        <ele>487</ele>
        <time>2024-08-03T16:33:01Z</time>
      </trkpt>
      <trkpt lat="43.03719" lon="0.66614">
        <ele>485</ele>
        <time>2024-08-03T16:33:04Z</time>
      </trkpt>
      <trkpt lat="43.03691" lon="0.66583">
        <ele>481</ele>
        <time>2024-08-03T16:33:10Z</time>
      </trkpt>
      <trkpt lat="43.0368" lon="0.66576">
        <ele>479</ele>
        <time>2024-08-03T16:33:12Z</time>
      </trkpt>
      <trkpt lat="43.03653" lon="0.66577">
        <ele>477</ele>
        <time>2024-08-03T16:33:17Z</time>
      </trkpt>
      <trkpt lat="43.03545" lon="0.66632">
        <ele>468</ele>
        <time>2024-08-03T16:33:38Z</time>
      </trkpt>
      <trkpt lat="43.03448" lon="0.6668">
        <ele>457</ele>
        <time>2024-08-03T16:33:56Z</time>
      </trkpt>
      <trkpt lat="43.03387" lon="0.66719">
        <ele>452</ele>
        <time>2024-08-03T16:34:08Z</time>
      </trkpt>
      <trkpt lat="43.03363" lon="0.66758">
        <ele>450</ele>
        <time>2024-08-03T16:34:15Z</time>
      </trkpt>
      <trkpt lat="43.03353" lon="0.66786">
        <ele>450</ele>
        <time>2024-08-03T16:34:19Z</time>
      </trkpt>
      <trkpt lat="43.03303" lon="0.66875">
        <ele>448</ele>
        <time>2024-08-03T16:34:33Z</time>
      </trkpt>
      <trkpt lat="43.03275" lon="0.66874">
        <ele>446</ele>
        <time>2024-08-03T16:34:38Z</time>
      </trkpt>
      <trkpt lat="43.0325" lon="0.6687">
        <ele>444</ele>
        <time>2024-08-03T16:34:43Z</time>
      </trkpt>
      <trkpt lat="43.03229" lon="0.66862">
        <ele>443</ele>
        <time>2024-08-03T16:34:47Z</time>
      </trkpt>
      <trkpt lat="43.03142" lon="0.66796">
        <ele>442</ele>
        <time>2024-08-03T16:35:04Z</time>
      </trkpt>
      <trkpt lat="43.03108" lon="0.66777">
        <ele>443</ele>
        <time>2024-08-03T16:35:11Z</time>
      </trkpt>
      <trkpt lat="43.03091" lon="0.66772">
        <ele>444</ele>
        <time>2024-08-03T16:35:14Z</time>
      </trkpt>
      <trkpt lat="43.03048" lon="0.6678">
        <ele>447</ele>
        <time>2024-08-03T16:35:22Z</time>
      </trkpt>
      <trkpt lat="43.03" lon="0.668">
        <ele>448</ele>
        <time>2024-08-03T16:35:31Z</time>
      </trkpt>
      <trkpt lat="43.02956" lon="0.66815">
        <ele>446</ele>
        <time>2024-08-03T16:35:39Z</time>
      </trkpt>
      <trkpt lat="43.02889" lon="0.66817">
        <ele>445</ele>
        <time>2024-08-03T16:35:51Z</time>
      </trkpt>
      <trkpt lat="43.0282" lon="0.66788">
        <ele>445</ele>
        <time>2024-08-03T16:36:03Z</time>
      </trkpt>
      <trkpt lat="43.02732" lon="0.66765">
        <ele>446</ele>
        <time>2024-08-03T16:36:19Z</time>
      </trkpt>
      <trkpt lat="43.02671" lon="0.66752">
        <ele>448</ele>
        <time>2024-08-03T16:36:30Z</time>
      </trkpt>
      <trkpt lat="43.0263" lon="0.66748">
        <ele>448</ele>
        <time>2024-08-03T16:36:38Z</time>
      </trkpt>
      <trkpt lat="43.02602" lon="0.66758">
        <ele>447</ele>
        <time>2024-08-03T16:36:43Z</time>
      </trkpt>
      <trkpt lat="43.02452" lon="0.66864">
        <ele>447</ele>
        <time>2024-08-03T16:37:13Z</time>
      </trkpt>
      <trkpt lat="43.02359" lon="0.66925">
        <ele>448</ele>
        <time>2024-08-03T16:37:31Z</time>
      </trkpt>
      <trkpt lat="43.02317" lon="0.66956">
        <ele>448</ele>
        <time>2024-08-03T16:37:40Z</time>
      </trkpt>
      <trkpt lat="43.02294" lon="0.66984">
        <ele>449</ele>
        <time>2024-08-03T16:37:45Z</time>
      </trkpt>
      <trkpt lat="43.02284" lon="0.67001">
        <ele>449</ele>
        <time>2024-08-03T16:37:48Z</time>
      </trkpt>
      <trkpt lat="43.02267" lon="0.6702">
        <ele>450</ele>
        <time>2024-08-03T16:37:52Z</time>
      </trkpt>
      <trkpt lat="43.02224" lon="0.67057">
        <ele>451</ele>
        <time>2024-08-03T16:38:01Z</time>
      </trkpt>
      <trkpt lat="43.02209" lon="0.67076">
        <ele>451</ele>
        <time>2024-08-03T16:38:05Z</time>
      </trkpt>
      <trkpt lat="43.02157" lon="0.67177">
        <ele>448</ele>
        <time>2024-08-03T16:38:21Z</time>
      </trkpt>
      <trkpt lat="43.02149" lon="0.67196">
        <ele>448</ele>
        <time>2024-08-03T16:38:23Z</time>
      </trkpt>
      <trkpt lat="43.02145" lon="0.67217">
        <ele>448</ele>
        <time>2024-08-03T16:38:26Z</time>
      </trkpt>
      <trkpt lat="43.02144" lon="0.67238">
        <ele>448</ele>
        <time>2024-08-03T16:38:29Z</time>
      </trkpt>
      <trkpt lat="43.0215" lon="0.6729">
        <ele>449</ele>
        <time>2024-08-03T16:38:36Z</time>
      </trkpt>
      <trkpt lat="43.02177" lon="0.67422">
        <ele>448</ele>
        <time>2024-08-03T16:38:54Z</time>
      </trkpt>
      <trkpt lat="43.02179" lon="0.6745">
        <ele>448</ele>
        <time>2024-08-03T16:38:57Z</time>
      </trkpt>
      <trkpt lat="43.02175" lon="0.6749">
        <ele>448</ele>
        <time>2024-08-03T16:39:03Z</time>
      </trkpt>
      <trkpt lat="43.02163" lon="0.67533">
        <ele>450</ele>
        <time>2024-08-03T16:39:09Z</time>
      </trkpt>
      <trkpt lat="43.02146" lon="0.67577">
        <ele>456</ele>
        <time>2024-08-03T16:39:15Z</time>
      </trkpt>
      <trkpt lat="43.02104" lon="0.67659">
        <ele>461</ele>
        <time>2024-08-03T16:39:28Z</time>
      </trkpt>
      <trkpt lat="43.02085" lon="0.67726">
        <ele>453</ele>
        <time>2024-08-03T16:39:37Z</time>
      </trkpt>
      <trkpt lat="43.02069" lon="0.67753">
        <ele>452</ele>
        <time>2024-08-03T16:39:42Z</time>
      </trkpt>
      <trkpt lat="43.02057" lon="0.67766">
        <ele>454</ele>
        <time>2024-08-03T16:39:45Z</time>
      </trkpt>
      <trkpt lat="43.02037" lon="0.67779">
        <ele>456</ele>
        <time>2024-08-03T16:39:49Z</time>
      </trkpt>
      <trkpt lat="43.01933" lon="0.67796">
        <ele>464</ele>
        <time>2024-08-03T16:40:07Z</time>
      </trkpt>
      <trkpt lat="43.019" lon="0.67812">
        <ele>461</ele>
        <time>2024-08-03T16:40:14Z</time>
      </trkpt>
      <trkpt lat="43.01849" lon="0.67861">
        <ele>456</ele>
        <time>2024-08-03T16:40:25Z</time>
      </trkpt>
      <trkpt lat="43.01827" lon="0.67874">
        <ele>457</ele>
        <time>2024-08-03T16:40:29Z</time>
      </trkpt>
      <trkpt lat="43.01748" lon="0.67901">
        <ele>460</ele>
        <time>2024-08-03T16:40:43Z</time>
      </trkpt>
      <trkpt lat="43.01704" lon="0.67914">
        <ele>463</ele>
        <time>2024-08-03T16:40:51Z</time>
      </trkpt>
      <trkpt lat="43.01675" lon="0.67917">
        <ele>464</ele>
        <time>2024-08-03T16:40:57Z</time>
      </trkpt>
      <trkpt lat="43.0162" lon="0.67909">
        <ele>477</ele>
        <time>2024-08-03T16:41:06Z</time>
      </trkpt>
      <trkpt lat="43.01596" lon="0.67912">
        <ele>481</ele>
        <time>2024-08-03T16:41:11Z</time>
      </trkpt>
      <trkpt lat="43.01559" lon="0.67924">
        <ele>488</ele>
        <time>2024-08-03T16:41:17Z</time>
      </trkpt>
      <trkpt lat="43.01541" lon="0.6794">
        <ele>492</ele>
        <time>2024-08-03T16:41:21Z</time>
      </trkpt>
      <trkpt lat="43.01522" lon="0.67963">
        <ele>494</ele>
        <time>2024-08-03T16:41:26Z</time>
      </trkpt>
      <trkpt lat="43.01511" lon="0.67986">
        <ele>493</ele>
        <time>2024-08-03T16:41:29Z</time>
      </trkpt>
      <trkpt lat="43.01505" lon="0.68015">
        <ele>492</ele>
        <time>2024-08-03T16:41:33Z</time>
      </trkpt>
      <trkpt lat="43.01501" lon="0.68088">
        <ele>489</ele>
        <time>2024-08-03T16:41:43Z</time>
      </trkpt>
      <trkpt lat="43.01494" lon="0.68112">
        <ele>491</ele>
        <time>2024-08-03T16:41:46Z</time>
      </trkpt>
      <trkpt lat="43.0144" lon="0.68186">
        <ele>505</ele>
        <time>2024-08-03T16:42:00Z</time>
      </trkpt>
      <trkpt lat="43.01384" lon="0.68241">
        <ele>507</ele>
        <time>2024-08-03T16:42:12Z</time>
      </trkpt>
      <trkpt lat="43.01369" lon="0.68249">
        <ele>509</ele>
        <time>2024-08-03T16:42:15Z</time>
      </trkpt>
      <trkpt lat="43.01338" lon="0.68256">
        <ele>518</ele>
        <time>2024-08-03T16:42:20Z</time>
      </trkpt>
      <trkpt lat="43.01314" lon="0.68266">
        <ele>524</ele>
        <time>2024-08-03T16:42:25Z</time>
      </trkpt>
      <trkpt lat="43.01287" lon="0.68287">
        <ele>528</ele>
        <time>2024-08-03T16:42:30Z</time>
      </trkpt>
      <trkpt lat="43.01264" lon="0.68316">
        <ele>527</ele>
        <time>2024-08-03T16:42:36Z</time>
      </trkpt>
      <trkpt lat="43.01244" lon="0.68334">
        <ele>526</ele>
        <time>2024-08-03T16:42:40Z</time>
      </trkpt>
      <trkpt lat="43.01173" lon="0.68363">
        <ele>533</ele>
        <time>2024-08-03T16:42:53Z</time>
      </trkpt>
      <trkpt lat="43.01147" lon="0.68367">
        <ele>533</ele>
        <time>2024-08-03T16:42:58Z</time>
      </trkpt>
      <trkpt lat="43.01095" lon="0.68363">
        <ele>533</ele>
        <time>2024-08-03T16:43:07Z</time>
      </trkpt>
      <trkpt lat="43.01067" lon="0.68358">
        <ele>532</ele>
        <time>2024-08-03T16:43:12Z</time>
      </trkpt>
      <trkpt lat="43.00998" lon="0.68361">
        <ele>527</ele>
        <time>2024-08-03T16:43:25Z</time>
      </trkpt>
      <trkpt lat="43.0096" lon="0.68349">
        <ele>526</ele>
        <time>2024-08-03T16:43:32Z</time>
      </trkpt>
      <trkpt lat="43.00895" lon="0.68313">
        <ele>527</ele>
        <time>2024-08-03T16:43:44Z</time>
      </trkpt>
      <trkpt lat="43.00878" lon="0.68307">
        <ele>526</ele>
        <time>2024-08-03T16:43:47Z</time>
      </trkpt>
      <trkpt lat="43.00847" lon="0.68291">
        <ele>524</ele>
        <time>2024-08-03T16:43:53Z</time>
      </trkpt>
      <trkpt lat="43.00818" lon="0.68254">
        <ele>524</ele>
        <time>2024-08-03T16:44:00Z</time>
      </trkpt>
      <trkpt lat="43.00695" lon="0.68004">
        <ele>529</ele>
        <time>2024-08-03T16:44:39Z</time>
      </trkpt>
      <trkpt lat="43.00675" lon="0.67969">
        <ele>529</ele>
        <time>2024-08-03T16:44:45Z</time>
      </trkpt>
      <trkpt lat="43.00661" lon="0.67951">
        <ele>528</ele>
        <time>2024-08-03T16:44:49Z</time>
      </trkpt>
      <trkpt lat="43.00642" lon="0.67936">
        <ele>529</ele>
        <time>2024-08-03T16:44:53Z</time>
      </trkpt>
      <trkpt lat="43.00505" lon="0.6787">
        <ele>530</ele>
        <time>2024-08-03T16:45:18Z</time>
      </trkpt>
      <trkpt lat="43.00441" lon="0.67861">
        <ele>531</ele>
        <time>2024-08-03T16:45:30Z</time>
      </trkpt>
      <trkpt lat="43.004" lon="0.67849">
        <ele>531</ele>
        <time>2024-08-03T16:45:37Z</time>
      </trkpt>
      <trkpt lat="43.00372" lon="0.6783">
        <ele>529</ele>
        <time>2024-08-03T16:45:43Z</time>
      </trkpt>
      <trkpt lat="43.00342" lon="0.67779">
        <ele>528</ele>
        <time>2024-08-03T16:45:51Z</time>
      </trkpt>
      <trkpt lat="43.00277" lon="0.67656">
        <ele>533</ele>
        <time>2024-08-03T16:46:11Z</time>
      </trkpt>
      <trkpt lat="43.00247" lon="0.67615">
        <ele>535</ele>
        <time>2024-08-03T16:46:19Z</time>
      </trkpt>
      <trkpt lat="43.00197" lon="0.67567">
        <ele>538</ele>
        <time>2024-08-03T16:46:29Z</time>
      </trkpt>
      <trkpt lat="43.00133" lon="0.67404">
        <ele>543</ele>
        <time>2024-08-03T16:46:54Z</time>
      </trkpt>
      <trkpt lat="43.00121" lon="0.67378">
        <ele>545</ele>
        <time>2024-08-03T16:46:58Z</time>
      </trkpt>
      <trkpt lat="43.00008" lon="0.67312">
        <ele>541</ele>
        <time>2024-08-03T16:47:19Z</time>
      </trkpt>
      <trkpt lat="42.99962" lon="0.67277">
        <ele>539</ele>
        <time>2024-08-03T16:47:29Z</time>
      </trkpt>
      <trkpt lat="42.99933" lon="0.6727">
        <ele>538</ele>
        <time>2024-08-03T16:47:34Z</time>
      </trkpt>
      <trkpt lat="42.99907" lon="0.67256">
        <ele>538</ele>
        <time>2024-08-03T16:47:39Z</time>
      </trkpt>
      <trkpt lat="42.9989" lon="0.67223">
        <ele>539</ele>
        <time>2024-08-03T16:47:44Z</time>
      </trkpt>
      <trkpt lat="42.99837" lon="0.67106">
        <ele>539</ele>
        <time>2024-08-03T16:48:02Z</time>
      </trkpt>
      <trkpt lat="42.99815" lon="0.6705">
        <ele>545</ele>
        <time>2024-08-03T16:48:10Z</time>
      </trkpt>
      <trkpt lat="42.99773" lon="0.66957">
        <ele>553</ele>
        <time>2024-08-03T16:48:25Z</time>
      </trkpt>
      <trkpt lat="42.99734" lon="0.66834">
        <ele>564</ele>
        <time>2024-08-03T16:48:42Z</time>
      </trkpt>
      <trkpt lat="42.99724" lon="0.66811">
        <ele>568</ele>
        <time>2024-08-03T16:48:46Z</time>
      </trkpt>
      <trkpt lat="42.99712" lon="0.66795">
        <ele>571</ele>
        <time>2024-08-03T16:48:49Z</time>
      </trkpt>
      <trkpt lat="42.99697" lon="0.66784">
        <ele>573</ele>
        <time>2024-08-03T16:48:52Z</time>
      </trkpt>
      <trkpt lat="42.99683" lon="0.66779">
        <ele>573</ele>
        <time>2024-08-03T16:48:54Z</time>
      </trkpt>
      <trkpt lat="42.99664" lon="0.6678">
        <ele>573</ele>
        <time>2024-08-03T16:48:58Z</time>
      </trkpt>
      <trkpt lat="42.99631" lon="0.6679">
        <ele>578</ele>
        <time>2024-08-03T16:49:04Z</time>
      </trkpt>
      <trkpt lat="42.99593" lon="0.66805">
        <ele>581</ele>
        <time>2024-08-03T16:49:11Z</time>
      </trkpt>
      <trkpt lat="42.99533" lon="0.66853">
        <ele>586</ele>
        <time>2024-08-03T16:49:23Z</time>
      </trkpt>
      <trkpt lat="42.99511" lon="0.66886">
        <ele>584</ele>
        <time>2024-08-03T16:49:29Z</time>
      </trkpt>
      <trkpt lat="42.99494" lon="0.66904">
        <ele>583</ele>
        <time>2024-08-03T16:49:33Z</time>
      </trkpt>
      <trkpt lat="42.99463" lon="0.66923">
        <ele>587</ele>
        <time>2024-08-03T16:49:39Z</time>
      </trkpt>
      <trkpt lat="42.99438" lon="0.66945">
        <ele>589</ele>
        <time>2024-08-03T16:49:44Z</time>
      </trkpt>
      <trkpt lat="42.99428" lon="0.66964">
        <ele>588</ele>
        <time>2024-08-03T16:49:47Z</time>
      </trkpt>
      <trkpt lat="42.99422" lon="0.66995">
        <ele>583</ele>
        <time>2024-08-03T16:49:51Z</time>
      </trkpt>
      <trkpt lat="42.9941" lon="0.67024">
        <ele>585</ele>
        <time>2024-08-03T16:49:56Z</time>
      </trkpt>
      <trkpt lat="42.99402" lon="0.67049">
        <ele>588</ele>
        <time>2024-08-03T16:49:59Z</time>
      </trkpt>
      <trkpt lat="42.99386" lon="0.67119">
        <ele>591</ele>
        <time>2024-08-03T16:50:09Z</time>
      </trkpt>
      <trkpt lat="42.99372" lon="0.67158">
        <ele>593</ele>
        <time>2024-08-03T16:50:14Z</time>
      </trkpt>
      <trkpt lat="42.99333" lon="0.67241">
        <ele>595</ele>
        <time>2024-08-03T16:50:27Z</time>
      </trkpt>
      <trkpt lat="42.99302" lon="0.6729">
        <ele>599</ele>
        <time>2024-08-03T16:50:36Z</time>
      </trkpt>
      <trkpt lat="42.99248" lon="0.67349">
        <ele>608</ele>
        <time>2024-08-03T16:50:48Z</time>
      </trkpt>
      <trkpt lat="42.99217" lon="0.6738">
        <ele>614</ele>
        <time>2024-08-03T16:50:55Z</time>
      </trkpt>
      <trkpt lat="42.99185" lon="0.67418">
        <ele>615</ele>
        <time>2024-08-03T16:51:02Z</time>
      </trkpt>
      <trkpt lat="42.99158" lon="0.67431">
        <ele>618</ele>
        <time>2024-08-03T16:51:07Z</time>
      </trkpt>
      <trkpt lat="42.9905" lon="0.67405">
        <ele>610</ele>
        <time>2024-08-03T16:51:27Z</time>
      </trkpt>
      <trkpt lat="42.98987" lon="0.67287">
        <ele>617</ele>
        <time>2024-08-03T16:51:46Z</time>
      </trkpt>
      <trkpt lat="42.98961" lon="0.67246">
        <ele>619</ele>
        <time>2024-08-03T16:51:53Z</time>
      </trkpt>
      <trkpt lat="42.98938" lon="0.67216">
        <ele>621</ele>
        <time>2024-08-03T16:51:59Z</time>
      </trkpt>
      <trkpt lat="42.9892" lon="0.67201">
        <ele>621</ele>
        <time>2024-08-03T16:52:02Z</time>
      </trkpt>
      <trkpt lat="42.98903" lon="0.67204">
        <ele>618</ele>
        <time>2024-08-03T16:52:05Z</time>
      </trkpt>
      <trkpt lat="42.98886" lon="0.67201">
        <ele>617</ele>
        <time>2024-08-03T16:52:08Z</time>
      </trkpt>
      <trkpt lat="42.98858" lon="0.67203">
        <ele>614</ele>
        <time>2024-08-03T16:52:13Z</time>
      </trkpt>
      <trkpt lat="42.98794" lon="0.67212">
        <ele>610</ele>
        <time>2024-08-03T16:52:25Z</time>
      </trkpt>
      <trkpt lat="42.98705" lon="0.67236">
        <ele>606</ele>
        <time>2024-08-03T16:52:41Z</time>
      </trkpt>
      <trkpt lat="42.9865" lon="0.67246">
        <ele>603</ele>
        <time>2024-08-03T16:52:51Z</time>
      </trkpt>
      <trkpt lat="42.9861" lon="0.67246">
        <ele>602</ele>
        <time>2024-08-03T16:52:58Z</time>
      </trkpt>
      <trkpt lat="42.98564" lon="0.67237">
        <ele>601</ele>
        <time>2024-08-03T16:53:06Z</time>
      </trkpt>
      <trkpt lat="42.98505" lon="0.67213">
        <ele>602</ele>
        <time>2024-08-03T16:53:17Z</time>
      </trkpt>
      <trkpt lat="42.98467" lon="0.67189">
        <ele>600</ele>
        <time>2024-08-03T16:53:25Z</time>
      </trkpt>
      <trkpt lat="42.98446" lon="0.67153">
        <ele>600</ele>
        <time>2024-08-03T16:53:31Z</time>
      </trkpt>
      <trkpt lat="42.98426" lon="0.67129">
        <ele>600</ele>
        <time>2024-08-03T16:53:35Z</time>
      </trkpt>
      <trkpt lat="42.98389" lon="0.67088">
        <ele>600</ele>
        <time>2024-08-03T16:53:44Z</time>
      </trkpt>
      <trkpt lat="42.98367" lon="0.6707">
        <ele>598</ele>
        <time>2024-08-03T16:53:48Z</time>
      </trkpt>
      <trkpt lat="42.98352" lon="0.67047">
        <ele>598</ele>
        <time>2024-08-03T16:53:52Z</time>
      </trkpt>
      <trkpt lat="42.98332" lon="0.66989">
        <ele>599</ele>
        <time>2024-08-03T16:54:01Z</time>
      </trkpt>
      <trkpt lat="42.98324" lon="0.66961">
        <ele>597</ele>
        <time>2024-08-03T16:54:05Z</time>
      </trkpt>
      <trkpt lat="42.98317" lon="0.66944">
        <ele>596</ele>
        <time>2024-08-03T16:54:07Z</time>
      </trkpt>
      <trkpt lat="42.98306" lon="0.66931">
        <ele>594</ele>
        <time>2024-08-03T16:54:10Z</time>
      </trkpt>
      <trkpt lat="42.9826" lon="0.66904">
        <ele>587</ele>
        <time>2024-08-03T16:54:19Z</time>
      </trkpt>
      <trkpt lat="42.98217" lon="0.66884">
        <ele>585</ele>
        <time>2024-08-03T16:54:27Z</time>
      </trkpt>
      <trkpt lat="42.98193" lon="0.66869">
        <ele>585</ele>
        <time>2024-08-03T16:54:31Z</time>
      </trkpt>
      <trkpt lat="42.98172" lon="0.66849">
        <ele>585</ele>
        <time>2024-08-03T16:54:36Z</time>
      </trkpt>
      <trkpt lat="42.98157" lon="0.66828">
        <ele>585</ele>
        <time>2024-08-03T16:54:40Z</time>
      </trkpt>
      <trkpt lat="42.98133" lon="0.66759">
        <ele>583</ele>
        <time>2024-08-03T16:54:50Z</time>
      </trkpt>
      <trkpt lat="42.98091" lon="0.66654">
        <ele>578</ele>
        <time>2024-08-03T16:55:05Z</time>
      </trkpt>
      <trkpt lat="42.9806" lon="0.66592">
        <ele>581</ele>
        <time>2024-08-03T16:55:15Z</time>
      </trkpt>
      <trkpt lat="42.98017" lon="0.66495">
        <ele>588</ele>
        <time>2024-08-03T16:55:30Z</time>
      </trkpt>
      <trkpt lat="42.97988" lon="0.66421">
        <ele>588</ele>
        <time>2024-08-03T16:55:41Z</time>
      </trkpt>
      <trkpt lat="42.97958" lon="0.66353">
        <ele>585</ele>
        <time>2024-08-03T16:55:51Z</time>
      </trkpt>
      <trkpt lat="42.97947" lon="0.66312">
        <ele>583</ele>
        <time>2024-08-03T16:55:57Z</time>
      </trkpt>
      <trkpt lat="42.97925" lon="0.66266">
        <ele>582</ele>
        <time>2024-08-03T16:56:04Z</time>
      </trkpt>
      <trkpt lat="42.9789" lon="0.66229">
        <ele>582</ele>
        <time>2024-08-03T16:56:12Z</time>
      </trkpt>
      <trkpt lat="42.97761" lon="0.66112">
        <ele>581</ele>
        <time>2024-08-03T16:56:39Z</time>
      </trkpt>
      <trkpt lat="42.97755" lon="0.66095">
        <ele>580</ele>
        <time>2024-08-03T16:56:42Z</time>
      </trkpt>
      <trkpt lat="42.97755" lon="0.66095">
        <ele>580</ele>
        <time>2024-08-03T16:56:42Z</time>
      </trkpt>
      <trkpt lat="42.97763" lon="0.66123">
        <ele>581</ele>
        <time>2024-08-03T16:56:46Z</time>
      </trkpt>
      <trkpt lat="42.97755" lon="0.66172">
        <ele>581</ele>
        <time>2024-08-03T16:56:52Z</time>
      </trkpt>
      <trkpt lat="42.97703" lon="0.66325">
        <ele>591</ele>
        <time>2024-08-03T16:57:14Z</time>
      </trkpt>
      <trkpt lat="42.97647" lon="0.66461">
        <ele>598</ele>
        <time>2024-08-03T16:57:35Z</time>
      </trkpt>
      <trkpt lat="42.97622" lon="0.66515">
        <ele>599</ele>
        <time>2024-08-03T16:57:43Z</time>
      </trkpt>
      <trkpt lat="42.97606" lon="0.66538">
        <ele>599</ele>
        <time>2024-08-03T16:57:47Z</time>
      </trkpt>
      <trkpt lat="42.97421" lon="0.66688">
        <ele>598</ele>
        <time>2024-08-03T16:58:25Z</time>
      </trkpt>
      <trkpt lat="42.97366" lon="0.66738">
        <ele>600</ele>
        <time>2024-08-03T16:58:37Z</time>
      </trkpt>
      <trkpt lat="42.97269" lon="0.66821">
        <ele>607</ele>
        <time>2024-08-03T16:58:57Z</time>
      </trkpt>
      <trkpt lat="42.97261" lon="0.66826">
        <ele>608</ele>
        <time>2024-08-03T16:58:59Z</time>
      </trkpt>
      <trkpt lat="42.97242" lon="0.6683">
        <ele>611</ele>
        <time>2024-08-03T16:59:02Z</time>
      </trkpt>
      <trkpt lat="42.97233" lon="0.66828">
        <ele>614</ele>
        <time>2024-08-03T16:59:04Z</time>
      </trkpt>
      <trkpt lat="42.97214" lon="0.66814">
        <ele>619</ele>
        <time>2024-08-03T16:59:08Z</time>
      </trkpt>
      <trkpt lat="42.97137" lon="0.66683">
        <ele>616</ele>
        <time>2024-08-03T16:59:30Z</time>
      </trkpt>
      <trkpt lat="42.97091" lon="0.6662">
        <ele>609</ele>
        <time>2024-08-03T16:59:41Z</time>
      </trkpt>
      <trkpt lat="42.97076" lon="0.66613">
        <ele>609</ele>
        <time>2024-08-03T16:59:44Z</time>
      </trkpt>
      <trkpt lat="42.97061" lon="0.66618">
        <ele>612</ele>
        <time>2024-08-03T16:59:47Z</time>
      </trkpt>
      <trkpt lat="42.97051" lon="0.66634">
        <ele>618</ele>
        <time>2024-08-03T16:59:50Z</time>
      </trkpt>
      <trkpt lat="42.97049" lon="0.66651">
        <ele>622</ele>
        <time>2024-08-03T16:59:52Z</time>
      </trkpt>
      <trkpt lat="42.97059" lon="0.6667">
        <ele>626</ele>
        <time>2024-08-03T16:59:55Z</time>
      </trkpt>
      <trkpt lat="42.97081" lon="0.66694">
        <ele>629</ele>
        <time>2024-08-03T17:00:00Z</time>
      </trkpt>
      <trkpt lat="42.97159" lon="0.6677">
        <ele>628</ele>
        <time>2024-08-03T17:00:17Z</time>
      </trkpt>
      <trkpt lat="42.97172" lon="0.66804">
        <ele>630</ele>
        <time>2024-08-03T17:00:22Z</time>
      </trkpt>
      <trkpt lat="42.97177" lon="0.66845">
        <ele>636</ele>
        <time>2024-08-03T17:00:27Z</time>
      </trkpt>
      <trkpt lat="42.97175" lon="0.66882">
        <ele>643</ele>
        <time>2024-08-03T17:00:32Z</time>
      </trkpt>
      <trkpt lat="42.97179" lon="0.66902">
        <ele>645</ele>
        <time>2024-08-03T17:00:35Z</time>
      </trkpt>
      <trkpt lat="42.97204" lon="0.66936">
        <ele>643</ele>
        <time>2024-08-03T17:00:41Z</time>
      </trkpt>
      <trkpt lat="42.9723" lon="0.66966">
        <ele>641</ele>
        <time>2024-08-03T17:00:47Z</time>
      </trkpt>
      <trkpt lat="42.97243" lon="0.66993">
        <ele>643</ele>
        <time>2024-08-03T17:00:51Z</time>
      </trkpt>
      <trkpt lat="42.97245" lon="0.67022">
        <ele>651</ele>
        <time>2024-08-03T17:00:55Z</time>
      </trkpt>
      <trkpt lat="42.97252" lon="0.67032">
        <ele>653</ele>
        <time>2024-08-03T17:00:57Z</time>
      </trkpt>
      <trkpt lat="42.97348" lon="0.67071">
        <ele>652</ele>
        <time>2024-08-03T17:01:15Z</time>
      </trkpt>
      <trkpt lat="42.97418" lon="0.67073">
        <ele>653</ele>
        <time>2024-08-03T17:01:27Z</time>
      </trkpt>
      <trkpt lat="42.97437" lon="0.67081">
        <ele>655</ele>
        <time>2024-08-03T17:01:31Z</time>
      </trkpt>
      <trkpt lat="42.97496" lon="0.67117">
        <ele>662</ele>
        <time>2024-08-03T17:01:42Z</time>
      </trkpt>
      <trkpt lat="42.97528" lon="0.67128">
        <ele>661</ele>
        <time>2024-08-03T17:01:48Z</time>
      </trkpt>
      <trkpt lat="42.97545" lon="0.67139">
        <ele>662</ele>
        <time>2024-08-03T17:01:52Z</time>
      </trkpt>
      <trkpt lat="42.97639" lon="0.67216">
        <ele>676</ele>
        <time>2024-08-03T17:02:11Z</time>
      </trkpt>
      <trkpt lat="42.97657" lon="0.67217">
        <ele>677</ele>
        <time>2024-08-03T17:02:14Z</time>
      </trkpt>
      <trkpt lat="42.97682" lon="0.6721">
        <ele>675</ele>
        <time>2024-08-03T17:02:19Z</time>
      </trkpt>
      <trkpt lat="42.97719" lon="0.67208">
        <ele>675</ele>
        <time>2024-08-03T17:02:25Z</time>
      </trkpt>
      <trkpt lat="42.9775" lon="0.67222">
        <ele>679</ele>
        <time>2024-08-03T17:02:31Z</time>
      </trkpt>
      <trkpt lat="42.97829" lon="0.67307">
        <ele>687</ele>
        <time>2024-08-03T17:02:49Z</time>
      </trkpt>
      <trkpt lat="42.97963" lon="0.67526">
        <ele>705</ele>
        <time>2024-08-03T17:03:26Z</time>
      </trkpt>
      <trkpt lat="42.98007" lon="0.67588">
        <ele>706</ele>
        <time>2024-08-03T17:03:38Z</time>
      </trkpt>
      <trkpt lat="42.98059" lon="0.67643">
        <ele>707</ele>
        <time>2024-08-03T17:03:49Z</time>
      </trkpt>
      <trkpt lat="42.98181" lon="0.67731">
        <ele>703</ele>
        <time>2024-08-03T17:04:14Z</time>
      </trkpt>
      <trkpt lat="42.98205" lon="0.67766">
        <ele>705</ele>
        <time>2024-08-03T17:04:20Z</time>
      </trkpt>
      <trkpt lat="42.98214" lon="0.67817">
        <ele>711</ele>
        <time>2024-08-03T17:04:27Z</time>
      </trkpt>
      <trkpt lat="42.98217" lon="0.67895">
        <ele>723</ele>
        <time>2024-08-03T17:04:37Z</time>
      </trkpt>
      <trkpt lat="42.98225" lon="0.67939">
        <ele>730</ele>
        <time>2024-08-03T17:04:43Z</time>
      </trkpt>
      <trkpt lat="42.98236" lon="0.67966">
        <ele>732</ele>
        <time>2024-08-03T17:04:47Z</time>
      </trkpt>
      <trkpt lat="42.9825" lon="0.6798">
        <ele>730</ele>
        <time>2024-08-03T17:04:50Z</time>
      </trkpt>
      <trkpt lat="42.98285" lon="0.67987">
        <ele>728</ele>
        <time>2024-08-03T17:04:56Z</time>
      </trkpt>
      <trkpt lat="42.98313" lon="0.67986">
        <ele>724</ele>
        <time>2024-08-03T17:05:01Z</time>
      </trkpt>
      <trkpt lat="42.9839" lon="0.68023">
        <ele>725</ele>
        <time>2024-08-03T17:05:16Z</time>
      </trkpt>
      <trkpt lat="42.9842" lon="0.68047">
        <ele>730</ele>
        <time>2024-08-03T17:05:22Z</time>
      </trkpt>
      <trkpt lat="42.98448" lon="0.68077">
        <ele>730</ele>
        <time>2024-08-03T17:05:28Z</time>
      </trkpt>
      <trkpt lat="42.98486" lon="0.6813">
        <ele>733</ele>
        <time>2024-08-03T17:05:38Z</time>
      </trkpt>
      <trkpt lat="42.98528" lon="0.68226">
        <ele>738</ele>
        <time>2024-08-03T17:05:53Z</time>
      </trkpt>
      <trkpt lat="42.98548" lon="0.68317">
        <ele>741</ele>
        <time>2024-08-03T17:06:05Z</time>
      </trkpt>
      <trkpt lat="42.98547" lon="0.68341">
        <ele>744</ele>
        <time>2024-08-03T17:06:08Z</time>
      </trkpt>
      <trkpt lat="42.98542" lon="0.68366">
        <ele>750</ele>
        <time>2024-08-03T17:06:11Z</time>
      </trkpt>
      <trkpt lat="42.98542" lon="0.68385">
        <ele>753</ele>
        <time>2024-08-03T17:06:14Z</time>
      </trkpt>
      <trkpt lat="42.98549" lon="0.68405">
        <ele>753</ele>
        <time>2024-08-03T17:06:17Z</time>
      </trkpt>
      <trkpt lat="42.98604" lon="0.68466">
        <ele>755</ele>
        <time>2024-08-03T17:06:29Z</time>
      </trkpt>
      <trkpt lat="42.98637" lon="0.68495">
        <ele>752</ele>
        <time>2024-08-03T17:06:36Z</time>
      </trkpt>
      <trkpt lat="42.98653" lon="0.68514">
        <ele>752</ele>
        <time>2024-08-03T17:06:40Z</time>
      </trkpt>
      <trkpt lat="42.98687" lon="0.68576">
        <ele>760</ele>
        <time>2024-08-03T17:06:50Z</time>
      </trkpt>
      <trkpt lat="42.98698" lon="0.68601">
        <ele>762</ele>
        <time>2024-08-03T17:06:54Z</time>
      </trkpt>
      <trkpt lat="42.98706" lon="0.68627">
        <ele>764</ele>
        <time>2024-08-03T17:06:58Z</time>
      </trkpt>
      <trkpt lat="42.98734" lon="0.68763">
        <ele>770</ele>
        <time>2024-08-03T17:07:16Z</time>
      </trkpt>
      <trkpt lat="42.98737" lon="0.68801">
        <ele>769</ele>
        <time>2024-08-03T17:07:21Z</time>
      </trkpt>
      <trkpt lat="42.98735" lon="0.68829">
        <ele>771</ele>
        <time>2024-08-03T17:07:25Z</time>
      </trkpt>
      <trkpt lat="42.98724" lon="0.68874">
        <ele>780</ele>
        <time>2024-08-03T17:07:31Z</time>
      </trkpt>
      <trkpt lat="42.98728" lon="0.689">
        <ele>781</ele>
        <time>2024-08-03T17:07:34Z</time>
      </trkpt>
      <trkpt lat="42.98741" lon="0.68918">
        <ele>778</ele>
        <time>2024-08-03T17:07:38Z</time>
      </trkpt>
      <trkpt lat="42.98761" lon="0.68928">
        <ele>776</ele>
        <time>2024-08-03T17:07:41Z</time>
      </trkpt>
      <trkpt lat="42.98803" lon="0.68935">
        <ele>771</ele>
        <time>2024-08-03T17:07:49Z</time>
      </trkpt>
      <trkpt lat="42.98822" lon="0.68949">
        <ele>772</ele>
        <time>2024-08-03T17:07:53Z</time>
      </trkpt>
      <trkpt lat="42.98835" lon="0.68972">
        <ele>775</ele>
        <time>2024-08-03T17:07:57Z</time>
      </trkpt>
      <trkpt lat="42.98881" lon="0.69095">
        <ele>782</ele>
        <time>2024-08-03T17:08:15Z</time>
      </trkpt>
      <trkpt lat="42.98892" lon="0.69159">
        <ele>785</ele>
        <time>2024-08-03T17:08:23Z</time>
      </trkpt>
      <trkpt lat="42.98875" lon="0.69219">
        <ele>793</ele>
        <time>2024-08-03T17:08:32Z</time>
      </trkpt>
      <trkpt lat="42.9888" lon="0.69256">
        <ele>795</ele>
        <time>2024-08-03T17:08:36Z</time>
      </trkpt>
      <trkpt lat="42.98929" lon="0.69345">
        <ele>802</ele>
        <time>2024-08-03T17:08:51Z</time>
      </trkpt>
      <trkpt lat="42.98944" lon="0.69352">
        <ele>804</ele>
        <time>2024-08-03T17:08:54Z</time>
      </trkpt>
      <trkpt lat="42.98989" lon="0.69352">
        <ele>806</ele>
        <time>2024-08-03T17:09:02Z</time>
      </trkpt>
      <trkpt lat="42.99013" lon="0.6933">
        <ele>803</ele>
        <time>2024-08-03T17:09:07Z</time>
      </trkpt>
      <trkpt lat="42.99033" lon="0.69327">
        <ele>804</ele>
        <time>2024-08-03T17:09:10Z</time>
      </trkpt>
      <trkpt lat="42.9906" lon="0.69338">
        <ele>808</ele>
        <time>2024-08-03T17:09:15Z</time>
      </trkpt>
      <trkpt lat="42.99093" lon="0.69375">
        <ele>811</ele>
        <time>2024-08-03T17:09:23Z</time>
      </trkpt>
      <trkpt lat="42.991" lon="0.69396">
        <ele>810</ele>
        <time>2024-08-03T17:09:26Z</time>
      </trkpt>
      <trkpt lat="42.99106" lon="0.69434">
        <ele>809</ele>
        <time>2024-08-03T17:09:31Z</time>
      </trkpt>
      <trkpt lat="42.99109" lon="0.6949">
        <ele>808</ele>
        <time>2024-08-03T17:09:38Z</time>
      </trkpt>
      <trkpt lat="42.99129" lon="0.69564">
        <ele>809</ele>
        <time>2024-08-03T17:09:49Z</time>
      </trkpt>
      <trkpt lat="42.99134" lon="0.69598">
        <ele>809</ele>
        <time>2024-08-03T17:09:53Z</time>
      </trkpt>
      <trkpt lat="42.99147" lon="0.69833">
        <ele>800</ele>
        <time>2024-08-03T17:10:24Z</time>
      </trkpt>
      <trkpt lat="42.99152" lon="0.69867">
        <ele>797</ele>
        <time>2024-08-03T17:10:28Z</time>
      </trkpt>
      <trkpt lat="42.99154" lon="0.69892">
        <ele>795</ele>
        <time>2024-08-03T17:10:32Z</time>
      </trkpt>
      <trkpt lat="42.99141" lon="0.69936">
        <ele>796</ele>
        <time>2024-08-03T17:10:38Z</time>
      </trkpt>
      <trkpt lat="42.99141" lon="0.69968">
        <ele>794</ele>
        <time>2024-08-03T17:10:42Z</time>
      </trkpt>
      <trkpt lat="42.99144" lon="0.70013">
        <ele>790</ele>
        <time>2024-08-03T17:10:48Z</time>
      </trkpt>
      <trkpt lat="42.99153" lon="0.70101">
        <ele>781</ele>
        <time>2024-08-03T17:10:59Z</time>
      </trkpt>
      <trkpt lat="42.99161" lon="0.70205">
        <ele>769</ele>
        <time>2024-08-03T17:11:13Z</time>
      </trkpt>
      <trkpt lat="42.9916" lon="0.70233">
        <ele>766</ele>
        <time>2024-08-03T17:11:17Z</time>
      </trkpt>
      <trkpt lat="42.99156" lon="0.70255">
        <ele>765</ele>
        <time>2024-08-03T17:11:20Z</time>
      </trkpt>
      <trkpt lat="42.99147" lon="0.70269">
        <ele>765</ele>
        <time>2024-08-03T17:11:22Z</time>
      </trkpt>
      <trkpt lat="42.99099" lon="0.70309">
        <ele>775</ele>
        <time>2024-08-03T17:11:32Z</time>
      </trkpt>
      <trkpt lat="42.99085" lon="0.70328">
        <ele>776</ele>
        <time>2024-08-03T17:11:36Z</time>
      </trkpt>
      <trkpt lat="42.99082" lon="0.70335">
        <ele>776</ele>
        <time>2024-08-03T17:11:37Z</time>
      </trkpt>
      <trkpt lat="42.9908" lon="0.70348">
        <ele>775</ele>
        <time>2024-08-03T17:11:38Z</time>
      </trkpt>
      <trkpt lat="42.99082" lon="0.7037">
        <ele>771</ele>
        <time>2024-08-03T17:11:41Z</time>
      </trkpt>
      <trkpt lat="42.99081" lon="0.70415">
        <ele>765</ele>
        <time>2024-08-03T17:11:47Z</time>
      </trkpt>
      <trkpt lat="42.99076" lon="0.70429">
        <ele>766</ele>
        <time>2024-08-03T17:11:49Z</time>
      </trkpt>
      <trkpt lat="42.99058" lon="0.70457">
        <ele>770</ele>
        <time>2024-08-03T17:11:54Z</time>
      </trkpt>
      <trkpt lat="42.99045" lon="0.70481">
        <ele>773</ele>
        <time>2024-08-03T17:11:58Z</time>
      </trkpt>
      <trkpt lat="42.9904" lon="0.70508">
        <ele>772</ele>
        <time>2024-08-03T17:12:02Z</time>
      </trkpt>
      <trkpt lat="42.99038" lon="0.70536">
        <ele>769</ele>
        <time>2024-08-03T17:12:05Z</time>
      </trkpt>
      <trkpt lat="42.9904" lon="0.70587">
        <ele>762</ele>
        <time>2024-08-03T17:12:12Z</time>
      </trkpt>
      <trkpt lat="42.99038" lon="0.70612">
        <ele>760</ele>
        <time>2024-08-03T17:12:15Z</time>
      </trkpt>
      <trkpt lat="42.99017" lon="0.70698">
        <ele>761</ele>
        <time>2024-08-03T17:12:27Z</time>
      </trkpt>
      <trkpt lat="42.99004" lon="0.70741">
        <ele>758</ele>
        <time>2024-08-03T17:12:33Z</time>
      </trkpt>
      <trkpt lat="42.9899" lon="0.70772">
        <ele>756</ele>
        <time>2024-08-03T17:12:38Z</time>
      </trkpt>
      <trkpt lat="42.9897" lon="0.70797">
        <ele>758</ele>
        <time>2024-08-03T17:12:43Z</time>
      </trkpt>
      <trkpt lat="42.98952" lon="0.70824">
        <ele>759</ele>
        <time>2024-08-03T17:12:47Z</time>
      </trkpt>
      <trkpt lat="42.98942" lon="0.70844">
        <ele>758</ele>
        <time>2024-08-03T17:12:50Z</time>
      </trkpt>
      <trkpt lat="42.98929" lon="0.70885">
        <ele>754</ele>
        <time>2024-08-03T17:12:56Z</time>
      </trkpt>
      <trkpt lat="42.98925" lon="0.70927">
        <ele>748</ele>
        <time>2024-08-03T17:13:02Z</time>
      </trkpt>
      <trkpt lat="42.98926" lon="0.70949">
        <ele>746</ele>
        <time>2024-08-03T17:13:05Z</time>
      </trkpt>
      <trkpt lat="42.98932" lon="0.71">
        <ele>740</ele>
        <time>2024-08-03T17:13:11Z</time>
      </trkpt>
      <trkpt lat="42.98935" lon="0.7108">
        <ele>735</ele>
        <time>2024-08-03T17:13:22Z</time>
      </trkpt>
      <trkpt lat="42.98929" lon="0.71139">
        <ele>729</ele>
        <time>2024-08-03T17:13:30Z</time>
      </trkpt>
      <trkpt lat="42.9892" lon="0.71178">
        <ele>728</ele>
        <time>2024-08-03T17:13:35Z</time>
      </trkpt>
      <trkpt lat="42.98901" lon="0.7123">
        <ele>725</ele>
        <time>2024-08-03T17:13:42Z</time>
      </trkpt>
      <trkpt lat="42.9888" lon="0.71266">
        <ele>724</ele>
        <time>2024-08-03T17:13:48Z</time>
      </trkpt>
      <trkpt lat="42.98856" lon="0.71285">
        <ele>725</ele>
        <time>2024-08-03T17:13:53Z</time>
      </trkpt>
      <trkpt lat="42.98837" lon="0.71287">
        <ele>728</ele>
        <time>2024-08-03T17:13:57Z</time>
      </trkpt>
      <trkpt lat="42.98786" lon="0.71279">
        <ele>727</ele>
        <time>2024-08-03T17:14:06Z</time>
      </trkpt>
      <trkpt lat="42.98763" lon="0.7128">
        <ele>726</ele>
        <time>2024-08-03T17:14:10Z</time>
      </trkpt>
      <trkpt lat="42.98725" lon="0.7129">
        <ele>721</ele>
        <time>2024-08-03T17:14:17Z</time>
      </trkpt>
      <trkpt lat="42.98659" lon="0.71293">
        <ele>712</ele>
        <time>2024-08-03T17:14:29Z</time>
      </trkpt>
      <trkpt lat="42.98631" lon="0.71287">
        <ele>708</ele>
        <time>2024-08-03T17:14:34Z</time>
      </trkpt>
      <trkpt lat="42.98606" lon="0.71273">
        <ele>707</ele>
        <time>2024-08-03T17:14:38Z</time>
      </trkpt>
      <trkpt lat="42.98509" lon="0.71214">
        <ele>702</ele>
        <time>2024-08-03T17:14:57Z</time>
      </trkpt>
      <trkpt lat="42.98476" lon="0.71177">
        <ele>701</ele>
        <time>2024-08-03T17:15:05Z</time>
      </trkpt>
      <trkpt lat="42.98442" lon="0.71128">
        <ele>701</ele>
        <time>2024-08-03T17:15:14Z</time>
      </trkpt>
      <trkpt lat="42.98384" lon="0.71056">
        <ele>699</ele>
        <time>2024-08-03T17:15:28Z</time>
      </trkpt>
      <trkpt lat="42.98358" lon="0.71055">
        <ele>691</ele>
        <time>2024-08-03T17:15:32Z</time>
      </trkpt>
      <trkpt lat="42.9834" lon="0.71046">
        <ele>686</ele>
        <time>2024-08-03T17:15:36Z</time>
      </trkpt>
      <trkpt lat="42.98332" lon="0.71015">
        <ele>687</ele>
        <time>2024-08-03T17:15:40Z</time>
      </trkpt>
      <trkpt lat="42.98317" lon="0.70921">
        <ele>690</ele>
        <time>2024-08-03T17:15:53Z</time>
      </trkpt>
      <trkpt lat="42.9829" lon="0.70885">
        <ele>687</ele>
        <time>2024-08-03T17:15:59Z</time>
      </trkpt>
      <trkpt lat="42.98241" lon="0.70843">
        <ele>675</ele>
        <time>2024-08-03T17:16:10Z</time>
      </trkpt>
      <trkpt lat="42.9823" lon="0.70826">
        <ele>673</ele>
        <time>2024-08-03T17:16:12Z</time>
      </trkpt>
      <trkpt lat="42.98224" lon="0.70803">
        <ele>673</ele>
        <time>2024-08-03T17:16:16Z</time>
      </trkpt>
      <trkpt lat="42.98218" lon="0.70763">
        <ele>674</ele>
        <time>2024-08-03T17:16:21Z</time>
      </trkpt>
      <trkpt lat="42.98212" lon="0.70682">
        <ele>684</ele>
        <time>2024-08-03T17:16:32Z</time>
      </trkpt>
      <trkpt lat="42.98206" lon="0.70667">
        <ele>684</ele>
        <time>2024-08-03T17:16:34Z</time>
      </trkpt>
      <trkpt lat="42.98193" lon="0.70652">
        <ele>683</ele>
        <time>2024-08-03T17:16:37Z</time>
      </trkpt>
      <trkpt lat="42.98142" lon="0.7064">
        <ele>665</ele>
        <time>2024-08-03T17:16:46Z</time>
      </trkpt>
      <trkpt lat="42.98131" lon="0.70627">
        <ele>663</ele>
        <time>2024-08-03T17:16:49Z</time>
      </trkpt>
      <trkpt lat="42.98115" lon="0.7058">
        <ele>666</ele>
        <time>2024-08-03T17:16:55Z</time>
      </trkpt>
      <trkpt lat="42.98103" lon="0.70535">
        <ele>662</ele>
        <time>2024-08-03T17:17:02Z</time>
      </trkpt>
      <trkpt lat="42.98097" lon="0.7049">
        <ele>661</ele>
        <time>2024-08-03T17:17:08Z</time>
      </trkpt>
      <trkpt lat="42.98086" lon="0.70436">
        <ele>659</ele>
        <time>2024-08-03T17:17:15Z</time>
      </trkpt>
      <trkpt lat="42.9806" lon="0.70345">
        <ele>659</ele>
        <time>2024-08-03T17:17:28Z</time>
      </trkpt>
      <trkpt lat="42.98038" lon="0.70283">
        <ele>657</ele>
        <time>2024-08-03T17:17:37Z</time>
      </trkpt>
      <trkpt lat="42.98012" lon="0.70219">
        <ele>652</ele>
        <time>2024-08-03T17:17:46Z</time>
      </trkpt>
      <trkpt lat="42.98005" lon="0.70212">
        <ele>649</ele>
        <time>2024-08-03T17:17:48Z</time>
      </trkpt>
      <trkpt lat="42.97997" lon="0.70212">
        <ele>645</ele>
        <time>2024-08-03T17:17:49Z</time>
      </trkpt>
      <trkpt lat="42.97991" lon="0.70217">
        <ele>642</ele>
        <time>2024-08-03T17:17:50Z</time>
      </trkpt>
      <trkpt lat="42.97987" lon="0.70225">
        <ele>639</ele>
        <time>2024-08-03T17:17:52Z</time>
      </trkpt>
      <trkpt lat="42.97987" lon="0.70239">
        <ele>637</ele>
        <time>2024-08-03T17:17:53Z</time>
      </trkpt>
      <trkpt lat="42.97992" lon="0.70254">
        <ele>637</ele>
        <time>2024-08-03T17:17:56Z</time>
      </trkpt>
      <trkpt lat="42.98006" lon="0.70265">
        <ele>642</ele>
        <time>2024-08-03T17:17:58Z</time>
      </trkpt>
      <trkpt lat="42.98015" lon="0.70276">
        <ele>646</ele>
        <time>2024-08-03T17:18:01Z</time>
      </trkpt>
      <trkpt lat="42.9802" lon="0.70292">
        <ele>647</ele>
        <time>2024-08-03T17:18:03Z</time>
      </trkpt>
      <trkpt lat="42.98023" lon="0.70313">
        <ele>646</ele>
        <time>2024-08-03T17:18:06Z</time>
      </trkpt>
      <trkpt lat="42.98027" lon="0.70401">
        <ele>641</ele>
        <time>2024-08-03T17:18:17Z</time>
      </trkpt>
      <trkpt lat="42.9803" lon="0.70418">
        <ele>640</ele>
        <time>2024-08-03T17:18:19Z</time>
      </trkpt>
      <trkpt lat="42.9804" lon="0.70441">
        <ele>641</ele>
        <time>2024-08-03T17:18:23Z</time>
      </trkpt>
      <trkpt lat="42.98046" lon="0.70461">
        <ele>641</ele>
        <time>2024-08-03T17:18:26Z</time>
      </trkpt>
      <trkpt lat="42.98047" lon="0.70481">
        <ele>640</ele>
        <time>2024-08-03T17:18:28Z</time>
      </trkpt>
      <trkpt lat="42.98046" lon="0.70528">
        <ele>635</ele>
        <time>2024-08-03T17:18:34Z</time>
      </trkpt>
      <trkpt lat="42.98065" lon="0.70622">
        <ele>634</ele>
        <time>2024-08-03T17:18:47Z</time>
      </trkpt>
      <trkpt lat="42.98066" lon="0.70646">
        <ele>630</ele>
        <time>2024-08-03T17:18:50Z</time>
      </trkpt>
      <trkpt lat="42.98066" lon="0.70692">
        <ele>623</ele>
        <time>2024-08-03T17:18:56Z</time>
      </trkpt>
      <trkpt lat="42.9807" lon="0.70716">
        <ele>621</ele>
        <time>2024-08-03T17:18:59Z</time>
      </trkpt>
      <trkpt lat="42.98079" lon="0.70734">
        <ele>623</ele>
        <time>2024-08-03T17:19:02Z</time>
      </trkpt>
      <trkpt lat="42.98109" lon="0.70747">
        <ele>633</ele>
        <time>2024-08-03T17:19:08Z</time>
      </trkpt>
      <trkpt lat="42.98118" lon="0.70754">
        <ele>635</ele>
        <time>2024-08-03T17:19:10Z</time>
      </trkpt>
      <trkpt lat="42.98122" lon="0.70766">
        <ele>635</ele>
        <time>2024-08-03T17:19:11Z</time>
      </trkpt>
      <trkpt lat="42.98123" lon="0.70778">
        <ele>634</ele>
        <time>2024-08-03T17:19:13Z</time>
      </trkpt>
      <trkpt lat="42.98111" lon="0.7083">
        <ele>622</ele>
        <time>2024-08-03T17:19:20Z</time>
      </trkpt>
      <trkpt lat="42.9811" lon="0.70853">
        <ele>619</ele>
        <time>2024-08-03T17:19:23Z</time>
      </trkpt>
      <trkpt lat="42.98111" lon="0.70874">
        <ele>616</ele>
        <time>2024-08-03T17:19:26Z</time>
      </trkpt>
      <trkpt lat="42.98117" lon="0.70895">
        <ele>617</ele>
        <time>2024-08-03T17:19:29Z</time>
      </trkpt>
      <trkpt lat="42.98131" lon="0.7092">
        <ele>620</ele>
        <time>2024-08-03T17:19:33Z</time>
      </trkpt>
      <trkpt lat="42.9815" lon="0.70946">
        <ele>624</ele>
        <time>2024-08-03T17:19:38Z</time>
      </trkpt>
      <trkpt lat="42.98155" lon="0.70963">
        <ele>623</ele>
        <time>2024-08-03T17:19:40Z</time>
      </trkpt>
      <trkpt lat="42.98156" lon="0.7098">
        <ele>621</ele>
        <time>2024-08-03T17:19:42Z</time>
      </trkpt>
      <trkpt lat="42.98151" lon="0.71034">
        <ele>611</ele>
        <time>2024-08-03T17:19:49Z</time>
      </trkpt>
      <trkpt lat="42.98153" lon="0.71061">
        <ele>608</ele>
        <time>2024-08-03T17:19:53Z</time>
      </trkpt>
      <trkpt lat="42.9816" lon="0.71099">
        <ele>606</ele>
        <time>2024-08-03T17:19:58Z</time>
      </trkpt>
      <trkpt lat="42.98176" lon="0.71148">
        <ele>605</ele>
        <time>2024-08-03T17:20:05Z</time>
      </trkpt>
      <trkpt lat="42.98194" lon="0.7118">
        <ele>607</ele>
        <time>2024-08-03T17:20:10Z</time>
      </trkpt>
      <trkpt lat="42.98219" lon="0.71211">
        <ele>611</ele>
        <time>2024-08-03T17:20:16Z</time>
      </trkpt>
      <trkpt lat="42.98235" lon="0.71242">
        <ele>611</ele>
        <time>2024-08-03T17:20:21Z</time>
      </trkpt>
      <trkpt lat="42.9824" lon="0.71271">
        <ele>611</ele>
        <time>2024-08-03T17:20:25Z</time>
      </trkpt>
      <trkpt lat="42.98232" lon="0.71304">
        <ele>605</ele>
        <time>2024-08-03T17:20:30Z</time>
      </trkpt>
      <trkpt lat="42.98215" lon="0.71334">
        <ele>597</ele>
        <time>2024-08-03T17:20:34Z</time>
      </trkpt>
      <trkpt lat="42.98186" lon="0.71364">
        <ele>588</ele>
        <time>2024-08-03T17:20:41Z</time>
      </trkpt>
      <trkpt lat="42.98167" lon="0.7139">
        <ele>584</ele>
        <time>2024-08-03T17:20:46Z</time>
      </trkpt>
      <trkpt lat="42.98159" lon="0.7141">
        <ele>583</ele>
        <time>2024-08-03T17:20:49Z</time>
      </trkpt>
      <trkpt lat="42.98157" lon="0.7143">
        <ele>582</ele>
        <time>2024-08-03T17:20:51Z</time>
      </trkpt>
      <trkpt lat="42.98157" lon="0.71471">
        <ele>581</ele>
        <time>2024-08-03T17:20:57Z</time>
      </trkpt>
      <trkpt lat="42.98172" lon="0.71512">
        <ele>583</ele>
        <time>2024-08-03T17:21:03Z</time>
      </trkpt>
      <trkpt lat="42.98186" lon="0.71529">
        <ele>583</ele>
        <time>2024-08-03T17:21:06Z</time>
      </trkpt>
      <trkpt lat="42.98231" lon="0.71529">
        <ele>591</ele>
        <time>2024-08-03T17:21:14Z</time>
      </trkpt>
      <trkpt lat="42.98243" lon="0.71536">
        <ele>593</ele>
        <time>2024-08-03T17:21:16Z</time>
      </trkpt>
      <trkpt lat="42.98253" lon="0.71564">
        <ele>590</ele>
        <time>2024-08-03T17:21:20Z</time>
      </trkpt>
      <trkpt lat="42.98258" lon="0.71605">
        <ele>587</ele>
        <time>2024-08-03T17:21:26Z</time>
      </trkpt>
      <trkpt lat="42.9826" lon="0.71641">
        <ele>583</ele>
        <time>2024-08-03T17:21:30Z</time>
      </trkpt>
      <trkpt lat="42.98255" lon="0.71673">
        <ele>578</ele>
        <time>2024-08-03T17:21:35Z</time>
      </trkpt>
      <trkpt lat="42.98226" lon="0.71738">
        <ele>567</ele>
        <time>2024-08-03T17:21:45Z</time>
      </trkpt>
      <trkpt lat="42.9822" lon="0.71759">
        <ele>564</ele>
        <time>2024-08-03T17:21:48Z</time>
      </trkpt>
      <trkpt lat="42.98221" lon="0.71776">
        <ele>562</ele>
        <time>2024-08-03T17:21:50Z</time>
      </trkpt>
      <trkpt lat="42.98229" lon="0.71788">
        <ele>562</ele>
        <time>2024-08-03T17:21:52Z</time>
      </trkpt>
      <trkpt lat="42.98243" lon="0.7179">
        <ele>564</ele>
        <time>2024-08-03T17:21:54Z</time>
      </trkpt>
      <trkpt lat="42.98255" lon="0.71785">
        <ele>567</ele>
        <time>2024-08-03T17:21:57Z</time>
      </trkpt>
      <trkpt lat="42.98295" lon="0.71758">
        <ele>576</ele>
        <time>2024-08-03T17:22:05Z</time>
      </trkpt>
      <trkpt lat="42.98315" lon="0.71761">
        <ele>578</ele>
        <time>2024-08-03T17:22:08Z</time>
      </trkpt>
      <trkpt lat="42.98331" lon="0.71775">
        <ele>577</ele>
        <time>2024-08-03T17:22:11Z</time>
      </trkpt>
      <trkpt lat="42.98336" lon="0.71788">
        <ele>576</ele>
        <time>2024-08-03T17:22:13Z</time>
      </trkpt>
      <trkpt lat="42.98336" lon="0.71808">
        <ele>572</ele>
        <time>2024-08-03T17:22:16Z</time>
      </trkpt>
      <trkpt lat="42.98329" lon="0.71857">
        <ele>568</ele>
        <time>2024-08-03T17:22:23Z</time>
      </trkpt>
      <trkpt lat="42.98306" lon="0.71921">
        <ele>564</ele>
        <time>2024-08-03T17:22:32Z</time>
      </trkpt>
      <trkpt lat="42.98302" lon="0.71939">
        <ele>563</ele>
        <time>2024-08-03T17:22:34Z</time>
      </trkpt>
      <trkpt lat="42.98302" lon="0.71956">
        <ele>564</ele>
        <time>2024-08-03T17:22:36Z</time>
      </trkpt>
      <trkpt lat="42.98299" lon="0.71972">
        <ele>564</ele>
        <time>2024-08-03T17:22:39Z</time>
      </trkpt>
      <trkpt lat="42.98276" lon="0.71998">
        <ele>555</ele>
        <time>2024-08-03T17:22:44Z</time>
      </trkpt>
      <trkpt lat="42.98269" lon="0.72013">
        <ele>551</ele>
        <time>2024-08-03T17:22:46Z</time>
      </trkpt>
      <trkpt lat="42.98266" lon="0.72029">
        <ele>549</ele>
        <time>2024-08-03T17:22:48Z</time>
      </trkpt>
      <trkpt lat="42.98267" lon="0.72044">
        <ele>549</ele>
        <time>2024-08-03T17:22:50Z</time>
      </trkpt>
      <trkpt lat="42.9829" lon="0.72137">
        <ele>554</ele>
        <time>2024-08-03T17:23:03Z</time>
      </trkpt>
      <trkpt lat="42.98303" lon="0.72199">
        <ele>556</ele>
        <time>2024-08-03T17:23:12Z</time>
      </trkpt>
      <trkpt lat="42.98308" lon="0.72245">
        <ele>556</ele>
        <time>2024-08-03T17:23:18Z</time>
      </trkpt>
      <trkpt lat="42.98307" lon="0.72397">
        <ele>540</ele>
        <time>2024-08-03T17:23:37Z</time>
      </trkpt>
      <trkpt lat="42.98301" lon="0.72443">
        <ele>534</ele>
        <time>2024-08-03T17:23:43Z</time>
      </trkpt>
      <trkpt lat="42.98316" lon="0.72464">
        <ele>537</ele>
        <time>2024-08-03T17:23:47Z</time>
      </trkpt>
      <trkpt lat="42.98325" lon="0.72485">
        <ele>538</ele>
        <time>2024-08-03T17:23:50Z</time>
      </trkpt>
      <trkpt lat="42.98321" lon="0.7251">
        <ele>535</ele>
        <time>2024-08-03T17:23:54Z</time>
      </trkpt>
      <trkpt lat="42.98307" lon="0.72551">
        <ele>530</ele>
        <time>2024-08-03T17:24:00Z</time>
      </trkpt>
      <trkpt lat="42.98314" lon="0.72636">
        <ele>530</ele>
        <time>2024-08-03T17:24:11Z</time>
      </trkpt>
      <trkpt lat="42.98323" lon="0.72699">
        <ele>528</ele>
        <time>2024-08-03T17:24:19Z</time>
      </trkpt>
      <trkpt lat="42.98343" lon="0.72738">
        <ele>528</ele>
        <time>2024-08-03T17:24:25Z</time>
      </trkpt>
      <trkpt lat="42.98367" lon="0.72763">
        <ele>532</ele>
        <time>2024-08-03T17:24:31Z</time>
      </trkpt>
      <trkpt lat="42.98394" lon="0.72807">
        <ele>531</ele>
        <time>2024-08-03T17:24:38Z</time>
      </trkpt>
      <trkpt lat="42.98425" lon="0.72941">
        <ele>519</ele>
        <time>2024-08-03T17:24:56Z</time>
      </trkpt>
      <trkpt lat="42.98438" lon="0.73052">
        <ele>513</ele>
        <time>2024-08-03T17:25:11Z</time>
      </trkpt>
      <trkpt lat="42.98444" lon="0.73074">
        <ele>513</ele>
        <time>2024-08-03T17:25:14Z</time>
      </trkpt>
      <trkpt lat="42.98471" lon="0.73143">
        <ele>515</ele>
        <time>2024-08-03T17:25:24Z</time>
      </trkpt>
      <trkpt lat="42.98484" lon="0.73192">
        <ele>515</ele>
        <time>2024-08-03T17:25:31Z</time>
      </trkpt>
      <trkpt lat="42.98482" lon="0.73241">
        <ele>513</ele>
        <time>2024-08-03T17:25:38Z</time>
      </trkpt>
      <trkpt lat="42.98472" lon="0.73411">
        <ele>513</ele>
        <time>2024-08-03T17:26:00Z</time>
      </trkpt>
      <trkpt lat="42.98472" lon="0.73442">
        <ele>512</ele>
        <time>2024-08-03T17:26:04Z</time>
      </trkpt>
      <trkpt lat="42.98486" lon="0.73496">
        <ele>508</ele>
        <time>2024-08-03T17:26:11Z</time>
      </trkpt>
      <trkpt lat="42.98547" lon="0.73682">
        <ele>500</ele>
        <time>2024-08-03T17:26:38Z</time>
      </trkpt>
      <trkpt lat="42.98562" lon="0.73703">
        <ele>499</ele>
        <time>2024-08-03T17:26:42Z</time>
      </trkpt>
      <trkpt lat="42.98578" lon="0.73718">
        <ele>498</ele>
        <time>2024-08-03T17:26:45Z</time>
      </trkpt>
      <trkpt lat="42.98617" lon="0.73733">
        <ele>498</ele>
        <time>2024-08-03T17:26:52Z</time>
      </trkpt>
      <trkpt lat="42.9864" lon="0.73751">
        <ele>495</ele>
        <time>2024-08-03T17:26:57Z</time>
      </trkpt>
      <trkpt lat="42.98649" lon="0.7376">
        <ele>494</ele>
        <time>2024-08-03T17:26:59Z</time>
      </trkpt>
      <trkpt lat="42.98656" lon="0.73773">
        <ele>493</ele>
        <time>2024-08-03T17:27:01Z</time>
      </trkpt>
      <trkpt lat="42.98665" lon="0.73808">
        <ele>492</ele>
        <time>2024-08-03T17:27:06Z</time>
      </trkpt>
      <trkpt lat="42.98698" lon="0.73955">
        <ele>499</ele>
        <time>2024-08-03T17:27:26Z</time>
      </trkpt>
      <trkpt lat="42.98706" lon="0.73978">
        <ele>502</ele>
        <time>2024-08-03T17:27:29Z</time>
      </trkpt>
      <trkpt lat="42.98752" lon="0.74032">
        <ele>501</ele>
        <time>2024-08-03T17:27:40Z</time>
      </trkpt>
      <trkpt lat="42.98758" lon="0.74061">
        <ele>503</ele>
        <time>2024-08-03T17:27:44Z</time>
      </trkpt>
      <trkpt lat="42.98754" lon="0.74103">
        <ele>506</ele>
        <time>2024-08-03T17:27:49Z</time>
      </trkpt>
      <trkpt lat="42.98745" lon="0.74149">
        <ele>507</ele>
        <time>2024-08-03T17:27:56Z</time>
      </trkpt>
      <trkpt lat="42.98737" lon="0.7421">
        <ele>509</ele>
        <time>2024-08-03T17:28:04Z</time>
      </trkpt>
      <trkpt lat="42.9872" lon="0.74246">
        <ele>512</ele>
        <time>2024-08-03T17:28:09Z</time>
      </trkpt>
      <trkpt lat="42.98695" lon="0.74273">
        <ele>516</ele>
        <time>2024-08-03T17:28:15Z</time>
      </trkpt>
      <trkpt lat="42.98669" lon="0.74293">
        <ele>520</ele>
        <time>2024-08-03T17:28:20Z</time>
      </trkpt>
      <trkpt lat="42.98653" lon="0.74318">
        <ele>522</ele>
        <time>2024-08-03T17:28:25Z</time>
      </trkpt>
      <trkpt lat="42.98648" lon="0.74343">
        <ele>523</ele>
        <time>2024-08-03T17:28:28Z</time>
      </trkpt>
      <trkpt lat="42.98651" lon="0.74371">
        <ele>524</ele>
        <time>2024-08-03T17:28:32Z</time>
      </trkpt>
      <trkpt lat="42.98665" lon="0.74394">
        <ele>525</ele>
        <time>2024-08-03T17:28:35Z</time>
      </trkpt>
      <trkpt lat="42.9869" lon="0.7442">
        <ele>523</ele>
        <time>2024-08-03T17:28:41Z</time>
      </trkpt>
      <trkpt lat="42.98703" lon="0.74442">
        <ele>522</ele>
        <time>2024-08-03T17:28:45Z</time>
      </trkpt>
      <trkpt lat="42.98709" lon="0.74474">
        <ele>523</ele>
        <time>2024-08-03T17:28:49Z</time>
      </trkpt>
      <trkpt lat="42.98707" lon="0.74508">
        <ele>525</ele>
        <time>2024-08-03T17:28:53Z</time>
      </trkpt>
      <trkpt lat="42.98698" lon="0.74539">
        <ele>527</ele>
        <time>2024-08-03T17:28:58Z</time>
      </trkpt>
      <trkpt lat="42.98677" lon="0.74567">
        <ele>529</ele>
        <time>2024-08-03T17:29:03Z</time>
      </trkpt>
      <trkpt lat="42.98606" lon="0.74632">
        <ele>533</ele>
        <time>2024-08-03T17:29:18Z</time>
      </trkpt>
      <trkpt lat="42.98552" lon="0.74672">
        <ele>535</ele>
        <time>2024-08-03T17:29:29Z</time>
      </trkpt>
      <trkpt lat="42.98405" lon="0.74715">
        <ele>540</ele>
        <time>2024-08-03T17:29:56Z</time>
      </trkpt>
      <trkpt lat="42.98311" lon="0.74809">
        <ele>551</ele>
        <time>2024-08-03T17:30:17Z</time>
      </trkpt>
      <trkpt lat="42.98233" lon="0.74895">
        <ele>557</ele>
        <time>2024-08-03T17:30:34Z</time>
      </trkpt>
      <trkpt lat="42.98187" lon="0.74926">
        <ele>561</ele>
        <time>2024-08-03T17:30:44Z</time>
      </trkpt>
      <trkpt lat="42.98132" lon="0.74947">
        <ele>563</ele>
        <time>2024-08-03T17:30:54Z</time>
      </trkpt>
      <trkpt lat="42.98074" lon="0.74954">
        <ele>565</ele>
        <time>2024-08-03T17:31:04Z</time>
      </trkpt>
      <trkpt lat="42.98031" lon="0.74981">
        <ele>566</ele>
        <time>2024-08-03T17:31:13Z</time>
      </trkpt>
      <trkpt lat="42.98013" lon="0.7501">
        <ele>567</ele>
        <time>2024-08-03T17:31:18Z</time>
      </trkpt>
      <trkpt lat="42.98012" lon="0.75065">
        <ele>569</ele>
        <time>2024-08-03T17:31:25Z</time>
      </trkpt>
      <trkpt lat="42.98021" lon="0.75116">
        <ele>570</ele>
        <time>2024-08-03T17:31:31Z</time>
      </trkpt>
      <trkpt lat="42.98032" lon="0.75168">
        <ele>570</ele>
        <time>2024-08-03T17:31:39Z</time>
      </trkpt>
      <trkpt lat="42.98029" lon="0.75213">
        <ele>568</ele>
        <time>2024-08-03T17:31:44Z</time>
      </trkpt>
      <trkpt lat="42.98013" lon="0.75236">
        <ele>568</ele>
        <time>2024-08-03T17:31:49Z</time>
      </trkpt>
      <trkpt lat="42.97987" lon="0.75251">
        <ele>568</ele>
        <time>2024-08-03T17:31:54Z</time>
      </trkpt>
      <trkpt lat="42.97954" lon="0.75252">
        <ele>570</ele>
        <time>2024-08-03T17:31:59Z</time>
      </trkpt>
      <trkpt lat="42.97917" lon="0.75258">
        <ele>571</ele>
        <time>2024-08-03T17:32:06Z</time>
      </trkpt>
      <trkpt lat="42.97887" lon="0.75281">
        <ele>571</ele>
        <time>2024-08-03T17:32:12Z</time>
      </trkpt>
      <trkpt lat="42.97879" lon="0.75303">
        <ele>571</ele>
        <time>2024-08-03T17:32:15Z</time>
      </trkpt>
      <trkpt lat="42.97877" lon="0.75336">
        <ele>570</ele>
        <time>2024-08-03T17:32:20Z</time>
      </trkpt>
      <trkpt lat="42.97889" lon="0.754">
        <ele>573</ele>
        <time>2024-08-03T17:32:28Z</time>
      </trkpt>
      <trkpt lat="42.97887" lon="0.75433">
        <ele>574</ele>
        <time>2024-08-03T17:32:33Z</time>
      </trkpt>
      <trkpt lat="42.97863" lon="0.75469">
        <ele>575</ele>
        <time>2024-08-03T17:32:39Z</time>
      </trkpt>
      <trkpt lat="42.97799" lon="0.75519">
        <ele>580</ele>
        <time>2024-08-03T17:32:52Z</time>
      </trkpt>
      <trkpt lat="42.9778" lon="0.75553">
        <ele>581</ele>
        <time>2024-08-03T17:32:58Z</time>
      </trkpt>
      <trkpt lat="42.97772" lon="0.75616">
        <ele>582</ele>
        <time>2024-08-03T17:33:06Z</time>
      </trkpt>
      <trkpt lat="42.97837" lon="0.76038">
        <ele>585</ele>
        <time>2024-08-03T17:34:02Z</time>
      </trkpt>
      <trkpt lat="42.97864" lon="0.76199">
        <ele>589</ele>
        <time>2024-08-03T17:34:24Z</time>
      </trkpt>
      <trkpt lat="42.97867" lon="0.76268">
        <ele>592</ele>
        <time>2024-08-03T17:34:33Z</time>
      </trkpt>
      <trkpt lat="42.97817" lon="0.76938">
        <ele>609</ele>
        <time>2024-08-03T17:36:00Z</time>
      </trkpt>
      <trkpt lat="42.97815" lon="0.77045">
        <ele>609</ele>
        <time>2024-08-03T17:36:14Z</time>
      </trkpt>
      <trkpt lat="42.97859" lon="0.77305">
        <ele>604</ele>
        <time>2024-08-03T17:36:49Z</time>
      </trkpt>
      <trkpt lat="42.97856" lon="0.77338">
        <ele>603</ele>
        <time>2024-08-03T17:36:53Z</time>
      </trkpt>
      <trkpt lat="42.97836" lon="0.77372">
        <ele>603</ele>
        <time>2024-08-03T17:36:59Z</time>
      </trkpt>
      <trkpt lat="42.97826" lon="0.77414">
        <ele>602</ele>
        <time>2024-08-03T17:37:05Z</time>
      </trkpt>
      <trkpt lat="42.97831" lon="0.77454">
        <ele>601</ele>
        <time>2024-08-03T17:37:10Z</time>
      </trkpt>
      <trkpt lat="42.97841" lon="0.77488">
        <ele>600</ele>
        <time>2024-08-03T17:37:15Z</time>
      </trkpt>
      <trkpt lat="42.97841" lon="0.77531">
        <ele>597</ele>
        <time>2024-08-03T17:37:20Z</time>
      </trkpt>
      <trkpt lat="42.97834" lon="0.77598">
        <ele>593</ele>
        <time>2024-08-03T17:37:29Z</time>
      </trkpt>
      <trkpt lat="42.97853" lon="0.77662">
        <ele>592</ele>
        <time>2024-08-03T17:37:38Z</time>
      </trkpt>
      <trkpt lat="42.97862" lon="0.77719">
        <ele>591</ele>
        <time>2024-08-03T17:37:46Z</time>
      </trkpt>
      <trkpt lat="42.97867" lon="0.77785">
        <ele>590</ele>
        <time>2024-08-03T17:37:54Z</time>
      </trkpt>
      <trkpt lat="42.97879" lon="0.7784">
        <ele>588</ele>
        <time>2024-08-03T17:38:02Z</time>
      </trkpt>
      <trkpt lat="42.97898" lon="0.77902">
        <ele>583</ele>
        <time>2024-08-03T17:38:11Z</time>
      </trkpt>
      <trkpt lat="42.97907" lon="0.7794">
        <ele>580</ele>
        <time>2024-08-03T17:38:16Z</time>
      </trkpt>
      <trkpt lat="42.9791" lon="0.77976">
        <ele>578</ele>
        <time>2024-08-03T17:38:21Z</time>
      </trkpt>
      <trkpt lat="42.97908" lon="0.78124">
        <ele>572</ele>
        <time>2024-08-03T17:38:40Z</time>
      </trkpt>
      <trkpt lat="42.97911" lon="0.78171">
        <ele>571</ele>
        <time>2024-08-03T17:38:46Z</time>
      </trkpt>
      <trkpt lat="42.97923" lon="0.78254">
        <ele>571</ele>
        <time>2024-08-03T17:38:57Z</time>
      </trkpt>
      <trkpt lat="42.97928" lon="0.78314">
        <ele>576</ele>
        <time>2024-08-03T17:39:05Z</time>
      </trkpt>
      <trkpt lat="42.9792" lon="0.78367">
        <ele>573</ele>
        <time>2024-08-03T17:39:12Z</time>
      </trkpt>
      <trkpt lat="42.97899" lon="0.78436">
        <ele>569</ele>
        <time>2024-08-03T17:39:22Z</time>
      </trkpt>
      <trkpt lat="42.97893" lon="0.78482">
        <ele>565</ele>
        <time>2024-08-03T17:39:28Z</time>
      </trkpt>
      <trkpt lat="42.97891" lon="0.78518">
        <ele>561</ele>
        <time>2024-08-03T17:39:32Z</time>
      </trkpt>
      <trkpt lat="42.97896" lon="0.78562">
        <ele>555</ele>
        <time>2024-08-03T17:39:38Z</time>
      </trkpt>
      <trkpt lat="42.97919" lon="0.78614">
        <ele>548</ele>
        <time>2024-08-03T17:39:46Z</time>
      </trkpt>
      <trkpt lat="42.97946" lon="0.78657">
        <ele>547</ele>
        <time>2024-08-03T17:39:53Z</time>
      </trkpt>
      <trkpt lat="42.98065" lon="0.78723">
        <ele>543</ele>
        <time>2024-08-03T17:40:16Z</time>
      </trkpt>
      <trkpt lat="42.98183" lon="0.78783">
        <ele>533</ele>
        <time>2024-08-03T17:40:39Z</time>
      </trkpt>
      <trkpt lat="42.9818" lon="0.78798">
        <ele>532</ele>
        <time>2024-08-03T17:40:41Z</time>
      </trkpt>
      <trkpt lat="42.98169" lon="0.78813">
        <ele>530</ele>
        <time>2024-08-03T17:40:43Z</time>
      </trkpt>
      <trkpt lat="42.98154" lon="0.78821">
        <ele>530</ele>
        <time>2024-08-03T17:40:46Z</time>
      </trkpt>
      <trkpt lat="42.98125" lon="0.78817">
        <ele>530</ele>
        <time>2024-08-03T17:40:52Z</time>
      </trkpt>
      <trkpt lat="42.98093" lon="0.78828">
        <ele>530</ele>
        <time>2024-08-03T17:40:57Z</time>
      </trkpt>
      <trkpt lat="42.98049" lon="0.78847">
        <ele>525</ele>
        <time>2024-08-03T17:41:06Z</time>
      </trkpt>
      <trkpt lat="42.98018" lon="0.78849">
        <ele>522</ele>
        <time>2024-08-03T17:41:11Z</time>
      </trkpt>
      <trkpt lat="42.97944" lon="0.78846">
        <ele>515</ele>
        <time>2024-08-03T17:41:24Z</time>
      </trkpt>
      <trkpt lat="42.97895" lon="0.78836">
        <ele>514</ele>
        <time>2024-08-03T17:41:33Z</time>
      </trkpt>
      <trkpt lat="42.9787" lon="0.78833">
        <ele>516</ele>
        <time>2024-08-03T17:41:38Z</time>
      </trkpt>
      <trkpt lat="42.97841" lon="0.78836">
        <ele>516</ele>
        <time>2024-08-03T17:41:43Z</time>
      </trkpt>
      <trkpt lat="42.97823" lon="0.78843">
        <ele>516</ele>
        <time>2024-08-03T17:41:46Z</time>
      </trkpt>
      <trkpt lat="42.97783" lon="0.78867">
        <ele>515</ele>
        <time>2024-08-03T17:41:54Z</time>
      </trkpt>
      <trkpt lat="42.97765" lon="0.78877">
        <ele>514</ele>
        <time>2024-08-03T17:41:57Z</time>
      </trkpt>
      <trkpt lat="42.97733" lon="0.78876">
        <ele>518</ele>
        <time>2024-08-03T17:42:03Z</time>
      </trkpt>
      <trkpt lat="42.97719" lon="0.7888">
        <ele>519</ele>
        <time>2024-08-03T17:42:06Z</time>
      </trkpt>
      <trkpt lat="42.97701" lon="0.78889">
        <ele>518</ele>
        <time>2024-08-03T17:42:09Z</time>
      </trkpt>
      <trkpt lat="42.97701" lon="0.78889">
        <ele>518</ele>
        <time>2024-08-03T17:42:09Z</time>
      </trkpt>
      <trkpt lat="42.97666" lon="0.78909">
        <ele>514</ele>
        <time>2024-08-03T17:42:16Z</time>
      </trkpt>
      <trkpt lat="42.97609" lon="0.78918">
        <ele>509</ele>
        <time>2024-08-03T17:42:26Z</time>
      </trkpt>
      <trkpt lat="42.9749" lon="0.78855">
        <ele>518</ele>
        <time>2024-08-03T17:42:49Z</time>
      </trkpt>
      <trkpt lat="42.97473" lon="0.78854">
        <ele>516</ele>
        <time>2024-08-03T17:42:52Z</time>
      </trkpt>
      <trkpt lat="42.9746" lon="0.78858">
        <ele>514</ele>
        <time>2024-08-03T17:42:54Z</time>
      </trkpt>
      <trkpt lat="42.97417" lon="0.78884">
        <ele>508</ele>
        <time>2024-08-03T17:43:02Z</time>
      </trkpt>
      <trkpt lat="42.9729" lon="0.78943">
        <ele>517</ele>
        <time>2024-08-03T17:43:26Z</time>
      </trkpt>
      <trkpt lat="42.97259" lon="0.7896">
        <ele>522</ele>
        <time>2024-08-03T17:43:32Z</time>
      </trkpt>
      <trkpt lat="42.97197" lon="0.79033">
        <ele>524</ele>
        <time>2024-08-03T17:43:47Z</time>
      </trkpt>
      <trkpt lat="42.97133" lon="0.79052">
        <ele>526</ele>
        <time>2024-08-03T17:43:58Z</time>
      </trkpt>
      <trkpt lat="42.9706" lon="0.79081">
        <ele>523</ele>
        <time>2024-08-03T17:44:12Z</time>
      </trkpt>
      <trkpt lat="42.96965" lon="0.79127">
        <ele>525</ele>
        <time>2024-08-03T17:44:30Z</time>
      </trkpt>
      <trkpt lat="42.96949" lon="0.7913">
        <ele>526</ele>
        <time>2024-08-03T17:44:33Z</time>
      </trkpt>
      <trkpt lat="42.96917" lon="0.79127">
        <ele>529</ele>
        <time>2024-08-03T17:44:38Z</time>
      </trkpt>
      <trkpt lat="42.96878" lon="0.79115">
        <ele>535</ele>
        <time>2024-08-03T17:44:46Z</time>
      </trkpt>
      <trkpt lat="42.96858" lon="0.7912">
        <ele>536</ele>
        <time>2024-08-03T17:44:49Z</time>
      </trkpt>
      <trkpt lat="42.96818" lon="0.79152">
        <ele>535</ele>
        <time>2024-08-03T17:44:57Z</time>
      </trkpt>
      <trkpt lat="42.96803" lon="0.79156">
        <ele>537</ele>
        <time>2024-08-03T17:45:00Z</time>
      </trkpt>
      <trkpt lat="42.96782" lon="0.79179">
        <ele>538</ele>
        <time>2024-08-03T17:45:05Z</time>
      </trkpt>
      <trkpt lat="42.96697" lon="0.79277">
        <ele>559</ele>
        <time>2024-08-03T17:45:25Z</time>
      </trkpt>
      <trkpt lat="42.96683" lon="0.79309">
        <ele>558</ele>
        <time>2024-08-03T17:45:30Z</time>
      </trkpt>
      <trkpt lat="42.96675" lon="0.7935">
        <ele>552</ele>
        <time>2024-08-03T17:45:35Z</time>
      </trkpt>
      <trkpt lat="42.96673" lon="0.79402">
        <ele>542</ele>
        <time>2024-08-03T17:45:42Z</time>
      </trkpt>
      <trkpt lat="42.96659" lon="0.79437">
        <ele>542</ele>
        <time>2024-08-03T17:45:47Z</time>
      </trkpt>
      <trkpt lat="42.96645" lon="0.79448">
        <ele>546</ele>
        <time>2024-08-03T17:45:50Z</time>
      </trkpt>
      <trkpt lat="42.96631" lon="0.7945">
        <ele>549</ele>
        <time>2024-08-03T17:45:52Z</time>
      </trkpt>
      <trkpt lat="42.9661" lon="0.79444">
        <ele>555</ele>
        <time>2024-08-03T17:45:56Z</time>
      </trkpt>
      <trkpt lat="42.96514" lon="0.79436">
        <ele>574</ele>
        <time>2024-08-03T17:46:13Z</time>
      </trkpt>
      <trkpt lat="42.96453" lon="0.79451">
        <ele>577</ele>
        <time>2024-08-03T17:46:24Z</time>
      </trkpt>
      <trkpt lat="42.9642" lon="0.79447">
        <ele>582</ele>
        <time>2024-08-03T17:46:30Z</time>
      </trkpt>
      <trkpt lat="42.96407" lon="0.79449">
        <ele>586</ele>
        <time>2024-08-03T17:46:33Z</time>
      </trkpt>
      <trkpt lat="42.96355" lon="0.79501">
        <ele>583</ele>
        <time>2024-08-03T17:46:44Z</time>
      </trkpt>
      <trkpt lat="42.96338" lon="0.79526">
        <ele>579</ele>
        <time>2024-08-03T17:46:49Z</time>
      </trkpt>
      <trkpt lat="42.96295" lon="0.79577">
        <ele>579</ele>
        <time>2024-08-03T17:46:59Z</time>
      </trkpt>
      <trkpt lat="42.96258" lon="0.7963">
        <ele>581</ele>
        <time>2024-08-03T17:47:08Z</time>
      </trkpt>
      <trkpt lat="42.96223" lon="0.79647">
        <ele>583</ele>
        <time>2024-08-03T17:47:15Z</time>
      </trkpt>
      <trkpt lat="42.96182" lon="0.7966">
        <ele>584</ele>
        <time>2024-08-03T17:47:22Z</time>
      </trkpt>
      <trkpt lat="42.96168" lon="0.79681">
        <ele>578</ele>
        <time>2024-08-03T17:47:26Z</time>
      </trkpt>
      <trkpt lat="42.96125" lon="0.79723">
        <ele>576</ele>
        <time>2024-08-03T17:47:35Z</time>
      </trkpt>
      <trkpt lat="42.961" lon="0.79735">
        <ele>576</ele>
        <time>2024-08-03T17:47:40Z</time>
      </trkpt>
      <trkpt lat="42.96081" lon="0.7974">
        <ele>577</ele>
        <time>2024-08-03T17:47:44Z</time>
      </trkpt>
      <trkpt lat="42.95985" lon="0.79737">
        <ele>591</ele>
        <time>2024-08-03T17:48:01Z</time>
      </trkpt>
      <trkpt lat="42.95964" lon="0.79733">
        <ele>596</ele>
        <time>2024-08-03T17:48:04Z</time>
      </trkpt>
      <trkpt lat="42.95959" lon="0.79724">
        <ele>598</ele>
        <time>2024-08-03T17:48:06Z</time>
      </trkpt>
      <trkpt lat="42.9595" lon="0.79686">
        <ele>605</ele>
        <time>2024-08-03T17:48:11Z</time>
      </trkpt>
      <trkpt lat="42.95945" lon="0.79681">
        <ele>605</ele>
        <time>2024-08-03T17:48:12Z</time>
      </trkpt>
      <trkpt lat="42.95937" lon="0.79684">
        <ele>605</ele>
        <time>2024-08-03T17:48:14Z</time>
      </trkpt>
      <trkpt lat="42.9593" lon="0.79691">
        <ele>604</ele>
        <time>2024-08-03T17:48:15Z</time>
      </trkpt>
      <trkpt lat="42.95929" lon="0.79708">
        <ele>603</ele>
        <time>2024-08-03T17:48:17Z</time>
      </trkpt>
      <trkpt lat="42.95931" lon="0.79733">
        <ele>602</ele>
        <time>2024-08-03T17:48:21Z</time>
      </trkpt>
      <trkpt lat="42.95975" lon="0.79858">
        <ele>591</ele>
        <time>2024-08-03T17:48:39Z</time>
      </trkpt>
      <trkpt lat="42.95978" lon="0.79889">
        <ele>589</ele>
        <time>2024-08-03T17:48:43Z</time>
      </trkpt>
      <trkpt lat="42.95974" lon="0.79901">
        <ele>591</ele>
        <time>2024-08-03T17:48:45Z</time>
      </trkpt>
      <trkpt lat="42.95908" lon="0.80047">
        <ele>599</ele>
        <time>2024-08-03T17:49:07Z</time>
      </trkpt>
      <trkpt lat="42.95833" lon="0.80178">
        <ele>604</ele>
        <time>2024-08-03T17:49:29Z</time>
      </trkpt>
      <trkpt lat="42.9581" lon="0.80206">
        <ele>609</ele>
        <time>2024-08-03T17:49:34Z</time>
      </trkpt>
      <trkpt lat="42.95775" lon="0.80222">
        <ele>618</ele>
        <time>2024-08-03T17:49:41Z</time>
      </trkpt>
      <trkpt lat="42.95742" lon="0.8025">
        <ele>621</ele>
        <time>2024-08-03T17:49:48Z</time>
      </trkpt>
      <trkpt lat="42.95697" lon="0.80295">
        <ele>616</ele>
        <time>2024-08-03T17:49:57Z</time>
      </trkpt>
      <trkpt lat="42.9568" lon="0.80304">
        <ele>614</ele>
        <time>2024-08-03T17:50:01Z</time>
      </trkpt>
      <trkpt lat="42.95668" lon="0.80307">
        <ele>614</ele>
        <time>2024-08-03T17:50:03Z</time>
      </trkpt>
      <trkpt lat="42.95639" lon="0.80298">
        <ele>623</ele>
        <time>2024-08-03T17:50:08Z</time>
      </trkpt>
      <trkpt lat="42.95606" lon="0.80295">
        <ele>631</ele>
        <time>2024-08-03T17:50:14Z</time>
      </trkpt>
      <trkpt lat="42.95588" lon="0.80302">
        <ele>632</ele>
        <time>2024-08-03T17:50:17Z</time>
      </trkpt>
      <trkpt lat="42.95495" lon="0.80391">
        <ele>628</ele>
        <time>2024-08-03T17:50:38Z</time>
      </trkpt>
      <trkpt lat="42.95481" lon="0.80394">
        <ele>629</ele>
        <time>2024-08-03T17:50:40Z</time>
      </trkpt>
      <trkpt lat="42.95465" lon="0.80388">
        <ele>632</ele>
        <time>2024-08-03T17:50:43Z</time>
      </trkpt>
      <trkpt lat="42.95423" lon="0.80363">
        <ele>643</ele>
        <time>2024-08-03T17:50:51Z</time>
      </trkpt>
      <trkpt lat="42.95412" lon="0.80359">
        <ele>646</ele>
        <time>2024-08-03T17:50:53Z</time>
      </trkpt>
      <trkpt lat="42.95403" lon="0.80361">
        <ele>648</ele>
        <time>2024-08-03T17:50:55Z</time>
      </trkpt>
      <trkpt lat="42.95398" lon="0.80371">
        <ele>648</ele>
        <time>2024-08-03T17:50:56Z</time>
      </trkpt>
      <trkpt lat="42.95398" lon="0.80384">
        <ele>646</ele>
        <time>2024-08-03T17:50:58Z</time>
      </trkpt>
      <trkpt lat="42.954" lon="0.80395">
        <ele>643</ele>
        <time>2024-08-03T17:51:00Z</time>
      </trkpt>
      <trkpt lat="42.95438" lon="0.80446">
        <ele>626</ele>
        <time>2024-08-03T17:51:09Z</time>
      </trkpt>
      <trkpt lat="42.95446" lon="0.8047">
        <ele>623</ele>
        <time>2024-08-03T17:51:13Z</time>
      </trkpt>
      <trkpt lat="42.95451" lon="0.805">
        <ele>620</ele>
        <time>2024-08-03T17:51:17Z</time>
      </trkpt>
      <trkpt lat="42.95447" lon="0.8053">
        <ele>619</ele>
        <time>2024-08-03T17:51:21Z</time>
      </trkpt>
      <trkpt lat="42.9543" lon="0.80574">
        <ele>616</ele>
        <time>2024-08-03T17:51:27Z</time>
      </trkpt>
      <trkpt lat="42.9541" lon="0.80606">
        <ele>618</ele>
        <time>2024-08-03T17:51:32Z</time>
      </trkpt>
      <trkpt lat="42.95395" lon="0.80644">
        <ele>623</ele>
        <time>2024-08-03T17:51:38Z</time>
      </trkpt>
      <trkpt lat="42.95386" lon="0.8067">
        <ele>626</ele>
        <time>2024-08-03T17:51:42Z</time>
      </trkpt>
      <trkpt lat="42.95383" lon="0.80684">
        <ele>627</ele>
        <time>2024-08-03T17:51:44Z</time>
      </trkpt>
      <trkpt lat="42.95382" lon="0.80717">
        <ele>626</ele>
        <time>2024-08-03T17:51:48Z</time>
      </trkpt>
      <trkpt lat="42.95407" lon="0.80835">
        <ele>614</ele>
        <time>2024-08-03T17:52:04Z</time>
      </trkpt>
      <trkpt lat="42.95404" lon="0.80863">
        <ele>617</ele>
        <time>2024-08-03T17:52:08Z</time>
      </trkpt>
      <trkpt lat="42.95387" lon="0.80924">
        <ele>624</ele>
        <time>2024-08-03T17:52:16Z</time>
      </trkpt>
      <trkpt lat="42.95377" lon="0.80986">
        <ele>627</ele>
        <time>2024-08-03T17:52:24Z</time>
      </trkpt>
      <trkpt lat="42.9537" lon="0.81018">
        <ele>628</ele>
        <time>2024-08-03T17:52:29Z</time>
      </trkpt>
      <trkpt lat="42.95364" lon="0.81052">
        <ele>628</ele>
        <time>2024-08-03T17:52:33Z</time>
      </trkpt>
      <trkpt lat="42.95388" lon="0.81129">
        <ele>623</ele>
        <time>2024-08-03T17:52:44Z</time>
      </trkpt>
      <trkpt lat="42.95387" lon="0.81143">
        <ele>622</ele>
        <time>2024-08-03T17:52:46Z</time>
      </trkpt>
      <trkpt lat="42.95384" lon="0.81154">
        <ele>621</ele>
        <time>2024-08-03T17:52:48Z</time>
      </trkpt>
      <trkpt lat="42.9538" lon="0.81164">
        <ele>620</ele>
        <time>2024-08-03T17:52:49Z</time>
      </trkpt>
      <trkpt lat="42.95374" lon="0.8117">
        <ele>619</ele>
        <time>2024-08-03T17:52:50Z</time>
      </trkpt>
      <trkpt lat="42.95352" lon="0.81179">
        <ele>618</ele>
        <time>2024-08-03T17:52:55Z</time>
      </trkpt>
      <trkpt lat="42.95319" lon="0.81196">
        <ele>623</ele>
        <time>2024-08-03T17:53:01Z</time>
      </trkpt>
      <trkpt lat="42.9529" lon="0.81227">
        <ele>633</ele>
        <time>2024-08-03T17:53:07Z</time>
      </trkpt>
      <trkpt lat="42.95264" lon="0.81271">
        <ele>635</ele>
        <time>2024-08-03T17:53:15Z</time>
      </trkpt>
      <trkpt lat="42.95253" lon="0.81305">
        <ele>630</ele>
        <time>2024-08-03T17:53:20Z</time>
      </trkpt>
      <trkpt lat="42.95249" lon="0.81325">
        <ele>625</ele>
        <time>2024-08-03T17:53:22Z</time>
      </trkpt>
      <trkpt lat="42.9524" lon="0.81402">
        <ele>626</ele>
        <time>2024-08-03T17:53:32Z</time>
      </trkpt>
      <trkpt lat="42.95232" lon="0.81453">
        <ele>627</ele>
        <time>2024-08-03T17:53:39Z</time>
      </trkpt>
      <trkpt lat="42.95218" lon="0.81479">
        <ele>627</ele>
        <time>2024-08-03T17:53:43Z</time>
      </trkpt>
      <trkpt lat="42.952" lon="0.81497">
        <ele>625</ele>
        <time>2024-08-03T17:53:47Z</time>
      </trkpt>
      <trkpt lat="42.95189" lon="0.81502">
        <ele>625</ele>
        <time>2024-08-03T17:53:49Z</time>
      </trkpt>
      <trkpt lat="42.95171" lon="0.81507">
        <ele>626</ele>
        <time>2024-08-03T17:53:53Z</time>
      </trkpt>
      <trkpt lat="42.95143" lon="0.81513">
        <ele>630</ele>
        <time>2024-08-03T17:53:58Z</time>
      </trkpt>
      <trkpt lat="42.95127" lon="0.81513">
        <ele>632</ele>
        <time>2024-08-03T17:54:01Z</time>
      </trkpt>
      <trkpt lat="42.95114" lon="0.81507">
        <ele>634</ele>
        <time>2024-08-03T17:54:03Z</time>
      </trkpt>
      <trkpt lat="42.95095" lon="0.81494">
        <ele>639</ele>
        <time>2024-08-03T17:54:07Z</time>
      </trkpt>
      <trkpt lat="42.95077" lon="0.81479">
        <ele>648</ele>
        <time>2024-08-03T17:54:11Z</time>
      </trkpt>
      <trkpt lat="42.95056" lon="0.8147">
        <ele>656</ele>
        <time>2024-08-03T17:54:15Z</time>
      </trkpt>
      <trkpt lat="42.95036" lon="0.81473">
        <ele>659</ele>
        <time>2024-08-03T17:54:18Z</time>
      </trkpt>
      <trkpt lat="42.95023" lon="0.8148">
        <ele>659</ele>
        <time>2024-08-03T17:54:21Z</time>
      </trkpt>
      <trkpt lat="42.95004" lon="0.81499">
        <ele>655</ele>
        <time>2024-08-03T17:54:25Z</time>
      </trkpt>
      <trkpt lat="42.94989" lon="0.81511">
        <ele>655</ele>
        <time>2024-08-03T17:54:28Z</time>
      </trkpt>
      <trkpt lat="42.94908" lon="0.81555">
        <ele>653</ele>
        <time>2024-08-03T17:54:43Z</time>
      </trkpt>
      <trkpt lat="42.94885" lon="0.81573">
        <ele>652</ele>
        <time>2024-08-03T17:54:48Z</time>
      </trkpt>
      <trkpt lat="42.94879" lon="0.81584">
        <ele>652</ele>
        <time>2024-08-03T17:54:50Z</time>
      </trkpt>
      <trkpt lat="42.94873" lon="0.81598">
        <ele>658</ele>
        <time>2024-08-03T17:54:52Z</time>
      </trkpt>
      <trkpt lat="42.94871" lon="0.81618">
        <ele>665</ele>
        <time>2024-08-03T17:54:55Z</time>
      </trkpt>
      <trkpt lat="42.94873" lon="0.81627">
        <ele>668</ele>
        <time>2024-08-03T17:54:56Z</time>
      </trkpt>
      <trkpt lat="42.94855" lon="0.81629">
        <ele>673</ele>
        <time>2024-08-03T17:54:59Z</time>
      </trkpt>
      <trkpt lat="42.94837" lon="0.81605">
        <ele>667</ele>
        <time>2024-08-03T17:55:04Z</time>
      </trkpt>
      <trkpt lat="42.94776" lon="0.81476">
        <ele>664</ele>
        <time>2024-08-03T17:55:24Z</time>
      </trkpt>
      <trkpt lat="42.94758" lon="0.81442">
        <ele>659</ele>
        <time>2024-08-03T17:55:29Z</time>
      </trkpt>
      <trkpt lat="42.94731" lon="0.81422">
        <ele>658</ele>
        <time>2024-08-03T17:55:34Z</time>
      </trkpt>
      <trkpt lat="42.94701" lon="0.81412">
        <ele>663</ele>
        <time>2024-08-03T17:55:40Z</time>
      </trkpt>
      <trkpt lat="42.94671" lon="0.81424">
        <ele>673</ele>
        <time>2024-08-03T17:55:46Z</time>
      </trkpt>
      <trkpt lat="42.94649" lon="0.81418">
        <ele>677</ele>
        <time>2024-08-03T17:55:50Z</time>
      </trkpt>
      <trkpt lat="42.94628" lon="0.81386">
        <ele>673</ele>
        <time>2024-08-03T17:55:55Z</time>
      </trkpt>
      <trkpt lat="42.94613" lon="0.81352">
        <ele>664</ele>
        <time>2024-08-03T17:56:00Z</time>
      </trkpt>
      <trkpt lat="42.94587" lon="0.81341">
        <ele>663</ele>
        <time>2024-08-03T17:56:05Z</time>
      </trkpt>
      <trkpt lat="42.94513" lon="0.81364">
        <ele>678</ele>
        <time>2024-08-03T17:56:19Z</time>
      </trkpt>
      <trkpt lat="42.94485" lon="0.81359">
        <ele>681</ele>
        <time>2024-08-03T17:56:24Z</time>
      </trkpt>
      <trkpt lat="42.94455" lon="0.8134">
        <ele>682</ele>
        <time>2024-08-03T17:56:30Z</time>
      </trkpt>
      <trkpt lat="42.94449" lon="0.81334">
        <ele>682</ele>
        <time>2024-08-03T17:56:31Z</time>
      </trkpt>
      <trkpt lat="42.94449" lon="0.81334">
        <ele>682</ele>
        <time>2024-08-03T17:56:31Z</time>
      </trkpt>
      <trkpt lat="42.94438" lon="0.81323">
        <ele>683</ele>
        <time>2024-08-03T17:56:33Z</time>
      </trkpt>
      <trkpt lat="42.94418" lon="0.81287">
        <ele>679</ele>
        <time>2024-08-03T17:56:39Z</time>
      </trkpt>
      <trkpt lat="42.94404" lon="0.81246">
        <ele>673</ele>
        <time>2024-08-03T17:56:45Z</time>
      </trkpt>
      <trkpt lat="42.94375" lon="0.81207">
        <ele>673</ele>
        <time>2024-08-03T17:56:52Z</time>
      </trkpt>
      <trkpt lat="42.94345" lon="0.8119">
        <ele>676</ele>
        <time>2024-08-03T17:56:58Z</time>
      </trkpt>
      <trkpt lat="42.94299" lon="0.8117">
        <ele>680</ele>
        <time>2024-08-03T17:57:07Z</time>
      </trkpt>
      <trkpt lat="42.94255" lon="0.81146">
        <ele>683</ele>
        <time>2024-08-03T17:57:15Z</time>
      </trkpt>
      <trkpt lat="42.94244" lon="0.81127">
        <ele>680</ele>
        <time>2024-08-03T17:57:18Z</time>
      </trkpt>
      <trkpt lat="42.94206" lon="0.81101">
        <ele>675</ele>
        <time>2024-08-03T17:57:26Z</time>
      </trkpt>
      <trkpt lat="42.94197" lon="0.81099">
        <ele>675</ele>
        <time>2024-08-03T17:57:27Z</time>
      </trkpt>
      <trkpt lat="42.94172" lon="0.81107">
        <ele>680</ele>
        <time>2024-08-03T17:57:32Z</time>
      </trkpt>
      <trkpt lat="42.94105" lon="0.81096">
        <ele>682</ele>
        <time>2024-08-03T17:57:44Z</time>
      </trkpt>
      <trkpt lat="42.94073" lon="0.81087">
        <ele>683</ele>
        <time>2024-08-03T17:57:50Z</time>
      </trkpt>
      <trkpt lat="42.94001" lon="0.81084">
        <ele>698</ele>
        <time>2024-08-03T17:58:03Z</time>
      </trkpt>
      <trkpt lat="42.93982" lon="0.81076">
        <ele>708</ele>
        <time>2024-08-03T17:58:06Z</time>
      </trkpt>
      <trkpt lat="42.93962" lon="0.81065">
        <ele>716</ele>
        <time>2024-08-03T17:58:10Z</time>
      </trkpt>
      <trkpt lat="42.93946" lon="0.81034">
        <ele>712</ele>
        <time>2024-08-03T17:58:15Z</time>
      </trkpt>
      <trkpt lat="42.93941" lon="0.80993">
        <ele>697</ele>
        <time>2024-08-03T17:58:20Z</time>
      </trkpt>
      <trkpt lat="42.93941" lon="0.80967">
        <ele>691</ele>
        <time>2024-08-03T17:58:24Z</time>
      </trkpt>
      <trkpt lat="42.93937" lon="0.80938">
        <ele>684</ele>
        <time>2024-08-03T17:58:28Z</time>
      </trkpt>
      <trkpt lat="42.9392" lon="0.80919">
        <ele>681</ele>
        <time>2024-08-03T17:58:32Z</time>
      </trkpt>
      <trkpt lat="42.93886" lon="0.80916">
        <ele>702</ele>
        <time>2024-08-03T17:58:38Z</time>
      </trkpt>
      <trkpt lat="42.93855" lon="0.80877">
        <ele>710</ele>
        <time>2024-08-03T17:58:45Z</time>
      </trkpt>
      <trkpt lat="42.93837" lon="0.80835">
        <ele>701</ele>
        <time>2024-08-03T17:58:51Z</time>
      </trkpt>
      <trkpt lat="42.9383" lon="0.80794">
        <ele>695</ele>
        <time>2024-08-03T17:58:57Z</time>
      </trkpt>
      <trkpt lat="42.93818" lon="0.80748">
        <ele>690</ele>
        <time>2024-08-03T17:59:03Z</time>
      </trkpt>
      <trkpt lat="42.93801" lon="0.80737">
        <ele>694</ele>
        <time>2024-08-03T17:59:07Z</time>
      </trkpt>
      <trkpt lat="42.93744" lon="0.80748">
        <ele>707</ele>
        <time>2024-08-03T17:59:17Z</time>
      </trkpt>
      <trkpt lat="42.93704" lon="0.80734">
        <ele>724</ele>
        <time>2024-08-03T17:59:24Z</time>
      </trkpt>
      <trkpt lat="42.93681" lon="0.80695">
        <ele>720</ele>
        <time>2024-08-03T17:59:31Z</time>
      </trkpt>
      <trkpt lat="42.93644" lon="0.80621">
        <ele>712</ele>
        <time>2024-08-03T17:59:42Z</time>
      </trkpt>
      <trkpt lat="42.93591" lon="0.80609">
        <ele>708</ele>
        <time>2024-08-03T17:59:52Z</time>
      </trkpt>
      <trkpt lat="42.93568" lon="0.80616">
        <ele>707</ele>
        <time>2024-08-03T17:59:56Z</time>
      </trkpt>
      <trkpt lat="42.93551" lon="0.8063">
        <ele>706</ele>
        <time>2024-08-03T18:00:00Z</time>
      </trkpt>
      <trkpt lat="42.93507" lon="0.80644">
        <ele>701</ele>
        <time>2024-08-03T18:00:08Z</time>
      </trkpt>
      <trkpt lat="42.93445" lon="0.80613">
        <ele>707</ele>
        <time>2024-08-03T18:00:19Z</time>
      </trkpt>
      <trkpt lat="42.93405" lon="0.80586">
        <ele>707</ele>
        <time>2024-08-03T18:00:27Z</time>
      </trkpt>
      <trkpt lat="42.93386" lon="0.80594">
        <ele>711</ele>
        <time>2024-08-03T18:00:31Z</time>
      </trkpt>
      <trkpt lat="42.93368" lon="0.80645">
        <ele>714</ele>
        <time>2024-08-03T18:00:38Z</time>
      </trkpt>
      <trkpt lat="42.93354" lon="0.80697">
        <ele>721</ele>
        <time>2024-08-03T18:00:46Z</time>
      </trkpt>
      <trkpt lat="42.93341" lon="0.80717">
        <ele>724</ele>
        <time>2024-08-03T18:00:49Z</time>
      </trkpt>
      <trkpt lat="42.93317" lon="0.80733">
        <ele>724</ele>
        <time>2024-08-03T18:00:54Z</time>
      </trkpt>
      <trkpt lat="42.93307" lon="0.80733">
        <ele>723</ele>
        <time>2024-08-03T18:00:56Z</time>
      </trkpt>
      <trkpt lat="42.93272" lon="0.80712">
        <ele>716</ele>
        <time>2024-08-03T18:01:02Z</time>
      </trkpt>
      <trkpt lat="42.93256" lon="0.80698">
        <ele>713</ele>
        <time>2024-08-03T18:01:06Z</time>
      </trkpt>
      <trkpt lat="42.93246" lon="0.80701">
        <ele>714</ele>
        <time>2024-08-03T18:01:08Z</time>
      </trkpt>
      <trkpt lat="42.93238" lon="0.8071">
        <ele>716</ele>
        <time>2024-08-03T18:01:09Z</time>
      </trkpt>
      <trkpt lat="42.93232" lon="0.80735">
        <ele>719</ele>
        <time>2024-08-03T18:01:13Z</time>
      </trkpt>
      <trkpt lat="42.93228" lon="0.80798">
        <ele>731</ele>
        <time>2024-08-03T18:01:21Z</time>
      </trkpt>
      <trkpt lat="42.93239" lon="0.8087">
        <ele>740</ele>
        <time>2024-08-03T18:01:31Z</time>
      </trkpt>
      <trkpt lat="42.93236" lon="0.80881">
        <ele>741</ele>
        <time>2024-08-03T18:01:32Z</time>
      </trkpt>
      <trkpt lat="42.93228" lon="0.80885">
        <ele>743</ele>
        <time>2024-08-03T18:01:34Z</time>
      </trkpt>
      <trkpt lat="42.93222" lon="0.8088">
        <ele>744</ele>
        <time>2024-08-03T18:01:35Z</time>
      </trkpt>
      <trkpt lat="42.93216" lon="0.80872">
        <ele>744</ele>
        <time>2024-08-03T18:01:36Z</time>
      </trkpt>
      <trkpt lat="42.93208" lon="0.80843">
        <ele>742</ele>
        <time>2024-08-03T18:01:40Z</time>
      </trkpt>
      <trkpt lat="42.93204" lon="0.80819">
        <ele>738</ele>
        <time>2024-08-03T18:01:44Z</time>
      </trkpt>
      <trkpt lat="42.932" lon="0.80811">
        <ele>737</ele>
        <time>2024-08-03T18:01:45Z</time>
      </trkpt>
      <trkpt lat="42.9318" lon="0.80792">
        <ele>736</ele>
        <time>2024-08-03T18:01:49Z</time>
      </trkpt>
      <trkpt lat="42.93165" lon="0.80786">
        <ele>737</ele>
        <time>2024-08-03T18:01:52Z</time>
      </trkpt>
      <trkpt lat="42.93147" lon="0.80774">
        <ele>740</ele>
        <time>2024-08-03T18:01:56Z</time>
      </trkpt>
      <trkpt lat="42.93136" lon="0.80754">
        <ele>739</ele>
        <time>2024-08-03T18:01:59Z</time>
      </trkpt>
      <trkpt lat="42.93125" lon="0.80738">
        <ele>739</ele>
        <time>2024-08-03T18:02:02Z</time>
      </trkpt>
      <trkpt lat="42.93095" lon="0.80728">
        <ele>744</ele>
        <time>2024-08-03T18:02:07Z</time>
      </trkpt>
      <trkpt lat="42.93056" lon="0.80721">
        <ele>752</ele>
        <time>2024-08-03T18:02:14Z</time>
      </trkpt>
      <trkpt lat="42.93042" lon="0.80707">
        <ele>751</ele>
        <time>2024-08-03T18:02:17Z</time>
      </trkpt>
      <trkpt lat="42.9304" lon="0.80702">
        <ele>750</ele>
        <time>2024-08-03T18:02:18Z</time>
      </trkpt>
      <trkpt lat="42.93011" lon="0.80685">
        <ele>750</ele>
        <time>2024-08-03T18:02:24Z</time>
      </trkpt>
      <trkpt lat="42.92996" lon="0.80689">
        <ele>754</ele>
        <time>2024-08-03T18:02:26Z</time>
      </trkpt>
      <trkpt lat="42.92977" lon="0.807">
        <ele>762</ele>
        <time>2024-08-03T18:02:30Z</time>
      </trkpt>
      <trkpt lat="42.92958" lon="0.80701">
        <ele>766</ele>
        <time>2024-08-03T18:02:33Z</time>
      </trkpt>
      <trkpt lat="42.92923" lon="0.80687">
        <ele>767</ele>
        <time>2024-08-03T18:02:40Z</time>
      </trkpt>
      <trkpt lat="42.92898" lon="0.80665">
        <ele>761</ele>
        <time>2024-08-03T18:02:45Z</time>
      </trkpt>
      <trkpt lat="42.92889" lon="0.80655">
        <ele>758</ele>
        <time>2024-08-03T18:02:47Z</time>
      </trkpt>
      <trkpt lat="42.92878" lon="0.80648">
        <ele>756</ele>
        <time>2024-08-03T18:02:49Z</time>
      </trkpt>
      <trkpt lat="42.92873" lon="0.80648">
        <ele>756</ele>
        <time>2024-08-03T18:02:50Z</time>
      </trkpt>
      <trkpt lat="42.92855" lon="0.80666">
        <ele>761</ele>
        <time>2024-08-03T18:02:54Z</time>
      </trkpt>
      <trkpt lat="42.92846" lon="0.80679">
        <ele>765</ele>
        <time>2024-08-03T18:02:57Z</time>
      </trkpt>
      <trkpt lat="42.92822" lon="0.80722">
        <ele>780</ele>
        <time>2024-08-03T18:03:04Z</time>
      </trkpt>
      <trkpt lat="42.92806" lon="0.80742">
        <ele>785</ele>
        <time>2024-08-03T18:03:08Z</time>
      </trkpt>
      <trkpt lat="42.92791" lon="0.80765">
        <ele>790</ele>
        <time>2024-08-03T18:03:12Z</time>
      </trkpt>
      <trkpt lat="42.92788" lon="0.80776">
        <ele>792</ele>
        <time>2024-08-03T18:03:13Z</time>
      </trkpt>
      <trkpt lat="42.92776" lon="0.80796">
        <ele>796</ele>
        <time>2024-08-03T18:03:16Z</time>
      </trkpt>
      <trkpt lat="42.9277" lon="0.80802">
        <ele>797</ele>
        <time>2024-08-03T18:03:18Z</time>
      </trkpt>
      <trkpt lat="42.92754" lon="0.80795">
        <ele>794</ele>
        <time>2024-08-03T18:03:21Z</time>
      </trkpt>
      <trkpt lat="42.92742" lon="0.80779">
        <ele>793</ele>
        <time>2024-08-03T18:03:24Z</time>
      </trkpt>
      <trkpt lat="42.92731" lon="0.80758">
        <ele>791</ele>
        <time>2024-08-03T18:03:27Z</time>
      </trkpt>
      <trkpt lat="42.92724" lon="0.80753">
        <ele>792</ele>
        <time>2024-08-03T18:03:29Z</time>
      </trkpt>
      <trkpt lat="42.92694" lon="0.80752">
        <ele>799</ele>
        <time>2024-08-03T18:03:34Z</time>
      </trkpt>
      <trkpt lat="42.92676" lon="0.8074">
        <ele>801</ele>
        <time>2024-08-03T18:03:37Z</time>
      </trkpt>
      <trkpt lat="42.92666" lon="0.80722">
        <ele>802</ele>
        <time>2024-08-03T18:03:40Z</time>
      </trkpt>
      <trkpt lat="42.92645" lon="0.80673">
        <ele>808</ele>
        <time>2024-08-03T18:03:48Z</time>
      </trkpt>
      <trkpt lat="42.92631" lon="0.80649">
        <ele>811</ele>
        <time>2024-08-03T18:03:52Z</time>
      </trkpt>
      <trkpt lat="42.92626" lon="0.80646">
        <ele>814</ele>
        <time>2024-08-03T18:03:53Z</time>
      </trkpt>
      <trkpt lat="42.92584" lon="0.80585">
        <ele>820</ele>
        <time>2024-08-03T18:04:04Z</time>
      </trkpt>
      <trkpt lat="42.92529" lon="0.80522">
        <ele>812</ele>
        <time>2024-08-03T18:04:16Z</time>
      </trkpt>
      <trkpt lat="42.9252" lon="0.80507">
        <ele>808</ele>
        <time>2024-08-03T18:04:19Z</time>
      </trkpt>
      <trkpt lat="42.92503" lon="0.80503">
        <ele>811</ele>
        <time>2024-08-03T18:04:22Z</time>
      </trkpt>
      <trkpt lat="42.92486" lon="0.80506">
        <ele>811</ele>
        <time>2024-08-03T18:04:25Z</time>
      </trkpt>
      <trkpt lat="42.9246" lon="0.80506">
        <ele>808</ele>
        <time>2024-08-03T18:04:30Z</time>
      </trkpt>
      <trkpt lat="42.92441" lon="0.80499">
        <ele>803</ele>
        <time>2024-08-03T18:04:33Z</time>
      </trkpt>
      <trkpt lat="42.9242" lon="0.80505">
        <ele>802</ele>
        <time>2024-08-03T18:04:37Z</time>
      </trkpt>
      <trkpt lat="42.92406" lon="0.80527">
        <ele>806</ele>
        <time>2024-08-03T18:04:41Z</time>
      </trkpt>
      <trkpt lat="42.92383" lon="0.80592">
        <ele>818</ele>
        <time>2024-08-03T18:04:50Z</time>
      </trkpt>
      <trkpt lat="42.92345" lon="0.80606">
        <ele>807</ele>
        <time>2024-08-03T18:04:57Z</time>
      </trkpt>
      <trkpt lat="42.92313" lon="0.80614">
        <ele>803</ele>
        <time>2024-08-03T18:05:03Z</time>
      </trkpt>
      <trkpt lat="42.92285" lon="0.80625">
        <ele>804</ele>
        <time>2024-08-03T18:05:08Z</time>
      </trkpt>
      <trkpt lat="42.92266" lon="0.80627">
        <ele>803</ele>
        <time>2024-08-03T18:05:12Z</time>
      </trkpt>
      <trkpt lat="42.92232" lon="0.80617">
        <ele>803</ele>
        <time>2024-08-03T18:05:18Z</time>
      </trkpt>
      <trkpt lat="42.92221" lon="0.80611">
        <ele>804</ele>
        <time>2024-08-03T18:05:20Z</time>
      </trkpt>
      <trkpt lat="42.92184" lon="0.80587">
        <ele>802</ele>
        <time>2024-08-03T18:05:27Z</time>
      </trkpt>
      <trkpt lat="42.92147" lon="0.80556">
        <ele>802</ele>
        <time>2024-08-03T18:05:35Z</time>
      </trkpt>
      <trkpt lat="42.92116" lon="0.80496">
        <ele>789</ele>
        <time>2024-08-03T18:05:44Z</time>
      </trkpt>
      <trkpt lat="42.92109" lon="0.80484">
        <ele>790</ele>
        <time>2024-08-03T18:05:46Z</time>
      </trkpt>
      <trkpt lat="42.92087" lon="0.80435">
        <ele>794</ele>
        <time>2024-08-03T18:05:54Z</time>
      </trkpt>
      <trkpt lat="42.92086" lon="0.80423">
        <ele>795</ele>
        <time>2024-08-03T18:05:56Z</time>
      </trkpt>
      <trkpt lat="42.92092" lon="0.80412">
        <ele>796</ele>
        <time>2024-08-03T18:05:57Z</time>
      </trkpt>
      <trkpt lat="42.92106" lon="0.80398">
        <ele>800</ele>
        <time>2024-08-03T18:06:00Z</time>
      </trkpt>
      <trkpt lat="42.92121" lon="0.80388">
        <ele>801</ele>
        <time>2024-08-03T18:06:03Z</time>
      </trkpt>
      <trkpt lat="42.92131" lon="0.80388">
        <ele>800</ele>
        <time>2024-08-03T18:06:05Z</time>
      </trkpt>
      <trkpt lat="42.92155" lon="0.80403">
        <ele>793</ele>
        <time>2024-08-03T18:06:10Z</time>
      </trkpt>
      <trkpt lat="42.92168" lon="0.804">
        <ele>793</ele>
        <time>2024-08-03T18:06:12Z</time>
      </trkpt>
      <trkpt lat="42.92174" lon="0.80391">
        <ele>796</ele>
        <time>2024-08-03T18:06:14Z</time>
      </trkpt>
      <trkpt lat="42.92173" lon="0.8038">
        <ele>798</ele>
        <time>2024-08-03T18:06:15Z</time>
      </trkpt>
      <trkpt lat="42.92163" lon="0.80358">
        <ele>804</ele>
        <time>2024-08-03T18:06:19Z</time>
      </trkpt>
      <trkpt lat="42.92158" lon="0.80339">
        <ele>809</ele>
        <time>2024-08-03T18:06:21Z</time>
      </trkpt>
      <trkpt lat="42.92159" lon="0.80323">
        <ele>812</ele>
        <time>2024-08-03T18:06:23Z</time>
      </trkpt>
      <trkpt lat="42.92161" lon="0.80315">
        <ele>813</ele>
        <time>2024-08-03T18:06:24Z</time>
      </trkpt>
      <trkpt lat="42.92165" lon="0.8031">
        <ele>812</ele>
        <time>2024-08-03T18:06:25Z</time>
      </trkpt>
      <trkpt lat="42.92172" lon="0.80305">
        <ele>813</ele>
        <time>2024-08-03T18:06:27Z</time>
      </trkpt>
      <trkpt lat="42.9218" lon="0.80305">
        <ele>815</ele>
        <time>2024-08-03T18:06:28Z</time>
      </trkpt>
      <trkpt lat="42.92205" lon="0.8032">
        <ele>817</ele>
        <time>2024-08-03T18:06:33Z</time>
      </trkpt>
      <trkpt lat="42.92213" lon="0.80328">
        <ele>817</ele>
        <time>2024-08-03T18:06:35Z</time>
      </trkpt>
      <trkpt lat="42.92222" lon="0.80345">
        <ele>814</ele>
        <time>2024-08-03T18:06:38Z</time>
      </trkpt>
      <trkpt lat="42.92232" lon="0.80357">
        <ele>812</ele>
        <time>2024-08-03T18:06:40Z</time>
      </trkpt>
      <trkpt lat="42.9227" lon="0.80395">
        <ele>803</ele>
        <time>2024-08-03T18:06:48Z</time>
      </trkpt>
      <trkpt lat="42.92276" lon="0.80395">
        <ele>804</ele>
        <time>2024-08-03T18:06:49Z</time>
      </trkpt>
      <trkpt lat="42.92278" lon="0.80391">
        <ele>806</ele>
        <time>2024-08-03T18:06:50Z</time>
      </trkpt>
      <trkpt lat="42.92278" lon="0.80385">
        <ele>808</ele>
        <time>2024-08-03T18:06:51Z</time>
      </trkpt>
      <trkpt lat="42.9226" lon="0.8037">
        <ele>811</ele>
        <time>2024-08-03T18:06:55Z</time>
      </trkpt>
      <trkpt lat="42.92248" lon="0.80354">
        <ele>815</ele>
        <time>2024-08-03T18:06:58Z</time>
      </trkpt>
      <trkpt lat="42.92239" lon="0.80338">
        <ele>819</ele>
        <time>2024-08-03T18:07:00Z</time>
      </trkpt>
      <trkpt lat="42.92227" lon="0.8031">
        <ele>823</ele>
        <time>2024-08-03T18:07:04Z</time>
      </trkpt>
      <trkpt lat="42.92219" lon="0.80301">
        <ele>823</ele>
        <time>2024-08-03T18:07:06Z</time>
      </trkpt>
      <trkpt lat="42.92213" lon="0.80291">
        <ele>824</ele>
        <time>2024-08-03T18:07:08Z</time>
      </trkpt>
      <trkpt lat="42.92206" lon="0.80273">
        <ele>825</ele>
        <time>2024-08-03T18:07:11Z</time>
      </trkpt>
      <trkpt lat="42.92204" lon="0.8026">
        <ele>827</ele>
        <time>2024-08-03T18:07:12Z</time>
      </trkpt>
      <trkpt lat="42.92198" lon="0.80244">
        <ele>829</ele>
        <time>2024-08-03T18:07:15Z</time>
      </trkpt>
      <trkpt lat="42.92182" lon="0.80227">
        <ele>829</ele>
        <time>2024-08-03T18:07:18Z</time>
      </trkpt>
      <trkpt lat="42.9218" lon="0.80221">
        <ele>830</ele>
        <time>2024-08-03T18:07:19Z</time>
      </trkpt>
      <trkpt lat="42.92183" lon="0.80215">
        <ele>832</ele>
        <time>2024-08-03T18:07:20Z</time>
      </trkpt>
      <trkpt lat="42.9219" lon="0.80216">
        <ele>834</ele>
        <time>2024-08-03T18:07:21Z</time>
      </trkpt>
      <trkpt lat="42.92226" lon="0.80241">
        <ele>837</ele>
        <time>2024-08-03T18:07:28Z</time>
      </trkpt>
      <trkpt lat="42.92238" lon="0.8026">
        <ele>836</ele>
        <time>2024-08-03T18:07:32Z</time>
      </trkpt>
      <trkpt lat="42.92253" lon="0.80293">
        <ele>832</ele>
        <time>2024-08-03T18:07:37Z</time>
      </trkpt>
      <trkpt lat="42.9226" lon="0.80301">
        <ele>831</ele>
        <time>2024-08-03T18:07:38Z</time>
      </trkpt>
      <trkpt lat="42.92269" lon="0.80302">
        <ele>833</ele>
        <time>2024-08-03T18:07:40Z</time>
      </trkpt>
      <trkpt lat="42.92295" lon="0.80288">
        <ele>842</ele>
        <time>2024-08-03T18:07:45Z</time>
      </trkpt>
      <trkpt lat="42.92336" lon="0.80286">
        <ele>850</ele>
        <time>2024-08-03T18:07:52Z</time>
      </trkpt>
      <trkpt lat="42.92355" lon="0.80279">
        <ele>852</ele>
        <time>2024-08-03T18:07:56Z</time>
      </trkpt>
      <trkpt lat="42.92407" lon="0.80273">
        <ele>854</ele>
        <time>2024-08-03T18:08:05Z</time>
      </trkpt>
      <trkpt lat="42.92413" lon="0.80271">
        <ele>855</ele>
        <time>2024-08-03T18:08:06Z</time>
      </trkpt>
      <trkpt lat="42.92414" lon="0.80264">
        <ele>858</ele>
        <time>2024-08-03T18:08:07Z</time>
      </trkpt>
      <trkpt lat="42.92412" lon="0.80259">
        <ele>861</ele>
        <time>2024-08-03T18:08:08Z</time>
      </trkpt>
      <trkpt lat="42.92407" lon="0.80257">
        <ele>861</ele>
        <time>2024-08-03T18:08:09Z</time>
      </trkpt>
      <trkpt lat="42.92388" lon="0.8026">
        <ele>859</ele>
        <time>2024-08-03T18:08:12Z</time>
      </trkpt>
      <trkpt lat="42.92347" lon="0.80248">
        <ele>861</ele>
        <time>2024-08-03T18:08:20Z</time>
      </trkpt>
      <trkpt lat="42.92332" lon="0.80243">
        <ele>861</ele>
        <time>2024-08-03T18:08:22Z</time>
      </trkpt>
      <trkpt lat="42.92322" lon="0.80235">
        <ele>861</ele>
        <time>2024-08-03T18:08:24Z</time>
      </trkpt>
      <trkpt lat="42.92316" lon="0.80226">
        <ele>861</ele>
        <time>2024-08-03T18:08:26Z</time>
      </trkpt>
      <trkpt lat="42.92313" lon="0.80214">
        <ele>863</ele>
        <time>2024-08-03T18:08:28Z</time>
      </trkpt>
      <trkpt lat="42.92307" lon="0.80165">
        <ele>873</ele>
        <time>2024-08-03T18:08:34Z</time>
      </trkpt>
      <trkpt lat="42.92303" lon="0.80147">
        <ele>876</ele>
        <time>2024-08-03T18:08:37Z</time>
      </trkpt>
      <trkpt lat="42.92251" lon="0.80011">
        <ele>887</ele>
        <time>2024-08-03T18:08:57Z</time>
      </trkpt>
      <trkpt lat="42.92226" lon="0.79948">
        <ele>891</ele>
        <time>2024-08-03T18:09:06Z</time>
      </trkpt>
      <trkpt lat="42.92223" lon="0.79934">
        <ele>893</ele>
        <time>2024-08-03T18:09:08Z</time>
      </trkpt>
      <trkpt lat="42.92228" lon="0.79926">
        <ele>897</ele>
        <time>2024-08-03T18:09:09Z</time>
      </trkpt>
      <trkpt lat="42.92237" lon="0.79928">
        <ele>900</ele>
        <time>2024-08-03T18:09:11Z</time>
      </trkpt>
      <trkpt lat="42.92247" lon="0.79953">
        <ele>898</ele>
        <time>2024-08-03T18:09:15Z</time>
      </trkpt>
      <trkpt lat="42.92257" lon="0.79969">
        <ele>898</ele>
        <time>2024-08-03T18:09:17Z</time>
      </trkpt>
      <trkpt lat="42.92269" lon="0.79982">
        <ele>900</ele>
        <time>2024-08-03T18:09:20Z</time>
      </trkpt>
      <trkpt lat="42.92289" lon="0.79996">
        <ele>904</ele>
        <time>2024-08-03T18:09:24Z</time>
      </trkpt>
      <trkpt lat="42.92308" lon="0.80014">
        <ele>906</ele>
        <time>2024-08-03T18:09:28Z</time>
      </trkpt>
      <trkpt lat="42.92336" lon="0.80051">
        <ele>907</ele>
        <time>2024-08-03T18:09:35Z</time>
      </trkpt>
      <trkpt lat="42.92351" lon="0.80068">
        <ele>909</ele>
        <time>2024-08-03T18:09:39Z</time>
      </trkpt>
      <trkpt lat="42.92415" lon="0.80124">
        <ele>916</ele>
        <time>2024-08-03T18:09:52Z</time>
      </trkpt>
      <trkpt lat="42.9242" lon="0.80131">
        <ele>914</ele>
        <time>2024-08-03T18:09:53Z</time>
      </trkpt>
      <trkpt lat="42.92426" lon="0.80134">
        <ele>914</ele>
        <time>2024-08-03T18:09:54Z</time>
      </trkpt>
      <trkpt lat="42.9243" lon="0.80134">
        <ele>914</ele>
        <time>2024-08-03T18:09:55Z</time>
      </trkpt>
      <trkpt lat="42.92433" lon="0.80126">
        <ele>918</ele>
        <time>2024-08-03T18:09:56Z</time>
      </trkpt>
      <trkpt lat="42.9243" lon="0.80121">
        <ele>920</ele>
        <time>2024-08-03T18:09:57Z</time>
      </trkpt>
      <trkpt lat="42.92411" lon="0.80102">
        <ele>923</ele>
        <time>2024-08-03T18:10:01Z</time>
      </trkpt>
      <trkpt lat="42.92395" lon="0.80075">
        <ele>926</ele>
        <time>2024-08-03T18:10:06Z</time>
      </trkpt>
      <trkpt lat="42.92354" lon="0.79977">
        <ele>937</ele>
        <time>2024-08-03T18:10:21Z</time>
      </trkpt>
      <trkpt lat="42.92313" lon="0.79903">
        <ele>942</ele>
        <time>2024-08-03T18:10:33Z</time>
      </trkpt>
      <trkpt lat="42.92244" lon="0.79745">
        <ele>952</ele>
        <time>2024-08-03T18:10:57Z</time>
      </trkpt>
      <trkpt lat="42.92236" lon="0.7972">
        <ele>954</ele>
        <time>2024-08-03T18:11:00Z</time>
      </trkpt>
      <trkpt lat="42.92228" lon="0.79682">
        <ele>960</ele>
        <time>2024-08-03T18:11:05Z</time>
      </trkpt>
      <trkpt lat="42.92224" lon="0.79648">
        <ele>964</ele>
        <time>2024-08-03T18:11:10Z</time>
      </trkpt>
      <trkpt lat="42.92219" lon="0.7958">
        <ele>971</ele>
        <time>2024-08-03T18:11:19Z</time>
      </trkpt>
      <trkpt lat="42.92207" lon="0.79504">
        <ele>976</ele>
        <time>2024-08-03T18:11:29Z</time>
      </trkpt>
      <trkpt lat="42.92201" lon="0.79482">
        <ele>976</ele>
        <time>2024-08-03T18:11:32Z</time>
      </trkpt>
      <trkpt lat="42.92194" lon="0.79465">
        <ele>976</ele>
        <time>2024-08-03T18:11:35Z</time>
      </trkpt>
      <trkpt lat="42.92172" lon="0.79431">
        <ele>970</ele>
        <time>2024-08-03T18:11:40Z</time>
      </trkpt>
      <trkpt lat="42.92163" lon="0.79407">
        <ele>970</ele>
        <time>2024-08-03T18:11:44Z</time>
      </trkpt>
      <trkpt lat="42.92149" lon="0.79334">
        <ele>976</ele>
        <time>2024-08-03T18:11:54Z</time>
      </trkpt>
      <trkpt lat="42.9214" lon="0.79309">
        <ele>978</ele>
        <time>2024-08-03T18:11:57Z</time>
      </trkpt>
      <trkpt lat="42.9212" lon="0.79271">
        <ele>977</ele>
        <time>2024-08-03T18:12:04Z</time>
      </trkpt>
      <trkpt lat="42.92115" lon="0.79242">
        <ele>981</ele>
        <time>2024-08-03T18:12:07Z</time>
      </trkpt>
      <trkpt lat="42.9211" lon="0.79162">
        <ele>997</ele>
        <time>2024-08-03T18:12:18Z</time>
      </trkpt>
      <trkpt lat="42.92107" lon="0.79134">
        <ele>1001</ele>
        <time>2024-08-03T18:12:22Z</time>
      </trkpt>
      <trkpt lat="42.92102" lon="0.79108">
        <ele>1003</ele>
        <time>2024-08-03T18:12:25Z</time>
      </trkpt>
      <trkpt lat="42.92064" lon="0.79003">
        <ele>1004</ele>
        <time>2024-08-03T18:12:40Z</time>
      </trkpt>
      <trkpt lat="42.92034" lon="0.78908">
        <ele>1011</ele>
        <time>2024-08-03T18:12:54Z</time>
      </trkpt>
      <trkpt lat="42.92034" lon="0.78894">
        <ele>1013</ele>
        <time>2024-08-03T18:12:56Z</time>
      </trkpt>
      <trkpt lat="42.92036" lon="0.78881">
        <ele>1015</ele>
        <time>2024-08-03T18:12:57Z</time>
      </trkpt>
      <trkpt lat="42.92047" lon="0.78849">
        <ele>1023</ele>
        <time>2024-08-03T18:13:02Z</time>
      </trkpt>
      <trkpt lat="42.92051" lon="0.78841">
        <ele>1025</ele>
        <time>2024-08-03T18:13:03Z</time>
      </trkpt>
      <trkpt lat="42.92056" lon="0.78838">
        <ele>1027</ele>
        <time>2024-08-03T18:13:04Z</time>
      </trkpt>
      <trkpt lat="42.92061" lon="0.78841">
        <ele>1028</ele>
        <time>2024-08-03T18:13:05Z</time>
      </trkpt>
      <trkpt lat="42.92063" lon="0.78849">
        <ele>1028</ele>
        <time>2024-08-03T18:13:06Z</time>
      </trkpt>
      <trkpt lat="42.92061" lon="0.78863">
        <ele>1025</ele>
        <time>2024-08-03T18:13:08Z</time>
      </trkpt>
      <trkpt lat="42.92062" lon="0.78876">
        <ele>1023</ele>
        <time>2024-08-03T18:13:10Z</time>
      </trkpt>
      <trkpt lat="42.92067" lon="0.7889">
        <ele>1023</ele>
        <time>2024-08-03T18:13:12Z</time>
      </trkpt>
      <trkpt lat="42.92092" lon="0.7891">
        <ele>1030</ele>
        <time>2024-08-03T18:13:17Z</time>
      </trkpt>
      <trkpt lat="42.921" lon="0.78919">
        <ele>1034</ele>
        <time>2024-08-03T18:13:19Z</time>
      </trkpt>
      <trkpt lat="42.92106" lon="0.78935">
        <ele>1036</ele>
        <time>2024-08-03T18:13:21Z</time>
      </trkpt>
      <trkpt lat="42.92111" lon="0.78985">
        <ele>1032</ele>
        <time>2024-08-03T18:13:28Z</time>
      </trkpt>
      <trkpt lat="42.9215" lon="0.79092">
        <ele>1036</ele>
        <time>2024-08-03T18:13:43Z</time>
      </trkpt>
      <trkpt lat="42.92157" lon="0.79093">
        <ele>1040</ele>
        <time>2024-08-03T18:13:45Z</time>
      </trkpt>
      <trkpt lat="42.92162" lon="0.79086">
        <ele>1044</ele>
        <time>2024-08-03T18:13:46Z</time>
      </trkpt>
      <trkpt lat="42.92162" lon="0.79079">
        <ele>1046</ele>
        <time>2024-08-03T18:13:47Z</time>
      </trkpt>
      <trkpt lat="42.92153" lon="0.79065">
        <ele>1043</ele>
        <time>2024-08-03T18:13:49Z</time>
      </trkpt>
      <trkpt lat="42.92148" lon="0.79051">
        <ele>1043</ele>
        <time>2024-08-03T18:13:51Z</time>
      </trkpt>
      <trkpt lat="42.92146" lon="0.79019">
        <ele>1048</ele>
        <time>2024-08-03T18:13:55Z</time>
      </trkpt>
      <trkpt lat="42.92141" lon="0.78984">
        <ele>1051</ele>
        <time>2024-08-03T18:14:00Z</time>
      </trkpt>
      <trkpt lat="42.92137" lon="0.78892">
        <ele>1065</ele>
        <time>2024-08-03T18:14:12Z</time>
      </trkpt>
      <trkpt lat="42.9213" lon="0.78846">
        <ele>1068</ele>
        <time>2024-08-03T18:14:18Z</time>
      </trkpt>
      <trkpt lat="42.92125" lon="0.7882">
        <ele>1069</ele>
        <time>2024-08-03T18:14:22Z</time>
      </trkpt>
      <trkpt lat="42.92116" lon="0.7879">
        <ele>1067</ele>
        <time>2024-08-03T18:14:26Z</time>
      </trkpt>
      <trkpt lat="42.92106" lon="0.78722">
        <ele>1072</ele>
        <time>2024-08-03T18:14:35Z</time>
      </trkpt>
      <trkpt lat="42.92098" lon="0.78656">
        <ele>1078</ele>
        <time>2024-08-03T18:14:44Z</time>
      </trkpt>
      <trkpt lat="42.92095" lon="0.7864">
        <ele>1080</ele>
        <time>2024-08-03T18:14:46Z</time>
      </trkpt>
      <trkpt lat="42.92085" lon="0.78619">
        <ele>1078</ele>
        <time>2024-08-03T18:14:49Z</time>
      </trkpt>
      <trkpt lat="42.92052" lon="0.78555">
        <ele>1081</ele>
        <time>2024-08-03T18:14:59Z</time>
      </trkpt>
      <trkpt lat="42.92045" lon="0.78536">
        <ele>1083</ele>
        <time>2024-08-03T18:15:02Z</time>
      </trkpt>
      <trkpt lat="42.92047" lon="0.78527">
        <ele>1085</ele>
        <time>2024-08-03T18:15:03Z</time>
      </trkpt>
      <trkpt lat="42.92051" lon="0.78525">
        <ele>1087</ele>
        <time>2024-08-03T18:15:04Z</time>
      </trkpt>
      <trkpt lat="42.92056" lon="0.78529">
        <ele>1088</ele>
        <time>2024-08-03T18:15:05Z</time>
      </trkpt>
      <trkpt lat="42.92061" lon="0.78547">
        <ele>1086</ele>
        <time>2024-08-03T18:15:08Z</time>
      </trkpt>
      <trkpt lat="42.92071" lon="0.78566">
        <ele>1085</ele>
        <time>2024-08-03T18:15:11Z</time>
      </trkpt>
      <trkpt lat="42.92083" lon="0.7858">
        <ele>1086</ele>
        <time>2024-08-03T18:15:13Z</time>
      </trkpt>
      <trkpt lat="42.92094" lon="0.78587">
        <ele>1091</ele>
        <time>2024-08-03T18:15:16Z</time>
      </trkpt>
      <trkpt lat="42.92106" lon="0.78598">
        <ele>1097</ele>
        <time>2024-08-03T18:15:18Z</time>
      </trkpt>
      <trkpt lat="42.92115" lon="0.78614">
        <ele>1100</ele>
        <time>2024-08-03T18:15:21Z</time>
      </trkpt>
      <trkpt lat="42.92125" lon="0.78642">
        <ele>1101</ele>
        <time>2024-08-03T18:15:25Z</time>
      </trkpt>
      <trkpt lat="42.92136" lon="0.78674">
        <ele>1102</ele>
        <time>2024-08-03T18:15:29Z</time>
      </trkpt>
      <trkpt lat="42.92141" lon="0.78706">
        <ele>1100</ele>
        <time>2024-08-03T18:15:34Z</time>
      </trkpt>
      <trkpt lat="42.92144" lon="0.78708">
        <ele>1101</ele>
        <time>2024-08-03T18:15:34Z</time>
      </trkpt>
      <trkpt lat="42.92149" lon="0.78705">
        <ele>1106</ele>
        <time>2024-08-03T18:15:35Z</time>
      </trkpt>
      <trkpt lat="42.92151" lon="0.78702">
        <ele>1108</ele>
        <time>2024-08-03T18:15:36Z</time>
      </trkpt>
      <trkpt lat="42.92151" lon="0.78694">
        <ele>1109</ele>
        <time>2024-08-03T18:15:37Z</time>
      </trkpt>
      <trkpt lat="42.92143" lon="0.7867">
        <ele>1108</ele>
        <time>2024-08-03T18:15:40Z</time>
      </trkpt>
      <trkpt lat="42.92134" lon="0.78622">
        <ele>1111</ele>
        <time>2024-08-03T18:15:47Z</time>
      </trkpt>
      <trkpt lat="42.92128" lon="0.78595">
        <ele>1113</ele>
        <time>2024-08-03T18:15:50Z</time>
      </trkpt>
      <trkpt lat="42.92106" lon="0.78525">
        <ele>1113</ele>
        <time>2024-08-03T18:16:00Z</time>
      </trkpt>
      <trkpt lat="42.92097" lon="0.78468">
        <ele>1120</ele>
        <time>2024-08-03T18:16:08Z</time>
      </trkpt>
      <trkpt lat="42.92091" lon="0.78452">
        <ele>1120</ele>
        <time>2024-08-03T18:16:10Z</time>
      </trkpt>
      <trkpt lat="42.92063" lon="0.78408">
        <ele>1118</ele>
        <time>2024-08-03T18:16:18Z</time>
      </trkpt>
      <trkpt lat="42.92055" lon="0.78387">
        <ele>1119</ele>
        <time>2024-08-03T18:16:21Z</time>
      </trkpt>
      <trkpt lat="42.92053" lon="0.78365">
        <ele>1123</ele>
        <time>2024-08-03T18:16:24Z</time>
      </trkpt>
      <trkpt lat="42.92048" lon="0.78345">
        <ele>1125</ele>
        <time>2024-08-03T18:16:27Z</time>
      </trkpt>
      <trkpt lat="42.92037" lon="0.78321">
        <ele>1127</ele>
        <time>2024-08-03T18:16:30Z</time>
      </trkpt>
      <trkpt lat="42.91992" lon="0.7824">
        <ele>1138</ele>
        <time>2024-08-03T18:16:44Z</time>
      </trkpt>
      <trkpt lat="42.91975" lon="0.78216">
        <ele>1144</ele>
        <time>2024-08-03T18:16:48Z</time>
      </trkpt>
      <trkpt lat="42.91958" lon="0.7818">
        <ele>1149</ele>
        <time>2024-08-03T18:16:53Z</time>
      </trkpt>
      <trkpt lat="42.91946" lon="0.78168">
        <ele>1148</ele>
        <time>2024-08-03T18:16:56Z</time>
      </trkpt>
      <trkpt lat="42.91933" lon="0.7816">
        <ele>1146</ele>
        <time>2024-08-03T18:16:59Z</time>
      </trkpt>
      <trkpt lat="42.91928" lon="0.78152">
        <ele>1146</ele>
        <time>2024-08-03T18:17:00Z</time>
      </trkpt>
      <trkpt lat="42.9193" lon="0.78144">
        <ele>1149</ele>
        <time>2024-08-03T18:17:01Z</time>
      </trkpt>
      <trkpt lat="42.91935" lon="0.78142">
        <ele>1151</ele>
        <time>2024-08-03T18:17:02Z</time>
      </trkpt>
      <trkpt lat="42.91943" lon="0.78146">
        <ele>1153</ele>
        <time>2024-08-03T18:17:04Z</time>
      </trkpt>
      <trkpt lat="42.91954" lon="0.78156">
        <ele>1153</ele>
        <time>2024-08-03T18:17:06Z</time>
      </trkpt>
      <trkpt lat="42.92032" lon="0.7825">
        <ele>1149</ele>
        <time>2024-08-03T18:17:24Z</time>
      </trkpt>
      <trkpt lat="42.92038" lon="0.78255">
        <ele>1150</ele>
        <time>2024-08-03T18:17:26Z</time>
      </trkpt>
      <trkpt lat="42.92044" lon="0.7825">
        <ele>1155</ele>
        <time>2024-08-03T18:17:27Z</time>
      </trkpt>
      <trkpt lat="42.92046" lon="0.78244">
        <ele>1158</ele>
        <time>2024-08-03T18:17:28Z</time>
      </trkpt>
      <trkpt lat="42.92043" lon="0.78236">
        <ele>1160</ele>
        <time>2024-08-03T18:17:29Z</time>
      </trkpt>
      <trkpt lat="42.92021" lon="0.78219">
        <ele>1156</ele>
        <time>2024-08-03T18:17:33Z</time>
      </trkpt>
      <trkpt lat="42.92011" lon="0.78201">
        <ele>1158</ele>
        <time>2024-08-03T18:17:36Z</time>
      </trkpt>
      <trkpt lat="42.91981" lon="0.78142">
        <ele>1167</ele>
        <time>2024-08-03T18:17:46Z</time>
      </trkpt>
      <trkpt lat="42.91954" lon="0.78094">
        <ele>1172</ele>
        <time>2024-08-03T18:17:54Z</time>
      </trkpt>
      <trkpt lat="42.91933" lon="0.78062">
        <ele>1170</ele>
        <time>2024-08-03T18:17:59Z</time>
      </trkpt>
      <trkpt lat="42.91925" lon="0.78043">
        <ele>1170</ele>
        <time>2024-08-03T18:18:02Z</time>
      </trkpt>
      <trkpt lat="42.91891" lon="0.77939">
        <ele>1183</ele>
        <time>2024-08-03T18:18:17Z</time>
      </trkpt>
      <trkpt lat="42.91884" lon="0.77925">
        <ele>1184</ele>
        <time>2024-08-03T18:18:19Z</time>
      </trkpt>
      <trkpt lat="42.91873" lon="0.77913">
        <ele>1185</ele>
        <time>2024-08-03T18:18:22Z</time>
      </trkpt>
      <trkpt lat="42.91854" lon="0.77901">
        <ele>1186</ele>
        <time>2024-08-03T18:18:25Z</time>
      </trkpt>
      <trkpt lat="42.91828" lon="0.7789">
        <ele>1187</ele>
        <time>2024-08-03T18:18:30Z</time>
      </trkpt>
      <trkpt lat="42.91824" lon="0.77883">
        <ele>1189</ele>
        <time>2024-08-03T18:18:31Z</time>
      </trkpt>
      <trkpt lat="42.91828" lon="0.77875">
        <ele>1189</ele>
        <time>2024-08-03T18:18:33Z</time>
      </trkpt>
      <trkpt lat="42.91834" lon="0.77875">
        <ele>1187</ele>
        <time>2024-08-03T18:18:34Z</time>
      </trkpt>
      <trkpt lat="42.91844" lon="0.77878">
        <ele>1188</ele>
        <time>2024-08-03T18:18:36Z</time>
      </trkpt>
      <trkpt lat="42.91864" lon="0.77877">
        <ele>1192</ele>
        <time>2024-08-03T18:18:39Z</time>
      </trkpt>
      <trkpt lat="42.91874" lon="0.77879">
        <ele>1193</ele>
        <time>2024-08-03T18:18:41Z</time>
      </trkpt>
      <trkpt lat="42.91895" lon="0.77895">
        <ele>1192</ele>
        <time>2024-08-03T18:18:45Z</time>
      </trkpt>
      <trkpt lat="42.91901" lon="0.77893">
        <ele>1194</ele>
        <time>2024-08-03T18:18:46Z</time>
      </trkpt>
      <trkpt lat="42.91903" lon="0.77885">
        <ele>1196</ele>
        <time>2024-08-03T18:18:47Z</time>
      </trkpt>
      <trkpt lat="42.919" lon="0.77878">
        <ele>1198</ele>
        <time>2024-08-03T18:18:48Z</time>
      </trkpt>
      <trkpt lat="42.91841" lon="0.77813">
        <ele>1198</ele>
        <time>2024-08-03T18:19:02Z</time>
      </trkpt>
      <trkpt lat="42.91815" lon="0.77793">
        <ele>1204</ele>
        <time>2024-08-03T18:19:07Z</time>
      </trkpt>
      <trkpt lat="42.91813" lon="0.77785">
        <ele>1206</ele>
        <time>2024-08-03T18:19:08Z</time>
      </trkpt>
      <trkpt lat="42.91816" lon="0.77777">
        <ele>1206</ele>
        <time>2024-08-03T18:19:10Z</time>
      </trkpt>
      <trkpt lat="42.91822" lon="0.77777">
        <ele>1204</ele>
        <time>2024-08-03T18:19:11Z</time>
      </trkpt>
      <trkpt lat="42.91846" lon="0.77787">
        <ele>1203</ele>
        <time>2024-08-03T18:19:15Z</time>
      </trkpt>
      <trkpt lat="42.91886" lon="0.77792">
        <ele>1215</ele>
        <time>2024-08-03T18:19:22Z</time>
      </trkpt>
      <trkpt lat="42.91896" lon="0.77802">
        <ele>1217</ele>
        <time>2024-08-03T18:19:24Z</time>
      </trkpt>
      <trkpt lat="42.91903" lon="0.77812">
        <ele>1217</ele>
        <time>2024-08-03T18:19:26Z</time>
      </trkpt>
      <trkpt lat="42.91932" lon="0.77856">
        <ele>1219</ele>
        <time>2024-08-03T18:19:34Z</time>
      </trkpt>
      <trkpt lat="42.91955" lon="0.77902">
        <ele>1220</ele>
        <time>2024-08-03T18:19:41Z</time>
      </trkpt>
      <trkpt lat="42.91974" lon="0.77948">
        <ele>1221</ele>
        <time>2024-08-03T18:19:48Z</time>
      </trkpt>
      <trkpt lat="42.91979" lon="0.7795">
        <ele>1223</ele>
        <time>2024-08-03T18:19:49Z</time>
      </trkpt>
      <trkpt lat="42.91983" lon="0.77943">
        <ele>1228</ele>
        <time>2024-08-03T18:19:50Z</time>
      </trkpt>
      <trkpt lat="42.91984" lon="0.77936">
        <ele>1231</ele>
        <time>2024-08-03T18:19:51Z</time>
      </trkpt>
      <trkpt lat="42.91955" lon="0.77876">
        <ele>1229</ele>
        <time>2024-08-03T18:20:00Z</time>
      </trkpt>
      <trkpt lat="42.91949" lon="0.77848">
        <ele>1233</ele>
        <time>2024-08-03T18:20:04Z</time>
      </trkpt>
      <trkpt lat="42.91918" lon="0.77732">
        <ele>1240</ele>
        <time>2024-08-03T18:20:20Z</time>
      </trkpt>
      <trkpt lat="42.91914" lon="0.77717">
        <ele>1242</ele>
        <time>2024-08-03T18:20:22Z</time>
      </trkpt>
      <trkpt lat="42.91906" lon="0.77701">
        <ele>1243</ele>
        <time>2024-08-03T18:20:25Z</time>
      </trkpt>
      <trkpt lat="42.91892" lon="0.77681">
        <ele>1245</ele>
        <time>2024-08-03T18:20:29Z</time>
      </trkpt>
      <trkpt lat="42.91864" lon="0.77621">
        <ele>1250</ele>
        <time>2024-08-03T18:20:38Z</time>
      </trkpt>
      <trkpt lat="42.91849" lon="0.77613">
        <ele>1251</ele>
        <time>2024-08-03T18:20:41Z</time>
      </trkpt>
      <trkpt lat="42.91831" lon="0.77612">
        <ele>1250</ele>
        <time>2024-08-03T18:20:44Z</time>
      </trkpt>
      <trkpt lat="42.9182" lon="0.77608">
        <ele>1251</ele>
        <time>2024-08-03T18:20:46Z</time>
      </trkpt>
      <trkpt lat="42.91817" lon="0.77599">
        <ele>1254</ele>
        <time>2024-08-03T18:20:47Z</time>
      </trkpt>
      <trkpt lat="42.91819" lon="0.77589">
        <ele>1257</ele>
        <time>2024-08-03T18:20:49Z</time>
      </trkpt>
      <trkpt lat="42.91827" lon="0.77584">
        <ele>1258</ele>
        <time>2024-08-03T18:20:50Z</time>
      </trkpt>
      <trkpt lat="42.91845" lon="0.77584">
        <ele>1258</ele>
        <time>2024-08-03T18:20:53Z</time>
      </trkpt>
      <trkpt lat="42.91863" lon="0.77588">
        <ele>1257</ele>
        <time>2024-08-03T18:20:57Z</time>
      </trkpt>
      <trkpt lat="42.91884" lon="0.77597">
        <ele>1256</ele>
        <time>2024-08-03T18:21:00Z</time>
      </trkpt>
      <trkpt lat="42.91901" lon="0.77602">
        <ele>1256</ele>
        <time>2024-08-03T18:21:04Z</time>
      </trkpt>
      <trkpt lat="42.9191" lon="0.776">
        <ele>1257</ele>
        <time>2024-08-03T18:21:05Z</time>
      </trkpt>
      <trkpt lat="42.91915" lon="0.77588">
        <ele>1258</ele>
        <time>2024-08-03T18:21:07Z</time>
      </trkpt>
      <trkpt lat="42.91911" lon="0.77569">
        <ele>1259</ele>
        <time>2024-08-03T18:21:10Z</time>
      </trkpt>
      <trkpt lat="42.91895" lon="0.77513">
        <ele>1265</ele>
        <time>2024-08-03T18:21:17Z</time>
      </trkpt>
      <trkpt lat="42.91887" lon="0.77481">
        <ele>1269</ele>
        <time>2024-08-03T18:21:22Z</time>
      </trkpt>
      <trkpt lat="42.91886" lon="0.77453">
        <ele>1273</ele>
        <time>2024-08-03T18:21:25Z</time>
      </trkpt>
      <trkpt lat="42.91901" lon="0.77388">
        <ele>1276</ele>
        <time>2024-08-03T18:21:34Z</time>
      </trkpt>
      <trkpt lat="42.91905" lon="0.77366">
        <ele>1276</ele>
        <time>2024-08-03T18:21:37Z</time>
      </trkpt>
      <trkpt lat="42.91906" lon="0.77338">
        <ele>1278</ele>
        <time>2024-08-03T18:21:41Z</time>
      </trkpt>
      <trkpt lat="42.91901" lon="0.77309">
        <ele>1280</ele>
        <time>2024-08-03T18:21:45Z</time>
      </trkpt>
      <trkpt lat="42.91891" lon="0.77279">
        <ele>1283</ele>
        <time>2024-08-03T18:21:49Z</time>
      </trkpt>
      <trkpt lat="42.91876" lon="0.77252">
        <ele>1286</ele>
        <time>2024-08-03T18:21:54Z</time>
      </trkpt>
      <trkpt lat="42.9184" lon="0.77207">
        <ele>1292</ele>
        <time>2024-08-03T18:22:02Z</time>
      </trkpt>
      <trkpt lat="42.91828" lon="0.77181">
        <ele>1295</ele>
        <time>2024-08-03T18:22:06Z</time>
      </trkpt>
      <trkpt lat="42.91822" lon="0.77145">
        <ele>1297</ele>
        <time>2024-08-03T18:22:11Z</time>
      </trkpt>
      <trkpt lat="42.91826" lon="0.77105">
        <ele>1298</ele>
        <time>2024-08-03T18:22:16Z</time>
      </trkpt>
      <trkpt lat="42.91827" lon="0.77072">
        <ele>1300</ele>
        <time>2024-08-03T18:22:21Z</time>
      </trkpt>
      <trkpt lat="42.91822" lon="0.77017">
        <ele>1305</ele>
        <time>2024-08-03T18:22:28Z</time>
      </trkpt>
      <trkpt lat="42.91813" lon="0.76971">
        <ele>1315</ele>
        <time>2024-08-03T18:22:34Z</time>
      </trkpt>
      <trkpt lat="42.91817" lon="0.76955">
        <ele>1317</ele>
        <time>2024-08-03T18:22:36Z</time>
      </trkpt>
      <trkpt lat="42.91824" lon="0.76942">
        <ele>1318</ele>
        <time>2024-08-03T18:22:38Z</time>
      </trkpt>
      <trkpt lat="42.91837" lon="0.76927">
        <ele>1319</ele>
        <time>2024-08-03T18:22:41Z</time>
      </trkpt>
      <trkpt lat="42.91885" lon="0.76893">
        <ele>1314</ele>
        <time>2024-08-03T18:22:51Z</time>
      </trkpt>
      <trkpt lat="42.91898" lon="0.76873">
        <ele>1314</ele>
        <time>2024-08-03T18:22:54Z</time>
      </trkpt>
      <trkpt lat="42.91906" lon="0.7685">
        <ele>1316</ele>
        <time>2024-08-03T18:22:58Z</time>
      </trkpt>
      <trkpt lat="42.91909" lon="0.76823">
        <ele>1319</ele>
        <time>2024-08-03T18:23:01Z</time>
      </trkpt>
      <trkpt lat="42.91911" lon="0.76796">
        <ele>1321</ele>
        <time>2024-08-03T18:23:05Z</time>
      </trkpt>
      <trkpt lat="42.9191" lon="0.76769">
        <ele>1325</ele>
        <time>2024-08-03T18:23:08Z</time>
      </trkpt>
      <trkpt lat="42.91903" lon="0.76693">
        <ele>1334</ele>
        <time>2024-08-03T18:23:18Z</time>
      </trkpt>
      <trkpt lat="42.91902" lon="0.76666">
        <ele>1336</ele>
        <time>2024-08-03T18:23:22Z</time>
      </trkpt>
      <trkpt lat="42.91901" lon="0.76621">
        <ele>1339</ele>
        <time>2024-08-03T18:23:28Z</time>
      </trkpt>
      <trkpt lat="42.91903" lon="0.76588">
        <ele>1340</ele>
        <time>2024-08-03T18:23:32Z</time>
      </trkpt>
      <trkpt lat="42.9191" lon="0.76473">
        <ele>1346</ele>
        <time>2024-08-03T18:23:47Z</time>
      </trkpt>
      <trkpt lat="42.91917" lon="0.76417">
        <ele>1348</ele>
        <time>2024-08-03T18:23:55Z</time>
      </trkpt>
      <trkpt lat="42.91927" lon="0.7631">
        <ele>1355</ele>
        <time>2024-08-03T18:24:09Z</time>
      </trkpt>
      <trkpt lat="42.9194" lon="0.76211">
        <ele>1359</ele>
        <time>2024-08-03T18:24:22Z</time>
      </trkpt>
      <trkpt lat="42.91937" lon="0.76182">
        <ele>1360</ele>
        <time>2024-08-03T18:24:25Z</time>
      </trkpt>
      <trkpt lat="42.91928" lon="0.7616">
        <ele>1359</ele>
        <time>2024-08-03T18:24:29Z</time>
      </trkpt>
      <trkpt lat="42.91919" lon="0.76134">
        <ele>1358</ele>
        <time>2024-08-03T18:24:33Z</time>
      </trkpt>
      <trkpt lat="42.91908" lon="0.76088">
        <ele>1355</ele>
        <time>2024-08-03T18:24:39Z</time>
      </trkpt>
      <trkpt lat="42.91899" lon="0.7604">
        <ele>1348</ele>
        <time>2024-08-03T18:24:45Z</time>
      </trkpt>
      <trkpt lat="42.91899" lon="0.75986">
        <ele>1342</ele>
        <time>2024-08-03T18:24:52Z</time>
      </trkpt>
      <trkpt lat="42.91908" lon="0.75941">
        <ele>1342</ele>
        <time>2024-08-03T18:24:58Z</time>
      </trkpt>
      <trkpt lat="42.91909" lon="0.75906">
        <ele>1342</ele>
        <time>2024-08-03T18:25:03Z</time>
      </trkpt>
      <trkpt lat="42.91905" lon="0.75891">
        <ele>1343</ele>
        <time>2024-08-03T18:25:05Z</time>
      </trkpt>
      <trkpt lat="42.9188" lon="0.75864">
        <ele>1334</ele>
        <time>2024-08-03T18:25:11Z</time>
      </trkpt>
      <trkpt lat="42.91865" lon="0.75839">
        <ele>1328</ele>
        <time>2024-08-03T18:25:15Z</time>
      </trkpt>
      <trkpt lat="42.91859" lon="0.75807">
        <ele>1330</ele>
        <time>2024-08-03T18:25:19Z</time>
      </trkpt>
      <trkpt lat="42.9185" lon="0.75784">
        <ele>1330</ele>
        <time>2024-08-03T18:25:23Z</time>
      </trkpt>
      <trkpt lat="42.91812" lon="0.75734">
        <ele>1317</ele>
        <time>2024-08-03T18:25:32Z</time>
      </trkpt>
      <trkpt lat="42.91788" lon="0.75696">
        <ele>1305</ele>
        <time>2024-08-03T18:25:39Z</time>
      </trkpt>
      <trkpt lat="42.91784" lon="0.75673">
        <ele>1304</ele>
        <time>2024-08-03T18:25:42Z</time>
      </trkpt>
      <trkpt lat="42.91779" lon="0.75665">
        <ele>1301</ele>
        <time>2024-08-03T18:25:43Z</time>
      </trkpt>
      <trkpt lat="42.91772" lon="0.75664">
        <ele>1297</ele>
        <time>2024-08-03T18:25:44Z</time>
      </trkpt>
      <trkpt lat="42.91767" lon="0.75672">
        <ele>1295</ele>
        <time>2024-08-03T18:25:46Z</time>
      </trkpt>
      <trkpt lat="42.91769" lon="0.75684">
        <ele>1296</ele>
        <time>2024-08-03T18:25:47Z</time>
      </trkpt>
      <trkpt lat="42.91803" lon="0.75746">
        <ele>1312</ele>
        <time>2024-08-03T18:25:57Z</time>
      </trkpt>
      <trkpt lat="42.91812" lon="0.75779">
        <ele>1312</ele>
        <time>2024-08-03T18:26:02Z</time>
      </trkpt>
      <trkpt lat="42.91814" lon="0.75811">
        <ele>1307</ele>
        <time>2024-08-03T18:26:06Z</time>
      </trkpt>
      <trkpt lat="42.91814" lon="0.75847">
        <ele>1304</ele>
        <time>2024-08-03T18:26:11Z</time>
      </trkpt>
      <trkpt lat="42.9182" lon="0.75881">
        <ele>1306</ele>
        <time>2024-08-03T18:26:15Z</time>
      </trkpt>
      <trkpt lat="42.91828" lon="0.75899">
        <ele>1308</ele>
        <time>2024-08-03T18:26:18Z</time>
      </trkpt>
      <trkpt lat="42.91826" lon="0.75916">
        <ele>1307</ele>
        <time>2024-08-03T18:26:20Z</time>
      </trkpt>
      <trkpt lat="42.91816" lon="0.75924">
        <ele>1308</ele>
        <time>2024-08-03T18:26:22Z</time>
      </trkpt>
      <trkpt lat="42.91809" lon="0.7592">
        <ele>1307</ele>
        <time>2024-08-03T18:26:24Z</time>
      </trkpt>
      <trkpt lat="42.91805" lon="0.75909">
        <ele>1305</ele>
        <time>2024-08-03T18:26:25Z</time>
      </trkpt>
      <trkpt lat="42.91804" lon="0.75878">
        <ele>1303</ele>
        <time>2024-08-03T18:26:29Z</time>
      </trkpt>
      <trkpt lat="42.91798" lon="0.75852">
        <ele>1298</ele>
        <time>2024-08-03T18:26:33Z</time>
      </trkpt>
      <trkpt lat="42.91771" lon="0.75753">
        <ele>1294</ele>
        <time>2024-08-03T18:26:47Z</time>
      </trkpt>
      <trkpt lat="42.91764" lon="0.75748">
        <ele>1291</ele>
        <time>2024-08-03T18:26:48Z</time>
      </trkpt>
      <trkpt lat="42.91759" lon="0.75751">
        <ele>1288</ele>
        <time>2024-08-03T18:26:49Z</time>
      </trkpt>
      <trkpt lat="42.91756" lon="0.75758">
        <ele>1286</ele>
        <time>2024-08-03T18:26:50Z</time>
      </trkpt>
      <trkpt lat="42.9177" lon="0.75806">
        <ele>1288</ele>
        <time>2024-08-03T18:26:57Z</time>
      </trkpt>
      <trkpt lat="42.91773" lon="0.75847">
        <ele>1289</ele>
        <time>2024-08-03T18:27:02Z</time>
      </trkpt>
      <trkpt lat="42.91768" lon="0.75853">
        <ele>1289</ele>
        <time>2024-08-03T18:27:03Z</time>
      </trkpt>
      <trkpt lat="42.91761" lon="0.75853">
        <ele>1286</ele>
        <time>2024-08-03T18:27:05Z</time>
      </trkpt>
      <trkpt lat="42.91756" lon="0.75846">
        <ele>1283</ele>
        <time>2024-08-03T18:27:06Z</time>
      </trkpt>
      <trkpt lat="42.91753" lon="0.75819">
        <ele>1279</ele>
        <time>2024-08-03T18:27:09Z</time>
      </trkpt>
      <trkpt lat="42.91746" lon="0.75786">
        <ele>1279</ele>
        <time>2024-08-03T18:27:14Z</time>
      </trkpt>
      <trkpt lat="42.91727" lon="0.75742">
        <ele>1274</ele>
        <time>2024-08-03T18:27:21Z</time>
      </trkpt>
      <trkpt lat="42.91695" lon="0.75683">
        <ele>1260</ele>
        <time>2024-08-03T18:27:30Z</time>
      </trkpt>
      <trkpt lat="42.91693" lon="0.75655">
        <ele>1257</ele>
        <time>2024-08-03T18:27:34Z</time>
      </trkpt>
      <trkpt lat="42.91697" lon="0.75628">
        <ele>1257</ele>
        <time>2024-08-03T18:27:37Z</time>
      </trkpt>
      <trkpt lat="42.91696" lon="0.75616">
        <ele>1256</ele>
        <time>2024-08-03T18:27:39Z</time>
      </trkpt>
      <trkpt lat="42.91691" lon="0.75609">
        <ele>1253</ele>
        <time>2024-08-03T18:27:40Z</time>
      </trkpt>
      <trkpt lat="42.91685" lon="0.7561">
        <ele>1251</ele>
        <time>2024-08-03T18:27:41Z</time>
      </trkpt>
      <trkpt lat="42.9168" lon="0.75615">
        <ele>1249</ele>
        <time>2024-08-03T18:27:42Z</time>
      </trkpt>
      <trkpt lat="42.91679" lon="0.75701">
        <ele>1253</ele>
        <time>2024-08-03T18:27:54Z</time>
      </trkpt>
      <trkpt lat="42.91684" lon="0.75728">
        <ele>1256</ele>
        <time>2024-08-03T18:27:57Z</time>
      </trkpt>
      <trkpt lat="42.91683" lon="0.7575">
        <ele>1256</ele>
        <time>2024-08-03T18:28:00Z</time>
      </trkpt>
      <trkpt lat="42.91671" lon="0.75764">
        <ele>1255</ele>
        <time>2024-08-03T18:28:03Z</time>
      </trkpt>
      <trkpt lat="42.91653" lon="0.75766">
        <ele>1255</ele>
        <time>2024-08-03T18:28:06Z</time>
      </trkpt>
      <trkpt lat="42.91629" lon="0.75759">
        <ele>1253</ele>
        <time>2024-08-03T18:28:11Z</time>
      </trkpt>
      <trkpt lat="42.91616" lon="0.75752">
        <ele>1251</ele>
        <time>2024-08-03T18:28:13Z</time>
      </trkpt>
      <trkpt lat="42.91567" lon="0.75684">
        <ele>1231</ele>
        <time>2024-08-03T18:28:25Z</time>
      </trkpt>
      <trkpt lat="42.91551" lon="0.75667">
        <ele>1225</ele>
        <time>2024-08-03T18:28:29Z</time>
      </trkpt>
      <trkpt lat="42.91535" lon="0.75657">
        <ele>1221</ele>
        <time>2024-08-03T18:28:32Z</time>
      </trkpt>
      <trkpt lat="42.91522" lon="0.75662">
        <ele>1221</ele>
        <time>2024-08-03T18:28:35Z</time>
      </trkpt>
      <trkpt lat="42.91512" lon="0.75676">
        <ele>1223</ele>
        <time>2024-08-03T18:28:37Z</time>
      </trkpt>
      <trkpt lat="42.91496" lon="0.7571">
        <ele>1228</ele>
        <time>2024-08-03T18:28:42Z</time>
      </trkpt>
      <trkpt lat="42.91485" lon="0.75728">
        <ele>1230</ele>
        <time>2024-08-03T18:28:46Z</time>
      </trkpt>
      <trkpt lat="42.91474" lon="0.75731">
        <ele>1228</ele>
        <time>2024-08-03T18:28:47Z</time>
      </trkpt>
      <trkpt lat="42.91468" lon="0.75725">
        <ele>1225</ele>
        <time>2024-08-03T18:28:49Z</time>
      </trkpt>
      <trkpt lat="42.91469" lon="0.75713">
        <ele>1222</ele>
        <time>2024-08-03T18:28:50Z</time>
      </trkpt>
      <trkpt lat="42.91477" lon="0.75696">
        <ele>1220</ele>
        <time>2024-08-03T18:28:53Z</time>
      </trkpt>
      <trkpt lat="42.91484" lon="0.75639">
        <ele>1211</ele>
        <time>2024-08-03T18:29:01Z</time>
      </trkpt>
      <trkpt lat="42.91484" lon="0.75624">
        <ele>1209</ele>
        <time>2024-08-03T18:29:03Z</time>
      </trkpt>
      <trkpt lat="42.91488" lon="0.75609">
        <ele>1208</ele>
        <time>2024-08-03T18:29:05Z</time>
      </trkpt>
      <trkpt lat="42.9149" lon="0.75595">
        <ele>1206</ele>
        <time>2024-08-03T18:29:06Z</time>
      </trkpt>
      <trkpt lat="42.91485" lon="0.75588">
        <ele>1204</ele>
        <time>2024-08-03T18:29:08Z</time>
      </trkpt>
      <trkpt lat="42.9148" lon="0.75587">
        <ele>1203</ele>
        <time>2024-08-03T18:29:09Z</time>
      </trkpt>
      <trkpt lat="42.91464" lon="0.75625">
        <ele>1205</ele>
        <time>2024-08-03T18:29:14Z</time>
      </trkpt>
      <trkpt lat="42.91444" lon="0.75655">
        <ele>1204</ele>
        <time>2024-08-03T18:29:20Z</time>
      </trkpt>
      <trkpt lat="42.91416" lon="0.7568">
        <ele>1203</ele>
        <time>2024-08-03T18:29:26Z</time>
      </trkpt>
      <trkpt lat="42.91406" lon="0.75681">
        <ele>1203</ele>
        <time>2024-08-03T18:29:27Z</time>
      </trkpt>
      <trkpt lat="42.91401" lon="0.75675">
        <ele>1202</ele>
        <time>2024-08-03T18:29:29Z</time>
      </trkpt>
      <trkpt lat="42.914" lon="0.75665">
        <ele>1200</ele>
        <time>2024-08-03T18:29:30Z</time>
      </trkpt>
      <trkpt lat="42.91418" lon="0.75624">
        <ele>1194</ele>
        <time>2024-08-03T18:29:36Z</time>
      </trkpt>
      <trkpt lat="42.91431" lon="0.75566">
        <ele>1189</ele>
        <time>2024-08-03T18:29:44Z</time>
      </trkpt>
      <trkpt lat="42.9144" lon="0.75503">
        <ele>1183</ele>
        <time>2024-08-03T18:29:52Z</time>
      </trkpt>
      <trkpt lat="42.91446" lon="0.7548">
        <ele>1182</ele>
        <time>2024-08-03T18:29:56Z</time>
      </trkpt>
      <trkpt lat="42.91462" lon="0.75463">
        <ele>1182</ele>
        <time>2024-08-03T18:29:59Z</time>
      </trkpt>
      <trkpt lat="42.91464" lon="0.75455">
        <ele>1181</ele>
        <time>2024-08-03T18:30:00Z</time>
      </trkpt>
      <trkpt lat="42.91463" lon="0.75448">
        <ele>1180</ele>
        <time>2024-08-03T18:30:01Z</time>
      </trkpt>
      <trkpt lat="42.91456" lon="0.75446">
        <ele>1179</ele>
        <time>2024-08-03T18:30:02Z</time>
      </trkpt>
      <trkpt lat="42.91448" lon="0.7545">
        <ele>1178</ele>
        <time>2024-08-03T18:30:04Z</time>
      </trkpt>
      <trkpt lat="42.9144" lon="0.75463">
        <ele>1179</ele>
        <time>2024-08-03T18:30:06Z</time>
      </trkpt>
      <trkpt lat="42.91409" lon="0.75486">
        <ele>1176</ele>
        <time>2024-08-03T18:30:12Z</time>
      </trkpt>
      <trkpt lat="42.91389" lon="0.75511">
        <ele>1175</ele>
        <time>2024-08-03T18:30:17Z</time>
      </trkpt>
      <trkpt lat="42.91379" lon="0.7552">
        <ele>1174</ele>
        <time>2024-08-03T18:30:19Z</time>
      </trkpt>
      <trkpt lat="42.91371" lon="0.75516">
        <ele>1172</ele>
        <time>2024-08-03T18:30:21Z</time>
      </trkpt>
      <trkpt lat="42.91369" lon="0.75505">
        <ele>1170</ele>
        <time>2024-08-03T18:30:22Z</time>
      </trkpt>
      <trkpt lat="42.91398" lon="0.75449">
        <ele>1169</ele>
        <time>2024-08-03T18:30:31Z</time>
      </trkpt>
      <trkpt lat="42.91402" lon="0.75431">
        <ele>1168</ele>
        <time>2024-08-03T18:30:34Z</time>
      </trkpt>
      <trkpt lat="42.91402" lon="0.75373">
        <ele>1162</ele>
        <time>2024-08-03T18:30:41Z</time>
      </trkpt>
      <trkpt lat="42.91406" lon="0.7534">
        <ele>1160</ele>
        <time>2024-08-03T18:30:46Z</time>
      </trkpt>
      <trkpt lat="42.91417" lon="0.75318">
        <ele>1159</ele>
        <time>2024-08-03T18:30:49Z</time>
      </trkpt>
      <trkpt lat="42.91418" lon="0.75311">
        <ele>1158</ele>
        <time>2024-08-03T18:30:50Z</time>
      </trkpt>
      <trkpt lat="42.91415" lon="0.75305">
        <ele>1156</ele>
        <time>2024-08-03T18:30:51Z</time>
      </trkpt>
      <trkpt lat="42.91406" lon="0.75306">
        <ele>1153</ele>
        <time>2024-08-03T18:30:53Z</time>
      </trkpt>
      <trkpt lat="42.91391" lon="0.75322">
        <ele>1152</ele>
        <time>2024-08-03T18:30:56Z</time>
      </trkpt>
      <trkpt lat="42.91362" lon="0.75359">
        <ele>1148</ele>
        <time>2024-08-03T18:31:03Z</time>
      </trkpt>
      <trkpt lat="42.91352" lon="0.75382">
        <ele>1148</ele>
        <time>2024-08-03T18:31:07Z</time>
      </trkpt>
      <trkpt lat="42.91336" lon="0.7541">
        <ele>1148</ele>
        <time>2024-08-03T18:31:11Z</time>
      </trkpt>
      <trkpt lat="42.91328" lon="0.75415">
        <ele>1148</ele>
        <time>2024-08-03T18:31:13Z</time>
      </trkpt>
      <trkpt lat="42.91322" lon="0.75408">
        <ele>1146</ele>
        <time>2024-08-03T18:31:14Z</time>
      </trkpt>
      <trkpt lat="42.91321" lon="0.75402">
        <ele>1146</ele>
        <time>2024-08-03T18:31:15Z</time>
      </trkpt>
      <trkpt lat="42.91373" lon="0.75254">
        <ele>1132</ele>
        <time>2024-08-03T18:31:36Z</time>
      </trkpt>
      <trkpt lat="42.91408" lon="0.75213">
        <ele>1130</ele>
        <time>2024-08-03T18:31:45Z</time>
      </trkpt>
      <trkpt lat="42.91457" lon="0.75194">
        <ele>1129</ele>
        <time>2024-08-03T18:31:54Z</time>
      </trkpt>
      <trkpt lat="42.9148" lon="0.75177">
        <ele>1125</ele>
        <time>2024-08-03T18:31:58Z</time>
      </trkpt>
      <trkpt lat="42.91499" lon="0.75175">
        <ele>1125</ele>
        <time>2024-08-03T18:32:02Z</time>
      </trkpt>
      <trkpt lat="42.91533" lon="0.75177">
        <ele>1134</ele>
        <time>2024-08-03T18:32:08Z</time>
      </trkpt>
      <trkpt lat="42.91544" lon="0.75161">
        <ele>1133</ele>
        <time>2024-08-03T18:32:11Z</time>
      </trkpt>
      <trkpt lat="42.91541" lon="0.75142">
        <ele>1130</ele>
        <time>2024-08-03T18:32:13Z</time>
      </trkpt>
      <trkpt lat="42.91543" lon="0.75102">
        <ele>1126</ele>
        <time>2024-08-03T18:32:18Z</time>
      </trkpt>
      <trkpt lat="42.91545" lon="0.75065">
        <ele>1125</ele>
        <time>2024-08-03T18:32:23Z</time>
      </trkpt>
      <trkpt lat="42.91529" lon="0.7503">
        <ele>1114</ele>
        <time>2024-08-03T18:32:29Z</time>
      </trkpt>
      <trkpt lat="42.91524" lon="0.74991">
        <ele>1108</ele>
        <time>2024-08-03T18:32:34Z</time>
      </trkpt>
      <trkpt lat="42.91522" lon="0.7495">
        <ele>1102</ele>
        <time>2024-08-03T18:32:39Z</time>
      </trkpt>
      <trkpt lat="42.91527" lon="0.74897">
        <ele>1098</ele>
        <time>2024-08-03T18:32:46Z</time>
      </trkpt>
      <trkpt lat="42.91538" lon="0.74825">
        <ele>1094</ele>
        <time>2024-08-03T18:32:56Z</time>
      </trkpt>
      <trkpt lat="42.91535" lon="0.74772">
        <ele>1087</ele>
        <time>2024-08-03T18:33:03Z</time>
      </trkpt>
      <trkpt lat="42.91543" lon="0.74717">
        <ele>1084</ele>
        <time>2024-08-03T18:33:10Z</time>
      </trkpt>
      <trkpt lat="42.91545" lon="0.74662">
        <ele>1078</ele>
        <time>2024-08-03T18:33:17Z</time>
      </trkpt>
      <trkpt lat="42.91559" lon="0.74628">
        <ele>1082</ele>
        <time>2024-08-03T18:33:22Z</time>
      </trkpt>
      <trkpt lat="42.91561" lon="0.74611">
        <ele>1081</ele>
        <time>2024-08-03T18:33:24Z</time>
      </trkpt>
      <trkpt lat="42.91552" lon="0.74528">
        <ele>1070</ele>
        <time>2024-08-03T18:33:35Z</time>
      </trkpt>
      <trkpt lat="42.91556" lon="0.74497">
        <ele>1070</ele>
        <time>2024-08-03T18:33:39Z</time>
      </trkpt>
      <trkpt lat="42.91554" lon="0.7442">
        <ele>1062</ele>
        <time>2024-08-03T18:33:49Z</time>
      </trkpt>
      <trkpt lat="42.91563" lon="0.74386">
        <ele>1063</ele>
        <time>2024-08-03T18:33:54Z</time>
      </trkpt>
      <trkpt lat="42.91558" lon="0.74378">
        <ele>1059</ele>
        <time>2024-08-03T18:33:56Z</time>
      </trkpt>
      <trkpt lat="42.91552" lon="0.74378">
        <ele>1056</ele>
        <time>2024-08-03T18:33:57Z</time>
      </trkpt>
      <trkpt lat="42.91548" lon="0.74385">
        <ele>1054</ele>
        <time>2024-08-03T18:33:58Z</time>
      </trkpt>
      <trkpt lat="42.91534" lon="0.74468">
        <ele>1055</ele>
        <time>2024-08-03T18:34:09Z</time>
      </trkpt>
      <trkpt lat="42.91517" lon="0.74494">
        <ele>1049</ele>
        <time>2024-08-03T18:34:13Z</time>
      </trkpt>
      <trkpt lat="42.9151" lon="0.74509">
        <ele>1046</ele>
        <time>2024-08-03T18:34:16Z</time>
      </trkpt>
      <trkpt lat="42.91506" lon="0.74535">
        <ele>1046</ele>
        <time>2024-08-03T18:34:19Z</time>
      </trkpt>
      <trkpt lat="42.91505" lon="0.74562">
        <ele>1048</ele>
        <time>2024-08-03T18:34:23Z</time>
      </trkpt>
      <trkpt lat="42.91502" lon="0.74566">
        <ele>1047</ele>
        <time>2024-08-03T18:34:23Z</time>
      </trkpt>
      <trkpt lat="42.91494" lon="0.74567">
        <ele>1044</ele>
        <time>2024-08-03T18:34:25Z</time>
      </trkpt>
      <trkpt lat="42.9149" lon="0.7456">
        <ele>1042</ele>
        <time>2024-08-03T18:34:26Z</time>
      </trkpt>
      <trkpt lat="42.91489" lon="0.74532">
        <ele>1039</ele>
        <time>2024-08-03T18:34:30Z</time>
      </trkpt>
      <trkpt lat="42.91492" lon="0.74493">
        <ele>1036</ele>
        <time>2024-08-03T18:34:35Z</time>
      </trkpt>
      <trkpt lat="42.91505" lon="0.74424">
        <ele>1035</ele>
        <time>2024-08-03T18:34:44Z</time>
      </trkpt>
      <trkpt lat="42.91505" lon="0.74354">
        <ele>1024</ele>
        <time>2024-08-03T18:34:53Z</time>
      </trkpt>
      <trkpt lat="42.91506" lon="0.74341">
        <ele>1023</ele>
        <time>2024-08-03T18:34:55Z</time>
      </trkpt>
      <trkpt lat="42.91515" lon="0.74297">
        <ele>1021</ele>
        <time>2024-08-03T18:35:01Z</time>
      </trkpt>
      <trkpt lat="42.91518" lon="0.74275">
        <ele>1018</ele>
        <time>2024-08-03T18:35:04Z</time>
      </trkpt>
      <trkpt lat="42.91528" lon="0.74228">
        <ele>1014</ele>
        <time>2024-08-03T18:35:10Z</time>
      </trkpt>
      <trkpt lat="42.91544" lon="0.74186">
        <ele>1012</ele>
        <time>2024-08-03T18:35:16Z</time>
      </trkpt>
      <trkpt lat="42.91549" lon="0.74177">
        <ele>1012</ele>
        <time>2024-08-03T18:35:18Z</time>
      </trkpt>
      <trkpt lat="42.91579" lon="0.74157">
        <ele>1021</ele>
        <time>2024-08-03T18:35:24Z</time>
      </trkpt>
      <trkpt lat="42.91587" lon="0.74141">
        <ele>1022</ele>
        <time>2024-08-03T18:35:26Z</time>
      </trkpt>
      <trkpt lat="42.91589" lon="0.74107">
        <ele>1017</ele>
        <time>2024-08-03T18:35:31Z</time>
      </trkpt>
      <trkpt lat="42.91571" lon="0.74034">
        <ele>997</ele>
        <time>2024-08-03T18:35:41Z</time>
      </trkpt>
      <trkpt lat="42.9157" lon="0.74004">
        <ele>993</ele>
        <time>2024-08-03T18:35:45Z</time>
      </trkpt>
      <trkpt lat="42.91575" lon="0.73965">
        <ele>985</ele>
        <time>2024-08-03T18:35:50Z</time>
      </trkpt>
      <trkpt lat="42.91592" lon="0.73931">
        <ele>982</ele>
        <time>2024-08-03T18:35:55Z</time>
      </trkpt>
      <trkpt lat="42.91606" lon="0.7389">
        <ele>971</ele>
        <time>2024-08-03T18:36:01Z</time>
      </trkpt>
      <trkpt lat="42.9162" lon="0.73869">
        <ele>967</ele>
        <time>2024-08-03T18:36:05Z</time>
      </trkpt>
      <trkpt lat="42.91635" lon="0.73865">
        <ele>969</ele>
        <time>2024-08-03T18:36:07Z</time>
      </trkpt>
      <trkpt lat="42.91653" lon="0.73874">
        <ele>977</ele>
        <time>2024-08-03T18:36:11Z</time>
      </trkpt>
      <trkpt lat="42.91693" lon="0.73885">
        <ele>990</ele>
        <time>2024-08-03T18:36:18Z</time>
      </trkpt>
      <trkpt lat="42.91716" lon="0.73871">
        <ele>992</ele>
        <time>2024-08-03T18:36:23Z</time>
      </trkpt>
      <trkpt lat="42.91721" lon="0.73846">
        <ele>990</ele>
        <time>2024-08-03T18:36:26Z</time>
      </trkpt>
      <trkpt lat="42.91711" lon="0.73817">
        <ele>984</ele>
        <time>2024-08-03T18:36:30Z</time>
      </trkpt>
      <trkpt lat="42.91678" lon="0.73757">
        <ele>962</ele>
        <time>2024-08-03T18:36:40Z</time>
      </trkpt>
      <trkpt lat="42.91664" lon="0.73725">
        <ele>949</ele>
        <time>2024-08-03T18:36:45Z</time>
      </trkpt>
      <trkpt lat="42.91663" lon="0.73712">
        <ele>946</ele>
        <time>2024-08-03T18:36:47Z</time>
      </trkpt>
      <trkpt lat="42.91666" lon="0.73699">
        <ele>945</ele>
        <time>2024-08-03T18:36:48Z</time>
      </trkpt>
      <trkpt lat="42.91697" lon="0.73635">
        <ele>947</ele>
        <time>2024-08-03T18:36:58Z</time>
      </trkpt>
      <trkpt lat="42.91713" lon="0.73592">
        <ele>947</ele>
        <time>2024-08-03T18:37:05Z</time>
      </trkpt>
      <trkpt lat="42.91718" lon="0.73548">
        <ele>941</ele>
        <time>2024-08-03T18:37:10Z</time>
      </trkpt>
      <trkpt lat="42.91726" lon="0.73531">
        <ele>942</ele>
        <time>2024-08-03T18:37:13Z</time>
      </trkpt>
      <trkpt lat="42.9174" lon="0.73443">
        <ele>932</ele>
        <time>2024-08-03T18:37:25Z</time>
      </trkpt>
      <trkpt lat="42.91753" lon="0.73404">
        <ele>932</ele>
        <time>2024-08-03T18:37:30Z</time>
      </trkpt>
      <trkpt lat="42.91761" lon="0.73344">
        <ele>926</ele>
        <time>2024-08-03T18:37:38Z</time>
      </trkpt>
      <trkpt lat="42.91772" lon="0.73285">
        <ele>919</ele>
        <time>2024-08-03T18:37:46Z</time>
      </trkpt>
      <trkpt lat="42.91789" lon="0.7326">
        <ele>925</ele>
        <time>2024-08-03T18:37:51Z</time>
      </trkpt>
      <trkpt lat="42.91803" lon="0.73204">
        <ele>921</ele>
        <time>2024-08-03T18:37:58Z</time>
      </trkpt>
      <trkpt lat="42.91808" lon="0.73135">
        <ele>907</ele>
        <time>2024-08-03T18:38:07Z</time>
      </trkpt>
      <trkpt lat="42.91819" lon="0.7309">
        <ele>903</ele>
        <time>2024-08-03T18:38:14Z</time>
      </trkpt>
      <trkpt lat="42.91824" lon="0.73054">
        <ele>898</ele>
        <time>2024-08-03T18:38:18Z</time>
      </trkpt>
      <trkpt lat="42.91836" lon="0.73012">
        <ele>896</ele>
        <time>2024-08-03T18:38:24Z</time>
      </trkpt>
      <trkpt lat="42.91845" lon="0.72956">
        <ele>888</ele>
        <time>2024-08-03T18:38:32Z</time>
      </trkpt>
      <trkpt lat="42.91862" lon="0.72889">
        <ele>880</ele>
        <time>2024-08-03T18:38:41Z</time>
      </trkpt>
      <trkpt lat="42.91903" lon="0.72774">
        <ele>878</ele>
        <time>2024-08-03T18:38:58Z</time>
      </trkpt>
      <trkpt lat="42.91906" lon="0.72684">
        <ele>869</ele>
        <time>2024-08-03T18:39:09Z</time>
      </trkpt>
      <trkpt lat="42.9191" lon="0.72637">
        <ele>864</ele>
        <time>2024-08-03T18:39:16Z</time>
      </trkpt>
      <trkpt lat="42.9192" lon="0.72599">
        <ele>861</ele>
        <time>2024-08-03T18:39:21Z</time>
      </trkpt>
      <trkpt lat="42.91954" lon="0.7253">
        <ele>856</ele>
        <time>2024-08-03T18:39:32Z</time>
      </trkpt>
      <trkpt lat="42.91986" lon="0.72492">
        <ele>853</ele>
        <time>2024-08-03T18:39:39Z</time>
      </trkpt>
      <trkpt lat="42.92011" lon="0.72467">
        <ele>850</ele>
        <time>2024-08-03T18:39:45Z</time>
      </trkpt>
      <trkpt lat="42.92108" lon="0.72381">
        <ele>839</ele>
        <time>2024-08-03T18:40:05Z</time>
      </trkpt>
      <trkpt lat="42.92175" lon="0.72265">
        <ele>825</ele>
        <time>2024-08-03T18:40:25Z</time>
      </trkpt>
      <trkpt lat="42.92204" lon="0.72223">
        <ele>822</ele>
        <time>2024-08-03T18:40:32Z</time>
      </trkpt>
      <trkpt lat="42.92259" lon="0.72161">
        <ele>820</ele>
        <time>2024-08-03T18:40:45Z</time>
      </trkpt>
      <trkpt lat="42.92278" lon="0.72116">
        <ele>814</ele>
        <time>2024-08-03T18:40:51Z</time>
      </trkpt>
      <trkpt lat="42.9228" lon="0.72077">
        <ele>806</ele>
        <time>2024-08-03T18:40:57Z</time>
      </trkpt>
      <trkpt lat="42.92277" lon="0.72031">
        <ele>802</ele>
        <time>2024-08-03T18:41:03Z</time>
      </trkpt>
      <trkpt lat="42.92265" lon="0.72">
        <ele>798</ele>
        <time>2024-08-03T18:41:07Z</time>
      </trkpt>
      <trkpt lat="42.92255" lon="0.71994">
        <ele>797</ele>
        <time>2024-08-03T18:41:09Z</time>
      </trkpt>
      <trkpt lat="42.9224" lon="0.71999">
        <ele>795</ele>
        <time>2024-08-03T18:41:12Z</time>
      </trkpt>
      <trkpt lat="42.92226" lon="0.72014">
        <ele>793</ele>
        <time>2024-08-03T18:41:15Z</time>
      </trkpt>
      <trkpt lat="42.92221" lon="0.7204">
        <ele>792</ele>
        <time>2024-08-03T18:41:19Z</time>
      </trkpt>
      <trkpt lat="42.9222" lon="0.72087">
        <ele>793</ele>
        <time>2024-08-03T18:41:25Z</time>
      </trkpt>
      <trkpt lat="42.92216" lon="0.72097">
        <ele>794</ele>
        <time>2024-08-03T18:41:26Z</time>
      </trkpt>
      <trkpt lat="42.92201" lon="0.72117">
        <ele>793</ele>
        <time>2024-08-03T18:41:30Z</time>
      </trkpt>
      <trkpt lat="42.92145" lon="0.7216">
        <ele>784</ele>
        <time>2024-08-03T18:41:41Z</time>
      </trkpt>
      <trkpt lat="42.92102" lon="0.72179">
        <ele>780</ele>
        <time>2024-08-03T18:41:49Z</time>
      </trkpt>
      <trkpt lat="42.92068" lon="0.72186">
        <ele>777</ele>
        <time>2024-08-03T18:41:55Z</time>
      </trkpt>
      <trkpt lat="42.92035" lon="0.72185">
        <ele>773</ele>
        <time>2024-08-03T18:42:01Z</time>
      </trkpt>
      <trkpt lat="42.92027" lon="0.72172">
        <ele>769</ele>
        <time>2024-08-03T18:42:04Z</time>
      </trkpt>
      <trkpt lat="42.9203" lon="0.72156">
        <ele>767</ele>
        <time>2024-08-03T18:42:06Z</time>
      </trkpt>
      <trkpt lat="42.9207" lon="0.72105">
        <ele>762</ele>
        <time>2024-08-03T18:42:15Z</time>
      </trkpt>
      <trkpt lat="42.92082" lon="0.72075">
        <ele>759</ele>
        <time>2024-08-03T18:42:20Z</time>
      </trkpt>
      <trkpt lat="42.92085" lon="0.72041">
        <ele>760</ele>
        <time>2024-08-03T18:42:24Z</time>
      </trkpt>
      <trkpt lat="42.92079" lon="0.72001">
        <ele>759</ele>
        <time>2024-08-03T18:42:30Z</time>
      </trkpt>
      <trkpt lat="42.92037" lon="0.71912">
        <ele>751</ele>
        <time>2024-08-03T18:42:43Z</time>
      </trkpt>
      <trkpt lat="42.92011" lon="0.71866">
        <ele>743</ele>
        <time>2024-08-03T18:42:51Z</time>
      </trkpt>
      <trkpt lat="42.91997" lon="0.71848">
        <ele>740</ele>
        <time>2024-08-03T18:42:54Z</time>
      </trkpt>
      <trkpt lat="42.91977" lon="0.71829">
        <ele>737</ele>
        <time>2024-08-03T18:42:59Z</time>
      </trkpt>
      <trkpt lat="42.91942" lon="0.71807">
        <ele>732</ele>
        <time>2024-08-03T18:43:06Z</time>
      </trkpt>
      <trkpt lat="42.9192" lon="0.71798">
        <ele>728</ele>
        <time>2024-08-03T18:43:10Z</time>
      </trkpt>
      <trkpt lat="42.91865" lon="0.71788">
        <ele>724</ele>
        <time>2024-08-03T18:43:20Z</time>
      </trkpt>
      <trkpt lat="42.91854" lon="0.71791">
        <ele>724</ele>
        <time>2024-08-03T18:43:22Z</time>
      </trkpt>
      <trkpt lat="42.91838" lon="0.71801">
        <ele>724</ele>
        <time>2024-08-03T18:43:25Z</time>
      </trkpt>
      <trkpt lat="42.91823" lon="0.71806">
        <ele>724</ele>
        <time>2024-08-03T18:43:27Z</time>
      </trkpt>
      <trkpt lat="42.91751" lon="0.71794">
        <ele>720</ele>
        <time>2024-08-03T18:43:40Z</time>
      </trkpt>
      <trkpt lat="42.91735" lon="0.7178">
        <ele>717</ele>
        <time>2024-08-03T18:43:44Z</time>
      </trkpt>
      <trkpt lat="42.91722" lon="0.71766">
        <ele>714</ele>
        <time>2024-08-03T18:43:47Z</time>
      </trkpt>
      <trkpt lat="42.91713" lon="0.71748">
        <ele>711</ele>
        <time>2024-08-03T18:43:50Z</time>
      </trkpt>
      <trkpt lat="42.91679" lon="0.71661">
        <ele>702</ele>
        <time>2024-08-03T18:44:02Z</time>
      </trkpt>
      <trkpt lat="42.91644" lon="0.71581">
        <ele>698</ele>
        <time>2024-08-03T18:44:15Z</time>
      </trkpt>
      <trkpt lat="42.91626" lon="0.71522">
        <ele>696</ele>
        <time>2024-08-03T18:44:23Z</time>
      </trkpt>
      <trkpt lat="42.91623" lon="0.7148">
        <ele>701</ele>
        <time>2024-08-03T18:44:28Z</time>
      </trkpt>
      <trkpt lat="42.91606" lon="0.71447">
        <ele>703</ele>
        <time>2024-08-03T18:44:34Z</time>
      </trkpt>
      <trkpt lat="42.91552" lon="0.71403">
        <ele>694</ele>
        <time>2024-08-03T18:44:45Z</time>
      </trkpt>
      <trkpt lat="42.91534" lon="0.71385">
        <ele>694</ele>
        <time>2024-08-03T18:44:49Z</time>
      </trkpt>
      <trkpt lat="42.91454" lon="0.71349">
        <ele>677</ele>
        <time>2024-08-03T18:45:04Z</time>
      </trkpt>
      <trkpt lat="42.91417" lon="0.71319">
        <ele>671</ele>
        <time>2024-08-03T18:45:11Z</time>
      </trkpt>
      <trkpt lat="42.91396" lon="0.71298">
        <ele>668</ele>
        <time>2024-08-03T18:45:16Z</time>
      </trkpt>
      <trkpt lat="42.91357" lon="0.71227">
        <ele>665</ele>
        <time>2024-08-03T18:45:28Z</time>
      </trkpt>
      <trkpt lat="42.91337" lon="0.71207">
        <ele>660</ele>
        <time>2024-08-03T18:45:32Z</time>
      </trkpt>
      <trkpt lat="42.91322" lon="0.71185">
        <ele>658</ele>
        <time>2024-08-03T18:45:36Z</time>
      </trkpt>
      <trkpt lat="42.91288" lon="0.71149">
        <ele>650</ele>
        <time>2024-08-03T18:45:44Z</time>
      </trkpt>
      <trkpt lat="42.91269" lon="0.71126">
        <ele>646</ele>
        <time>2024-08-03T18:45:48Z</time>
      </trkpt>
      <trkpt lat="42.91257" lon="0.71078">
        <ele>645</ele>
        <time>2024-08-03T18:45:55Z</time>
      </trkpt>
      <trkpt lat="42.91244" lon="0.70983">
        <ele>637</ele>
        <time>2024-08-03T18:46:07Z</time>
      </trkpt>
      <trkpt lat="42.91246" lon="0.70941">
        <ele>633</ele>
        <time>2024-08-03T18:46:13Z</time>
      </trkpt>
      <trkpt lat="42.9126" lon="0.70901">
        <ele>635</ele>
        <time>2024-08-03T18:46:19Z</time>
      </trkpt>
      <trkpt lat="42.91268" lon="0.70871">
        <ele>639</ele>
        <time>2024-08-03T18:46:23Z</time>
      </trkpt>
      <trkpt lat="42.91268" lon="0.70856">
        <ele>639</ele>
        <time>2024-08-03T18:46:25Z</time>
      </trkpt>
      <trkpt lat="42.91266" lon="0.70848">
        <ele>639</ele>
        <time>2024-08-03T18:46:26Z</time>
      </trkpt>
      <trkpt lat="42.91258" lon="0.70839">
        <ele>635</ele>
        <time>2024-08-03T18:46:28Z</time>
      </trkpt>
      <trkpt lat="42.91221" lon="0.70816">
        <ele>624</ele>
        <time>2024-08-03T18:46:35Z</time>
      </trkpt>
      <trkpt lat="42.91205" lon="0.708">
        <ele>619</ele>
        <time>2024-08-03T18:46:38Z</time>
      </trkpt>
      <trkpt lat="42.91197" lon="0.70782">
        <ele>617</ele>
        <time>2024-08-03T18:46:41Z</time>
      </trkpt>
      <trkpt lat="42.9119" lon="0.70749">
        <ele>616</ele>
        <time>2024-08-03T18:46:46Z</time>
      </trkpt>
      <trkpt lat="42.91179" lon="0.70709">
        <ele>612</ele>
        <time>2024-08-03T18:46:51Z</time>
      </trkpt>
      <trkpt lat="42.91128" lon="0.70593">
        <ele>593</ele>
        <time>2024-08-03T18:47:09Z</time>
      </trkpt>
      <trkpt lat="42.91119" lon="0.70562">
        <ele>589</ele>
        <time>2024-08-03T18:47:13Z</time>
      </trkpt>
      <trkpt lat="42.91105" lon="0.70388">
        <ele>583</ele>
        <time>2024-08-03T18:47:36Z</time>
      </trkpt>
      <trkpt lat="42.91097" lon="0.70363">
        <ele>579</ele>
        <time>2024-08-03T18:47:40Z</time>
      </trkpt>
      <trkpt lat="42.91063" lon="0.70279">
        <ele>569</ele>
        <time>2024-08-03T18:47:52Z</time>
      </trkpt>
      <trkpt lat="42.91046" lon="0.70206">
        <ele>561</ele>
        <time>2024-08-03T18:48:02Z</time>
      </trkpt>
      <trkpt lat="42.91044" lon="0.70173">
        <ele>559</ele>
        <time>2024-08-03T18:48:06Z</time>
      </trkpt>
      <trkpt lat="42.91046" lon="0.70136">
        <ele>555</ele>
        <time>2024-08-03T18:48:11Z</time>
      </trkpt>
      <trkpt lat="42.91066" lon="0.70102">
        <ele>557</ele>
        <time>2024-08-03T18:48:17Z</time>
      </trkpt>
      <trkpt lat="42.9109" lon="0.7002">
        <ele>555</ele>
        <time>2024-08-03T18:48:28Z</time>
      </trkpt>
      <trkpt lat="42.91094" lon="0.69988">
        <ele>554</ele>
        <time>2024-08-03T18:48:33Z</time>
      </trkpt>
      <trkpt lat="42.9109" lon="0.6996">
        <ele>550</ele>
        <time>2024-08-03T18:48:36Z</time>
      </trkpt>
      <trkpt lat="42.91094" lon="0.69926">
        <ele>550</ele>
        <time>2024-08-03T18:48:41Z</time>
      </trkpt>
      <trkpt lat="42.91106" lon="0.69879">
        <ele>549</ele>
        <time>2024-08-03T18:48:47Z</time>
      </trkpt>
      <trkpt lat="42.91109" lon="0.69836">
        <ele>544</ele>
        <time>2024-08-03T18:48:53Z</time>
      </trkpt>
      <trkpt lat="42.91119" lon="0.69802">
        <ele>545</ele>
        <time>2024-08-03T18:48:58Z</time>
      </trkpt>
      <trkpt lat="42.91141" lon="0.69754">
        <ele>547</ele>
        <time>2024-08-03T18:49:05Z</time>
      </trkpt>
      <trkpt lat="42.91153" lon="0.69732">
        <ele>547</ele>
        <time>2024-08-03T18:49:09Z</time>
      </trkpt>
      <trkpt lat="42.91159" lon="0.69695">
        <ele>539</ele>
        <time>2024-08-03T18:49:14Z</time>
      </trkpt>
      <trkpt lat="42.91155" lon="0.69669">
        <ele>530</ele>
        <time>2024-08-03T18:49:17Z</time>
      </trkpt>
      <trkpt lat="42.91138" lon="0.69634">
        <ele>520</ele>
        <time>2024-08-03T18:49:23Z</time>
      </trkpt>
      <trkpt lat="42.91119" lon="0.69585">
        <ele>510</ele>
        <time>2024-08-03T18:49:30Z</time>
      </trkpt>
      <trkpt lat="42.91129" lon="0.69569">
        <ele>509</ele>
        <time>2024-08-03T18:49:33Z</time>
      </trkpt>
      <trkpt lat="42.91135" lon="0.69553">
        <ele>508</ele>
        <time>2024-08-03T18:49:35Z</time>
      </trkpt>
      <trkpt lat="42.91248" lon="0.69187">
        <ele>510</ele>
        <time>2024-08-03T18:50:27Z</time>
      </trkpt>
      <trkpt lat="42.9095" lon="0.6903">
        <ele>512</ele>
        <time>2024-08-03T18:51:23Z</time>
      </trkpt>
      <trkpt lat="42.90935" lon="0.69025">
        <ele>512</ele>
        <time>2024-08-03T18:51:26Z</time>
      </trkpt>
      <trkpt lat="42.90842" lon="0.69005">
        <ele>512</ele>
        <time>2024-08-03T18:51:43Z</time>
      </trkpt>
      <trkpt lat="42.90817" lon="0.69003">
        <ele>511</ele>
        <time>2024-08-03T18:51:47Z</time>
      </trkpt>
      <trkpt lat="42.90803" lon="0.69005">
        <ele>511</ele>
        <time>2024-08-03T18:51:50Z</time>
      </trkpt>
      <trkpt lat="42.90793" lon="0.69009">
        <ele>510</ele>
        <time>2024-08-03T18:51:52Z</time>
      </trkpt>
      <trkpt lat="42.90576" lon="0.69132">
        <ele>508</ele>
        <time>2024-08-03T18:52:34Z</time>
      </trkpt>
      <trkpt lat="42.90521" lon="0.69159">
        <ele>510</ele>
        <time>2024-08-03T18:52:44Z</time>
      </trkpt>
      <trkpt lat="42.90472" lon="0.6917">
        <ele>510</ele>
        <time>2024-08-03T18:52:53Z</time>
      </trkpt>
      <trkpt lat="42.90454" lon="0.69175">
        <ele>510</ele>
        <time>2024-08-03T18:52:56Z</time>
      </trkpt>
      <trkpt lat="42.90433" lon="0.69188">
        <ele>510</ele>
        <time>2024-08-03T18:53:00Z</time>
      </trkpt>
      <trkpt lat="42.90421" lon="0.69199">
        <ele>509</ele>
        <time>2024-08-03T18:53:03Z</time>
      </trkpt>
      <trkpt lat="42.90395" lon="0.69234">
        <ele>509</ele>
        <time>2024-08-03T18:53:09Z</time>
      </trkpt>
      <trkpt lat="42.90331" lon="0.69333">
        <ele>512</ele>
        <time>2024-08-03T18:53:26Z</time>
      </trkpt>
      <trkpt lat="42.90312" lon="0.69372">
        <ele>513</ele>
        <time>2024-08-03T18:53:33Z</time>
      </trkpt>
      <trkpt lat="42.90264" lon="0.69491">
        <ele>514</ele>
        <time>2024-08-03T18:53:50Z</time>
      </trkpt>
      <trkpt lat="42.9022" lon="0.69604">
        <ele>513</ele>
        <time>2024-08-03T18:54:07Z</time>
      </trkpt>
      <trkpt lat="42.90213" lon="0.69617">
        <ele>514</ele>
        <time>2024-08-03T18:54:09Z</time>
      </trkpt>
      <trkpt lat="42.90202" lon="0.69631">
        <ele>514</ele>
        <time>2024-08-03T18:54:12Z</time>
      </trkpt>
      <trkpt lat="42.90081" lon="0.6974">
        <ele>521</ele>
        <time>2024-08-03T18:54:38Z</time>
      </trkpt>
      <trkpt lat="42.89981" lon="0.69826">
        <ele>523</ele>
        <time>2024-08-03T18:54:59Z</time>
      </trkpt>
      <trkpt lat="42.89934" lon="0.69854">
        <ele>525</ele>
        <time>2024-08-03T18:55:08Z</time>
      </trkpt>
      <trkpt lat="42.89892" lon="0.69869">
        <ele>526</ele>
        <time>2024-08-03T18:55:15Z</time>
      </trkpt>
      <trkpt lat="42.89681" lon="0.6992">
        <ele>524</ele>
        <time>2024-08-03T18:55:54Z</time>
      </trkpt>
      <trkpt lat="42.89659" lon="0.69927">
        <ele>525</ele>
        <time>2024-08-03T18:55:58Z</time>
      </trkpt>
      <trkpt lat="42.89638" lon="0.69937">
        <ele>526</ele>
        <time>2024-08-03T18:56:01Z</time>
      </trkpt>
      <trkpt lat="42.89618" lon="0.69951">
        <ele>526</ele>
        <time>2024-08-03T18:56:05Z</time>
      </trkpt>
      <trkpt lat="42.89374" lon="0.7016">
        <ele>521</ele>
        <time>2024-08-03T18:56:57Z</time>
      </trkpt>
      <trkpt lat="42.89236" lon="0.70283">
        <ele>521</ele>
        <time>2024-08-03T18:57:26Z</time>
      </trkpt>
      <trkpt lat="42.89165" lon="0.70339">
        <ele>520</ele>
        <time>2024-08-03T18:57:41Z</time>
      </trkpt>
      <trkpt lat="42.8889" lon="0.70619">
        <ele>526</ele>
        <time>2024-08-03T18:58:42Z</time>
      </trkpt>
      <trkpt lat="42.88857" lon="0.70658">
        <ele>525</ele>
        <time>2024-08-03T18:58:49Z</time>
      </trkpt>
      <trkpt lat="42.88834" lon="0.70697">
        <ele>523</ele>
        <time>2024-08-03T18:58:56Z</time>
      </trkpt>
      <trkpt lat="42.88462" lon="0.71374">
        <ele>540</ele>
        <time>2024-08-03T19:00:46Z</time>
      </trkpt>
      <trkpt lat="42.88434" lon="0.71415">
        <ele>540</ele>
        <time>2024-08-03T19:00:54Z</time>
      </trkpt>
      <trkpt lat="42.88143" lon="0.71778">
        <ele>529</ele>
        <time>2024-08-03T19:02:04Z</time>
      </trkpt>
      <trkpt lat="42.87685" lon="0.72353">
        <ele>534</ele>
        <time>2024-08-03T19:03:55Z</time>
      </trkpt>
      <trkpt lat="42.8755" lon="0.72522">
        <ele>538</ele>
        <time>2024-08-03T19:04:27Z</time>
      </trkpt>
      <trkpt lat="42.87394" lon="0.72722">
        <ele>539</ele>
        <time>2024-08-03T19:05:05Z</time>
      </trkpt>
      <trkpt lat="42.8739" lon="0.72717">
        <ele>539</ele>
        <time>2024-08-03T19:05:06Z</time>
      </trkpt>
      <trkpt lat="42.87384" lon="0.72714">
        <ele>539</ele>
        <time>2024-08-03T19:05:07Z</time>
      </trkpt>
      <trkpt lat="42.87378" lon="0.72714">
        <ele>540</ele>
        <time>2024-08-03T19:05:08Z</time>
      </trkpt>
      <trkpt lat="42.87372" lon="0.72716">
        <ele>540</ele>
        <time>2024-08-03T19:05:09Z</time>
      </trkpt>
      <trkpt lat="42.87367" lon="0.72721">
        <ele>540</ele>
        <time>2024-08-03T19:05:11Z</time>
      </trkpt>
      <trkpt lat="42.87363" lon="0.72729">
        <ele>539</ele>
        <time>2024-08-03T19:05:12Z</time>
      </trkpt>
      <trkpt lat="42.87361" lon="0.72737">
        <ele>539</ele>
        <time>2024-08-03T19:05:13Z</time>
      </trkpt>
      <trkpt lat="42.87363" lon="0.72752">
        <ele>538</ele>
        <time>2024-08-03T19:05:15Z</time>
      </trkpt>
      <trkpt lat="42.87371" lon="0.72762">
        <ele>538</ele>
        <time>2024-08-03T19:05:17Z</time>
      </trkpt>
      <trkpt lat="42.87382" lon="0.72765">
        <ele>539</ele>
        <time>2024-08-03T19:05:19Z</time>
      </trkpt>
      <trkpt lat="42.87392" lon="0.7276">
        <ele>539</ele>
        <time>2024-08-03T19:05:21Z</time>
      </trkpt>
      <trkpt lat="42.87407" lon="0.72796">
        <ele>539</ele>
        <time>2024-08-03T19:05:26Z</time>
      </trkpt>
      <trkpt lat="42.87409" lon="0.72809">
        <ele>539</ele>
        <time>2024-08-03T19:05:28Z</time>
      </trkpt>
      <trkpt lat="42.87409" lon="0.72823">
        <ele>539</ele>
        <time>2024-08-03T19:05:30Z</time>
      </trkpt>
      <trkpt lat="42.87296" lon="0.73386">
        <ele>544</ele>
        <time>2024-08-03T19:06:46Z</time>
      </trkpt>
      <trkpt lat="42.87264" lon="0.73553">
        <ele>546</ele>
        <time>2024-08-03T19:07:08Z</time>
      </trkpt>
      <trkpt lat="42.87249" lon="0.73589">
        <ele>546</ele>
        <time>2024-08-03T19:07:14Z</time>
      </trkpt>
      <trkpt lat="42.87104" lon="0.7386">
        <ele>549</ele>
        <time>2024-08-03T19:07:57Z</time>
      </trkpt>
      <trkpt lat="42.87059" lon="0.73934">
        <ele>547</ele>
        <time>2024-08-03T19:08:10Z</time>
      </trkpt>
      <trkpt lat="42.86987" lon="0.74089">
        <ele>548</ele>
        <time>2024-08-03T19:08:34Z</time>
      </trkpt>
      <trkpt lat="42.86883" lon="0.7433">
        <ele>552</ele>
        <time>2024-08-03T19:09:10Z</time>
      </trkpt>
      <trkpt lat="42.8677" lon="0.74584">
        <ele>555</ele>
        <time>2024-08-03T19:09:49Z</time>
      </trkpt>
      <trkpt lat="42.86733" lon="0.74682">
        <ele>555</ele>
        <time>2024-08-03T19:10:04Z</time>
      </trkpt>
      <trkpt lat="42.86725" lon="0.74744">
        <ele>557</ele>
        <time>2024-08-03T19:10:12Z</time>
      </trkpt>
      <trkpt lat="42.86708" lon="0.74768">
        <ele>559</ele>
        <time>2024-08-03T19:10:16Z</time>
      </trkpt>
      <trkpt lat="42.86698" lon="0.748">
        <ele>561</ele>
        <time>2024-08-03T19:10:21Z</time>
      </trkpt>
      <trkpt lat="42.86664" lon="0.74839">
        <ele>559</ele>
        <time>2024-08-03T19:10:29Z</time>
      </trkpt>
      <trkpt lat="42.86628" lon="0.74894">
        <ele>563</ele>
        <time>2024-08-03T19:10:38Z</time>
      </trkpt>
      <trkpt lat="42.86611" lon="0.74903">
        <ele>563</ele>
        <time>2024-08-03T19:10:41Z</time>
      </trkpt>
      <trkpt lat="42.86604" lon="0.7489">
        <ele>562</ele>
        <time>2024-08-03T19:10:44Z</time>
      </trkpt>
      <trkpt lat="42.86598" lon="0.74885">
        <ele>561</ele>
        <time>2024-08-03T19:10:45Z</time>
      </trkpt>
      <trkpt lat="42.86579" lon="0.7488">
        <ele>560</ele>
        <time>2024-08-03T19:10:48Z</time>
      </trkpt>
      <trkpt lat="42.86569" lon="0.74883">
        <ele>560</ele>
        <time>2024-08-03T19:10:50Z</time>
      </trkpt>
      <trkpt lat="42.86541" lon="0.74908">
        <ele>561</ele>
        <time>2024-08-03T19:10:56Z</time>
      </trkpt>
      <trkpt lat="42.86503" lon="0.74948">
        <ele>565</ele>
        <time>2024-08-03T19:11:05Z</time>
      </trkpt>
      <trkpt lat="42.86496" lon="0.74958">
        <ele>566</ele>
        <time>2024-08-03T19:11:06Z</time>
      </trkpt>
      <trkpt lat="42.8649" lon="0.74963">
        <ele>567</ele>
        <time>2024-08-03T19:11:08Z</time>
      </trkpt>
      <trkpt lat="42.86479" lon="0.74966">
        <ele>567</ele>
        <time>2024-08-03T19:11:10Z</time>
      </trkpt>
      <trkpt lat="42.86432" lon="0.74963">
        <ele>567</ele>
        <time>2024-08-03T19:11:18Z</time>
      </trkpt>
      <trkpt lat="42.86411" lon="0.74957">
        <ele>566</ele>
        <time>2024-08-03T19:11:22Z</time>
      </trkpt>
      <trkpt lat="42.86395" lon="0.74945">
        <ele>565</ele>
        <time>2024-08-03T19:11:25Z</time>
      </trkpt>
      <trkpt lat="42.86313" lon="0.74848">
        <ele>563</ele>
        <time>2024-08-03T19:11:44Z</time>
      </trkpt>
      <trkpt lat="42.86296" lon="0.74834">
        <ele>563</ele>
        <time>2024-08-03T19:11:48Z</time>
      </trkpt>
      <trkpt lat="42.86243" lon="0.74814">
        <ele>566</ele>
        <time>2024-08-03T19:11:58Z</time>
      </trkpt>
      <trkpt lat="42.86217" lon="0.74808">
        <ele>567</ele>
        <time>2024-08-03T19:12:02Z</time>
      </trkpt>
      <trkpt lat="42.86201" lon="0.74808">
        <ele>568</ele>
        <time>2024-08-03T19:12:05Z</time>
      </trkpt>
      <trkpt lat="42.86086" lon="0.74819">
        <ele>569</ele>
        <time>2024-08-03T19:12:26Z</time>
      </trkpt>
      <trkpt lat="42.86068" lon="0.7482">
        <ele>569</ele>
        <time>2024-08-03T19:12:29Z</time>
      </trkpt>
      <trkpt lat="42.86052" lon="0.74818">
        <ele>570</ele>
        <time>2024-08-03T19:12:32Z</time>
      </trkpt>
      <trkpt lat="42.86018" lon="0.74812">
        <ele>570</ele>
        <time>2024-08-03T19:12:38Z</time>
      </trkpt>
      <trkpt lat="42.85984" lon="0.74797">
        <ele>575</ele>
        <time>2024-08-03T19:12:44Z</time>
      </trkpt>
      <trkpt lat="42.85959" lon="0.7478">
        <ele>579</ele>
        <time>2024-08-03T19:12:49Z</time>
      </trkpt>
      <trkpt lat="42.85933" lon="0.74756">
        <ele>581</ele>
        <time>2024-08-03T19:12:55Z</time>
      </trkpt>
      <trkpt lat="42.8592" lon="0.74742">
        <ele>581</ele>
        <time>2024-08-03T19:12:58Z</time>
      </trkpt>
      <trkpt lat="42.85902" lon="0.74716">
        <ele>585</ele>
        <time>2024-08-03T19:13:02Z</time>
      </trkpt>
      <trkpt lat="42.85877" lon="0.74679">
        <ele>588</ele>
        <time>2024-08-03T19:13:09Z</time>
      </trkpt>
      <trkpt lat="42.85864" lon="0.74656">
        <ele>587</ele>
        <time>2024-08-03T19:13:13Z</time>
      </trkpt>
      <trkpt lat="42.85804" lon="0.74535">
        <ele>590</ele>
        <time>2024-08-03T19:13:32Z</time>
      </trkpt>
      <trkpt lat="42.85719" lon="0.74349">
        <ele>585</ele>
        <time>2024-08-03T19:14:00Z</time>
      </trkpt>
      <trkpt lat="42.8571" lon="0.74324">
        <ele>585</ele>
        <time>2024-08-03T19:14:04Z</time>
      </trkpt>
      <trkpt lat="42.85699" lon="0.74283">
        <ele>586</ele>
        <time>2024-08-03T19:14:10Z</time>
      </trkpt>
      <trkpt lat="42.85693" lon="0.7424">
        <ele>585</ele>
        <time>2024-08-03T19:14:15Z</time>
      </trkpt>
      <trkpt lat="42.85686" lon="0.74167">
        <ele>588</ele>
        <time>2024-08-03T19:14:25Z</time>
      </trkpt>
      <trkpt lat="42.85679" lon="0.74119">
        <ele>590</ele>
        <time>2024-08-03T19:14:31Z</time>
      </trkpt>
      <trkpt lat="42.85661" lon="0.74008">
        <ele>595</ele>
        <time>2024-08-03T19:14:46Z</time>
      </trkpt>
      <trkpt lat="42.85643" lon="0.73877">
        <ele>605</ele>
        <time>2024-08-03T19:15:04Z</time>
      </trkpt>
      <trkpt lat="42.8564" lon="0.73841">
        <ele>605</ele>
        <time>2024-08-03T19:15:08Z</time>
      </trkpt>
      <trkpt lat="42.85643" lon="0.73782">
        <ele>596</ele>
        <time>2024-08-03T19:15:16Z</time>
      </trkpt>
      <trkpt lat="42.85641" lon="0.73751">
        <ele>593</ele>
        <time>2024-08-03T19:15:20Z</time>
      </trkpt>
      <trkpt lat="42.85633" lon="0.73717">
        <ele>592</ele>
        <time>2024-08-03T19:15:25Z</time>
      </trkpt>
      <trkpt lat="42.85626" lon="0.73698">
        <ele>591</ele>
        <time>2024-08-03T19:15:28Z</time>
      </trkpt>
      <trkpt lat="42.85619" lon="0.73681">
        <ele>589</ele>
        <time>2024-08-03T19:15:30Z</time>
      </trkpt>
      <trkpt lat="42.85597" lon="0.73649">
        <ele>590</ele>
        <time>2024-08-03T19:15:36Z</time>
      </trkpt>
      <trkpt lat="42.85571" lon="0.73625">
        <ele>592</ele>
        <time>2024-08-03T19:15:41Z</time>
      </trkpt>
      <trkpt lat="42.85556" lon="0.73616">
        <ele>594</ele>
        <time>2024-08-03T19:15:44Z</time>
      </trkpt>
      <trkpt lat="42.85509" lon="0.73593">
        <ele>593</ele>
        <time>2024-08-03T19:15:53Z</time>
      </trkpt>
      <trkpt lat="42.85476" lon="0.7358">
        <ele>591</ele>
        <time>2024-08-03T19:15:59Z</time>
      </trkpt>
      <trkpt lat="42.85443" lon="0.73575">
        <ele>590</ele>
        <time>2024-08-03T19:16:05Z</time>
      </trkpt>
      <trkpt lat="42.85393" lon="0.73577">
        <ele>589</ele>
        <time>2024-08-03T19:16:14Z</time>
      </trkpt>
      <trkpt lat="42.85127" lon="0.73597">
        <ele>591</ele>
        <time>2024-08-03T19:17:02Z</time>
      </trkpt>
      <trkpt lat="42.85042" lon="0.73605">
        <ele>595</ele>
        <time>2024-08-03T19:17:17Z</time>
      </trkpt>
      <trkpt lat="42.84971" lon="0.73614">
        <ele>599</ele>
        <time>2024-08-03T19:17:29Z</time>
      </trkpt>
      <trkpt lat="42.84957" lon="0.73616">
        <ele>599</ele>
        <time>2024-08-03T19:17:32Z</time>
      </trkpt>
      <trkpt lat="42.84939" lon="0.73613">
        <ele>599</ele>
        <time>2024-08-03T19:17:35Z</time>
      </trkpt>
      <trkpt lat="42.84928" lon="0.73608">
        <ele>598</ele>
        <time>2024-08-03T19:17:37Z</time>
      </trkpt>
      <trkpt lat="42.84874" lon="0.73572">
        <ele>600</ele>
        <time>2024-08-03T19:17:48Z</time>
      </trkpt>
      <trkpt lat="42.84818" lon="0.73529">
        <ele>604</ele>
        <time>2024-08-03T19:17:59Z</time>
      </trkpt>
      <trkpt lat="42.84791" lon="0.73502">
        <ele>599</ele>
        <time>2024-08-03T19:18:05Z</time>
      </trkpt>
      <trkpt lat="42.84721" lon="0.73413">
        <ele>599</ele>
        <time>2024-08-03T19:18:22Z</time>
      </trkpt>
      <trkpt lat="42.84691" lon="0.7338">
        <ele>600</ele>
        <time>2024-08-03T19:18:29Z</time>
      </trkpt>
      <trkpt lat="42.84651" lon="0.73349">
        <ele>597</ele>
        <time>2024-08-03T19:18:37Z</time>
      </trkpt>
      <trkpt lat="42.845" lon="0.73257">
        <ele>599</ele>
        <time>2024-08-03T19:19:07Z</time>
      </trkpt>
      <trkpt lat="42.84458" lon="0.73222">
        <ele>605</ele>
        <time>2024-08-03T19:19:15Z</time>
      </trkpt>
      <trkpt lat="42.84409" lon="0.73171">
        <ele>608</ele>
        <time>2024-08-03T19:19:26Z</time>
      </trkpt>
      <trkpt lat="42.8439" lon="0.73159">
        <ele>610</ele>
        <time>2024-08-03T19:19:30Z</time>
      </trkpt>
      <trkpt lat="42.84378" lon="0.73153">
        <ele>611</ele>
        <time>2024-08-03T19:19:32Z</time>
      </trkpt>
      <trkpt lat="42.84357" lon="0.73147">
        <ele>611</ele>
        <time>2024-08-03T19:19:36Z</time>
      </trkpt>
      <trkpt lat="42.843" lon="0.73142">
        <ele>607</ele>
        <time>2024-08-03T19:19:46Z</time>
      </trkpt>
      <trkpt lat="42.84267" lon="0.73134">
        <ele>604</ele>
        <time>2024-08-03T19:19:52Z</time>
      </trkpt>
      <trkpt lat="42.84239" lon="0.73119">
        <ele>603</ele>
        <time>2024-08-03T19:19:58Z</time>
      </trkpt>
      <trkpt lat="42.84194" lon="0.73085">
        <ele>601</ele>
        <time>2024-08-03T19:20:07Z</time>
      </trkpt>
      <trkpt lat="42.8417" lon="0.73072">
        <ele>600</ele>
        <time>2024-08-03T19:20:11Z</time>
      </trkpt>
      <trkpt lat="42.84149" lon="0.73065">
        <ele>602</ele>
        <time>2024-08-03T19:20:15Z</time>
      </trkpt>
      <trkpt lat="42.84134" lon="0.73063">
        <ele>603</ele>
        <time>2024-08-03T19:20:18Z</time>
      </trkpt>
      <trkpt lat="42.84114" lon="0.73064">
        <ele>604</ele>
        <time>2024-08-03T19:20:22Z</time>
      </trkpt>
      <trkpt lat="42.84087" lon="0.73072">
        <ele>603</ele>
        <time>2024-08-03T19:20:27Z</time>
      </trkpt>
      <trkpt lat="42.84041" lon="0.73097">
        <ele>607</ele>
        <time>2024-08-03T19:20:35Z</time>
      </trkpt>
      <trkpt lat="42.8396" lon="0.73147">
        <ele>612</ele>
        <time>2024-08-03T19:20:51Z</time>
      </trkpt>
      <trkpt lat="42.83924" lon="0.73165">
        <ele>610</ele>
        <time>2024-08-03T19:20:58Z</time>
      </trkpt>
      <trkpt lat="42.83913" lon="0.73168">
        <ele>610</ele>
        <time>2024-08-03T19:21:00Z</time>
      </trkpt>
      <trkpt lat="42.83884" lon="0.73172">
        <ele>609</ele>
        <time>2024-08-03T19:21:05Z</time>
      </trkpt>
      <trkpt lat="42.83857" lon="0.73168">
        <ele>609</ele>
        <time>2024-08-03T19:21:10Z</time>
      </trkpt>
      <trkpt lat="42.83822" lon="0.73152">
        <ele>614</ele>
        <time>2024-08-03T19:21:17Z</time>
      </trkpt>
      <trkpt lat="42.8367" lon="0.73051">
        <ele>625</ele>
        <time>2024-08-03T19:21:47Z</time>
      </trkpt>
      <trkpt lat="42.83653" lon="0.73041">
        <ele>627</ele>
        <time>2024-08-03T19:21:50Z</time>
      </trkpt>
      <trkpt lat="42.83635" lon="0.73033">
        <ele>628</ele>
        <time>2024-08-03T19:21:53Z</time>
      </trkpt>
      <trkpt lat="42.83602" lon="0.73027">
        <ele>625</ele>
        <time>2024-08-03T19:21:59Z</time>
      </trkpt>
      <trkpt lat="42.83503" lon="0.73027">
        <ele>620</ele>
        <time>2024-08-03T19:22:17Z</time>
      </trkpt>
      <trkpt lat="42.83463" lon="0.73024">
        <ele>619</ele>
        <time>2024-08-03T19:22:24Z</time>
      </trkpt>
      <trkpt lat="42.83441" lon="0.73017">
        <ele>619</ele>
        <time>2024-08-03T19:22:28Z</time>
      </trkpt>
      <trkpt lat="42.83364" lon="0.72982">
        <ele>618</ele>
        <time>2024-08-03T19:22:42Z</time>
      </trkpt>
      <trkpt lat="42.83317" lon="0.72964">
        <ele>617</ele>
        <time>2024-08-03T19:22:51Z</time>
      </trkpt>
      <trkpt lat="42.8327" lon="0.72958">
        <ele>617</ele>
        <time>2024-08-03T19:22:59Z</time>
      </trkpt>
      <trkpt lat="42.83196" lon="0.72955">
        <ele>616</ele>
        <time>2024-08-03T19:23:13Z</time>
      </trkpt>
      <trkpt lat="42.83179" lon="0.72954">
        <ele>616</ele>
        <time>2024-08-03T19:23:16Z</time>
      </trkpt>
      <trkpt lat="42.8315" lon="0.72946">
        <ele>617</ele>
        <time>2024-08-03T19:23:21Z</time>
      </trkpt>
      <trkpt lat="42.83122" lon="0.72928">
        <ele>617</ele>
        <time>2024-08-03T19:23:26Z</time>
      </trkpt>
      <trkpt lat="42.83108" lon="0.72914">
        <ele>615</ele>
        <time>2024-08-03T19:23:30Z</time>
      </trkpt>
      <trkpt lat="42.8304" lon="0.72831">
        <ele>617</ele>
        <time>2024-08-03T19:23:46Z</time>
      </trkpt>
      <trkpt lat="42.83012" lon="0.7281">
        <ele>618</ele>
        <time>2024-08-03T19:23:51Z</time>
      </trkpt>
      <trkpt lat="42.82976" lon="0.72793">
        <ele>618</ele>
        <time>2024-08-03T19:23:58Z</time>
      </trkpt>
      <trkpt lat="42.82891" lon="0.72762">
        <ele>616</ele>
        <time>2024-08-03T19:24:14Z</time>
      </trkpt>
      <trkpt lat="42.82851" lon="0.72741">
        <ele>616</ele>
        <time>2024-08-03T19:24:22Z</time>
      </trkpt>
      <trkpt lat="42.82833" lon="0.72728">
        <ele>618</ele>
        <time>2024-08-03T19:24:25Z</time>
      </trkpt>
      <trkpt lat="42.82802" lon="0.72694">
        <ele>623</ele>
        <time>2024-08-03T19:24:32Z</time>
      </trkpt>
      <trkpt lat="42.82742" lon="0.72599">
        <ele>625</ele>
        <time>2024-08-03T19:24:49Z</time>
      </trkpt>
      <trkpt lat="42.8273" lon="0.72582">
        <ele>626</ele>
        <time>2024-08-03T19:24:52Z</time>
      </trkpt>
      <trkpt lat="42.82702" lon="0.72558">
        <ele>628</ele>
        <time>2024-08-03T19:24:58Z</time>
      </trkpt>
      <trkpt lat="42.82669" lon="0.72541">
        <ele>627</ele>
        <time>2024-08-03T19:25:04Z</time>
      </trkpt>
      <trkpt lat="42.82575" lon="0.72507">
        <ele>629</ele>
        <time>2024-08-03T19:25:21Z</time>
      </trkpt>
      <trkpt lat="42.82545" lon="0.72489">
        <ele>628</ele>
        <time>2024-08-03T19:25:27Z</time>
      </trkpt>
      <trkpt lat="42.82532" lon="0.72491">
        <ele>627</ele>
        <time>2024-08-03T19:25:29Z</time>
      </trkpt>
      <trkpt lat="42.82516" lon="0.72489">
        <ele>625</ele>
        <time>2024-08-03T19:25:32Z</time>
      </trkpt>
      <trkpt lat="42.82483" lon="0.72472">
        <ele>624</ele>
        <time>2024-08-03T19:25:38Z</time>
      </trkpt>
      <trkpt lat="42.82474" lon="0.72471">
        <ele>624</ele>
        <time>2024-08-03T19:25:40Z</time>
      </trkpt>
      <trkpt lat="42.8246" lon="0.72503">
        <ele>622</ele>
        <time>2024-08-03T19:25:45Z</time>
      </trkpt>
      <trkpt lat="42.82412" lon="0.72503">
        <ele>622</ele>
        <time>2024-08-03T19:25:53Z</time>
      </trkpt>
      <trkpt lat="42.82388" lon="0.72497">
        <ele>626</ele>
        <time>2024-08-03T19:25:58Z</time>
      </trkpt>
      <trkpt lat="42.82373" lon="0.72467">
        <ele>628</ele>
        <time>2024-08-03T19:26:03Z</time>
      </trkpt>
      <trkpt lat="42.82367" lon="0.72432">
        <ele>626</ele>
        <time>2024-08-03T19:26:07Z</time>
      </trkpt>
      <trkpt lat="42.82362" lon="0.7242">
        <ele>626</ele>
        <time>2024-08-03T19:26:09Z</time>
      </trkpt>
      <trkpt lat="42.82199" lon="0.72122">
        <ele>622</ele>
        <time>2024-08-03T19:26:58Z</time>
      </trkpt>
      <trkpt lat="42.82104" lon="0.71975">
        <ele>621</ele>
        <time>2024-08-03T19:27:23Z</time>
      </trkpt>
      <trkpt lat="42.82055" lon="0.71895">
        <ele>621</ele>
        <time>2024-08-03T19:27:37Z</time>
      </trkpt>
      <trkpt lat="42.82019" lon="0.71845">
        <ele>621</ele>
        <time>2024-08-03T19:27:46Z</time>
      </trkpt>
      <trkpt lat="42.81925" lon="0.7171">
        <ele>623</ele>
        <time>2024-08-03T19:28:10Z</time>
      </trkpt>
      <trkpt lat="42.81878" lon="0.71649">
        <ele>625</ele>
        <time>2024-08-03T19:28:22Z</time>
      </trkpt>
      <trkpt lat="42.81803" lon="0.71549">
        <ele>626</ele>
        <time>2024-08-03T19:28:40Z</time>
      </trkpt>
      <trkpt lat="42.81779" lon="0.71523">
        <ele>627</ele>
        <time>2024-08-03T19:28:46Z</time>
      </trkpt>
      <trkpt lat="42.81684" lon="0.71463">
        <ele>629</ele>
        <time>2024-08-03T19:29:04Z</time>
      </trkpt>
      <trkpt lat="42.81582" lon="0.71406">
        <ele>632</ele>
        <time>2024-08-03T19:29:24Z</time>
      </trkpt>
      <trkpt lat="42.81542" lon="0.7138">
        <ele>633</ele>
        <time>2024-08-03T19:29:32Z</time>
      </trkpt>
      <trkpt lat="42.81474" lon="0.71342">
        <ele>632</ele>
        <time>2024-08-03T19:29:45Z</time>
      </trkpt>
      <trkpt lat="42.81392" lon="0.71299">
        <ele>633</ele>
        <time>2024-08-03T19:30:01Z</time>
      </trkpt>
      <trkpt lat="42.81302" lon="0.71257">
        <ele>635</ele>
        <time>2024-08-03T19:30:18Z</time>
      </trkpt>
      <trkpt lat="42.81281" lon="0.71251">
        <ele>635</ele>
        <time>2024-08-03T19:30:21Z</time>
      </trkpt>
      <trkpt lat="42.81259" lon="0.71261">
        <ele>636</ele>
        <time>2024-08-03T19:30:26Z</time>
      </trkpt>
      <trkpt lat="42.81211" lon="0.71249">
        <ele>636</ele>
        <time>2024-08-03T19:30:34Z</time>
      </trkpt>
      <trkpt lat="42.81188" lon="0.71238">
        <ele>637</ele>
        <time>2024-08-03T19:30:39Z</time>
      </trkpt>
      <trkpt lat="42.81164" lon="0.7123">
        <ele>637</ele>
        <time>2024-08-03T19:30:43Z</time>
      </trkpt>
      <trkpt lat="42.8114" lon="0.71217">
        <ele>638</ele>
        <time>2024-08-03T19:30:48Z</time>
      </trkpt>
      <trkpt lat="42.81114" lon="0.71195">
        <ele>639</ele>
        <time>2024-08-03T19:30:53Z</time>
      </trkpt>
      <trkpt lat="42.81095" lon="0.71176">
        <ele>639</ele>
        <time>2024-08-03T19:30:57Z</time>
      </trkpt>
      <trkpt lat="42.81048" lon="0.71144">
        <ele>640</ele>
        <time>2024-08-03T19:31:07Z</time>
      </trkpt>
      <trkpt lat="42.81017" lon="0.7111">
        <ele>640</ele>
        <time>2024-08-03T19:31:14Z</time>
      </trkpt>
      <trkpt lat="42.81011" lon="0.71109">
        <ele>641</ele>
        <time>2024-08-03T19:31:15Z</time>
      </trkpt>
      <trkpt lat="42.80977" lon="0.71118">
        <ele>642</ele>
        <time>2024-08-03T19:31:21Z</time>
      </trkpt>
      <trkpt lat="42.80954" lon="0.71116">
        <ele>643</ele>
        <time>2024-08-03T19:31:25Z</time>
      </trkpt>
      <trkpt lat="42.80933" lon="0.71107">
        <ele>643</ele>
        <time>2024-08-03T19:31:29Z</time>
      </trkpt>
      <trkpt lat="42.80916" lon="0.71092">
        <ele>643</ele>
        <time>2024-08-03T19:31:32Z</time>
      </trkpt>
      <trkpt lat="42.80914" lon="0.71075">
        <ele>643</ele>
        <time>2024-08-03T19:31:35Z</time>
      </trkpt>
      <trkpt lat="42.809" lon="0.71009">
        <ele>641</ele>
        <time>2024-08-03T19:31:44Z</time>
      </trkpt>
      <trkpt lat="42.8089" lon="0.70933">
        <ele>642</ele>
        <time>2024-08-03T19:31:54Z</time>
      </trkpt>
      <trkpt lat="42.8087" lon="0.7088">
        <ele>642</ele>
        <time>2024-08-03T19:32:02Z</time>
      </trkpt>
      <trkpt lat="42.80853" lon="0.70839">
        <ele>642</ele>
        <time>2024-08-03T19:32:08Z</time>
      </trkpt>
      <trkpt lat="42.80816" lon="0.70776">
        <ele>641</ele>
        <time>2024-08-03T19:32:18Z</time>
      </trkpt>
      <trkpt lat="42.80795" lon="0.70744">
        <ele>641</ele>
        <time>2024-08-03T19:32:24Z</time>
      </trkpt>
      <trkpt lat="42.80774" lon="0.70717">
        <ele>642</ele>
        <time>2024-08-03T19:32:29Z</time>
      </trkpt>
      <trkpt lat="42.80712" lon="0.70687">
        <ele>643</ele>
        <time>2024-08-03T19:32:41Z</time>
      </trkpt>
      <trkpt lat="42.80642" lon="0.70672">
        <ele>644</ele>
        <time>2024-08-03T19:32:53Z</time>
      </trkpt>
      <trkpt lat="42.80596" lon="0.70652">
        <ele>646</ele>
        <time>2024-08-03T19:33:02Z</time>
      </trkpt>
      <trkpt lat="42.80521" lon="0.7059">
        <ele>648</ele>
        <time>2024-08-03T19:33:17Z</time>
      </trkpt>
      <trkpt lat="42.80473" lon="0.70544">
        <ele>649</ele>
        <time>2024-08-03T19:33:28Z</time>
      </trkpt>
      <trkpt lat="42.80439" lon="0.705">
        <ele>650</ele>
        <time>2024-08-03T19:33:36Z</time>
      </trkpt>
      <trkpt lat="42.8041" lon="0.70469">
        <ele>652</ele>
        <time>2024-08-03T19:33:43Z</time>
      </trkpt>
      <trkpt lat="42.80384" lon="0.70472">
        <ele>653</ele>
        <time>2024-08-03T19:33:47Z</time>
      </trkpt>
      <trkpt lat="42.80349" lon="0.70469">
        <ele>655</ele>
        <time>2024-08-03T19:33:54Z</time>
      </trkpt>
      <trkpt lat="42.80318" lon="0.70458">
        <ele>656</ele>
        <time>2024-08-03T19:33:59Z</time>
      </trkpt>
      <trkpt lat="42.80315" lon="0.70427">
        <ele>651</ele>
        <time>2024-08-03T19:34:03Z</time>
      </trkpt>
      <trkpt lat="42.80328" lon="0.70349">
        <ele>659</ele>
        <time>2024-08-03T19:34:14Z</time>
      </trkpt>
      <trkpt lat="42.80286" lon="0.70338">
        <ele>658</ele>
        <time>2024-08-03T19:34:22Z</time>
      </trkpt>
      <trkpt lat="42.80134" lon="0.70309">
        <ele>661</ele>
        <time>2024-08-03T19:34:49Z</time>
      </trkpt>
      <trkpt lat="42.80109" lon="0.703">
        <ele>662</ele>
        <time>2024-08-03T19:34:53Z</time>
      </trkpt>
      <trkpt lat="42.8008" lon="0.70286">
        <ele>662</ele>
        <time>2024-08-03T19:34:59Z</time>
      </trkpt>
      <trkpt lat="42.79966" lon="0.70195">
        <ele>670</ele>
        <time>2024-08-03T19:35:22Z</time>
      </trkpt>
      <trkpt lat="42.79706" lon="0.7002">
        <ele>672</ele>
        <time>2024-08-03T19:36:14Z</time>
      </trkpt>
      <trkpt lat="42.79646" lon="0.69978">
        <ele>673</ele>
        <time>2024-08-03T19:36:26Z</time>
      </trkpt>
      <trkpt lat="42.79614" lon="0.69951">
        <ele>675</ele>
        <time>2024-08-03T19:36:33Z</time>
      </trkpt>
      <trkpt lat="42.79521" lon="0.69857">
        <ele>679</ele>
        <time>2024-08-03T19:36:53Z</time>
      </trkpt>
      <trkpt lat="42.79478" lon="0.69818">
        <ele>683</ele>
        <time>2024-08-03T19:37:02Z</time>
      </trkpt>
      <trkpt lat="42.79471" lon="0.69814">
        <ele>684</ele>
        <time>2024-08-03T19:37:04Z</time>
      </trkpt>
      <trkpt lat="42.79468" lon="0.69826">
        <ele>682</ele>
        <time>2024-08-03T19:37:06Z</time>
      </trkpt>
      <trkpt lat="42.79447" lon="0.69813">
        <ele>685</ele>
        <time>2024-08-03T19:37:10Z</time>
      </trkpt>
      <trkpt lat="42.79435" lon="0.69814">
        <ele>686</ele>
        <time>2024-08-03T19:37:12Z</time>
      </trkpt>
      <trkpt lat="42.79415" lon="0.69821">
        <ele>685</ele>
        <time>2024-08-03T19:37:15Z</time>
      </trkpt>
      <trkpt lat="42.79401" lon="0.69831">
        <ele>685</ele>
        <time>2024-08-03T19:37:18Z</time>
      </trkpt>
      <trkpt lat="42.79396" lon="0.69843">
        <ele>685</ele>
        <time>2024-08-03T19:37:20Z</time>
      </trkpt>
      <trkpt lat="42.79392" lon="0.69865">
        <ele>685</ele>
        <time>2024-08-03T19:37:23Z</time>
      </trkpt>
      <trkpt lat="42.79391" lon="0.69881">
        <ele>685</ele>
        <time>2024-08-03T19:37:25Z</time>
      </trkpt>
      <trkpt lat="42.79409" lon="0.69911">
        <ele>684</ele>
        <time>2024-08-03T19:37:30Z</time>
      </trkpt>
      <trkpt lat="42.79411" lon="0.69922">
        <ele>684</ele>
        <time>2024-08-03T19:37:32Z</time>
      </trkpt>
      <trkpt lat="42.79407" lon="0.69933">
        <ele>685</ele>
        <time>2024-08-03T19:37:33Z</time>
      </trkpt>
      <trkpt lat="42.79388" lon="0.69965">
        <ele>691</ele>
        <time>2024-08-03T19:37:39Z</time>
      </trkpt>
      <trkpt lat="42.79374" lon="0.69983">
        <ele>697</ele>
        <time>2024-08-03T19:37:42Z</time>
      </trkpt>
      <trkpt lat="42.79363" lon="0.6999">
        <ele>700</ele>
        <time>2024-08-03T19:37:44Z</time>
      </trkpt>
      <trkpt lat="42.79354" lon="0.69987">
        <ele>701</ele>
        <time>2024-08-03T19:37:46Z</time>
      </trkpt>
      <trkpt lat="42.79322" lon="0.6996">
        <ele>702</ele>
        <time>2024-08-03T19:37:53Z</time>
      </trkpt>
      <trkpt lat="42.79306" lon="0.69951">
        <ele>702</ele>
        <time>2024-08-03T19:37:56Z</time>
      </trkpt>
      <trkpt lat="42.79274" lon="0.69947">
        <ele>706</ele>
        <time>2024-08-03T19:38:01Z</time>
      </trkpt>
      <trkpt lat="42.79264" lon="0.69948">
        <ele>708</ele>
        <time>2024-08-03T19:38:03Z</time>
      </trkpt>
      <trkpt lat="42.79257" lon="0.69945">
        <ele>708</ele>
        <time>2024-08-03T19:38:04Z</time>
      </trkpt>
      <trkpt lat="42.79243" lon="0.69934">
        <ele>705</ele>
        <time>2024-08-03T19:38:07Z</time>
      </trkpt>
      <trkpt lat="42.7923" lon="0.69932">
        <ele>705</ele>
        <time>2024-08-03T19:38:10Z</time>
      </trkpt>
      <trkpt lat="42.79206" lon="0.6992">
        <ele>701</ele>
        <time>2024-08-03T19:38:14Z</time>
      </trkpt>
      <trkpt lat="42.79193" lon="0.69921">
        <ele>703</ele>
        <time>2024-08-03T19:38:16Z</time>
      </trkpt>
      <trkpt lat="42.79178" lon="0.69936">
        <ele>712</ele>
        <time>2024-08-03T19:38:20Z</time>
      </trkpt>
      <trkpt lat="42.7917" lon="0.69941">
        <ele>715</ele>
        <time>2024-08-03T19:38:21Z</time>
      </trkpt>
      <trkpt lat="42.7914" lon="0.69936">
        <ele>717</ele>
        <time>2024-08-03T19:38:27Z</time>
      </trkpt>
      <trkpt lat="42.7913" lon="0.69939">
        <ele>719</ele>
        <time>2024-08-03T19:38:29Z</time>
      </trkpt>
      <trkpt lat="42.7912" lon="0.69945">
        <ele>724</ele>
        <time>2024-08-03T19:38:31Z</time>
      </trkpt>
      <trkpt lat="42.79111" lon="0.69942">
        <ele>723</ele>
        <time>2024-08-03T19:38:32Z</time>
      </trkpt>
      <trkpt lat="42.79093" lon="0.69922">
        <ele>717</ele>
        <time>2024-08-03T19:38:36Z</time>
      </trkpt>
      <trkpt lat="42.7908" lon="0.6991">
        <ele>716</ele>
        <time>2024-08-03T19:38:39Z</time>
      </trkpt>
      <trkpt lat="42.79056" lon="0.69894">
        <ele>717</ele>
        <time>2024-08-03T19:38:44Z</time>
      </trkpt>
      <trkpt lat="42.79017" lon="0.69849">
        <ele>712</ele>
        <time>2024-08-03T19:38:53Z</time>
      </trkpt>
      <trkpt lat="42.78987" lon="0.69826">
        <ele>710</ele>
        <time>2024-08-03T19:38:59Z</time>
      </trkpt>
      <trkpt lat="42.78966" lon="0.69816">
        <ele>712</ele>
        <time>2024-08-03T19:39:03Z</time>
      </trkpt>
      <trkpt lat="42.78944" lon="0.69794">
        <ele>712</ele>
        <time>2024-08-03T19:39:08Z</time>
      </trkpt>
      <trkpt lat="42.78935" lon="0.69788">
        <ele>713</ele>
        <time>2024-08-03T19:39:10Z</time>
      </trkpt>
      <trkpt lat="42.78924" lon="0.69787">
        <ele>714</ele>
        <time>2024-08-03T19:39:12Z</time>
      </trkpt>
      <trkpt lat="42.78915" lon="0.69783">
        <ele>715</ele>
        <time>2024-08-03T19:39:13Z</time>
      </trkpt>
      <trkpt lat="42.78908" lon="0.69776">
        <ele>716</ele>
        <time>2024-08-03T19:39:15Z</time>
      </trkpt>
      <trkpt lat="42.78902" lon="0.69762">
        <ele>716</ele>
        <time>2024-08-03T19:39:17Z</time>
      </trkpt>
      <trkpt lat="42.78848" lon="0.69566">
        <ele>709</ele>
        <time>2024-08-03T19:39:44Z</time>
      </trkpt>
      <trkpt lat="42.78823" lon="0.69519">
        <ele>706</ele>
        <time>2024-08-03T19:39:52Z</time>
      </trkpt>
      <trkpt lat="42.78782" lon="0.69475">
        <ele>708</ele>
        <time>2024-08-03T19:40:01Z</time>
      </trkpt>
      <trkpt lat="42.78648" lon="0.69292">
        <ele>714</ele>
        <time>2024-08-03T10:31:58Z</time>
      </trkpt>
      <trkpt lat="42.78647" lon="0.6929">
        <ele>714</ele>
        <time>2024-08-03T10:31:58Z</time>
      </trkpt>
      <trkpt lat="42.78637" lon="0.69334">
        <ele>709</ele>
        <time>2024-08-03T10:32:04Z</time>
      </trkpt>
      <trkpt lat="42.7853" lon="0.6928">
        <ele>711</ele>
        <time>2024-08-03T10:32:25Z</time>
      </trkpt>
      <trkpt lat="42.78389" lon="0.69236">
        <ele>711</ele>
        <time>2024-08-03T10:32:50Z</time>
      </trkpt>
      <trkpt lat="42.78362" lon="0.69218">
        <ele>711</ele>
        <time>2024-08-03T10:32:56Z</time>
      </trkpt>
      <trkpt lat="42.783" lon="0.6917">
        <ele>713</ele>
        <time>2024-08-03T10:33:08Z</time>
      </trkpt>
      <trkpt lat="42.78232" lon="0.6912">
        <ele>714</ele>
        <time>2024-08-03T10:33:22Z</time>
      </trkpt>
      <trkpt lat="42.78182" lon="0.6908">
        <ele>715</ele>
        <time>2024-08-03T10:33:32Z</time>
      </trkpt>
      <trkpt lat="42.78141" lon="0.69046">
        <ele>717</ele>
        <time>2024-08-03T10:33:41Z</time>
      </trkpt>
      <trkpt lat="42.78134" lon="0.69037">
        <ele>718</ele>
        <time>2024-08-03T10:33:43Z</time>
      </trkpt>
      <trkpt lat="42.781" lon="0.69018">
        <ele>719</ele>
        <time>2024-08-03T10:33:49Z</time>
      </trkpt>
      <trkpt lat="42.78095" lon="0.69013">
        <ele>719</ele>
        <time>2024-08-03T10:33:50Z</time>
      </trkpt>
      <trkpt lat="42.78093" lon="0.69007">
        <ele>720</ele>
        <time>2024-08-03T10:33:51Z</time>
      </trkpt>
      <trkpt lat="42.78086" lon="0.68999">
        <ele>720</ele>
        <time>2024-08-03T10:33:53Z</time>
      </trkpt>
      <trkpt lat="42.78083" lon="0.68991">
        <ele>721</ele>
        <time>2024-08-03T10:33:54Z</time>
      </trkpt>
      <trkpt lat="42.78078" lon="0.68971">
        <ele>722</ele>
        <time>2024-08-03T10:33:57Z</time>
      </trkpt>
      <trkpt lat="42.78075" lon="0.68952">
        <ele>723</ele>
        <time>2024-08-03T10:33:59Z</time>
      </trkpt>
      <trkpt lat="42.78071" lon="0.68943">
        <ele>724</ele>
        <time>2024-08-03T10:34:01Z</time>
      </trkpt>
      <trkpt lat="42.7806" lon="0.68931">
        <ele>725</ele>
        <time>2024-08-03T10:34:03Z</time>
      </trkpt>
      <trkpt lat="42.78041" lon="0.6892">
        <ele>726</ele>
        <time>2024-08-03T10:34:07Z</time>
      </trkpt>
      <trkpt lat="42.77996" lon="0.6891">
        <ele>728</ele>
        <time>2024-08-03T10:34:15Z</time>
      </trkpt>
      <trkpt lat="42.77984" lon="0.68904">
        <ele>729</ele>
        <time>2024-08-03T10:34:17Z</time>
      </trkpt>
      <trkpt lat="42.77955" lon="0.68883">
        <ele>731</ele>
        <time>2024-08-03T10:34:23Z</time>
      </trkpt>
      <trkpt lat="42.77928" lon="0.68856">
        <ele>733</ele>
        <time>2024-08-03T10:34:29Z</time>
      </trkpt>
      <trkpt lat="42.77919" lon="0.68844">
        <ele>734</ele>
        <time>2024-08-03T10:34:31Z</time>
      </trkpt>
      <trkpt lat="42.77913" lon="0.68829">
        <ele>735</ele>
        <time>2024-08-03T10:34:34Z</time>
      </trkpt>
      <trkpt lat="42.77901" lon="0.68795">
        <ele>735</ele>
        <time>2024-08-03T10:34:38Z</time>
      </trkpt>
      <trkpt lat="42.77892" lon="0.68759">
        <ele>735</ele>
        <time>2024-08-03T10:34:43Z</time>
      </trkpt>
      <trkpt lat="42.7789" lon="0.68741">
        <ele>736</ele>
        <time>2024-08-03T10:34:46Z</time>
      </trkpt>
      <trkpt lat="42.77887" lon="0.68647">
        <ele>744</ele>
        <time>2024-08-03T10:34:58Z</time>
      </trkpt>
      <trkpt lat="42.7788" lon="0.68594">
        <ele>750</ele>
        <time>2024-08-03T10:35:05Z</time>
      </trkpt>
      <trkpt lat="42.77877" lon="0.6858">
        <ele>752</ele>
        <time>2024-08-03T10:35:07Z</time>
      </trkpt>
      <trkpt lat="42.7787" lon="0.68568">
        <ele>756</ele>
        <time>2024-08-03T10:35:09Z</time>
      </trkpt>
      <trkpt lat="42.77861" lon="0.68559">
        <ele>759</ele>
        <time>2024-08-03T10:35:11Z</time>
      </trkpt>
      <trkpt lat="42.778" lon="0.68504">
        <ele>770</ele>
        <time>2024-08-03T10:35:24Z</time>
      </trkpt>
      <trkpt lat="42.7778" lon="0.68492">
        <ele>771</ele>
        <time>2024-08-03T10:35:28Z</time>
      </trkpt>
      <trkpt lat="42.77727" lon="0.68484">
        <ele>765</ele>
        <time>2024-08-03T10:35:37Z</time>
      </trkpt>
      <trkpt lat="42.77716" lon="0.6848">
        <ele>766</ele>
        <time>2024-08-03T10:35:39Z</time>
      </trkpt>
      <trkpt lat="42.77633" lon="0.68424">
        <ele>778</ele>
        <time>2024-08-03T10:35:56Z</time>
      </trkpt>
      <trkpt lat="42.77608" lon="0.6841">
        <ele>780</ele>
        <time>2024-08-03T10:36:01Z</time>
      </trkpt>
      <trkpt lat="42.77599" lon="0.68407">
        <ele>780</ele>
        <time>2024-08-03T10:36:02Z</time>
      </trkpt>
      <trkpt lat="42.77567" lon="0.68403">
        <ele>778</ele>
        <time>2024-08-03T10:36:08Z</time>
      </trkpt>
      <trkpt lat="42.77531" lon="0.68392">
        <ele>783</ele>
        <time>2024-08-03T10:36:15Z</time>
      </trkpt>
      <trkpt lat="42.77506" lon="0.68388">
        <ele>784</ele>
        <time>2024-08-03T10:36:19Z</time>
      </trkpt>
      <trkpt lat="42.77454" lon="0.68394">
        <ele>782</ele>
        <time>2024-08-03T10:36:28Z</time>
      </trkpt>
      <trkpt lat="42.77406" lon="0.68387">
        <ele>787</ele>
        <time>2024-08-03T10:36:37Z</time>
      </trkpt>
      <trkpt lat="42.77348" lon="0.6839">
        <ele>790</ele>
        <time>2024-08-03T10:36:47Z</time>
      </trkpt>
      <trkpt lat="42.77336" lon="0.68388">
        <ele>791</ele>
        <time>2024-08-03T10:36:49Z</time>
      </trkpt>
      <trkpt lat="42.77292" lon="0.68369">
        <ele>799</ele>
        <time>2024-08-03T10:36:58Z</time>
      </trkpt>
      <trkpt lat="42.7724" lon="0.68361">
        <ele>801</ele>
        <time>2024-08-03T10:37:07Z</time>
      </trkpt>
      <trkpt lat="42.77218" lon="0.68352">
        <ele>806</ele>
        <time>2024-08-03T10:37:11Z</time>
      </trkpt>
      <trkpt lat="42.77209" lon="0.68351">
        <ele>807</ele>
        <time>2024-08-03T10:37:13Z</time>
      </trkpt>
      <trkpt lat="42.77192" lon="0.68356">
        <ele>807</ele>
        <time>2024-08-03T10:37:16Z</time>
      </trkpt>
      <trkpt lat="42.77176" lon="0.68365">
        <ele>807</ele>
        <time>2024-08-03T10:37:19Z</time>
      </trkpt>
      <trkpt lat="42.77167" lon="0.68363">
        <ele>808</ele>
        <time>2024-08-03T10:37:21Z</time>
      </trkpt>
      <trkpt lat="42.77162" lon="0.68359">
        <ele>809</ele>
        <time>2024-08-03T10:37:22Z</time>
      </trkpt>
      <trkpt lat="42.7716" lon="0.68353">
        <ele>811</ele>
        <time>2024-08-03T10:37:22Z</time>
      </trkpt>
      <trkpt lat="42.7716" lon="0.68339">
        <ele>815</ele>
        <time>2024-08-03T10:37:24Z</time>
      </trkpt>
      <trkpt lat="42.77162" lon="0.68332">
        <ele>817</ele>
        <time>2024-08-03T10:37:25Z</time>
      </trkpt>
      <trkpt lat="42.77176" lon="0.68321">
        <ele>819</ele>
        <time>2024-08-03T10:37:28Z</time>
      </trkpt>
      <trkpt lat="42.77204" lon="0.68308">
        <ele>821</ele>
        <time>2024-08-03T10:37:33Z</time>
      </trkpt>
      <trkpt lat="42.77225" lon="0.68309">
        <ele>819</ele>
        <time>2024-08-03T10:37:37Z</time>
      </trkpt>
      <trkpt lat="42.77252" lon="0.6832">
        <ele>812</ele>
        <time>2024-08-03T10:37:42Z</time>
      </trkpt>
      <trkpt lat="42.77314" lon="0.68354">
        <ele>806</ele>
        <time>2024-08-03T10:37:54Z</time>
      </trkpt>
      <trkpt lat="42.77324" lon="0.68357">
        <ele>805</ele>
        <time>2024-08-03T10:37:56Z</time>
      </trkpt>
      <trkpt lat="42.77334" lon="0.68355">
        <ele>807</ele>
        <time>2024-08-03T10:37:58Z</time>
      </trkpt>
      <trkpt lat="42.77347" lon="0.68347">
        <ele>810</ele>
        <time>2024-08-03T10:38:00Z</time>
      </trkpt>
      <trkpt lat="42.77365" lon="0.68342">
        <ele>811</ele>
        <time>2024-08-03T10:38:03Z</time>
      </trkpt>
      <trkpt lat="42.77378" lon="0.68335">
        <ele>814</ele>
        <time>2024-08-03T10:38:06Z</time>
      </trkpt>
      <trkpt lat="42.77388" lon="0.68327">
        <ele>817</ele>
        <time>2024-08-03T10:38:08Z</time>
      </trkpt>
      <trkpt lat="42.77409" lon="0.68298">
        <ele>829</ele>
        <time>2024-08-03T10:38:13Z</time>
      </trkpt>
      <trkpt lat="42.7742" lon="0.68293">
        <ele>831</ele>
        <time>2024-08-03T10:38:15Z</time>
      </trkpt>
      <trkpt lat="42.77479" lon="0.68294">
        <ele>829</ele>
        <time>2024-08-03T10:38:26Z</time>
      </trkpt>
      <trkpt lat="42.775" lon="0.68292">
        <ele>829</ele>
        <time>2024-08-03T10:38:30Z</time>
      </trkpt>
      <trkpt lat="42.77548" lon="0.68275">
        <ele>839</ele>
        <time>2024-08-03T10:38:38Z</time>
      </trkpt>
      <trkpt lat="42.77571" lon="0.68273">
        <ele>842</ele>
        <time>2024-08-03T10:38:43Z</time>
      </trkpt>
      <trkpt lat="42.776" lon="0.68267">
        <ele>848</ele>
        <time>2024-08-03T10:38:48Z</time>
      </trkpt>
      <trkpt lat="42.77611" lon="0.68268">
        <ele>850</ele>
        <time>2024-08-03T10:38:50Z</time>
      </trkpt>
      <trkpt lat="42.7762" lon="0.68273">
        <ele>849</ele>
        <time>2024-08-03T10:38:51Z</time>
      </trkpt>
      <trkpt lat="42.77631" lon="0.68283">
        <ele>846</ele>
        <time>2024-08-03T10:38:54Z</time>
      </trkpt>
      <trkpt lat="42.77649" lon="0.68293">
        <ele>845</ele>
        <time>2024-08-03T10:38:57Z</time>
      </trkpt>
      <trkpt lat="42.77686" lon="0.68303">
        <ele>848</ele>
        <time>2024-08-03T10:39:04Z</time>
      </trkpt>
      <trkpt lat="42.77722" lon="0.6832">
        <ele>849</ele>
        <time>2024-08-03T10:39:11Z</time>
      </trkpt>
      <trkpt lat="42.77736" lon="0.68324">
        <ele>850</ele>
        <time>2024-08-03T10:39:13Z</time>
      </trkpt>
      <trkpt lat="42.77771" lon="0.6833">
        <ele>854</ele>
        <time>2024-08-03T10:39:20Z</time>
      </trkpt>
      <trkpt lat="42.77784" lon="0.68336">
        <ele>854</ele>
        <time>2024-08-03T10:39:22Z</time>
      </trkpt>
      <trkpt lat="42.77816" lon="0.6836">
        <ele>848</ele>
        <time>2024-08-03T10:39:29Z</time>
      </trkpt>
      <trkpt lat="42.77824" lon="0.68361">
        <ele>849</ele>
        <time>2024-08-03T10:39:30Z</time>
      </trkpt>
      <trkpt lat="42.77834" lon="0.68361">
        <ele>851</ele>
        <time>2024-08-03T10:39:32Z</time>
      </trkpt>
      <trkpt lat="42.77856" lon="0.68353">
        <ele>854</ele>
        <time>2024-08-03T10:39:36Z</time>
      </trkpt>
      <trkpt lat="42.77884" lon="0.68347">
        <ele>856</ele>
        <time>2024-08-03T10:39:41Z</time>
      </trkpt>
      <trkpt lat="42.77925" lon="0.68351">
        <ele>853</ele>
        <time>2024-08-03T10:39:48Z</time>
      </trkpt>
      <trkpt lat="42.77958" lon="0.68345">
        <ele>851</ele>
        <time>2024-08-03T10:39:54Z</time>
      </trkpt>
      <trkpt lat="42.77971" lon="0.68342">
        <ele>850</ele>
        <time>2024-08-03T10:39:56Z</time>
      </trkpt>
      <trkpt lat="42.77976" lon="0.68335">
        <ele>852</ele>
        <time>2024-08-03T10:39:58Z</time>
      </trkpt>
      <trkpt lat="42.77981" lon="0.68312">
        <ele>860</ele>
        <time>2024-08-03T10:40:01Z</time>
      </trkpt>
      <trkpt lat="42.77979" lon="0.683">
        <ele>866</ele>
        <time>2024-08-03T10:40:02Z</time>
      </trkpt>
      <trkpt lat="42.77974" lon="0.68294">
        <ele>869</ele>
        <time>2024-08-03T10:40:04Z</time>
      </trkpt>
      <trkpt lat="42.77966" lon="0.6829">
        <ele>872</ele>
        <time>2024-08-03T10:40:05Z</time>
      </trkpt>
      <trkpt lat="42.77954" lon="0.6829">
        <ele>875</ele>
        <time>2024-08-03T10:40:07Z</time>
      </trkpt>
      <trkpt lat="42.7794" lon="0.68298">
        <ele>874</ele>
        <time>2024-08-03T10:40:10Z</time>
      </trkpt>
      <trkpt lat="42.77931" lon="0.68308">
        <ele>871</ele>
        <time>2024-08-03T10:40:12Z</time>
      </trkpt>
      <trkpt lat="42.77921" lon="0.68313">
        <ele>870</ele>
        <time>2024-08-03T10:40:14Z</time>
      </trkpt>
      <trkpt lat="42.77907" lon="0.68316">
        <ele>870</ele>
        <time>2024-08-03T10:40:16Z</time>
      </trkpt>
      <trkpt lat="42.77824" lon="0.68317">
        <ele>870</ele>
        <time>2024-08-03T10:40:31Z</time>
      </trkpt>
      <trkpt lat="42.77817" lon="0.68314">
        <ele>871</ele>
        <time>2024-08-03T10:40:32Z</time>
      </trkpt>
      <trkpt lat="42.77788" lon="0.6829">
        <ele>879</ele>
        <time>2024-08-03T10:40:39Z</time>
      </trkpt>
      <trkpt lat="42.77775" lon="0.68283">
        <ele>880</ele>
        <time>2024-08-03T10:40:41Z</time>
      </trkpt>
      <trkpt lat="42.77735" lon="0.68278">
        <ele>874</ele>
        <time>2024-08-03T10:40:48Z</time>
      </trkpt>
      <trkpt lat="42.77725" lon="0.68272">
        <ele>874</ele>
        <time>2024-08-03T10:40:50Z</time>
      </trkpt>
      <trkpt lat="42.77703" lon="0.6825">
        <ele>879</ele>
        <time>2024-08-03T10:40:55Z</time>
      </trkpt>
      <trkpt lat="42.77692" lon="0.68245">
        <ele>879</ele>
        <time>2024-08-03T10:40:57Z</time>
      </trkpt>
      <trkpt lat="42.77669" lon="0.68245">
        <ele>872</ele>
        <time>2024-08-03T10:41:01Z</time>
      </trkpt>
      <trkpt lat="42.7766" lon="0.68237">
        <ele>874</ele>
        <time>2024-08-03T10:41:03Z</time>
      </trkpt>
      <trkpt lat="42.77645" lon="0.68208">
        <ele>886</ele>
        <time>2024-08-03T10:41:08Z</time>
      </trkpt>
      <trkpt lat="42.77628" lon="0.68186">
        <ele>892</ele>
        <time>2024-08-03T10:41:12Z</time>
      </trkpt>
      <trkpt lat="42.77613" lon="0.68173">
        <ele>895</ele>
        <time>2024-08-03T10:41:15Z</time>
      </trkpt>
      <trkpt lat="42.77581" lon="0.68151">
        <ele>896</ele>
        <time>2024-08-03T10:41:21Z</time>
      </trkpt>
      <trkpt lat="42.77565" lon="0.68141">
        <ele>899</ele>
        <time>2024-08-03T10:41:25Z</time>
      </trkpt>
      <trkpt lat="42.77551" lon="0.68137">
        <ele>900</ele>
        <time>2024-08-03T10:41:27Z</time>
      </trkpt>
      <trkpt lat="42.77535" lon="0.68137">
        <ele>899</ele>
        <time>2024-08-03T10:41:30Z</time>
      </trkpt>
      <trkpt lat="42.77508" lon="0.6813">
        <ele>900</ele>
        <time>2024-08-03T10:41:35Z</time>
      </trkpt>
      <trkpt lat="42.77476" lon="0.68113">
        <ele>907</ele>
        <time>2024-08-03T10:41:41Z</time>
      </trkpt>
      <trkpt lat="42.77456" lon="0.68108">
        <ele>909</ele>
        <time>2024-08-03T10:41:45Z</time>
      </trkpt>
      <trkpt lat="42.77422" lon="0.68106">
        <ele>909</ele>
        <time>2024-08-03T10:41:51Z</time>
      </trkpt>
      <trkpt lat="42.7736" lon="0.68096">
        <ele>911</ele>
        <time>2024-08-03T10:42:02Z</time>
      </trkpt>
      <trkpt lat="42.77324" lon="0.68106">
        <ele>908</ele>
        <time>2024-08-03T10:42:08Z</time>
      </trkpt>
      <trkpt lat="42.77316" lon="0.68101">
        <ele>911</ele>
        <time>2024-08-03T10:42:10Z</time>
      </trkpt>
      <trkpt lat="42.77311" lon="0.68092">
        <ele>916</ele>
        <time>2024-08-03T10:42:11Z</time>
      </trkpt>
      <trkpt lat="42.77311" lon="0.68081">
        <ele>921</ele>
        <time>2024-08-03T10:42:13Z</time>
      </trkpt>
      <trkpt lat="42.77313" lon="0.68073">
        <ele>925</ele>
        <time>2024-08-03T10:42:14Z</time>
      </trkpt>
      <trkpt lat="42.77319" lon="0.68066">
        <ele>928</ele>
        <time>2024-08-03T10:42:15Z</time>
      </trkpt>
      <trkpt lat="42.77329" lon="0.68064">
        <ele>927</ele>
        <time>2024-08-03T10:42:17Z</time>
      </trkpt>
      <trkpt lat="42.77353" lon="0.68073">
        <ele>921</ele>
        <time>2024-08-03T10:42:21Z</time>
      </trkpt>
      <trkpt lat="42.77363" lon="0.68075">
        <ele>921</ele>
        <time>2024-08-03T10:42:23Z</time>
      </trkpt>
      <trkpt lat="42.77384" lon="0.68073">
        <ele>922</ele>
        <time>2024-08-03T10:42:27Z</time>
      </trkpt>
      <trkpt lat="42.77428" lon="0.68058">
        <ele>932</ele>
        <time>2024-08-03T10:42:35Z</time>
      </trkpt>
      <trkpt lat="42.77438" lon="0.6806">
        <ele>931</ele>
        <time>2024-08-03T10:42:37Z</time>
      </trkpt>
      <trkpt lat="42.77457" lon="0.68068">
        <ele>927</ele>
        <time>2024-08-03T10:42:40Z</time>
      </trkpt>
      <trkpt lat="42.77469" lon="0.68065">
        <ele>929</ele>
        <time>2024-08-03T10:42:43Z</time>
      </trkpt>
      <trkpt lat="42.77484" lon="0.68057">
        <ele>933</ele>
        <time>2024-08-03T10:42:45Z</time>
      </trkpt>
      <trkpt lat="42.77521" lon="0.68051">
        <ele>937</ele>
        <time>2024-08-03T10:42:52Z</time>
      </trkpt>
      <trkpt lat="42.77563" lon="0.68038">
        <ele>944</ele>
        <time>2024-08-03T10:43:00Z</time>
      </trkpt>
      <trkpt lat="42.77585" lon="0.68039">
        <ele>944</ele>
        <time>2024-08-03T10:43:04Z</time>
      </trkpt>
      <trkpt lat="42.77627" lon="0.68046">
        <ele>950</ele>
        <time>2024-08-03T10:43:11Z</time>
      </trkpt>
      <trkpt lat="42.77646" lon="0.68052">
        <ele>951</ele>
        <time>2024-08-03T10:43:15Z</time>
      </trkpt>
      <trkpt lat="42.77658" lon="0.6806">
        <ele>951</ele>
        <time>2024-08-03T10:43:17Z</time>
      </trkpt>
      <trkpt lat="42.7767" lon="0.68074">
        <ele>949</ele>
        <time>2024-08-03T10:43:20Z</time>
      </trkpt>
      <trkpt lat="42.77705" lon="0.68127">
        <ele>943</ele>
        <time>2024-08-03T10:43:29Z</time>
      </trkpt>
      <trkpt lat="42.77716" lon="0.68141">
        <ele>942</ele>
        <time>2024-08-03T10:43:32Z</time>
      </trkpt>
      <trkpt lat="42.77729" lon="0.68152">
        <ele>943</ele>
        <time>2024-08-03T10:43:35Z</time>
      </trkpt>
      <trkpt lat="42.77755" lon="0.68167">
        <ele>946</ele>
        <time>2024-08-03T10:43:40Z</time>
      </trkpt>
      <trkpt lat="42.77764" lon="0.68168">
        <ele>947</ele>
        <time>2024-08-03T10:43:41Z</time>
      </trkpt>
      <trkpt lat="42.778" lon="0.68155">
        <ele>956</ele>
        <time>2024-08-03T10:43:48Z</time>
      </trkpt>
      <trkpt lat="42.77822" lon="0.68154">
        <ele>959</ele>
        <time>2024-08-03T10:43:52Z</time>
      </trkpt>
      <trkpt lat="42.77832" lon="0.68151">
        <ele>962</ele>
        <time>2024-08-03T10:43:54Z</time>
      </trkpt>
      <trkpt lat="42.7788" lon="0.68123">
        <ele>967</ele>
        <time>2024-08-03T10:44:03Z</time>
      </trkpt>
      <trkpt lat="42.77945" lon="0.68087">
        <ele>968</ele>
        <time>2024-08-03T10:44:15Z</time>
      </trkpt>
      <trkpt lat="42.77959" lon="0.68076">
        <ele>968</ele>
        <time>2024-08-03T10:44:18Z</time>
      </trkpt>
      <trkpt lat="42.77971" lon="0.68061">
        <ele>970</ele>
        <time>2024-08-03T10:44:21Z</time>
      </trkpt>
      <trkpt lat="42.78025" lon="0.67975">
        <ele>986</ele>
        <time>2024-08-03T10:44:36Z</time>
      </trkpt>
      <trkpt lat="42.78037" lon="0.67963">
        <ele>987</ele>
        <time>2024-08-03T10:44:39Z</time>
      </trkpt>
      <trkpt lat="42.78085" lon="0.67928">
        <ele>986</ele>
        <time>2024-08-03T10:44:48Z</time>
      </trkpt>
      <trkpt lat="42.78118" lon="0.67873">
        <ele>989</ele>
        <time>2024-08-03T10:44:57Z</time>
      </trkpt>
      <trkpt lat="42.78123" lon="0.67853">
        <ele>992</ele>
        <time>2024-08-03T10:45:00Z</time>
      </trkpt>
      <trkpt lat="42.78124" lon="0.67837">
        <ele>996</ele>
        <time>2024-08-03T10:45:02Z</time>
      </trkpt>
      <trkpt lat="42.78119" lon="0.67828">
        <ele>999</ele>
        <time>2024-08-03T10:45:04Z</time>
      </trkpt>
      <trkpt lat="42.78112" lon="0.67822">
        <ele>1003</ele>
        <time>2024-08-03T10:45:05Z</time>
      </trkpt>
      <trkpt lat="42.78104" lon="0.67822">
        <ele>1007</ele>
        <time>2024-08-03T10:45:07Z</time>
      </trkpt>
      <trkpt lat="42.78098" lon="0.67827">
        <ele>1008</ele>
        <time>2024-08-03T10:45:08Z</time>
      </trkpt>
      <trkpt lat="42.78094" lon="0.67837">
        <ele>1008</ele>
        <time>2024-08-03T10:45:09Z</time>
      </trkpt>
      <trkpt lat="42.78084" lon="0.67881">
        <ele>1000</ele>
        <time>2024-08-03T10:45:15Z</time>
      </trkpt>
      <trkpt lat="42.78075" lon="0.67897">
        <ele>999</ele>
        <time>2024-08-03T10:45:18Z</time>
      </trkpt>
      <trkpt lat="42.78064" lon="0.67909">
        <ele>999</ele>
        <time>2024-08-03T10:45:21Z</time>
      </trkpt>
      <trkpt lat="42.78054" lon="0.67914">
        <ele>1000</ele>
        <time>2024-08-03T10:45:22Z</time>
      </trkpt>
      <trkpt lat="42.78041" lon="0.67914">
        <ele>1004</ele>
        <time>2024-08-03T10:45:25Z</time>
      </trkpt>
      <trkpt lat="42.78028" lon="0.67918">
        <ele>1006</ele>
        <time>2024-08-03T10:45:27Z</time>
      </trkpt>
      <trkpt lat="42.77919" lon="0.67988">
        <ele>1010</ele>
        <time>2024-08-03T10:45:49Z</time>
      </trkpt>
      <trkpt lat="42.77901" lon="0.67996">
        <ele>1011</ele>
        <time>2024-08-03T10:45:52Z</time>
      </trkpt>
      <trkpt lat="42.77878" lon="0.67997">
        <ele>1016</ele>
        <time>2024-08-03T10:45:56Z</time>
      </trkpt>
      <trkpt lat="42.7787" lon="0.68">
        <ele>1017</ele>
        <time>2024-08-03T10:45:58Z</time>
      </trkpt>
      <trkpt lat="42.77827" lon="0.68037">
        <ele>1011</ele>
        <time>2024-08-03T10:46:07Z</time>
      </trkpt>
      <trkpt lat="42.77819" lon="0.6804">
        <ele>1009</ele>
        <time>2024-08-03T10:46:08Z</time>
      </trkpt>
      <trkpt lat="42.77809" lon="0.68038">
        <ele>1008</ele>
        <time>2024-08-03T10:46:10Z</time>
      </trkpt>
      <trkpt lat="42.77802" lon="0.68032">
        <ele>1008</ele>
        <time>2024-08-03T10:46:11Z</time>
      </trkpt>
      <trkpt lat="42.77798" lon="0.68022">
        <ele>1011</ele>
        <time>2024-08-03T10:46:13Z</time>
      </trkpt>
      <trkpt lat="42.77797" lon="0.68008">
        <ele>1016</ele>
        <time>2024-08-03T10:46:15Z</time>
      </trkpt>
      <trkpt lat="42.77799" lon="0.67989">
        <ele>1022</ele>
        <time>2024-08-03T10:46:17Z</time>
      </trkpt>
      <trkpt lat="42.77797" lon="0.67976">
        <ele>1026</ele>
        <time>2024-08-03T10:46:19Z</time>
      </trkpt>
      <trkpt lat="42.77783" lon="0.6795">
        <ele>1032</ele>
        <time>2024-08-03T10:46:23Z</time>
      </trkpt>
      <trkpt lat="42.77755" lon="0.6792">
        <ele>1040</ele>
        <time>2024-08-03T10:46:29Z</time>
      </trkpt>
      <trkpt lat="42.77721" lon="0.67896">
        <ele>1040</ele>
        <time>2024-08-03T10:46:36Z</time>
      </trkpt>
      <trkpt lat="42.77684" lon="0.67849">
        <ele>1050</ele>
        <time>2024-08-03T10:46:45Z</time>
      </trkpt>
      <trkpt lat="42.77666" lon="0.67833">
        <ele>1053</ele>
        <time>2024-08-03T10:46:49Z</time>
      </trkpt>
      <trkpt lat="42.7765" lon="0.67821">
        <ele>1058</ele>
        <time>2024-08-03T10:46:52Z</time>
      </trkpt>
      <trkpt lat="42.77634" lon="0.67812">
        <ele>1061</ele>
        <time>2024-08-03T10:46:55Z</time>
      </trkpt>
      <trkpt lat="42.77556" lon="0.6779">
        <ele>1065</ele>
        <time>2024-08-03T10:47:10Z</time>
      </trkpt>
      <trkpt lat="42.77514" lon="0.67784">
        <ele>1065</ele>
        <time>2024-08-03T10:47:17Z</time>
      </trkpt>
      <trkpt lat="42.77482" lon="0.67766">
        <ele>1073</ele>
        <time>2024-08-03T10:47:23Z</time>
      </trkpt>
      <trkpt lat="42.77469" lon="0.67765">
        <ele>1073</ele>
        <time>2024-08-03T10:47:26Z</time>
      </trkpt>
      <trkpt lat="42.7744" lon="0.67772">
        <ele>1068</ele>
        <time>2024-08-03T10:47:31Z</time>
      </trkpt>
      <trkpt lat="42.77425" lon="0.67772">
        <ele>1068</ele>
        <time>2024-08-03T10:47:34Z</time>
      </trkpt>
      <trkpt lat="42.77396" lon="0.67767">
        <ele>1072</ele>
        <time>2024-08-03T10:47:39Z</time>
      </trkpt>
      <trkpt lat="42.77339" lon="0.67767">
        <ele>1075</ele>
        <time>2024-08-03T10:47:49Z</time>
      </trkpt>
      <trkpt lat="42.77319" lon="0.67765">
        <ele>1077</ele>
        <time>2024-08-03T10:47:52Z</time>
      </trkpt>
      <trkpt lat="42.77293" lon="0.67759">
        <ele>1082</ele>
        <time>2024-08-03T10:47:57Z</time>
      </trkpt>
      <trkpt lat="42.77262" lon="0.67764">
        <ele>1083</ele>
        <time>2024-08-03T10:48:03Z</time>
      </trkpt>
      <trkpt lat="42.7725" lon="0.67763">
        <ele>1084</ele>
        <time>2024-08-03T10:48:05Z</time>
      </trkpt>
      <trkpt lat="42.77233" lon="0.67757">
        <ele>1085</ele>
        <time>2024-08-03T10:48:08Z</time>
      </trkpt>
      <trkpt lat="42.7721" lon="0.67744">
        <ele>1089</ele>
        <time>2024-08-03T10:48:12Z</time>
      </trkpt>
      <trkpt lat="42.77171" lon="0.67719">
        <ele>1096</ele>
        <time>2024-08-03T10:48:20Z</time>
      </trkpt>
      <trkpt lat="42.77117" lon="0.6769">
        <ele>1101</ele>
        <time>2024-08-03T10:48:30Z</time>
      </trkpt>
      <trkpt lat="42.77072" lon="0.67634">
        <ele>1106</ele>
        <time>2024-08-03T10:48:41Z</time>
      </trkpt>
      <trkpt lat="42.77063" lon="0.67621">
        <ele>1106</ele>
        <time>2024-08-03T10:48:44Z</time>
      </trkpt>
      <trkpt lat="42.77056" lon="0.67604">
        <ele>1107</ele>
        <time>2024-08-03T10:48:46Z</time>
      </trkpt>
      <trkpt lat="42.77017" lon="0.67477">
        <ele>1118</ele>
        <time>2024-08-03T10:49:04Z</time>
      </trkpt>
      <trkpt lat="42.77008" lon="0.67453">
        <ele>1119</ele>
        <time>2024-08-03T10:49:08Z</time>
      </trkpt>
      <trkpt lat="42.76988" lon="0.67422">
        <ele>1118</ele>
        <time>2024-08-03T10:49:13Z</time>
      </trkpt>
      <trkpt lat="42.76974" lon="0.67377">
        <ele>1123</ele>
        <time>2024-08-03T10:49:19Z</time>
      </trkpt>
      <trkpt lat="42.76954" lon="0.67296">
        <ele>1132</ele>
        <time>2024-08-03T10:49:31Z</time>
      </trkpt>
      <trkpt lat="42.76947" lon="0.67275">
        <ele>1134</ele>
        <time>2024-08-03T10:49:34Z</time>
      </trkpt>
      <trkpt lat="42.76919" lon="0.67208">
        <ele>1139</ele>
        <time>2024-08-03T10:49:44Z</time>
      </trkpt>
      <trkpt lat="42.76911" lon="0.67196">
        <ele>1140</ele>
        <time>2024-08-03T10:49:46Z</time>
      </trkpt>
      <trkpt lat="42.76895" lon="0.67182">
        <ele>1141</ele>
        <time>2024-08-03T10:49:49Z</time>
      </trkpt>
      <trkpt lat="42.76847" lon="0.67146">
        <ele>1138</ele>
        <time>2024-08-03T10:49:59Z</time>
      </trkpt>
      <trkpt lat="42.7684" lon="0.67143">
        <ele>1137</ele>
        <time>2024-08-03T10:50:00Z</time>
      </trkpt>
      <trkpt lat="42.76833" lon="0.67136">
        <ele>1136</ele>
        <time>2024-08-03T10:50:02Z</time>
      </trkpt>
      <trkpt lat="42.76818" lon="0.67105">
        <ele>1139</ele>
        <time>2024-08-03T10:50:07Z</time>
      </trkpt>
      <trkpt lat="42.76811" lon="0.67086">
        <ele>1140</ele>
        <time>2024-08-03T10:50:09Z</time>
      </trkpt>
      <trkpt lat="42.76797" lon="0.67021">
        <ele>1143</ele>
        <time>2024-08-03T10:50:18Z</time>
      </trkpt>
      <trkpt lat="42.76795" lon="0.67003">
        <ele>1144</ele>
        <time>2024-08-03T10:50:21Z</time>
      </trkpt>
      <trkpt lat="42.76797" lon="0.66983">
        <ele>1145</ele>
        <time>2024-08-03T10:50:23Z</time>
      </trkpt>
      <trkpt lat="42.76802" lon="0.6696">
        <ele>1147</ele>
        <time>2024-08-03T10:50:26Z</time>
      </trkpt>
      <trkpt lat="42.76809" lon="0.66941">
        <ele>1148</ele>
        <time>2024-08-03T10:50:29Z</time>
      </trkpt>
      <trkpt lat="42.76832" lon="0.66908">
        <ele>1152</ele>
        <time>2024-08-03T10:50:35Z</time>
      </trkpt>
      <trkpt lat="42.76841" lon="0.66894">
        <ele>1155</ele>
        <time>2024-08-03T10:50:37Z</time>
      </trkpt>
      <trkpt lat="42.76844" lon="0.66883">
        <ele>1156</ele>
        <time>2024-08-03T10:50:39Z</time>
      </trkpt>
      <trkpt lat="42.76845" lon="0.66872">
        <ele>1157</ele>
        <time>2024-08-03T10:50:40Z</time>
      </trkpt>
      <trkpt lat="42.76837" lon="0.66794">
        <ele>1165</ele>
        <time>2024-08-03T10:50:51Z</time>
      </trkpt>
      <trkpt lat="42.76825" lon="0.6676">
        <ele>1169</ele>
        <time>2024-08-03T10:50:56Z</time>
      </trkpt>
      <trkpt lat="42.76817" lon="0.66743">
        <ele>1172</ele>
        <time>2024-08-03T10:50:58Z</time>
      </trkpt>
      <trkpt lat="42.76807" lon="0.66726">
        <ele>1176</ele>
        <time>2024-08-03T10:51:01Z</time>
      </trkpt>
      <trkpt lat="42.76796" lon="0.66714">
        <ele>1178</ele>
        <time>2024-08-03T10:51:04Z</time>
      </trkpt>
      <trkpt lat="42.76763" lon="0.66684">
        <ele>1181</ele>
        <time>2024-08-03T10:51:11Z</time>
      </trkpt>
      <trkpt lat="42.76741" lon="0.66659">
        <ele>1185</ele>
        <time>2024-08-03T10:51:16Z</time>
      </trkpt>
      <trkpt lat="42.76735" lon="0.66657">
        <ele>1185</ele>
        <time>2024-08-03T10:51:17Z</time>
      </trkpt>
      <trkpt lat="42.76728" lon="0.66659">
        <ele>1184</ele>
        <time>2024-08-03T10:51:18Z</time>
      </trkpt>
      <trkpt lat="42.76708" lon="0.66682">
        <ele>1178</ele>
        <time>2024-08-03T10:51:23Z</time>
      </trkpt>
      <trkpt lat="42.76701" lon="0.66684">
        <ele>1178</ele>
        <time>2024-08-03T10:51:24Z</time>
      </trkpt>
      <trkpt lat="42.76673" lon="0.66681">
        <ele>1178</ele>
        <time>2024-08-03T10:51:29Z</time>
      </trkpt>
      <trkpt lat="42.76665" lon="0.66674">
        <ele>1178</ele>
        <time>2024-08-03T10:51:31Z</time>
      </trkpt>
      <trkpt lat="42.76659" lon="0.66666">
        <ele>1179</ele>
        <time>2024-08-03T10:51:32Z</time>
      </trkpt>
      <trkpt lat="42.76653" lon="0.66653">
        <ele>1181</ele>
        <time>2024-08-03T10:51:34Z</time>
      </trkpt>
      <trkpt lat="42.76642" lon="0.66598">
        <ele>1189</ele>
        <time>2024-08-03T10:51:42Z</time>
      </trkpt>
      <trkpt lat="42.76611" lon="0.66506">
        <ele>1200</ele>
        <time>2024-08-03T10:51:55Z</time>
      </trkpt>
      <trkpt lat="42.76606" lon="0.66485">
        <ele>1202</ele>
        <time>2024-08-03T10:51:58Z</time>
      </trkpt>
      <trkpt lat="42.76604" lon="0.66468">
        <ele>1203</ele>
        <time>2024-08-03T10:52:00Z</time>
      </trkpt>
      <trkpt lat="42.76604" lon="0.66421">
        <ele>1208</ele>
        <time>2024-08-03T10:52:06Z</time>
      </trkpt>
      <trkpt lat="42.76602" lon="0.66402">
        <ele>1210</ele>
        <time>2024-08-03T10:52:09Z</time>
      </trkpt>
      <trkpt lat="42.76592" lon="0.66363">
        <ele>1215</ele>
        <time>2024-08-03T10:52:14Z</time>
      </trkpt>
      <trkpt lat="42.76586" lon="0.66345">
        <ele>1216</ele>
        <time>2024-08-03T10:52:17Z</time>
      </trkpt>
      <trkpt lat="42.76579" lon="0.66333">
        <ele>1218</ele>
        <time>2024-08-03T10:52:19Z</time>
      </trkpt>
      <trkpt lat="42.76538" lon="0.66295">
        <ele>1227</ele>
        <time>2024-08-03T10:52:28Z</time>
      </trkpt>
      <trkpt lat="42.76527" lon="0.66289">
        <ele>1228</ele>
        <time>2024-08-03T10:52:30Z</time>
      </trkpt>
      <trkpt lat="42.76518" lon="0.66287">
        <ele>1229</ele>
        <time>2024-08-03T10:52:31Z</time>
      </trkpt>
      <trkpt lat="42.76509" lon="0.66288">
        <ele>1228</ele>
        <time>2024-08-03T10:52:33Z</time>
      </trkpt>
      <trkpt lat="42.76501" lon="0.66297">
        <ele>1226</ele>
        <time>2024-08-03T10:52:35Z</time>
      </trkpt>
      <trkpt lat="42.76494" lon="0.66311">
        <ele>1225</ele>
        <time>2024-08-03T10:52:37Z</time>
      </trkpt>
      <trkpt lat="42.76486" lon="0.66331">
        <ele>1223</ele>
        <time>2024-08-03T10:52:40Z</time>
      </trkpt>
      <trkpt lat="42.76474" lon="0.6637">
        <ele>1223</ele>
        <time>2024-08-03T10:52:45Z</time>
      </trkpt>
      <trkpt lat="42.76468" lon="0.6638">
        <ele>1224</ele>
        <time>2024-08-03T10:52:47Z</time>
      </trkpt>
      <trkpt lat="42.76461" lon="0.66384">
        <ele>1226</ele>
        <time>2024-08-03T10:52:48Z</time>
      </trkpt>
      <trkpt lat="42.76454" lon="0.66384">
        <ele>1228</ele>
        <time>2024-08-03T10:52:50Z</time>
      </trkpt>
      <trkpt lat="42.76447" lon="0.66377">
        <ele>1231</ele>
        <time>2024-08-03T10:52:51Z</time>
      </trkpt>
      <trkpt lat="42.76444" lon="0.66368">
        <ele>1232</ele>
        <time>2024-08-03T10:52:53Z</time>
      </trkpt>
      <trkpt lat="42.76443" lon="0.66354">
        <ele>1233</ele>
        <time>2024-08-03T10:52:54Z</time>
      </trkpt>
      <trkpt lat="42.76445" lon="0.66336">
        <ele>1234</ele>
        <time>2024-08-03T10:52:57Z</time>
      </trkpt>
      <trkpt lat="42.76449" lon="0.66316">
        <ele>1235</ele>
        <time>2024-08-03T10:52:59Z</time>
      </trkpt>
      <trkpt lat="42.76471" lon="0.66253">
        <ele>1239</ele>
        <time>2024-08-03T10:53:09Z</time>
      </trkpt>
      <trkpt lat="42.76486" lon="0.66222">
        <ele>1242</ele>
        <time>2024-08-03T10:53:13Z</time>
      </trkpt>
      <trkpt lat="42.76503" lon="0.66195">
        <ele>1245</ele>
        <time>2024-08-03T10:53:18Z</time>
      </trkpt>
      <trkpt lat="42.76516" lon="0.66177">
        <ele>1249</ele>
        <time>2024-08-03T10:53:21Z</time>
      </trkpt>
      <trkpt lat="42.76529" lon="0.66165">
        <ele>1252</ele>
        <time>2024-08-03T10:53:24Z</time>
      </trkpt>
      <trkpt lat="42.76538" lon="0.66161">
        <ele>1254</ele>
        <time>2024-08-03T10:53:26Z</time>
      </trkpt>
      <trkpt lat="42.76549" lon="0.66161">
        <ele>1255</ele>
        <time>2024-08-03T10:53:28Z</time>
      </trkpt>
      <trkpt lat="42.7656" lon="0.66166">
        <ele>1254</ele>
        <time>2024-08-03T10:53:30Z</time>
      </trkpt>
      <trkpt lat="42.76568" lon="0.66174">
        <ele>1254</ele>
        <time>2024-08-03T10:53:32Z</time>
      </trkpt>
      <trkpt lat="42.76589" lon="0.66207">
        <ele>1250</ele>
        <time>2024-08-03T10:53:37Z</time>
      </trkpt>
      <trkpt lat="42.76612" lon="0.66227">
        <ele>1251</ele>
        <time>2024-08-03T10:53:42Z</time>
      </trkpt>
      <trkpt lat="42.76622" lon="0.6624">
        <ele>1250</ele>
        <time>2024-08-03T10:53:45Z</time>
      </trkpt>
      <trkpt lat="42.76642" lon="0.66273">
        <ele>1247</ele>
        <time>2024-08-03T10:53:50Z</time>
      </trkpt>
      <trkpt lat="42.76647" lon="0.66277">
        <ele>1247</ele>
        <time>2024-08-03T10:53:51Z</time>
      </trkpt>
      <trkpt lat="42.76653" lon="0.66276">
        <ele>1249</ele>
        <time>2024-08-03T10:53:52Z</time>
      </trkpt>
      <trkpt lat="42.76657" lon="0.66274">
        <ele>1250</ele>
        <time>2024-08-03T10:53:53Z</time>
      </trkpt>
      <trkpt lat="42.76697" lon="0.66217">
        <ele>1266</ele>
        <time>2024-08-03T10:54:03Z</time>
      </trkpt>
      <trkpt lat="42.767" lon="0.66207">
        <ele>1268</ele>
        <time>2024-08-03T10:54:05Z</time>
      </trkpt>
      <trkpt lat="42.76705" lon="0.66176">
        <ele>1273</ele>
        <time>2024-08-03T10:54:09Z</time>
      </trkpt>
      <trkpt lat="42.76711" lon="0.6616">
        <ele>1276</ele>
        <time>2024-08-03T10:54:11Z</time>
      </trkpt>
      <trkpt lat="42.76725" lon="0.66145">
        <ele>1277</ele>
        <time>2024-08-03T10:54:15Z</time>
      </trkpt>
      <trkpt lat="42.76736" lon="0.66141">
        <ele>1278</ele>
        <time>2024-08-03T10:54:17Z</time>
      </trkpt>
      <trkpt lat="42.76768" lon="0.66136">
        <ele>1281</ele>
        <time>2024-08-03T10:54:22Z</time>
      </trkpt>
      <trkpt lat="42.76776" lon="0.66132">
        <ele>1283</ele>
        <time>2024-08-03T10:54:24Z</time>
      </trkpt>
      <trkpt lat="42.76782" lon="0.66125">
        <ele>1285</ele>
        <time>2024-08-03T10:54:25Z</time>
      </trkpt>
      <trkpt lat="42.76785" lon="0.66117">
        <ele>1286</ele>
        <time>2024-08-03T10:54:26Z</time>
      </trkpt>
      <trkpt lat="42.76786" lon="0.66105">
        <ele>1286</ele>
        <time>2024-08-03T10:54:28Z</time>
      </trkpt>
      <trkpt lat="42.76784" lon="0.66094">
        <ele>1287</ele>
        <time>2024-08-03T10:54:29Z</time>
      </trkpt>
      <trkpt lat="42.76779" lon="0.66084">
        <ele>1286</ele>
        <time>2024-08-03T10:54:31Z</time>
      </trkpt>
      <trkpt lat="42.76771" lon="0.66077">
        <ele>1286</ele>
        <time>2024-08-03T10:54:33Z</time>
      </trkpt>
      <trkpt lat="42.76762" lon="0.66074">
        <ele>1285</ele>
        <time>2024-08-03T10:54:34Z</time>
      </trkpt>
      <trkpt lat="42.76716" lon="0.66071">
        <ele>1283</ele>
        <time>2024-08-03T10:54:43Z</time>
      </trkpt>
      <trkpt lat="42.76691" lon="0.66055">
        <ele>1284</ele>
        <time>2024-08-03T10:54:47Z</time>
      </trkpt>
      <trkpt lat="42.76678" lon="0.66043">
        <ele>1286</ele>
        <time>2024-08-03T10:54:50Z</time>
      </trkpt>
      <trkpt lat="42.76671" lon="0.66034">
        <ele>1287</ele>
        <time>2024-08-03T10:54:52Z</time>
      </trkpt>
      <trkpt lat="42.76666" lon="0.66024">
        <ele>1288</ele>
        <time>2024-08-03T10:54:54Z</time>
      </trkpt>
      <trkpt lat="42.76666" lon="0.66012">
        <ele>1290</ele>
        <time>2024-08-03T10:54:55Z</time>
      </trkpt>
      <trkpt lat="42.76667" lon="0.66004">
        <ele>1291</ele>
        <time>2024-08-03T10:54:56Z</time>
      </trkpt>
      <trkpt lat="42.76677" lon="0.65986">
        <ele>1292</ele>
        <time>2024-08-03T10:54:59Z</time>
      </trkpt>
      <trkpt lat="42.76729" lon="0.65929">
        <ele>1297</ele>
        <time>2024-08-03T10:55:11Z</time>
      </trkpt>
      <trkpt lat="42.76739" lon="0.65922">
        <ele>1297</ele>
        <time>2024-08-03T10:55:13Z</time>
      </trkpt>
      <trkpt lat="42.76757" lon="0.65918">
        <ele>1297</ele>
        <time>2024-08-03T10:55:16Z</time>
      </trkpt>
      <trkpt lat="42.76798" lon="0.65917">
        <ele>1300</ele>
        <time>2024-08-03T10:55:24Z</time>
      </trkpt>
      <trkpt lat="42.76812" lon="0.65919">
        <ele>1301</ele>
        <time>2024-08-03T10:55:26Z</time>
      </trkpt>
      <trkpt lat="42.7682" lon="0.65923">
        <ele>1301</ele>
        <time>2024-08-03T10:55:28Z</time>
      </trkpt>
      <trkpt lat="42.76827" lon="0.65929">
        <ele>1301</ele>
        <time>2024-08-03T10:55:29Z</time>
      </trkpt>
      <trkpt lat="42.76831" lon="0.65939">
        <ele>1301</ele>
        <time>2024-08-03T10:55:31Z</time>
      </trkpt>
      <trkpt lat="42.76837" lon="0.65958">
        <ele>1300</ele>
        <time>2024-08-03T10:55:33Z</time>
      </trkpt>
      <trkpt lat="42.76848" lon="0.65979">
        <ele>1299</ele>
        <time>2024-08-03T10:55:37Z</time>
      </trkpt>
      <trkpt lat="42.76867" lon="0.65995">
        <ele>1299</ele>
        <time>2024-08-03T10:55:41Z</time>
      </trkpt>
      <trkpt lat="42.76895" lon="0.66003">
        <ele>1300</ele>
        <time>2024-08-03T10:55:46Z</time>
      </trkpt>
      <trkpt lat="42.76897" lon="0.65998">
        <ele>1300</ele>
        <time>2024-08-03T10:55:46Z</time>
      </trkpt>
      <trkpt lat="42.76897" lon="0.65998">
        <ele>1300</ele>
        <time>2024-08-03T10:55:46Z</time>
      </trkpt>
      <trkpt lat="42.76895" lon="0.66003">
        <ele>1300</ele>
        <time>2024-08-03T10:55:47Z</time>
      </trkpt>
      <trkpt lat="42.76921" lon="0.66013">
        <ele>1301</ele>
        <time>2024-08-03T10:55:52Z</time>
      </trkpt>
      <trkpt lat="42.76928" lon="0.66015">
        <ele>1300</ele>
        <time>2024-08-03T10:55:53Z</time>
      </trkpt>
      <trkpt lat="42.76958" lon="0.66014">
        <ele>1294</ele>
        <time>2024-08-03T10:55:59Z</time>
      </trkpt>
      <trkpt lat="42.7697" lon="0.66022">
        <ele>1293</ele>
        <time>2024-08-03T10:56:01Z</time>
      </trkpt>
      <trkpt lat="42.76974" lon="0.66028">
        <ele>1294</ele>
        <time>2024-08-03T10:56:02Z</time>
      </trkpt>
      <trkpt lat="42.76994" lon="0.66081">
        <ele>1301</ele>
        <time>2024-08-03T10:56:10Z</time>
      </trkpt>
      <trkpt lat="42.77015" lon="0.66125">
        <ele>1303</ele>
        <time>2024-08-03T10:56:17Z</time>
      </trkpt>
      <trkpt lat="42.77023" lon="0.66134">
        <ele>1302</ele>
        <time>2024-08-03T10:56:18Z</time>
      </trkpt>
      <trkpt lat="42.7703" lon="0.66131">
        <ele>1300</ele>
        <time>2024-08-03T10:56:20Z</time>
      </trkpt>
      <trkpt lat="42.77031" lon="0.66126">
        <ele>1298</ele>
        <time>2024-08-03T10:56:20Z</time>
      </trkpt>
      <trkpt lat="42.77029" lon="0.66119">
        <ele>1298</ele>
        <time>2024-08-03T10:56:21Z</time>
      </trkpt>
      <trkpt lat="42.77013" lon="0.66086">
        <ele>1297</ele>
        <time>2024-08-03T10:56:27Z</time>
      </trkpt>
      <trkpt lat="42.77011" lon="0.66076">
        <ele>1296</ele>
        <time>2024-08-03T10:56:28Z</time>
      </trkpt>
      <trkpt lat="42.77011" lon="0.66064">
        <ele>1293</ele>
        <time>2024-08-03T10:56:30Z</time>
      </trkpt>
      <trkpt lat="42.77015" lon="0.66052">
        <ele>1290</ele>
        <time>2024-08-03T10:56:31Z</time>
      </trkpt>
      <trkpt lat="42.77021" lon="0.66039">
        <ele>1285</ele>
        <time>2024-08-03T10:56:33Z</time>
      </trkpt>
      <trkpt lat="42.77037" lon="0.66026">
        <ele>1277</ele>
        <time>2024-08-03T10:56:37Z</time>
      </trkpt>
      <trkpt lat="42.77048" lon="0.66026">
        <ele>1274</ele>
        <time>2024-08-03T10:56:39Z</time>
      </trkpt>
      <trkpt lat="42.77055" lon="0.66029">
        <ele>1272</ele>
        <time>2024-08-03T10:56:40Z</time>
      </trkpt>
      <trkpt lat="42.77062" lon="0.66036">
        <ele>1272</ele>
        <time>2024-08-03T10:56:41Z</time>
      </trkpt>
      <trkpt lat="42.77066" lon="0.66046">
        <ele>1272</ele>
        <time>2024-08-03T10:56:43Z</time>
      </trkpt>
      <trkpt lat="42.77075" lon="0.66102">
        <ele>1281</ele>
        <time>2024-08-03T10:56:50Z</time>
      </trkpt>
      <trkpt lat="42.77081" lon="0.66115">
        <ele>1282</ele>
        <time>2024-08-03T10:56:52Z</time>
      </trkpt>
      <trkpt lat="42.77095" lon="0.66137">
        <ele>1283</ele>
        <time>2024-08-03T10:56:56Z</time>
      </trkpt>
      <trkpt lat="42.77113" lon="0.66154">
        <ele>1283</ele>
        <time>2024-08-03T10:57:00Z</time>
      </trkpt>
      <trkpt lat="42.77126" lon="0.66162">
        <ele>1281</ele>
        <time>2024-08-03T10:57:03Z</time>
      </trkpt>
      <trkpt lat="42.7714" lon="0.66162">
        <ele>1278</ele>
        <time>2024-08-03T10:57:05Z</time>
      </trkpt>
      <trkpt lat="42.77153" lon="0.66159">
        <ele>1274</ele>
        <time>2024-08-03T10:57:07Z</time>
      </trkpt>
      <trkpt lat="42.77173" lon="0.66149">
        <ele>1268</ele>
        <time>2024-08-03T10:57:11Z</time>
      </trkpt>
      <trkpt lat="42.77188" lon="0.66137">
        <ele>1266</ele>
        <time>2024-08-03T10:57:14Z</time>
      </trkpt>
      <trkpt lat="42.77198" lon="0.66126">
        <ele>1264</ele>
        <time>2024-08-03T10:57:17Z</time>
      </trkpt>
      <trkpt lat="42.77203" lon="0.66123">
        <ele>1264</ele>
        <time>2024-08-03T10:57:18Z</time>
      </trkpt>
      <trkpt lat="42.77209" lon="0.66122">
        <ele>1264</ele>
        <time>2024-08-03T10:57:19Z</time>
      </trkpt>
      <trkpt lat="42.77228" lon="0.6613">
        <ele>1267</ele>
        <time>2024-08-03T10:57:22Z</time>
      </trkpt>
      <trkpt lat="42.77238" lon="0.66131">
        <ele>1268</ele>
        <time>2024-08-03T10:57:24Z</time>
      </trkpt>
      <trkpt lat="42.77246" lon="0.66124">
        <ele>1267</ele>
        <time>2024-08-03T10:57:26Z</time>
      </trkpt>
      <trkpt lat="42.77249" lon="0.66115">
        <ele>1265</ele>
        <time>2024-08-03T10:57:27Z</time>
      </trkpt>
      <trkpt lat="42.77252" lon="0.66072">
        <ele>1255</ele>
        <time>2024-08-03T10:57:33Z</time>
      </trkpt>
      <trkpt lat="42.77246" lon="0.6594">
        <ele>1236</ele>
        <time>2024-08-03T10:57:50Z</time>
      </trkpt>
      <trkpt lat="42.77238" lon="0.65876">
        <ele>1229</ele>
        <time>2024-08-03T10:57:58Z</time>
      </trkpt>
      <trkpt lat="42.77231" lon="0.65763">
        <ele>1222</ele>
        <time>2024-08-03T10:58:13Z</time>
      </trkpt>
      <trkpt lat="42.77228" lon="0.65743">
        <ele>1221</ele>
        <time>2024-08-03T10:58:16Z</time>
      </trkpt>
      <trkpt lat="42.77222" lon="0.65725">
        <ele>1219</ele>
        <time>2024-08-03T10:58:18Z</time>
      </trkpt>
      <trkpt lat="42.77206" lon="0.65696">
        <ele>1214</ele>
        <time>2024-08-03T10:58:23Z</time>
      </trkpt>
      <trkpt lat="42.77201" lon="0.65679">
        <ele>1213</ele>
        <time>2024-08-03T10:58:26Z</time>
      </trkpt>
      <trkpt lat="42.77194" lon="0.65662">
        <ele>1211</ele>
        <time>2024-08-03T10:58:28Z</time>
      </trkpt>
      <trkpt lat="42.77185" lon="0.65652">
        <ele>1208</ele>
        <time>2024-08-03T10:58:30Z</time>
      </trkpt>
      <trkpt lat="42.77158" lon="0.65633">
        <ele>1199</ele>
        <time>2024-08-03T10:58:36Z</time>
      </trkpt>
      <trkpt lat="42.77152" lon="0.65615">
        <ele>1197</ele>
        <time>2024-08-03T10:58:38Z</time>
      </trkpt>
      <trkpt lat="42.77148" lon="0.65534">
        <ele>1192</ele>
        <time>2024-08-03T10:58:49Z</time>
      </trkpt>
      <trkpt lat="42.77151" lon="0.6535">
        <ele>1183</ele>
        <time>2024-08-03T10:59:13Z</time>
      </trkpt>
      <trkpt lat="42.7714" lon="0.65215">
        <ele>1168</ele>
        <time>2024-08-03T10:59:31Z</time>
      </trkpt>
      <trkpt lat="42.77153" lon="0.65119">
        <ele>1156</ele>
        <time>2024-08-03T10:59:43Z</time>
      </trkpt>
      <trkpt lat="42.77166" lon="0.6508">
        <ele>1152</ele>
        <time>2024-08-03T10:59:49Z</time>
      </trkpt>
      <trkpt lat="42.77169" lon="0.65029">
        <ele>1146</ele>
        <time>2024-08-03T10:59:56Z</time>
      </trkpt>
      <trkpt lat="42.77178" lon="0.64947">
        <ele>1142</ele>
        <time>2024-08-03T11:00:06Z</time>
      </trkpt>
      <trkpt lat="42.7718" lon="0.64796">
        <ele>1134</ele>
        <time>2024-08-03T11:00:26Z</time>
      </trkpt>
      <trkpt lat="42.77171" lon="0.64771">
        <ele>1127</ele>
        <time>2024-08-03T11:00:30Z</time>
      </trkpt>
      <trkpt lat="42.77169" lon="0.64751">
        <ele>1126</ele>
        <time>2024-08-03T11:00:32Z</time>
      </trkpt>
      <trkpt lat="42.77177" lon="0.64672">
        <ele>1129</ele>
        <time>2024-08-03T11:00:43Z</time>
      </trkpt>
      <trkpt lat="42.77175" lon="0.64662">
        <ele>1128</ele>
        <time>2024-08-03T11:00:44Z</time>
      </trkpt>
      <trkpt lat="42.7717" lon="0.64658">
        <ele>1125</ele>
        <time>2024-08-03T11:00:45Z</time>
      </trkpt>
      <trkpt lat="42.77164" lon="0.6466">
        <ele>1122</ele>
        <time>2024-08-03T11:00:46Z</time>
      </trkpt>
      <trkpt lat="42.77159" lon="0.64666">
        <ele>1119</ele>
        <time>2024-08-03T11:00:47Z</time>
      </trkpt>
      <trkpt lat="42.77157" lon="0.64674">
        <ele>1119</ele>
        <time>2024-08-03T11:00:49Z</time>
      </trkpt>
      <trkpt lat="42.77148" lon="0.64817">
        <ele>1113</ele>
        <time>2024-08-03T11:01:07Z</time>
      </trkpt>
      <trkpt lat="42.77081" lon="0.6509">
        <ele>1101</ele>
        <time>2024-08-03T11:01:45Z</time>
      </trkpt>
      <trkpt lat="42.77067" lon="0.65113">
        <ele>1097</ele>
        <time>2024-08-03T11:01:49Z</time>
      </trkpt>
      <trkpt lat="42.77058" lon="0.65141">
        <ele>1097</ele>
        <time>2024-08-03T11:01:53Z</time>
      </trkpt>
      <trkpt lat="42.77045" lon="0.65214">
        <ele>1101</ele>
        <time>2024-08-03T11:02:03Z</time>
      </trkpt>
      <trkpt lat="42.7704" lon="0.65225">
        <ele>1100</ele>
        <time>2024-08-03T11:02:04Z</time>
      </trkpt>
      <trkpt lat="42.77031" lon="0.65228">
        <ele>1097</ele>
        <time>2024-08-03T11:02:06Z</time>
      </trkpt>
      <trkpt lat="42.77026" lon="0.65217">
        <ele>1092</ele>
        <time>2024-08-03T11:02:08Z</time>
      </trkpt>
      <trkpt lat="42.77027" lon="0.65205">
        <ele>1090</ele>
        <time>2024-08-03T11:02:09Z</time>
      </trkpt>
      <trkpt lat="42.77041" lon="0.65153">
        <ele>1088</ele>
        <time>2024-08-03T11:02:16Z</time>
      </trkpt>
      <trkpt lat="42.77044" lon="0.65103">
        <ele>1081</ele>
        <time>2024-08-03T11:02:23Z</time>
      </trkpt>
      <trkpt lat="42.77056" lon="0.65062">
        <ele>1081</ele>
        <time>2024-08-03T11:02:29Z</time>
      </trkpt>
      <trkpt lat="42.77055" lon="0.65033">
        <ele>1075</ele>
        <time>2024-08-03T11:02:33Z</time>
      </trkpt>
      <trkpt lat="42.77057" lon="0.64996">
        <ele>1070</ele>
        <time>2024-08-03T11:02:37Z</time>
      </trkpt>
      <trkpt lat="42.77042" lon="0.64878">
        <ele>1060</ele>
        <time>2024-08-03T11:02:53Z</time>
      </trkpt>
      <trkpt lat="42.77034" lon="0.6485">
        <ele>1057</ele>
        <time>2024-08-03T11:02:57Z</time>
      </trkpt>
      <trkpt lat="42.77025" lon="0.64836">
        <ele>1054</ele>
        <time>2024-08-03T11:02:59Z</time>
      </trkpt>
      <trkpt lat="42.77006" lon="0.64816">
        <ele>1050</ele>
        <time>2024-08-03T11:03:04Z</time>
      </trkpt>
      <trkpt lat="42.76991" lon="0.64808">
        <ele>1048</ele>
        <time>2024-08-03T11:03:07Z</time>
      </trkpt>
      <trkpt lat="42.76963" lon="0.64798">
        <ele>1045</ele>
        <time>2024-08-03T11:03:12Z</time>
      </trkpt>
      <trkpt lat="42.76958" lon="0.64793">
        <ele>1045</ele>
        <time>2024-08-03T11:03:13Z</time>
      </trkpt>
      <trkpt lat="42.76917" lon="0.64708">
        <ele>1039</ele>
        <time>2024-08-03T11:03:26Z</time>
      </trkpt>
      <trkpt lat="42.7687" lon="0.64621">
        <ele>1036</ele>
        <time>2024-08-03T11:03:40Z</time>
      </trkpt>
      <trkpt lat="42.7686" lon="0.646">
        <ele>1033</ele>
        <time>2024-08-03T11:03:43Z</time>
      </trkpt>
      <trkpt lat="42.76858" lon="0.64585">
        <ele>1030</ele>
        <time>2024-08-03T11:03:45Z</time>
      </trkpt>
      <trkpt lat="42.76858" lon="0.6443">
        <ele>1008</ele>
        <time>2024-08-03T11:04:06Z</time>
      </trkpt>
      <trkpt lat="42.76859" lon="0.64387">
        <ele>1004</ele>
        <time>2024-08-03T11:04:11Z</time>
      </trkpt>
      <trkpt lat="42.76863" lon="0.6435">
        <ele>1002</ele>
        <time>2024-08-03T11:04:16Z</time>
      </trkpt>
      <trkpt lat="42.76873" lon="0.64298">
        <ele>998</ele>
        <time>2024-08-03T11:04:23Z</time>
      </trkpt>
      <trkpt lat="42.76891" lon="0.64239">
        <ele>996</ele>
        <time>2024-08-03T11:04:32Z</time>
      </trkpt>
      <trkpt lat="42.76917" lon="0.64206">
        <ele>996</ele>
        <time>2024-08-03T11:04:38Z</time>
      </trkpt>
      <trkpt lat="42.76922" lon="0.64194">
        <ele>998</ele>
        <time>2024-08-03T11:04:40Z</time>
      </trkpt>
      <trkpt lat="42.76917" lon="0.64182">
        <ele>993</ele>
        <time>2024-08-03T11:04:42Z</time>
      </trkpt>
      <trkpt lat="42.76909" lon="0.64177">
        <ele>990</ele>
        <time>2024-08-03T11:04:43Z</time>
      </trkpt>
      <trkpt lat="42.76858" lon="0.64197">
        <ele>982</ele>
        <time>2024-08-03T11:04:53Z</time>
      </trkpt>
      <trkpt lat="42.76832" lon="0.64217">
        <ele>980</ele>
        <time>2024-08-03T11:04:58Z</time>
      </trkpt>
      <trkpt lat="42.76822" lon="0.64221">
        <ele>981</ele>
        <time>2024-08-03T11:05:00Z</time>
      </trkpt>
      <trkpt lat="42.76817" lon="0.6422">
        <ele>981</ele>
        <time>2024-08-03T11:05:01Z</time>
      </trkpt>
      <trkpt lat="42.76812" lon="0.64213">
        <ele>980</ele>
        <time>2024-08-03T11:05:02Z</time>
      </trkpt>
      <trkpt lat="42.76812" lon="0.64204">
        <ele>979</ele>
        <time>2024-08-03T11:05:03Z</time>
      </trkpt>
      <trkpt lat="42.76815" lon="0.6419">
        <ele>977</ele>
        <time>2024-08-03T11:05:05Z</time>
      </trkpt>
      <trkpt lat="42.76845" lon="0.64115">
        <ele>967</ele>
        <time>2024-08-03T11:05:16Z</time>
      </trkpt>
      <trkpt lat="42.76891" lon="0.6402">
        <ele>968</ele>
        <time>2024-08-03T11:05:31Z</time>
      </trkpt>
      <trkpt lat="42.76902" lon="0.63994">
        <ele>967</ele>
        <time>2024-08-03T11:05:35Z</time>
      </trkpt>
      <trkpt lat="42.76909" lon="0.63964">
        <ele>966</ele>
        <time>2024-08-03T11:05:39Z</time>
      </trkpt>
      <trkpt lat="42.76911" lon="0.63932">
        <ele>963</ele>
        <time>2024-08-03T11:05:43Z</time>
      </trkpt>
      <trkpt lat="42.76911" lon="0.63878">
        <ele>956</ele>
        <time>2024-08-03T11:05:50Z</time>
      </trkpt>
      <trkpt lat="42.76913" lon="0.63863">
        <ele>954</ele>
        <time>2024-08-03T11:05:52Z</time>
      </trkpt>
      <trkpt lat="42.7692" lon="0.63843">
        <ele>953</ele>
        <time>2024-08-03T11:05:55Z</time>
      </trkpt>
      <trkpt lat="42.76934" lon="0.63814">
        <ele>957</ele>
        <time>2024-08-03T11:06:00Z</time>
      </trkpt>
      <trkpt lat="42.76939" lon="0.6379">
        <ele>956</ele>
        <time>2024-08-03T11:06:03Z</time>
      </trkpt>
      <trkpt lat="42.76944" lon="0.63736">
        <ele>952</ele>
        <time>2024-08-03T11:06:10Z</time>
      </trkpt>
      <trkpt lat="42.76951" lon="0.63698">
        <ele>953</ele>
        <time>2024-08-03T11:06:15Z</time>
      </trkpt>
      <trkpt lat="42.76965" lon="0.6365">
        <ele>954</ele>
        <time>2024-08-03T11:06:22Z</time>
      </trkpt>
      <trkpt lat="42.7697" lon="0.63621">
        <ele>952</ele>
        <time>2024-08-03T11:06:26Z</time>
      </trkpt>
      <trkpt lat="42.76968" lon="0.63607">
        <ele>950</ele>
        <time>2024-08-03T11:06:28Z</time>
      </trkpt>
      <trkpt lat="42.76961" lon="0.63596">
        <ele>946</ele>
        <time>2024-08-03T11:06:30Z</time>
      </trkpt>
      <trkpt lat="42.76927" lon="0.63564">
        <ele>934</ele>
        <time>2024-08-03T11:06:37Z</time>
      </trkpt>
      <trkpt lat="42.76919" lon="0.63546">
        <ele>930</ele>
        <time>2024-08-03T11:06:40Z</time>
      </trkpt>
      <trkpt lat="42.76912" lon="0.63524">
        <ele>928</ele>
        <time>2024-08-03T11:06:43Z</time>
      </trkpt>
      <trkpt lat="42.76906" lon="0.63492">
        <ele>927</ele>
        <time>2024-08-03T11:06:47Z</time>
      </trkpt>
      <trkpt lat="42.76906" lon="0.6346">
        <ele>926</ele>
        <time>2024-08-03T11:06:51Z</time>
      </trkpt>
      <trkpt lat="42.76922" lon="0.63359">
        <ele>920</ele>
        <time>2024-08-03T11:07:05Z</time>
      </trkpt>
      <trkpt lat="42.76932" lon="0.63265">
        <ele>912</ele>
        <time>2024-08-03T11:07:17Z</time>
      </trkpt>
      <trkpt lat="42.76981" lon="0.62919">
        <ele>915</ele>
        <time>2024-08-03T11:08:03Z</time>
      </trkpt>
      <trkpt lat="42.77011" lon="0.62753">
        <ele>907</ele>
        <time>2024-08-03T11:08:26Z</time>
      </trkpt>
      <trkpt lat="42.77017" lon="0.62715">
        <ele>905</ele>
        <time>2024-08-03T11:08:31Z</time>
      </trkpt>
      <trkpt lat="42.77023" lon="0.62642">
        <ele>901</ele>
        <time>2024-08-03T11:08:40Z</time>
      </trkpt>
      <trkpt lat="42.77022" lon="0.6259">
        <ele>900</ele>
        <time>2024-08-03T11:08:47Z</time>
      </trkpt>
      <trkpt lat="42.77016" lon="0.62554">
        <ele>899</ele>
        <time>2024-08-03T11:08:52Z</time>
      </trkpt>
      <trkpt lat="42.7701" lon="0.62535">
        <ele>899</ele>
        <time>2024-08-03T11:08:55Z</time>
      </trkpt>
      <trkpt lat="42.76987" lon="0.62501">
        <ele>899</ele>
        <time>2024-08-03T11:09:01Z</time>
      </trkpt>
      <trkpt lat="42.76981" lon="0.62484">
        <ele>898</ele>
        <time>2024-08-03T11:09:03Z</time>
      </trkpt>
      <trkpt lat="42.76977" lon="0.62458">
        <ele>895</ele>
        <time>2024-08-03T11:09:06Z</time>
      </trkpt>
      <trkpt lat="42.76978" lon="0.62429">
        <ele>892</ele>
        <time>2024-08-03T11:09:10Z</time>
      </trkpt>
      <trkpt lat="42.76985" lon="0.62399">
        <ele>888</ele>
        <time>2024-08-03T11:09:14Z</time>
      </trkpt>
      <trkpt lat="42.76995" lon="0.62371">
        <ele>884</ele>
        <time>2024-08-03T11:09:18Z</time>
      </trkpt>
      <trkpt lat="42.77006" lon="0.62329">
        <ele>879</ele>
        <time>2024-08-03T11:09:24Z</time>
      </trkpt>
      <trkpt lat="42.77008" lon="0.62305">
        <ele>876</ele>
        <time>2024-08-03T11:09:27Z</time>
      </trkpt>
      <trkpt lat="42.77009" lon="0.62216">
        <ele>864</ele>
        <time>2024-08-03T11:09:39Z</time>
      </trkpt>
      <trkpt lat="42.77012" lon="0.6215">
        <ele>858</ele>
        <time>2024-08-03T11:09:48Z</time>
      </trkpt>
      <trkpt lat="42.77016" lon="0.62113">
        <ele>857</ele>
        <time>2024-08-03T11:09:53Z</time>
      </trkpt>
      <trkpt lat="42.77024" lon="0.62083">
        <ele>859</ele>
        <time>2024-08-03T11:09:57Z</time>
      </trkpt>
      <trkpt lat="42.77024" lon="0.62073">
        <ele>860</ele>
        <time>2024-08-03T11:09:58Z</time>
      </trkpt>
      <trkpt lat="42.77022" lon="0.62068">
        <ele>859</ele>
        <time>2024-08-03T11:09:59Z</time>
      </trkpt>
      <trkpt lat="42.77012" lon="0.62069">
        <ele>854</ele>
        <time>2024-08-03T11:10:01Z</time>
      </trkpt>
      <trkpt lat="42.77008" lon="0.62082">
        <ele>852</ele>
        <time>2024-08-03T11:10:02Z</time>
      </trkpt>
      <trkpt lat="42.76999" lon="0.62131">
        <ele>851</ele>
        <time>2024-08-03T11:10:09Z</time>
      </trkpt>
      <trkpt lat="42.76975" lon="0.62205">
        <ele>855</ele>
        <time>2024-08-03T11:10:20Z</time>
      </trkpt>
      <trkpt lat="42.76969" lon="0.62215">
        <ele>856</ele>
        <time>2024-08-03T11:10:21Z</time>
      </trkpt>
      <trkpt lat="42.76962" lon="0.62223">
        <ele>857</ele>
        <time>2024-08-03T11:10:23Z</time>
      </trkpt>
      <trkpt lat="42.76949" lon="0.62224">
        <ele>855</ele>
        <time>2024-08-03T11:10:25Z</time>
      </trkpt>
      <trkpt lat="42.76923" lon="0.62201">
        <ele>847</ele>
        <time>2024-08-03T11:10:31Z</time>
      </trkpt>
      <trkpt lat="42.76871" lon="0.62132">
        <ele>848</ele>
        <time>2024-08-03T11:10:44Z</time>
      </trkpt>
      <trkpt lat="42.76837" lon="0.6207">
        <ele>844</ele>
        <time>2024-08-03T11:10:54Z</time>
      </trkpt>
      <trkpt lat="42.76825" lon="0.62041">
        <ele>840</ele>
        <time>2024-08-03T11:10:58Z</time>
      </trkpt>
      <trkpt lat="42.76825" lon="0.62029">
        <ele>836</ele>
        <time>2024-08-03T11:11:00Z</time>
      </trkpt>
      <trkpt lat="42.76828" lon="0.6202">
        <ele>832</ele>
        <time>2024-08-03T11:11:01Z</time>
      </trkpt>
      <trkpt lat="42.76836" lon="0.62017">
        <ele>829</ele>
        <time>2024-08-03T11:11:02Z</time>
      </trkpt>
      <trkpt lat="42.76842" lon="0.62023">
        <ele>830</ele>
        <time>2024-08-03T11:11:04Z</time>
      </trkpt>
      <trkpt lat="42.76861" lon="0.62066">
        <ele>837</ele>
        <time>2024-08-03T11:11:10Z</time>
      </trkpt>
      <trkpt lat="42.7693" lon="0.62098">
        <ele>830</ele>
        <time>2024-08-03T11:11:23Z</time>
      </trkpt>
      <trkpt lat="42.76939" lon="0.62099">
        <ele>833</ele>
        <time>2024-08-03T11:11:25Z</time>
      </trkpt>
      <trkpt lat="42.76945" lon="0.62093">
        <ele>833</ele>
        <time>2024-08-03T11:11:26Z</time>
      </trkpt>
      <trkpt lat="42.76947" lon="0.62079">
        <ele>833</ele>
        <time>2024-08-03T11:11:28Z</time>
      </trkpt>
      <trkpt lat="42.76944" lon="0.62062">
        <ele>831</ele>
        <time>2024-08-03T11:11:30Z</time>
      </trkpt>
      <trkpt lat="42.76937" lon="0.62044">
        <ele>827</ele>
        <time>2024-08-03T11:11:33Z</time>
      </trkpt>
      <trkpt lat="42.76923" lon="0.62019">
        <ele>820</ele>
        <time>2024-08-03T11:11:37Z</time>
      </trkpt>
      <trkpt lat="42.76914" lon="0.61996">
        <ele>816</ele>
        <time>2024-08-03T11:11:41Z</time>
      </trkpt>
      <trkpt lat="42.76908" lon="0.61977">
        <ele>816</ele>
        <time>2024-08-03T11:11:43Z</time>
      </trkpt>
      <trkpt lat="42.76896" lon="0.61953">
        <ele>815</ele>
        <time>2024-08-03T11:11:47Z</time>
      </trkpt>
      <trkpt lat="42.76891" lon="0.61934">
        <ele>814</ele>
        <time>2024-08-03T11:11:50Z</time>
      </trkpt>
      <trkpt lat="42.7689" lon="0.61918">
        <ele>813</ele>
        <time>2024-08-03T11:11:52Z</time>
      </trkpt>
      <trkpt lat="42.76895" lon="0.61858">
        <ele>805</ele>
        <time>2024-08-03T11:12:00Z</time>
      </trkpt>
      <trkpt lat="42.76891" lon="0.61849">
        <ele>803</ele>
        <time>2024-08-03T11:12:01Z</time>
      </trkpt>
      <trkpt lat="42.76884" lon="0.61848">
        <ele>802</ele>
        <time>2024-08-03T11:12:02Z</time>
      </trkpt>
      <trkpt lat="42.76877" lon="0.61856">
        <ele>803</ele>
        <time>2024-08-03T11:12:04Z</time>
      </trkpt>
      <trkpt lat="42.76876" lon="0.61871">
        <ele>805</ele>
        <time>2024-08-03T11:12:06Z</time>
      </trkpt>
      <trkpt lat="42.76881" lon="0.61946">
        <ele>815</ele>
        <time>2024-08-03T11:12:16Z</time>
      </trkpt>
      <trkpt lat="42.76877" lon="0.61954">
        <ele>816</ele>
        <time>2024-08-03T11:12:17Z</time>
      </trkpt>
      <trkpt lat="42.76869" lon="0.61952">
        <ele>816</ele>
        <time>2024-08-03T11:12:18Z</time>
      </trkpt>
      <trkpt lat="42.76863" lon="0.61936">
        <ele>814</ele>
        <time>2024-08-03T11:12:21Z</time>
      </trkpt>
      <trkpt lat="42.76865" lon="0.61894">
        <ele>808</ele>
        <time>2024-08-03T11:12:26Z</time>
      </trkpt>
      <trkpt lat="42.76859" lon="0.61841">
        <ele>797</ele>
        <time>2024-08-03T11:12:33Z</time>
      </trkpt>
      <trkpt lat="42.76865" lon="0.61741">
        <ele>792</ele>
        <time>2024-08-03T11:12:46Z</time>
      </trkpt>
      <trkpt lat="42.76834" lon="0.61603">
        <ele>775</ele>
        <time>2024-08-03T11:13:05Z</time>
      </trkpt>
      <trkpt lat="42.7683" lon="0.61563">
        <ele>774</ele>
        <time>2024-08-03T11:13:11Z</time>
      </trkpt>
      <trkpt lat="42.76816" lon="0.61337">
        <ele>758</ele>
        <time>2024-08-03T11:13:40Z</time>
      </trkpt>
      <trkpt lat="42.76821" lon="0.61262">
        <ele>749</ele>
        <time>2024-08-03T11:13:50Z</time>
      </trkpt>
      <trkpt lat="42.76828" lon="0.61225">
        <ele>743</ele>
        <time>2024-08-03T11:13:55Z</time>
      </trkpt>
      <trkpt lat="42.7685" lon="0.61137">
        <ele>733</ele>
        <time>2024-08-03T11:14:07Z</time>
      </trkpt>
      <trkpt lat="42.76866" lon="0.6108">
        <ele>727</ele>
        <time>2024-08-03T11:14:15Z</time>
      </trkpt>
      <trkpt lat="42.76868" lon="0.61034">
        <ele>720</ele>
        <time>2024-08-03T11:14:21Z</time>
      </trkpt>
      <trkpt lat="42.76882" lon="0.6098">
        <ele>717</ele>
        <time>2024-08-03T11:14:29Z</time>
      </trkpt>
      <trkpt lat="42.76893" lon="0.60952">
        <ele>717</ele>
        <time>2024-08-03T11:14:33Z</time>
      </trkpt>
      <trkpt lat="42.76896" lon="0.60925">
        <ele>714</ele>
        <time>2024-08-03T11:14:36Z</time>
      </trkpt>
      <trkpt lat="42.76896" lon="0.60891">
        <ele>711</ele>
        <time>2024-08-03T11:14:41Z</time>
      </trkpt>
      <trkpt lat="42.769" lon="0.60873">
        <ele>709</ele>
        <time>2024-08-03T11:14:43Z</time>
      </trkpt>
      <trkpt lat="42.76916" lon="0.6085">
        <ele>703</ele>
        <time>2024-08-03T11:14:47Z</time>
      </trkpt>
      <trkpt lat="42.76938" lon="0.60823">
        <ele>700</ele>
        <time>2024-08-03T11:14:53Z</time>
      </trkpt>
      <trkpt lat="42.76967" lon="0.60802">
        <ele>700</ele>
        <time>2024-08-03T11:14:58Z</time>
      </trkpt>
      <trkpt lat="42.76992" lon="0.60788">
        <ele>699</ele>
        <time>2024-08-03T11:15:03Z</time>
      </trkpt>
      <trkpt lat="42.77098" lon="0.60701">
        <ele>704</ele>
        <time>2024-08-03T11:15:25Z</time>
      </trkpt>
      <trkpt lat="42.77139" lon="0.60662">
        <ele>699</ele>
        <time>2024-08-03T11:15:34Z</time>
      </trkpt>
      <trkpt lat="42.77157" lon="0.60642">
        <ele>696</ele>
        <time>2024-08-03T11:15:38Z</time>
      </trkpt>
      <trkpt lat="42.77176" lon="0.60616">
        <ele>693</ele>
        <time>2024-08-03T11:15:43Z</time>
      </trkpt>
      <trkpt lat="42.77204" lon="0.60569">
        <ele>689</ele>
        <time>2024-08-03T11:15:51Z</time>
      </trkpt>
      <trkpt lat="42.77214" lon="0.6056">
        <ele>689</ele>
        <time>2024-08-03T11:15:53Z</time>
      </trkpt>
      <trkpt lat="42.77225" lon="0.60556">
        <ele>689</ele>
        <time>2024-08-03T11:15:55Z</time>
      </trkpt>
      <trkpt lat="42.77234" lon="0.60558">
        <ele>689</ele>
        <time>2024-08-03T11:15:57Z</time>
      </trkpt>
      <trkpt lat="42.77244" lon="0.60562">
        <ele>689</ele>
        <time>2024-08-03T11:15:59Z</time>
      </trkpt>
      <trkpt lat="42.77259" lon="0.60576">
        <ele>688</ele>
        <time>2024-08-03T11:16:02Z</time>
      </trkpt>
      <trkpt lat="42.77269" lon="0.60593">
        <ele>688</ele>
        <time>2024-08-03T11:16:05Z</time>
      </trkpt>
      <trkpt lat="42.77287" lon="0.60636">
        <ele>693</ele>
        <time>2024-08-03T11:16:11Z</time>
      </trkpt>
      <trkpt lat="42.77296" lon="0.60641">
        <ele>694</ele>
        <time>2024-08-03T11:16:13Z</time>
      </trkpt>
      <trkpt lat="42.77304" lon="0.60641">
        <ele>693</ele>
        <time>2024-08-03T11:16:14Z</time>
      </trkpt>
      <trkpt lat="42.77312" lon="0.60638">
        <ele>692</ele>
        <time>2024-08-03T11:16:16Z</time>
      </trkpt>
      <trkpt lat="42.77323" lon="0.60628">
        <ele>689</ele>
        <time>2024-08-03T11:16:18Z</time>
      </trkpt>
      <trkpt lat="42.77349" lon="0.60598">
        <ele>682</ele>
        <time>2024-08-03T11:16:24Z</time>
      </trkpt>
      <trkpt lat="42.77395" lon="0.60558">
        <ele>677</ele>
        <time>2024-08-03T11:16:34Z</time>
      </trkpt>
      <trkpt lat="42.77452" lon="0.60516">
        <ele>670</ele>
        <time>2024-08-03T11:16:45Z</time>
      </trkpt>
      <trkpt lat="42.77511" lon="0.60481">
        <ele>667</ele>
        <time>2024-08-03T11:16:57Z</time>
      </trkpt>
      <trkpt lat="42.7758" lon="0.60448">
        <ele>667</ele>
        <time>2024-08-03T11:17:10Z</time>
      </trkpt>
      <trkpt lat="42.77649" lon="0.60419">
        <ele>658</ele>
        <time>2024-08-03T11:17:23Z</time>
      </trkpt>
      <trkpt lat="42.77698" lon="0.60402">
        <ele>655</ele>
        <time>2024-08-03T11:17:32Z</time>
      </trkpt>
      <trkpt lat="42.77764" lon="0.60369">
        <ele>650</ele>
        <time>2024-08-03T11:17:44Z</time>
      </trkpt>
      <trkpt lat="42.77791" lon="0.60359">
        <ele>649</ele>
        <time>2024-08-03T11:17:49Z</time>
      </trkpt>
      <trkpt lat="42.77793" lon="0.60375">
        <ele>650</ele>
        <time>2024-08-03T11:17:51Z</time>
      </trkpt>
      <trkpt lat="42.77796" lon="0.60378">
        <ele>650</ele>
        <time>2024-08-03T11:17:52Z</time>
      </trkpt>
      <trkpt lat="42.77809" lon="0.60377">
        <ele>649</ele>
        <time>2024-08-03T11:17:54Z</time>
      </trkpt>
      <trkpt lat="42.77833" lon="0.60382">
        <ele>648</ele>
        <time>2024-08-03T11:17:59Z</time>
      </trkpt>
      <trkpt lat="42.77831" lon="0.60398">
        <ele>648</ele>
        <time>2024-08-03T11:18:01Z</time>
      </trkpt>
      <trkpt lat="42.77831" lon="0.60398">
        <ele>648</ele>
        <time>2024-08-03T11:18:01Z</time>
      </trkpt>
      <trkpt lat="42.77833" lon="0.60382">
        <ele>648</ele>
        <time>2024-08-03T11:18:03Z</time>
      </trkpt>
      <trkpt lat="42.77844" lon="0.60384">
        <ele>648</ele>
        <time>2024-08-03T11:18:05Z</time>
      </trkpt>
      <trkpt lat="42.77885" lon="0.60405">
        <ele>646</ele>
        <time>2024-08-03T11:18:13Z</time>
      </trkpt>
      <trkpt lat="42.7793" lon="0.60424">
        <ele>645</ele>
        <time>2024-08-03T11:18:21Z</time>
      </trkpt>
      <trkpt lat="42.7796" lon="0.60431">
        <ele>645</ele>
        <time>2024-08-03T11:18:26Z</time>
      </trkpt>
      <trkpt lat="42.77988" lon="0.60442">
        <ele>645</ele>
        <time>2024-08-03T11:18:32Z</time>
      </trkpt>
      <trkpt lat="42.78037" lon="0.60448">
        <ele>643</ele>
        <time>2024-08-03T11:18:40Z</time>
      </trkpt>
      <trkpt lat="42.78181" lon="0.60426">
        <ele>641</ele>
        <time>2024-08-03T11:19:06Z</time>
      </trkpt>
      <trkpt lat="42.78258" lon="0.60422">
        <ele>641</ele>
        <time>2024-08-03T11:19:20Z</time>
      </trkpt>
      <trkpt lat="42.78266" lon="0.60429">
        <ele>640</ele>
        <time>2024-08-03T11:19:22Z</time>
      </trkpt>
      <trkpt lat="42.78273" lon="0.60431">
        <ele>640</ele>
        <time>2024-08-03T11:19:23Z</time>
      </trkpt>
      <trkpt lat="42.7828" lon="0.6043">
        <ele>640</ele>
        <time>2024-08-03T11:19:24Z</time>
      </trkpt>
      <trkpt lat="42.7829" lon="0.60424">
        <ele>639</ele>
        <time>2024-08-03T11:19:26Z</time>
      </trkpt>
      <trkpt lat="42.78302" lon="0.60423">
        <ele>639</ele>
        <time>2024-08-03T11:19:28Z</time>
      </trkpt>
      <trkpt lat="42.78319" lon="0.6043">
        <ele>638</ele>
        <time>2024-08-03T11:19:31Z</time>
      </trkpt>
      <trkpt lat="42.78344" lon="0.60444">
        <ele>638</ele>
        <time>2024-08-03T11:19:36Z</time>
      </trkpt>
      <trkpt lat="42.78361" lon="0.60449">
        <ele>638</ele>
        <time>2024-08-03T11:19:39Z</time>
      </trkpt>
      <trkpt lat="42.78374" lon="0.60449">
        <ele>638</ele>
        <time>2024-08-03T11:19:42Z</time>
      </trkpt>
      <trkpt lat="42.78527" lon="0.60427">
        <ele>636</ele>
        <time>2024-08-03T11:20:09Z</time>
      </trkpt>
      <trkpt lat="42.78547" lon="0.60426">
        <ele>635</ele>
        <time>2024-08-03T11:20:13Z</time>
      </trkpt>
      <trkpt lat="42.78645" lon="0.60428">
        <ele>634</ele>
        <time>2024-08-03T11:20:30Z</time>
      </trkpt>
      <trkpt lat="42.78696" lon="0.60433">
        <ele>634</ele>
        <time>2024-08-03T11:20:39Z</time>
      </trkpt>
      <trkpt lat="42.78746" lon="0.60446">
        <ele>634</ele>
        <time>2024-08-03T11:20:48Z</time>
      </trkpt>
      <trkpt lat="42.78866" lon="0.60502">
        <ele>629</ele>
        <time>2024-08-03T11:21:11Z</time>
      </trkpt>
      <trkpt lat="42.7903" lon="0.60612">
        <ele>627</ele>
        <time>2024-08-03T11:21:43Z</time>
      </trkpt>
      <trkpt lat="42.79088" lon="0.60641">
        <ele>628</ele>
        <time>2024-08-03T11:21:54Z</time>
      </trkpt>
      <trkpt lat="42.79118" lon="0.60653">
        <ele>629</ele>
        <time>2024-08-03T11:22:00Z</time>
      </trkpt>
      <trkpt lat="42.79141" lon="0.60669">
        <ele>631</ele>
        <time>2024-08-03T11:22:04Z</time>
      </trkpt>
      <trkpt lat="42.79167" lon="0.60694">
        <ele>634</ele>
        <time>2024-08-03T11:22:10Z</time>
      </trkpt>
      <trkpt lat="42.79263" lon="0.60731">
        <ele>633</ele>
        <time>2024-08-03T11:22:28Z</time>
      </trkpt>
      <trkpt lat="42.79317" lon="0.60749">
        <ele>633</ele>
        <time>2024-08-03T11:22:38Z</time>
      </trkpt>
      <trkpt lat="42.79401" lon="0.60769">
        <ele>633</ele>
        <time>2024-08-03T11:22:53Z</time>
      </trkpt>
      <trkpt lat="42.79424" lon="0.60783">
        <ele>634</ele>
        <time>2024-08-03T11:22:57Z</time>
      </trkpt>
      <trkpt lat="42.79448" lon="0.60802">
        <ele>634</ele>
        <time>2024-08-03T11:23:02Z</time>
      </trkpt>
      <trkpt lat="42.79479" lon="0.60831">
        <ele>634</ele>
        <time>2024-08-03T11:23:09Z</time>
      </trkpt>
      <trkpt lat="42.79642" lon="0.60945">
        <ele>632</ele>
        <time>2024-08-03T11:23:42Z</time>
      </trkpt>
      <trkpt lat="42.79714" lon="0.60983">
        <ele>628</ele>
        <time>2024-08-03T11:23:55Z</time>
      </trkpt>
      <trkpt lat="42.7974" lon="0.6099">
        <ele>626</ele>
        <time>2024-08-03T11:24:00Z</time>
      </trkpt>
      <trkpt lat="42.79856" lon="0.60989">
        <ele>625</ele>
        <time>2024-08-03T11:24:21Z</time>
      </trkpt>
      <trkpt lat="42.79925" lon="0.60984">
        <ele>624</ele>
        <time>2024-08-03T11:24:33Z</time>
      </trkpt>
      <trkpt lat="42.79962" lon="0.6098">
        <ele>626</ele>
        <time>2024-08-03T11:24:40Z</time>
      </trkpt>
      <trkpt lat="42.80016" lon="0.60966">
        <ele>627</ele>
        <time>2024-08-03T11:24:49Z</time>
      </trkpt>
      <trkpt lat="42.80064" lon="0.60957">
        <ele>627</ele>
        <time>2024-08-03T11:24:58Z</time>
      </trkpt>
      <trkpt lat="42.80076" lon="0.60947">
        <ele>627</ele>
        <time>2024-08-03T11:25:00Z</time>
      </trkpt>
      <trkpt lat="42.80151" lon="0.60866">
        <ele>629</ele>
        <time>2024-08-03T11:25:17Z</time>
      </trkpt>
      <trkpt lat="42.80175" lon="0.6085">
        <ele>630</ele>
        <time>2024-08-03T11:25:22Z</time>
      </trkpt>
      <trkpt lat="42.80211" lon="0.60835">
        <ele>631</ele>
        <time>2024-08-03T11:25:29Z</time>
      </trkpt>
      <trkpt lat="42.80242" lon="0.60829">
        <ele>632</ele>
        <time>2024-08-03T11:25:34Z</time>
      </trkpt>
      <trkpt lat="42.80349" lon="0.60834">
        <ele>634</ele>
        <time>2024-08-03T11:25:54Z</time>
      </trkpt>
      <trkpt lat="42.80413" lon="0.60842">
        <ele>632</ele>
        <time>2024-08-03T11:26:05Z</time>
      </trkpt>
      <trkpt lat="42.80536" lon="0.60824">
        <ele>628</ele>
        <time>2024-08-03T11:26:27Z</time>
      </trkpt>
      <trkpt lat="42.80626" lon="0.60791">
        <ele>624</ele>
        <time>2024-08-03T11:26:44Z</time>
      </trkpt>
      <trkpt lat="42.80755" lon="0.60754">
        <ele>624</ele>
        <time>2024-08-03T11:27:07Z</time>
      </trkpt>
      <trkpt lat="42.80754" lon="0.60693">
        <ele>623</ele>
        <time>2024-08-03T11:27:15Z</time>
      </trkpt>
      <trkpt lat="42.80754" lon="0.60693">
        <ele>623</ele>
        <time>2024-08-03T11:27:15Z</time>
      </trkpt>
      <trkpt lat="42.80755" lon="0.60754">
        <ele>624</ele>
        <time>2024-08-03T11:27:23Z</time>
      </trkpt>
      <trkpt lat="42.80852" lon="0.60728">
        <ele>626</ele>
        <time>2024-08-03T11:27:41Z</time>
      </trkpt>
      <trkpt lat="42.81223" lon="0.60699">
        <ele>611</ele>
        <time>2024-08-03T11:28:47Z</time>
      </trkpt>
      <trkpt lat="42.81369" lon="0.60693">
        <ele>607</ele>
        <time>2024-08-03T11:29:13Z</time>
      </trkpt>
      <trkpt lat="42.81412" lon="0.60696">
        <ele>605</ele>
        <time>2024-08-03T11:29:20Z</time>
      </trkpt>
      <trkpt lat="42.81449" lon="0.60709">
        <ele>606</ele>
        <time>2024-08-03T11:29:27Z</time>
      </trkpt>
      <trkpt lat="42.81465" lon="0.60712">
        <ele>606</ele>
        <time>2024-08-03T11:29:30Z</time>
      </trkpt>
      <trkpt lat="42.8148" lon="0.60709">
        <ele>607</ele>
        <time>2024-08-03T11:29:33Z</time>
      </trkpt>
      <trkpt lat="42.81506" lon="0.60694">
        <ele>607</ele>
        <time>2024-08-03T11:29:38Z</time>
      </trkpt>
      <trkpt lat="42.81565" lon="0.60652">
        <ele>607</ele>
        <time>2024-08-03T11:29:50Z</time>
      </trkpt>
      <trkpt lat="42.81604" lon="0.60639">
        <ele>607</ele>
        <time>2024-08-03T11:29:57Z</time>
      </trkpt>
      <trkpt lat="42.81643" lon="0.60632">
        <ele>607</ele>
        <time>2024-08-03T11:30:04Z</time>
      </trkpt>
      <trkpt lat="42.81826" lon="0.60625">
        <ele>615</ele>
        <time>2024-08-03T11:30:36Z</time>
      </trkpt>
      <trkpt lat="42.81885" lon="0.60626">
        <ele>617</ele>
        <time>2024-08-03T11:30:47Z</time>
      </trkpt>
      <trkpt lat="42.82009" lon="0.60624">
        <ele>615</ele>
        <time>2024-08-03T11:31:09Z</time>
      </trkpt>
      <trkpt lat="42.82033" lon="0.60629">
        <ele>615</ele>
        <time>2024-08-03T11:31:13Z</time>
      </trkpt>
      <trkpt lat="42.82114" lon="0.60666">
        <ele>619</ele>
        <time>2024-08-03T11:31:28Z</time>
      </trkpt>
      <trkpt lat="42.82229" lon="0.60691">
        <ele>622</ele>
        <time>2024-08-03T11:31:49Z</time>
      </trkpt>
      <trkpt lat="42.82254" lon="0.60689">
        <ele>620</ele>
        <time>2024-08-03T11:31:54Z</time>
      </trkpt>
      <trkpt lat="42.82322" lon="0.60671">
        <ele>612</ele>
        <time>2024-08-03T11:32:06Z</time>
      </trkpt>
      <trkpt lat="42.82354" lon="0.60655">
        <ele>610</ele>
        <time>2024-08-03T11:32:12Z</time>
      </trkpt>
      <trkpt lat="42.82442" lon="0.60597">
        <ele>607</ele>
        <time>2024-08-03T11:32:29Z</time>
      </trkpt>
      <trkpt lat="42.82484" lon="0.60575">
        <ele>607</ele>
        <time>2024-08-03T11:32:37Z</time>
      </trkpt>
      <trkpt lat="42.82558" lon="0.60547">
        <ele>610</ele>
        <time>2024-08-03T11:32:51Z</time>
      </trkpt>
      <trkpt lat="42.82625" lon="0.60534">
        <ele>609</ele>
        <time>2024-08-03T11:33:03Z</time>
      </trkpt>
      <trkpt lat="42.82899" lon="0.60499">
        <ele>600</ele>
        <time>2024-08-03T11:33:52Z</time>
      </trkpt>
      <trkpt lat="42.82967" lon="0.60509">
        <ele>599</ele>
        <time>2024-08-03T11:34:04Z</time>
      </trkpt>
      <trkpt lat="42.83016" lon="0.6051">
        <ele>600</ele>
        <time>2024-08-03T11:34:13Z</time>
      </trkpt>
      <trkpt lat="42.8308" lon="0.60485">
        <ele>602</ele>
        <time>2024-08-03T11:34:25Z</time>
      </trkpt>
      <trkpt lat="42.83104" lon="0.60479">
        <ele>602</ele>
        <time>2024-08-03T11:34:29Z</time>
      </trkpt>
      <trkpt lat="42.83153" lon="0.60483">
        <ele>605</ele>
        <time>2024-08-03T11:34:38Z</time>
      </trkpt>
      <trkpt lat="42.83176" lon="0.60474">
        <ele>604</ele>
        <time>2024-08-03T11:34:42Z</time>
      </trkpt>
      <trkpt lat="42.83197" lon="0.60471">
        <ele>604</ele>
        <time>2024-08-03T11:34:46Z</time>
      </trkpt>
      <trkpt lat="42.83207" lon="0.60471">
        <ele>604</ele>
        <time>2024-08-03T11:34:48Z</time>
      </trkpt>
      <trkpt lat="42.83217" lon="0.60476">
        <ele>604</ele>
        <time>2024-08-03T11:34:49Z</time>
      </trkpt>
      <trkpt lat="42.83258" lon="0.60502">
        <ele>608</ele>
        <time>2024-08-03T11:34:58Z</time>
      </trkpt>
      <trkpt lat="42.83278" lon="0.60506">
        <ele>611</ele>
        <time>2024-08-03T11:35:01Z</time>
      </trkpt>
      <trkpt lat="42.83304" lon="0.60496">
        <ele>609</ele>
        <time>2024-08-03T11:35:06Z</time>
      </trkpt>
      <trkpt lat="42.83342" lon="0.60475">
        <ele>607</ele>
        <time>2024-08-03T11:35:13Z</time>
      </trkpt>
      <trkpt lat="42.83385" lon="0.60458">
        <ele>604</ele>
        <time>2024-08-03T11:35:21Z</time>
      </trkpt>
      <trkpt lat="42.83422" lon="0.60458">
        <ele>604</ele>
        <time>2024-08-03T11:35:28Z</time>
      </trkpt>
      <trkpt lat="42.835" lon="0.60432">
        <ele>602</ele>
        <time>2024-08-03T11:35:42Z</time>
      </trkpt>
      <trkpt lat="42.83546" lon="0.60433">
        <ele>606</ele>
        <time>2024-08-03T11:35:50Z</time>
      </trkpt>
      <trkpt lat="42.83576" lon="0.60429">
        <ele>606</ele>
        <time>2024-08-03T11:35:56Z</time>
      </trkpt>
      <trkpt lat="42.83641" lon="0.60404">
        <ele>601</ele>
        <time>2024-08-03T11:36:08Z</time>
      </trkpt>
      <trkpt lat="42.83643" lon="0.6041">
        <ele>601</ele>
        <time>2024-08-03T11:36:08Z</time>
      </trkpt>
      <trkpt lat="42.83643" lon="0.6041">
        <ele>601</ele>
        <time>2024-08-03T11:36:08Z</time>
      </trkpt>
      <trkpt lat="42.83641" lon="0.60404">
        <ele>601</ele>
        <time>2024-08-03T11:36:09Z</time>
      </trkpt>
      <trkpt lat="42.83651" lon="0.60396">
        <ele>601</ele>
        <time>2024-08-03T11:36:11Z</time>
      </trkpt>
      <trkpt lat="42.83658" lon="0.60384">
        <ele>600</ele>
        <time>2024-08-03T11:36:13Z</time>
      </trkpt>
      <trkpt lat="42.83663" lon="0.60368">
        <ele>600</ele>
        <time>2024-08-03T11:36:16Z</time>
      </trkpt>
      <trkpt lat="42.83666" lon="0.60348">
        <ele>599</ele>
        <time>2024-08-03T11:36:18Z</time>
      </trkpt>
      <trkpt lat="42.83984" lon="0.60442">
        <ele>602</ele>
        <time>2024-08-03T11:37:16Z</time>
      </trkpt>
      <trkpt lat="42.84059" lon="0.6046">
        <ele>599</ele>
        <time>2024-08-03T11:37:30Z</time>
      </trkpt>
      <trkpt lat="42.84093" lon="0.60465">
        <ele>597</ele>
        <time>2024-08-03T11:37:36Z</time>
      </trkpt>
      <trkpt lat="42.8412" lon="0.60464">
        <ele>596</ele>
        <time>2024-08-03T11:37:41Z</time>
      </trkpt>
      <trkpt lat="42.84144" lon="0.6046">
        <ele>596</ele>
        <time>2024-08-03T11:37:45Z</time>
      </trkpt>
      <trkpt lat="42.84176" lon="0.60451">
        <ele>595</ele>
        <time>2024-08-03T11:37:51Z</time>
      </trkpt>
      <trkpt lat="42.84218" lon="0.60431">
        <ele>595</ele>
        <time>2024-08-03T11:37:59Z</time>
      </trkpt>
      <trkpt lat="42.84249" lon="0.60419">
        <ele>596</ele>
        <time>2024-08-03T11:38:04Z</time>
      </trkpt>
      <trkpt lat="42.84311" lon="0.60405">
        <ele>596</ele>
        <time>2024-08-03T11:38:16Z</time>
      </trkpt>
      <trkpt lat="42.8441" lon="0.60391">
        <ele>599</ele>
        <time>2024-08-03T11:38:33Z</time>
      </trkpt>
      <trkpt lat="42.84497" lon="0.60373">
        <ele>598</ele>
        <time>2024-08-03T11:38:49Z</time>
      </trkpt>
      <trkpt lat="42.84959" lon="0.60259">
        <ele>597</ele>
        <time>2024-08-03T11:40:13Z</time>
      </trkpt>
      <trkpt lat="42.85011" lon="0.60252">
        <ele>598</ele>
        <time>2024-08-03T11:40:22Z</time>
      </trkpt>
      <trkpt lat="42.85131" lon="0.60251">
        <ele>598</ele>
        <time>2024-08-03T11:40:43Z</time>
      </trkpt>
      <trkpt lat="42.85189" lon="0.60259">
        <ele>598</ele>
        <time>2024-08-03T11:40:54Z</time>
      </trkpt>
      <trkpt lat="42.8523" lon="0.60273">
        <ele>599</ele>
        <time>2024-08-03T11:41:01Z</time>
      </trkpt>
      <trkpt lat="42.85257" lon="0.60288">
        <ele>600</ele>
        <time>2024-08-03T11:41:06Z</time>
      </trkpt>
      <trkpt lat="42.85291" lon="0.60314">
        <ele>599</ele>
        <time>2024-08-03T11:41:13Z</time>
      </trkpt>
      <trkpt lat="42.85307" lon="0.60331">
        <ele>597</ele>
        <time>2024-08-03T11:41:17Z</time>
      </trkpt>
      <trkpt lat="42.85406" lon="0.6046">
        <ele>602</ele>
        <time>2024-08-03T11:41:41Z</time>
      </trkpt>
      <trkpt lat="42.85429" lon="0.60483">
        <ele>604</ele>
        <time>2024-08-03T11:41:46Z</time>
      </trkpt>
      <trkpt lat="42.85582" lon="0.60573">
        <ele>606</ele>
        <time>2024-08-03T11:42:16Z</time>
      </trkpt>
      <trkpt lat="42.85621" lon="0.60591">
        <ele>605</ele>
        <time>2024-08-03T11:42:23Z</time>
      </trkpt>
      <trkpt lat="42.85658" lon="0.60601">
        <ele>605</ele>
        <time>2024-08-03T11:42:30Z</time>
      </trkpt>
      <trkpt lat="42.85684" lon="0.606">
        <ele>604</ele>
        <time>2024-08-03T11:42:35Z</time>
      </trkpt>
      <trkpt lat="42.85718" lon="0.60596">
        <ele>604</ele>
        <time>2024-08-03T11:42:41Z</time>
      </trkpt>
      <trkpt lat="42.8575" lon="0.60587">
        <ele>601</ele>
        <time>2024-08-03T11:42:46Z</time>
      </trkpt>
      <trkpt lat="42.85832" lon="0.60557">
        <ele>609</ele>
        <time>2024-08-03T11:43:02Z</time>
      </trkpt>
      <trkpt lat="42.85859" lon="0.60556">
        <ele>610</ele>
        <time>2024-08-03T11:43:06Z</time>
      </trkpt>
      <trkpt lat="42.85924" lon="0.6056">
        <ele>613</ele>
        <time>2024-08-03T11:43:18Z</time>
      </trkpt>
      <trkpt lat="42.85944" lon="0.60565">
        <ele>610</ele>
        <time>2024-08-03T11:43:22Z</time>
      </trkpt>
      <trkpt lat="42.85978" lon="0.60579">
        <ele>604</ele>
        <time>2024-08-03T11:43:28Z</time>
      </trkpt>
      <trkpt lat="42.86007" lon="0.60585">
        <ele>601</ele>
        <time>2024-08-03T11:43:33Z</time>
      </trkpt>
      <trkpt lat="42.86036" lon="0.60585">
        <ele>603</ele>
        <time>2024-08-03T11:43:38Z</time>
      </trkpt>
      <trkpt lat="42.86067" lon="0.60579">
        <ele>603</ele>
        <time>2024-08-03T11:43:44Z</time>
      </trkpt>
      <trkpt lat="42.86289" lon="0.60513">
        <ele>601</ele>
        <time>2024-08-03T11:44:24Z</time>
      </trkpt>
      <trkpt lat="42.86319" lon="0.60512">
        <ele>601</ele>
        <time>2024-08-03T11:44:30Z</time>
      </trkpt>
      <trkpt lat="42.86368" lon="0.60518">
        <ele>601</ele>
        <time>2024-08-03T11:44:38Z</time>
      </trkpt>
      <trkpt lat="42.86408" lon="0.60531">
        <ele>603</ele>
        <time>2024-08-03T11:44:46Z</time>
      </trkpt>
      <trkpt lat="42.86444" lon="0.60551">
        <ele>605</ele>
        <time>2024-08-03T11:44:53Z</time>
      </trkpt>
      <trkpt lat="42.86451" lon="0.60558">
        <ele>605</ele>
        <time>2024-08-03T11:44:54Z</time>
      </trkpt>
      <trkpt lat="42.86468" lon="0.60542">
        <ele>601</ele>
        <time>2024-08-03T11:44:58Z</time>
      </trkpt>
      <trkpt lat="42.86476" lon="0.60539">
        <ele>600</ele>
        <time>2024-08-03T11:44:59Z</time>
      </trkpt>
      <trkpt lat="42.86546" lon="0.60553">
        <ele>598</ele>
        <time>2024-08-03T11:45:12Z</time>
      </trkpt>
      <trkpt lat="42.86572" lon="0.60566">
        <ele>598</ele>
        <time>2024-08-03T11:45:17Z</time>
      </trkpt>
      <trkpt lat="42.86591" lon="0.60582">
        <ele>597</ele>
        <time>2024-08-03T11:45:21Z</time>
      </trkpt>
      <trkpt lat="42.86631" lon="0.60634">
        <ele>594</ele>
        <time>2024-08-03T11:45:31Z</time>
      </trkpt>
      <trkpt lat="42.86647" lon="0.60649">
        <ele>593</ele>
        <time>2024-08-03T11:45:34Z</time>
      </trkpt>
      <trkpt lat="42.86761" lon="0.60728">
        <ele>591</ele>
        <time>2024-08-03T11:45:57Z</time>
      </trkpt>
      <trkpt lat="42.8689" lon="0.60797">
        <ele>595</ele>
        <time>2024-08-03T11:46:21Z</time>
      </trkpt>
      <trkpt lat="42.869" lon="0.60808">
        <ele>594</ele>
        <time>2024-08-03T11:46:24Z</time>
      </trkpt>
      <trkpt lat="42.86996" lon="0.60958">
        <ele>588</ele>
        <time>2024-08-03T11:46:50Z</time>
      </trkpt>
      <trkpt lat="42.87081" lon="0.61046">
        <ele>591</ele>
        <time>2024-08-03T11:47:09Z</time>
      </trkpt>
      <trkpt lat="42.87106" lon="0.61057">
        <ele>593</ele>
        <time>2024-08-03T11:47:13Z</time>
      </trkpt>
      <trkpt lat="42.87111" lon="0.61065">
        <ele>594</ele>
        <time>2024-08-03T11:47:15Z</time>
      </trkpt>
      <trkpt lat="42.87114" lon="0.61073">
        <ele>594</ele>
        <time>2024-08-03T11:47:16Z</time>
      </trkpt>
      <trkpt lat="42.87112" lon="0.61085">
        <ele>596</ele>
        <time>2024-08-03T11:47:17Z</time>
      </trkpt>
      <trkpt lat="42.87208" lon="0.61122">
        <ele>595</ele>
        <time>2024-08-03T11:47:35Z</time>
      </trkpt>
      <trkpt lat="42.87236" lon="0.61136">
        <ele>593</ele>
        <time>2024-08-03T11:47:41Z</time>
      </trkpt>
      <trkpt lat="42.87336" lon="0.61209">
        <ele>597</ele>
        <time>2024-08-03T11:48:01Z</time>
      </trkpt>
      <trkpt lat="42.87364" lon="0.61227">
        <ele>597</ele>
        <time>2024-08-03T11:48:06Z</time>
      </trkpt>
      <trkpt lat="42.87521" lon="0.61301">
        <ele>596</ele>
        <time>2024-08-03T11:48:36Z</time>
      </trkpt>
      <trkpt lat="42.87574" lon="0.61324">
        <ele>590</ele>
        <time>2024-08-03T11:48:46Z</time>
      </trkpt>
      <trkpt lat="42.87691" lon="0.61379">
        <ele>587</ele>
        <time>2024-08-03T11:49:08Z</time>
      </trkpt>
      <trkpt lat="42.87765" lon="0.61408">
        <ele>579</ele>
        <time>2024-08-03T11:49:21Z</time>
      </trkpt>
      <trkpt lat="42.87797" lon="0.61411">
        <ele>579</ele>
        <time>2024-08-03T11:49:27Z</time>
      </trkpt>
      <trkpt lat="42.87822" lon="0.61409">
        <ele>578</ele>
        <time>2024-08-03T11:49:32Z</time>
      </trkpt>
      <trkpt lat="42.87927" lon="0.61369">
        <ele>577</ele>
        <time>2024-08-03T11:49:51Z</time>
      </trkpt>
      <trkpt lat="42.87988" lon="0.61349">
        <ele>576</ele>
        <time>2024-08-03T11:50:02Z</time>
      </trkpt>
      <trkpt lat="42.88013" lon="0.61348">
        <ele>576</ele>
        <time>2024-08-03T11:50:07Z</time>
      </trkpt>
      <trkpt lat="42.88214" lon="0.6138">
        <ele>572</ele>
        <time>2024-08-03T11:50:43Z</time>
      </trkpt>
      <trkpt lat="42.88252" lon="0.61388">
        <ele>572</ele>
        <time>2024-08-03T11:50:49Z</time>
      </trkpt>
      <trkpt lat="42.88281" lon="0.61404">
        <ele>572</ele>
        <time>2024-08-03T11:50:55Z</time>
      </trkpt>
      <trkpt lat="42.88298" lon="0.61418">
        <ele>571</ele>
        <time>2024-08-03T11:50:59Z</time>
      </trkpt>
      <trkpt lat="42.88307" lon="0.6143">
        <ele>573</ele>
        <time>2024-08-03T11:51:01Z</time>
      </trkpt>
      <trkpt lat="42.88339" lon="0.61483">
        <ele>581</ele>
        <time>2024-08-03T11:51:10Z</time>
      </trkpt>
      <trkpt lat="42.8838" lon="0.61575">
        <ele>581</ele>
        <time>2024-08-03T11:51:24Z</time>
      </trkpt>
      <trkpt lat="42.88419" lon="0.61628">
        <ele>577</ele>
        <time>2024-08-03T11:51:34Z</time>
      </trkpt>
      <trkpt lat="42.8844" lon="0.61646">
        <ele>577</ele>
        <time>2024-08-03T11:51:38Z</time>
      </trkpt>
      <trkpt lat="42.88494" lon="0.61679">
        <ele>568</ele>
        <time>2024-08-03T11:51:48Z</time>
      </trkpt>
      <trkpt lat="42.88508" lon="0.61689">
        <ele>567</ele>
        <time>2024-08-03T11:51:51Z</time>
      </trkpt>
      <trkpt lat="42.8853" lon="0.61718">
        <ele>570</ele>
        <time>2024-08-03T11:51:57Z</time>
      </trkpt>
      <trkpt lat="42.88572" lon="0.61794">
        <ele>571</ele>
        <time>2024-08-03T11:52:09Z</time>
      </trkpt>
      <trkpt lat="42.88587" lon="0.61813">
        <ele>569</ele>
        <time>2024-08-03T11:52:13Z</time>
      </trkpt>
      <trkpt lat="42.88597" lon="0.61824">
        <ele>568</ele>
        <time>2024-08-03T11:52:15Z</time>
      </trkpt>
      <trkpt lat="42.88665" lon="0.61877">
        <ele>559</ele>
        <time>2024-08-03T11:52:29Z</time>
      </trkpt>
      <trkpt lat="42.8874" lon="0.61954">
        <ele>557</ele>
        <time>2024-08-03T11:52:46Z</time>
      </trkpt>
      <trkpt lat="42.88745" lon="0.61958">
        <ele>557</ele>
        <time>2024-08-03T11:52:47Z</time>
      </trkpt>
      <trkpt lat="42.88775" lon="0.61967">
        <ele>556</ele>
        <time>2024-08-03T11:52:52Z</time>
      </trkpt>
      <trkpt lat="42.8878" lon="0.61972">
        <ele>556</ele>
        <time>2024-08-03T11:52:53Z</time>
      </trkpt>
      <trkpt lat="42.88781" lon="0.61983">
        <ele>557</ele>
        <time>2024-08-03T11:52:55Z</time>
      </trkpt>
      <trkpt lat="42.8878" lon="0.61992">
        <ele>557</ele>
        <time>2024-08-03T11:52:56Z</time>
      </trkpt>
      <trkpt lat="42.88781" lon="0.62004">
        <ele>559</ele>
        <time>2024-08-03T11:52:58Z</time>
      </trkpt>
      <trkpt lat="42.88787" lon="0.62014">
        <ele>562</ele>
        <time>2024-08-03T11:52:59Z</time>
      </trkpt>
      <trkpt lat="42.88838" lon="0.62057">
        <ele>568</ele>
        <time>2024-08-03T11:53:10Z</time>
      </trkpt>
      <trkpt lat="42.88887" lon="0.62093">
        <ele>574</ele>
        <time>2024-08-03T11:53:20Z</time>
      </trkpt>
      <trkpt lat="42.88907" lon="0.62105">
        <ele>577</ele>
        <time>2024-08-03T11:53:24Z</time>
      </trkpt>
      <trkpt lat="42.8893" lon="0.62114">
        <ele>577</ele>
        <time>2024-08-03T11:53:28Z</time>
      </trkpt>
      <trkpt lat="42.88947" lon="0.62116">
        <ele>576</ele>
        <time>2024-08-03T11:53:31Z</time>
      </trkpt>
      <trkpt lat="42.88978" lon="0.62115">
        <ele>572</ele>
        <time>2024-08-03T11:53:36Z</time>
      </trkpt>
      <trkpt lat="42.89024" lon="0.62105">
        <ele>563</ele>
        <time>2024-08-03T11:53:45Z</time>
      </trkpt>
      <trkpt lat="42.89032" lon="0.62107">
        <ele>562</ele>
        <time>2024-08-03T11:53:46Z</time>
      </trkpt>
      <trkpt lat="42.89037" lon="0.62111">
        <ele>562</ele>
        <time>2024-08-03T11:53:47Z</time>
      </trkpt>
      <trkpt lat="42.89043" lon="0.62123">
        <ele>562</ele>
        <time>2024-08-03T11:53:49Z</time>
      </trkpt>
      <trkpt lat="42.89075" lon="0.6222">
        <ele>577</ele>
        <time>2024-08-03T11:54:03Z</time>
      </trkpt>
      <trkpt lat="42.89081" lon="0.62232">
        <ele>578</ele>
        <time>2024-08-03T11:54:05Z</time>
      </trkpt>
      <trkpt lat="42.89096" lon="0.62252">
        <ele>580</ele>
        <time>2024-08-03T11:54:09Z</time>
      </trkpt>
      <trkpt lat="42.89109" lon="0.62265">
        <ele>582</ele>
        <time>2024-08-03T11:54:11Z</time>
      </trkpt>
      <trkpt lat="42.89141" lon="0.62291">
        <ele>583</ele>
        <time>2024-08-03T11:54:18Z</time>
      </trkpt>
      <trkpt lat="42.89159" lon="0.62297">
        <ele>581</ele>
        <time>2024-08-03T11:54:21Z</time>
      </trkpt>
      <trkpt lat="42.89196" lon="0.62305">
        <ele>580</ele>
        <time>2024-08-03T11:54:28Z</time>
      </trkpt>
      <trkpt lat="42.89216" lon="0.62313">
        <ele>581</ele>
        <time>2024-08-03T11:54:32Z</time>
      </trkpt>
      <trkpt lat="42.8924" lon="0.62327">
        <ele>583</ele>
        <time>2024-08-03T11:54:36Z</time>
      </trkpt>
      <trkpt lat="42.89305" lon="0.62385">
        <ele>590</ele>
        <time>2024-08-03T11:54:50Z</time>
      </trkpt>
      <trkpt lat="42.89335" lon="0.62415">
        <ele>591</ele>
        <time>2024-08-03T11:54:57Z</time>
      </trkpt>
      <trkpt lat="42.89375" lon="0.62476">
        <ele>591</ele>
        <time>2024-08-03T11:55:08Z</time>
      </trkpt>
      <trkpt lat="42.89479" lon="0.62645">
        <ele>590</ele>
        <time>2024-08-03T11:55:36Z</time>
      </trkpt>
      <trkpt lat="42.89558" lon="0.62767">
        <ele>586</ele>
        <time>2024-08-03T11:55:58Z</time>
      </trkpt>
      <trkpt lat="42.89603" lon="0.62844">
        <ele>584</ele>
        <time>2024-08-03T11:56:10Z</time>
      </trkpt>
      <trkpt lat="42.89616" lon="0.62858">
        <ele>583</ele>
        <time>2024-08-03T11:56:13Z</time>
      </trkpt>
      <trkpt lat="42.89656" lon="0.62882">
        <ele>579</ele>
        <time>2024-08-03T11:56:21Z</time>
      </trkpt>
      <trkpt lat="42.89721" lon="0.62933">
        <ele>575</ele>
        <time>2024-08-03T11:56:34Z</time>
      </trkpt>
      <trkpt lat="42.89746" lon="0.62958">
        <ele>571</ele>
        <time>2024-08-03T11:56:40Z</time>
      </trkpt>
      <trkpt lat="42.89781" lon="0.63004">
        <ele>562</ele>
        <time>2024-08-03T11:56:49Z</time>
      </trkpt>
      <trkpt lat="42.89809" lon="0.63031">
        <ele>555</ele>
        <time>2024-08-03T11:56:55Z</time>
      </trkpt>
      <trkpt lat="42.89813" lon="0.63037">
        <ele>554</ele>
        <time>2024-08-03T11:56:56Z</time>
      </trkpt>
      <trkpt lat="42.89817" lon="0.63048">
        <ele>552</ele>
        <time>2024-08-03T11:56:57Z</time>
      </trkpt>
      <trkpt lat="42.89822" lon="0.63089">
        <ele>546</ele>
        <time>2024-08-03T11:57:03Z</time>
      </trkpt>
      <trkpt lat="42.8983" lon="0.63113">
        <ele>544</ele>
        <time>2024-08-03T11:57:06Z</time>
      </trkpt>
      <trkpt lat="42.89838" lon="0.63127">
        <ele>542</ele>
        <time>2024-08-03T11:57:09Z</time>
      </trkpt>
      <trkpt lat="42.89866" lon="0.63165">
        <ele>538</ele>
        <time>2024-08-03T11:57:16Z</time>
      </trkpt>
      <trkpt lat="42.89894" lon="0.63214">
        <ele>536</ele>
        <time>2024-08-03T11:57:24Z</time>
      </trkpt>
      <trkpt lat="42.89899" lon="0.63219">
        <ele>535</ele>
        <time>2024-08-03T11:57:25Z</time>
      </trkpt>
      <trkpt lat="42.89906" lon="0.63221">
        <ele>534</ele>
        <time>2024-08-03T11:57:26Z</time>
      </trkpt>
      <trkpt lat="42.89918" lon="0.63219">
        <ele>532</ele>
        <time>2024-08-03T11:57:28Z</time>
      </trkpt>
      <trkpt lat="42.89921" lon="0.6322">
        <ele>531</ele>
        <time>2024-08-03T11:57:29Z</time>
      </trkpt>
      <trkpt lat="42.89924" lon="0.63226">
        <ele>531</ele>
        <time>2024-08-03T11:57:30Z</time>
      </trkpt>
      <trkpt lat="42.89928" lon="0.63248">
        <ele>531</ele>
        <time>2024-08-03T11:57:33Z</time>
      </trkpt>
      <trkpt lat="42.89934" lon="0.63263">
        <ele>532</ele>
        <time>2024-08-03T11:57:35Z</time>
      </trkpt>
      <trkpt lat="42.89949" lon="0.63284">
        <ele>534</ele>
        <time>2024-08-03T11:57:39Z</time>
      </trkpt>
      <trkpt lat="42.8999" lon="0.63313">
        <ele>534</ele>
        <time>2024-08-03T11:57:47Z</time>
      </trkpt>
      <trkpt lat="42.90007" lon="0.6332">
        <ele>533</ele>
        <time>2024-08-03T11:57:50Z</time>
      </trkpt>
      <trkpt lat="42.90032" lon="0.63325">
        <ele>532</ele>
        <time>2024-08-03T11:57:55Z</time>
      </trkpt>
      <trkpt lat="42.90104" lon="0.63354">
        <ele>533</ele>
        <time>2024-08-03T11:58:08Z</time>
      </trkpt>
      <trkpt lat="42.90168" lon="0.6339">
        <ele>538</ele>
        <time>2024-08-03T11:58:20Z</time>
      </trkpt>
      <trkpt lat="42.9018" lon="0.63395">
        <ele>539</ele>
        <time>2024-08-03T11:58:22Z</time>
      </trkpt>
      <trkpt lat="42.90196" lon="0.63397">
        <ele>538</ele>
        <time>2024-08-03T11:58:25Z</time>
      </trkpt>
      <trkpt lat="42.90209" lon="0.63396">
        <ele>536</ele>
        <time>2024-08-03T11:58:28Z</time>
      </trkpt>
      <trkpt lat="42.90235" lon="0.63385">
        <ele>532</ele>
        <time>2024-08-03T11:58:32Z</time>
      </trkpt>
      <trkpt lat="42.90253" lon="0.63366">
        <ele>527</ele>
        <time>2024-08-03T11:58:37Z</time>
      </trkpt>
      <trkpt lat="42.90297" lon="0.63313">
        <ele>522</ele>
        <time>2024-08-03T11:58:47Z</time>
      </trkpt>
      <trkpt lat="42.9031" lon="0.633">
        <ele>522</ele>
        <time>2024-08-03T11:58:50Z</time>
      </trkpt>
      <trkpt lat="42.90324" lon="0.63291">
        <ele>521</ele>
        <time>2024-08-03T11:58:53Z</time>
      </trkpt>
      <trkpt lat="42.90343" lon="0.63283">
        <ele>520</ele>
        <time>2024-08-03T11:58:56Z</time>
      </trkpt>
      <trkpt lat="42.90362" lon="0.63279">
        <ele>521</ele>
        <time>2024-08-03T11:59:00Z</time>
      </trkpt>
      <trkpt lat="42.90379" lon="0.63281">
        <ele>522</ele>
        <time>2024-08-03T11:59:03Z</time>
      </trkpt>
      <trkpt lat="42.90394" lon="0.63284">
        <ele>522</ele>
        <time>2024-08-03T11:59:05Z</time>
      </trkpt>
      <trkpt lat="42.90409" lon="0.63292">
        <ele>522</ele>
        <time>2024-08-03T11:59:08Z</time>
      </trkpt>
      <trkpt lat="42.90426" lon="0.63306">
        <ele>522</ele>
        <time>2024-08-03T11:59:12Z</time>
      </trkpt>
      <trkpt lat="42.90441" lon="0.63321">
        <ele>520</ele>
        <time>2024-08-03T11:59:15Z</time>
      </trkpt>
      <trkpt lat="42.905" lon="0.63435">
        <ele>520</ele>
        <time>2024-08-03T11:59:33Z</time>
      </trkpt>
      <trkpt lat="42.90522" lon="0.63468">
        <ele>523</ele>
        <time>2024-08-03T11:59:39Z</time>
      </trkpt>
      <trkpt lat="42.90542" lon="0.63492">
        <ele>521</ele>
        <time>2024-08-03T11:59:44Z</time>
      </trkpt>
      <trkpt lat="42.90562" lon="0.63513">
        <ele>520</ele>
        <time>2024-08-03T11:59:48Z</time>
      </trkpt>
      <trkpt lat="42.90638" lon="0.63572">
        <ele>514</ele>
        <time>2024-08-03T12:00:04Z</time>
      </trkpt>
      <trkpt lat="42.9071" lon="0.63617">
        <ele>511</ele>
        <time>2024-08-03T12:00:18Z</time>
      </trkpt>
      <trkpt lat="42.90855" lon="0.63698">
        <ele>511</ele>
        <time>2024-08-03T12:00:46Z</time>
      </trkpt>
      <trkpt lat="42.90929" lon="0.63752">
        <ele>509</ele>
        <time>2024-08-03T12:01:01Z</time>
      </trkpt>
      <trkpt lat="42.91002" lon="0.63827">
        <ele>501</ele>
        <time>2024-08-03T12:01:17Z</time>
      </trkpt>
      <trkpt lat="42.91059" lon="0.63903">
        <ele>503</ele>
        <time>2024-08-03T12:01:31Z</time>
      </trkpt>
      <trkpt lat="42.91101" lon="0.63982">
        <ele>503</ele>
        <time>2024-08-03T12:01:44Z</time>
      </trkpt>
      <trkpt lat="42.91143" lon="0.64083">
        <ele>498</ele>
        <time>2024-08-03T12:01:59Z</time>
      </trkpt>
      <trkpt lat="42.91224" lon="0.6435">
        <ele>495</ele>
        <time>2024-08-03T12:02:37Z</time>
      </trkpt>
      <trkpt lat="42.91238" lon="0.64412">
        <ele>497</ele>
        <time>2024-08-03T12:02:45Z</time>
      </trkpt>
      <trkpt lat="42.91259" lon="0.64538">
        <ele>491</ele>
        <time>2024-08-03T12:03:02Z</time>
      </trkpt>
      <trkpt lat="42.91276" lon="0.64594">
        <ele>489</ele>
        <time>2024-08-03T12:03:10Z</time>
      </trkpt>
      <trkpt lat="42.91294" lon="0.64631">
        <ele>487</ele>
        <time>2024-08-03T12:03:16Z</time>
      </trkpt>
      <trkpt lat="42.91329" lon="0.64679">
        <ele>485</ele>
        <time>2024-08-03T12:03:24Z</time>
      </trkpt>
      <trkpt lat="42.9136" lon="0.64707">
        <ele>486</ele>
        <time>2024-08-03T12:03:31Z</time>
      </trkpt>
      <trkpt lat="42.91418" lon="0.64743">
        <ele>485</ele>
        <time>2024-08-03T12:03:42Z</time>
      </trkpt>
      <trkpt lat="42.91423" lon="0.64748">
        <ele>485</ele>
        <time>2024-08-03T12:03:43Z</time>
      </trkpt>
      <trkpt lat="42.91427" lon="0.64759">
        <ele>485</ele>
        <time>2024-08-03T12:03:45Z</time>
      </trkpt>
      <trkpt lat="42.91429" lon="0.64794">
        <ele>484</ele>
        <time>2024-08-03T12:03:50Z</time>
      </trkpt>
      <trkpt lat="42.91429" lon="0.64794">
        <ele>484</ele>
        <time>2024-08-03T12:03:50Z</time>
      </trkpt>
      <trkpt lat="42.91429" lon="0.64801">
        <ele>484</ele>
        <time>2024-08-03T12:03:51Z</time>
      </trkpt>
      <trkpt lat="42.91412" lon="0.64913">
        <ele>487</ele>
        <time>2024-08-03T12:04:05Z</time>
      </trkpt>
      <trkpt lat="42.9139" lon="0.65087">
        <ele>494</ele>
        <time>2024-08-03T12:04:28Z</time>
      </trkpt>
      <trkpt lat="42.91333" lon="0.65472">
        <ele>506</ele>
        <time>2024-08-03T12:05:20Z</time>
      </trkpt>
      <trkpt lat="42.91329" lon="0.65541">
        <ele>509</ele>
        <time>2024-08-03T12:05:29Z</time>
      </trkpt>
      <trkpt lat="42.91337" lon="0.65683">
        <ele>512</ele>
        <time>2024-08-03T12:05:47Z</time>
      </trkpt>
      <trkpt lat="42.91337" lon="0.65712">
        <ele>513</ele>
        <time>2024-08-03T12:05:51Z</time>
      </trkpt>
      <trkpt lat="42.91333" lon="0.65769">
        <ele>515</ele>
        <time>2024-08-03T12:05:58Z</time>
      </trkpt>
      <trkpt lat="42.91333" lon="0.65796">
        <ele>515</ele>
        <time>2024-08-03T12:06:02Z</time>
      </trkpt>
      <trkpt lat="42.91336" lon="0.65826">
        <ele>515</ele>
        <time>2024-08-03T12:06:06Z</time>
      </trkpt>
      <trkpt lat="42.91345" lon="0.65856">
        <ele>515</ele>
        <time>2024-08-03T12:06:10Z</time>
      </trkpt>
      <trkpt lat="42.91374" lon="0.65934">
        <ele>515</ele>
        <time>2024-08-03T12:06:22Z</time>
      </trkpt>
      <trkpt lat="42.91384" lon="0.65968">
        <ele>515</ele>
        <time>2024-08-03T12:06:26Z</time>
      </trkpt>
      <trkpt lat="42.91462" lon="0.66315">
        <ele>505</ele>
        <time>2024-08-03T12:07:14Z</time>
      </trkpt>
      <trkpt lat="42.91471" lon="0.66362">
        <ele>505</ele>
        <time>2024-08-03T12:07:20Z</time>
      </trkpt>
      <trkpt lat="42.9148" lon="0.66417">
        <ele>506</ele>
        <time>2024-08-03T12:07:27Z</time>
      </trkpt>
      <trkpt lat="42.91477" lon="0.66492">
        <ele>516</ele>
        <time>2024-08-03T12:07:37Z</time>
      </trkpt>
      <trkpt lat="42.91482" lon="0.66539">
        <ele>519</ele>
        <time>2024-08-03T12:07:43Z</time>
      </trkpt>
      <trkpt lat="42.91514" lon="0.66672">
        <ele>514</ele>
        <time>2024-08-03T12:08:02Z</time>
      </trkpt>
      <trkpt lat="42.91519" lon="0.6672">
        <ele>520</ele>
        <time>2024-08-03T12:08:08Z</time>
      </trkpt>
      <trkpt lat="42.91508" lon="0.6677">
        <ele>522</ele>
        <time>2024-08-03T12:08:15Z</time>
      </trkpt>
      <trkpt lat="42.91506" lon="0.6679">
        <ele>522</ele>
        <time>2024-08-03T12:08:17Z</time>
      </trkpt>
      <trkpt lat="42.91508" lon="0.6681">
        <ele>523</ele>
        <time>2024-08-03T12:08:20Z</time>
      </trkpt>
      <trkpt lat="42.91513" lon="0.66826">
        <ele>524</ele>
        <time>2024-08-03T12:08:22Z</time>
      </trkpt>
      <trkpt lat="42.91529" lon="0.66853">
        <ele>525</ele>
        <time>2024-08-03T12:08:27Z</time>
      </trkpt>
      <trkpt lat="42.91564" lon="0.669">
        <ele>521</ele>
        <time>2024-08-03T12:08:35Z</time>
      </trkpt>
      <trkpt lat="42.9159" lon="0.66945">
        <ele>516</ele>
        <time>2024-08-03T12:08:43Z</time>
      </trkpt>
      <trkpt lat="42.91609" lon="0.67009">
        <ele>517</ele>
        <time>2024-08-03T12:08:52Z</time>
      </trkpt>
      <trkpt lat="42.91633" lon="0.67109">
        <ele>519</ele>
        <time>2024-08-03T12:09:06Z</time>
      </trkpt>
      <trkpt lat="42.9167" lon="0.67233">
        <ele>513</ele>
        <time>2024-08-03T12:09:23Z</time>
      </trkpt>
      <trkpt lat="42.91678" lon="0.67282">
        <ele>514</ele>
        <time>2024-08-03T12:09:30Z</time>
      </trkpt>
      <trkpt lat="42.91676" lon="0.67318">
        <ele>513</ele>
        <time>2024-08-03T12:09:34Z</time>
      </trkpt>
      <trkpt lat="42.91674" lon="0.67349">
        <ele>511</ele>
        <time>2024-08-03T12:09:38Z</time>
      </trkpt>
      <trkpt lat="42.91669" lon="0.67381">
        <ele>509</ele>
        <time>2024-08-03T12:09:43Z</time>
      </trkpt>
      <trkpt lat="42.91668" lon="0.67404">
        <ele>508</ele>
        <time>2024-08-03T12:09:46Z</time>
      </trkpt>
      <trkpt lat="42.91672" lon="0.67428">
        <ele>509</ele>
        <time>2024-08-03T12:09:49Z</time>
      </trkpt>
      <trkpt lat="42.91693" lon="0.67492">
        <ele>511</ele>
        <time>2024-08-03T12:09:58Z</time>
      </trkpt>
      <trkpt lat="42.91699" lon="0.67525">
        <ele>510</ele>
        <time>2024-08-03T12:10:02Z</time>
      </trkpt>
      <trkpt lat="42.91699" lon="0.67559">
        <ele>510</ele>
        <time>2024-08-03T12:10:07Z</time>
      </trkpt>
      <trkpt lat="42.91694" lon="0.67622">
        <ele>510</ele>
        <time>2024-08-03T12:10:15Z</time>
      </trkpt>
      <trkpt lat="42.91699" lon="0.67695">
        <ele>508</ele>
        <time>2024-08-03T12:10:25Z</time>
      </trkpt>
      <trkpt lat="42.9172" lon="0.67871">
        <ele>508</ele>
        <time>2024-08-03T12:10:48Z</time>
      </trkpt>
      <trkpt lat="42.91749" lon="0.68157">
        <ele>497</ele>
        <time>2024-08-03T12:11:26Z</time>
      </trkpt>
      <trkpt lat="42.91754" lon="0.68218">
        <ele>500</ele>
        <time>2024-08-03T12:11:34Z</time>
      </trkpt>
      <trkpt lat="42.91753" lon="0.68264">
        <ele>502</ele>
        <time>2024-08-03T12:11:39Z</time>
      </trkpt>
      <trkpt lat="42.91736" lon="0.68461">
        <ele>509</ele>
        <time>2024-08-03T12:12:05Z</time>
      </trkpt>
      <trkpt lat="42.91725" lon="0.68544">
        <ele>512</ele>
        <time>2024-08-03T12:12:16Z</time>
      </trkpt>
      <trkpt lat="42.91714" lon="0.68576">
        <ele>513</ele>
        <time>2024-08-03T12:12:21Z</time>
      </trkpt>
      <trkpt lat="42.91688" lon="0.6864">
        <ele>512</ele>
        <time>2024-08-03T12:12:30Z</time>
      </trkpt>
      <trkpt lat="42.91676" lon="0.68687">
        <ele>510</ele>
        <time>2024-08-03T12:12:37Z</time>
      </trkpt>
      <trkpt lat="42.91668" lon="0.68746">
        <ele>506</ele>
        <time>2024-08-03T12:12:45Z</time>
      </trkpt>
      <trkpt lat="42.91673" lon="0.68852">
        <ele>503</ele>
        <time>2024-08-03T12:12:59Z</time>
      </trkpt>
      <trkpt lat="42.91668" lon="0.68897">
        <ele>502</ele>
        <time>2024-08-03T12:13:05Z</time>
      </trkpt>
      <trkpt lat="42.9162" lon="0.69002">
        <ele>522</ele>
        <time>2024-08-03T12:13:21Z</time>
      </trkpt>
      <trkpt lat="42.91556" lon="0.69127">
        <ele>520</ele>
        <time>2024-08-03T12:13:41Z</time>
      </trkpt>
      <trkpt lat="42.91533" lon="0.69191">
        <ele>511</ele>
        <time>2024-08-03T12:13:50Z</time>
      </trkpt>
      <trkpt lat="42.91495" lon="0.69249">
        <ele>507</ele>
        <time>2024-08-03T12:14:00Z</time>
      </trkpt>
      <trkpt lat="42.9147" lon="0.69278">
        <ele>510</ele>
        <time>2024-08-03T12:14:06Z</time>
      </trkpt>
      <trkpt lat="42.91453" lon="0.69292">
        <ele>510</ele>
        <time>2024-08-03T12:14:09Z</time>
      </trkpt>
      <trkpt lat="42.91437" lon="0.69299">
        <ele>510</ele>
        <time>2024-08-03T12:14:12Z</time>
      </trkpt>
      <trkpt lat="42.91405" lon="0.69304">
        <ele>509</ele>
        <time>2024-08-03T12:14:18Z</time>
      </trkpt>
      <trkpt lat="42.91374" lon="0.69294">
        <ele>507</ele>
        <time>2024-08-03T12:14:24Z</time>
      </trkpt>
      <trkpt lat="42.91337" lon="0.69272">
        <ele>506</ele>
        <time>2024-08-03T12:14:31Z</time>
      </trkpt>
      <trkpt lat="42.91263" lon="0.69198">
        <ele>510</ele>
        <time>2024-08-03T12:14:47Z</time>
      </trkpt>
      <trkpt lat="42.91248" lon="0.69187">
        <ele>510</ele>
        <time>2024-08-03T12:14:50Z</time>
      </trkpt>
      <trkpt lat="42.91129" lon="0.69569">
        <ele>509</ele>
        <time>2024-08-03T12:15:44Z</time>
      </trkpt>
      <trkpt lat="42.91088" lon="0.69631">
        <ele>511</ele>
        <time>2024-08-03T12:15:55Z</time>
      </trkpt>
      <trkpt lat="42.91088" lon="0.69631">
        <ele>511</ele>
        <time>2024-08-03T12:15:55Z</time>
      </trkpt>
      <trkpt lat="42.91119" lon="0.69585">
        <ele>510</ele>
        <time>2024-08-03T12:16:03Z</time>
      </trkpt>
      <trkpt lat="42.91138" lon="0.69634">
        <ele>520</ele>
        <time>2024-08-03T12:16:11Z</time>
      </trkpt>
      <trkpt lat="42.91155" lon="0.69669">
        <ele>530</ele>
        <time>2024-08-03T12:16:16Z</time>
      </trkpt>
      <trkpt lat="42.91159" lon="0.69695">
        <ele>539</ele>
        <time>2024-08-03T12:16:20Z</time>
      </trkpt>
      <trkpt lat="42.91153" lon="0.69732">
        <ele>547</ele>
        <time>2024-08-03T12:16:25Z</time>
      </trkpt>
      <trkpt lat="42.91141" lon="0.69754">
        <ele>547</ele>
        <time>2024-08-03T12:16:28Z</time>
      </trkpt>
      <trkpt lat="42.91119" lon="0.69802">
        <ele>545</ele>
        <time>2024-08-03T12:16:35Z</time>
      </trkpt>
      <trkpt lat="42.91109" lon="0.69836">
        <ele>544</ele>
        <time>2024-08-03T12:16:40Z</time>
      </trkpt>
      <trkpt lat="42.91106" lon="0.69879">
        <ele>549</ele>
        <time>2024-08-03T12:16:46Z</time>
      </trkpt>
      <trkpt lat="42.91094" lon="0.69926">
        <ele>550</ele>
        <time>2024-08-03T12:16:52Z</time>
      </trkpt>
      <trkpt lat="42.9109" lon="0.6996">
        <ele>550</ele>
        <time>2024-08-03T12:16:57Z</time>
      </trkpt>
      <trkpt lat="42.91094" lon="0.69988">
        <ele>554</ele>
        <time>2024-08-03T12:17:01Z</time>
      </trkpt>
      <trkpt lat="42.9109" lon="0.7002">
        <ele>555</ele>
        <time>2024-08-03T12:17:05Z</time>
      </trkpt>
      <trkpt lat="42.91066" lon="0.70102">
        <ele>557</ele>
        <time>2024-08-03T12:17:16Z</time>
      </trkpt>
      <trkpt lat="42.91046" lon="0.70136">
        <ele>555</ele>
        <time>2024-08-03T12:17:22Z</time>
      </trkpt>
      <trkpt lat="42.91044" lon="0.70173">
        <ele>559</ele>
        <time>2024-08-03T12:17:27Z</time>
      </trkpt>
      <trkpt lat="42.91046" lon="0.70206">
        <ele>561</ele>
        <time>2024-08-03T12:17:31Z</time>
      </trkpt>
      <trkpt lat="42.91063" lon="0.70279">
        <ele>569</ele>
        <time>2024-08-03T12:17:41Z</time>
      </trkpt>
      <trkpt lat="42.91097" lon="0.70363">
        <ele>579</ele>
        <time>2024-08-03T12:17:54Z</time>
      </trkpt>
      <trkpt lat="42.91105" lon="0.70388">
        <ele>583</ele>
        <time>2024-08-03T12:17:57Z</time>
      </trkpt>
      <trkpt lat="42.91119" lon="0.70562">
        <ele>589</ele>
        <time>2024-08-03T12:18:20Z</time>
      </trkpt>
      <trkpt lat="42.91128" lon="0.70593">
        <ele>593</ele>
        <time>2024-08-03T12:18:24Z</time>
      </trkpt>
      <trkpt lat="42.91179" lon="0.70709">
        <ele>612</ele>
        <time>2024-08-03T12:18:42Z</time>
      </trkpt>
      <trkpt lat="42.9119" lon="0.70749">
        <ele>616</ele>
        <time>2024-08-03T12:18:48Z</time>
      </trkpt>
      <trkpt lat="42.91197" lon="0.70782">
        <ele>617</ele>
        <time>2024-08-03T12:18:52Z</time>
      </trkpt>
      <trkpt lat="42.91205" lon="0.708">
        <ele>619</ele>
        <time>2024-08-03T12:18:55Z</time>
      </trkpt>
      <trkpt lat="42.91221" lon="0.70816">
        <ele>624</ele>
        <time>2024-08-03T12:18:58Z</time>
      </trkpt>
      <trkpt lat="42.91258" lon="0.70839">
        <ele>635</ele>
        <time>2024-08-03T12:19:06Z</time>
      </trkpt>
      <trkpt lat="42.91266" lon="0.70848">
        <ele>639</ele>
        <time>2024-08-03T12:19:07Z</time>
      </trkpt>
      <trkpt lat="42.91268" lon="0.70856">
        <ele>639</ele>
        <time>2024-08-03T12:19:08Z</time>
      </trkpt>
      <trkpt lat="42.91268" lon="0.70871">
        <ele>639</ele>
        <time>2024-08-03T12:19:10Z</time>
      </trkpt>
      <trkpt lat="42.9126" lon="0.70901">
        <ele>635</ele>
        <time>2024-08-03T12:19:15Z</time>
      </trkpt>
      <trkpt lat="42.91246" lon="0.70941">
        <ele>633</ele>
        <time>2024-08-03T12:19:20Z</time>
      </trkpt>
      <trkpt lat="42.91244" lon="0.70983">
        <ele>637</ele>
        <time>2024-08-03T12:19:26Z</time>
      </trkpt>
      <trkpt lat="42.91257" lon="0.71078">
        <ele>645</ele>
        <time>2024-08-03T12:19:38Z</time>
      </trkpt>
      <trkpt lat="42.91269" lon="0.71126">
        <ele>646</ele>
        <time>2024-08-03T12:19:45Z</time>
      </trkpt>
      <trkpt lat="42.91288" lon="0.71149">
        <ele>650</ele>
        <time>2024-08-03T12:19:50Z</time>
      </trkpt>
      <trkpt lat="42.91322" lon="0.71185">
        <ele>658</ele>
        <time>2024-08-03T12:19:57Z</time>
      </trkpt>
      <trkpt lat="42.91337" lon="0.71207">
        <ele>660</ele>
        <time>2024-08-03T12:20:01Z</time>
      </trkpt>
      <trkpt lat="42.91357" lon="0.71227">
        <ele>665</ele>
        <time>2024-08-03T12:20:06Z</time>
      </trkpt>
      <trkpt lat="42.91396" lon="0.71298">
        <ele>668</ele>
        <time>2024-08-03T12:20:17Z</time>
      </trkpt>
      <trkpt lat="42.91417" lon="0.71319">
        <ele>671</ele>
        <time>2024-08-03T12:20:22Z</time>
      </trkpt>
      <trkpt lat="42.91454" lon="0.71349">
        <ele>677</ele>
        <time>2024-08-03T12:20:29Z</time>
      </trkpt>
      <trkpt lat="42.91534" lon="0.71385">
        <ele>694</ele>
        <time>2024-08-03T12:20:44Z</time>
      </trkpt>
      <trkpt lat="42.91552" lon="0.71403">
        <ele>694</ele>
        <time>2024-08-03T12:20:48Z</time>
      </trkpt>
      <trkpt lat="42.91606" lon="0.71447">
        <ele>703</ele>
        <time>2024-08-03T12:21:00Z</time>
      </trkpt>
      <trkpt lat="42.91623" lon="0.7148">
        <ele>701</ele>
        <time>2024-08-03T12:21:05Z</time>
      </trkpt>
      <trkpt lat="42.91626" lon="0.71522">
        <ele>696</ele>
        <time>2024-08-03T12:21:10Z</time>
      </trkpt>
      <trkpt lat="42.91644" lon="0.71581">
        <ele>698</ele>
        <time>2024-08-03T12:21:19Z</time>
      </trkpt>
      <trkpt lat="42.91679" lon="0.71661">
        <ele>702</ele>
        <time>2024-08-03T12:21:31Z</time>
      </trkpt>
      <trkpt lat="42.91713" lon="0.71748">
        <ele>711</ele>
        <time>2024-08-03T12:21:44Z</time>
      </trkpt>
      <trkpt lat="42.91722" lon="0.71766">
        <ele>714</ele>
        <time>2024-08-03T12:21:46Z</time>
      </trkpt>
      <trkpt lat="42.91735" lon="0.7178">
        <ele>717</ele>
        <time>2024-08-03T12:21:49Z</time>
      </trkpt>
      <trkpt lat="42.91751" lon="0.71794">
        <ele>720</ele>
        <time>2024-08-03T12:21:53Z</time>
      </trkpt>
      <trkpt lat="42.91823" lon="0.71806">
        <ele>724</ele>
        <time>2024-08-03T12:22:06Z</time>
      </trkpt>
      <trkpt lat="42.91838" lon="0.71801">
        <ele>724</ele>
        <time>2024-08-03T12:22:08Z</time>
      </trkpt>
      <trkpt lat="42.91854" lon="0.71791">
        <ele>724</ele>
        <time>2024-08-03T12:22:12Z</time>
      </trkpt>
      <trkpt lat="42.91865" lon="0.71788">
        <ele>724</ele>
        <time>2024-08-03T12:22:14Z</time>
      </trkpt>
      <trkpt lat="42.9192" lon="0.71798">
        <ele>728</ele>
        <time>2024-08-03T12:22:23Z</time>
      </trkpt>
      <trkpt lat="42.91942" lon="0.71807">
        <ele>732</ele>
        <time>2024-08-03T12:22:28Z</time>
      </trkpt>
      <trkpt lat="42.91977" lon="0.71829">
        <ele>737</ele>
        <time>2024-08-03T12:22:34Z</time>
      </trkpt>
      <trkpt lat="42.91997" lon="0.71848">
        <ele>740</ele>
        <time>2024-08-03T12:22:39Z</time>
      </trkpt>
      <trkpt lat="42.92011" lon="0.71866">
        <ele>743</ele>
        <time>2024-08-03T12:22:42Z</time>
      </trkpt>
      <trkpt lat="42.92037" lon="0.71912">
        <ele>751</ele>
        <time>2024-08-03T12:22:50Z</time>
      </trkpt>
      <trkpt lat="42.92079" lon="0.72001">
        <ele>759</ele>
        <time>2024-08-03T12:23:04Z</time>
      </trkpt>
      <trkpt lat="42.92085" lon="0.72041">
        <ele>760</ele>
        <time>2024-08-03T12:23:09Z</time>
      </trkpt>
      <trkpt lat="42.92082" lon="0.72075">
        <ele>759</ele>
        <time>2024-08-03T12:23:13Z</time>
      </trkpt>
      <trkpt lat="42.9207" lon="0.72105">
        <ele>762</ele>
        <time>2024-08-03T12:23:18Z</time>
      </trkpt>
      <trkpt lat="42.9203" lon="0.72156">
        <ele>767</ele>
        <time>2024-08-03T12:23:27Z</time>
      </trkpt>
      <trkpt lat="42.92027" lon="0.72172">
        <ele>769</ele>
        <time>2024-08-03T12:23:30Z</time>
      </trkpt>
      <trkpt lat="42.92035" lon="0.72185">
        <ele>773</ele>
        <time>2024-08-03T12:23:32Z</time>
      </trkpt>
      <trkpt lat="42.92068" lon="0.72186">
        <ele>777</ele>
        <time>2024-08-03T12:23:38Z</time>
      </trkpt>
      <trkpt lat="42.92102" lon="0.72179">
        <ele>780</ele>
        <time>2024-08-03T12:23:44Z</time>
      </trkpt>
      <trkpt lat="42.92145" lon="0.7216">
        <ele>784</ele>
        <time>2024-08-03T12:23:52Z</time>
      </trkpt>
      <trkpt lat="42.92201" lon="0.72117">
        <ele>793</ele>
        <time>2024-08-03T12:24:03Z</time>
      </trkpt>
      <trkpt lat="42.92216" lon="0.72097">
        <ele>794</ele>
        <time>2024-08-03T12:24:07Z</time>
      </trkpt>
      <trkpt lat="42.9222" lon="0.72087">
        <ele>793</ele>
        <time>2024-08-03T12:24:09Z</time>
      </trkpt>
      <trkpt lat="42.92221" lon="0.7204">
        <ele>792</ele>
        <time>2024-08-03T12:24:15Z</time>
      </trkpt>
      <trkpt lat="42.92226" lon="0.72014">
        <ele>793</ele>
        <time>2024-08-03T12:24:18Z</time>
      </trkpt>
      <trkpt lat="42.9224" lon="0.71999">
        <ele>795</ele>
        <time>2024-08-03T12:24:21Z</time>
      </trkpt>
      <trkpt lat="42.92255" lon="0.71994">
        <ele>797</ele>
        <time>2024-08-03T12:24:24Z</time>
      </trkpt>
      <trkpt lat="42.92265" lon="0.72">
        <ele>798</ele>
        <time>2024-08-03T12:24:26Z</time>
      </trkpt>
      <trkpt lat="42.92277" lon="0.72031">
        <ele>802</ele>
        <time>2024-08-03T12:24:31Z</time>
      </trkpt>
      <trkpt lat="42.9228" lon="0.72077">
        <ele>806</ele>
        <time>2024-08-03T12:24:37Z</time>
      </trkpt>
      <trkpt lat="42.92278" lon="0.72116">
        <ele>814</ele>
        <time>2024-08-03T12:24:42Z</time>
      </trkpt>
      <trkpt lat="42.92259" lon="0.72161">
        <ele>820</ele>
        <time>2024-08-03T12:24:48Z</time>
      </trkpt>
      <trkpt lat="42.92204" lon="0.72223">
        <ele>822</ele>
        <time>2024-08-03T12:25:01Z</time>
      </trkpt>
      <trkpt lat="42.92175" lon="0.72265">
        <ele>825</ele>
        <time>2024-08-03T12:25:09Z</time>
      </trkpt>
      <trkpt lat="42.92108" lon="0.72381">
        <ele>839</ele>
        <time>2024-08-03T12:25:28Z</time>
      </trkpt>
      <trkpt lat="42.92011" lon="0.72467">
        <ele>850</ele>
        <time>2024-08-03T12:25:48Z</time>
      </trkpt>
      <trkpt lat="42.91986" lon="0.72492">
        <ele>853</ele>
        <time>2024-08-03T12:25:54Z</time>
      </trkpt>
      <trkpt lat="42.91954" lon="0.7253">
        <ele>856</ele>
        <time>2024-08-03T12:26:02Z</time>
      </trkpt>
      <trkpt lat="42.9192" lon="0.72599">
        <ele>861</ele>
        <time>2024-08-03T12:26:12Z</time>
      </trkpt>
      <trkpt lat="42.9191" lon="0.72637">
        <ele>864</ele>
        <time>2024-08-03T12:26:18Z</time>
      </trkpt>
      <trkpt lat="42.91906" lon="0.72684">
        <ele>869</ele>
        <time>2024-08-03T12:26:24Z</time>
      </trkpt>
      <trkpt lat="42.91903" lon="0.72774">
        <ele>878</ele>
        <time>2024-08-03T12:26:36Z</time>
      </trkpt>
      <trkpt lat="42.91862" lon="0.72889">
        <ele>880</ele>
        <time>2024-08-03T12:26:52Z</time>
      </trkpt>
      <trkpt lat="42.91845" lon="0.72956">
        <ele>888</ele>
        <time>2024-08-03T12:27:01Z</time>
      </trkpt>
      <trkpt lat="42.91836" lon="0.73012">
        <ele>896</ele>
        <time>2024-08-03T12:27:09Z</time>
      </trkpt>
      <trkpt lat="42.91824" lon="0.73054">
        <ele>898</ele>
        <time>2024-08-03T12:27:15Z</time>
      </trkpt>
      <trkpt lat="42.91819" lon="0.7309">
        <ele>903</ele>
        <time>2024-08-03T12:27:20Z</time>
      </trkpt>
      <trkpt lat="42.91808" lon="0.73135">
        <ele>907</ele>
        <time>2024-08-03T12:27:26Z</time>
      </trkpt>
      <trkpt lat="42.91803" lon="0.73204">
        <ele>921</ele>
        <time>2024-08-03T12:27:35Z</time>
      </trkpt>
      <trkpt lat="42.91789" lon="0.7326">
        <ele>925</ele>
        <time>2024-08-03T12:27:43Z</time>
      </trkpt>
      <trkpt lat="42.91772" lon="0.73285">
        <ele>919</ele>
        <time>2024-08-03T12:27:47Z</time>
      </trkpt>
      <trkpt lat="42.91761" lon="0.73344">
        <ele>926</ele>
        <time>2024-08-03T12:27:55Z</time>
      </trkpt>
      <trkpt lat="42.91753" lon="0.73404">
        <ele>932</ele>
        <time>2024-08-03T12:28:03Z</time>
      </trkpt>
      <trkpt lat="42.9174" lon="0.73443">
        <ele>932</ele>
        <time>2024-08-03T12:28:08Z</time>
      </trkpt>
      <trkpt lat="42.91726" lon="0.73531">
        <ele>942</ele>
        <time>2024-08-03T12:28:20Z</time>
      </trkpt>
      <trkpt lat="42.91718" lon="0.73548">
        <ele>941</ele>
        <time>2024-08-03T12:28:23Z</time>
      </trkpt>
      <trkpt lat="42.91713" lon="0.73592">
        <ele>947</ele>
        <time>2024-08-03T12:28:29Z</time>
      </trkpt>
      <trkpt lat="42.91697" lon="0.73635">
        <ele>947</ele>
        <time>2024-08-03T12:28:35Z</time>
      </trkpt>
      <trkpt lat="42.91666" lon="0.73699">
        <ele>945</ele>
        <time>2024-08-03T12:28:45Z</time>
      </trkpt>
      <trkpt lat="42.91663" lon="0.73712">
        <ele>946</ele>
        <time>2024-08-03T12:28:47Z</time>
      </trkpt>
      <trkpt lat="42.91664" lon="0.73725">
        <ele>949</ele>
        <time>2024-08-03T12:28:48Z</time>
      </trkpt>
      <trkpt lat="42.91678" lon="0.73757">
        <ele>962</ele>
        <time>2024-08-03T12:28:53Z</time>
      </trkpt>
      <trkpt lat="42.91711" lon="0.73817">
        <ele>984</ele>
        <time>2024-08-03T12:29:03Z</time>
      </trkpt>
      <trkpt lat="42.91721" lon="0.73846">
        <ele>990</ele>
        <time>2024-08-03T12:29:07Z</time>
      </trkpt>
      <trkpt lat="42.91716" lon="0.73871">
        <ele>992</ele>
        <time>2024-08-03T12:29:11Z</time>
      </trkpt>
      <trkpt lat="42.91693" lon="0.73885">
        <ele>990</ele>
        <time>2024-08-03T12:29:15Z</time>
      </trkpt>
      <trkpt lat="42.91653" lon="0.73874">
        <ele>977</ele>
        <time>2024-08-03T12:29:22Z</time>
      </trkpt>
      <trkpt lat="42.91635" lon="0.73865">
        <ele>969</ele>
        <time>2024-08-03T12:29:26Z</time>
      </trkpt>
      <trkpt lat="42.9162" lon="0.73869">
        <ele>967</ele>
        <time>2024-08-03T12:29:28Z</time>
      </trkpt>
      <trkpt lat="42.91606" lon="0.7389">
        <ele>971</ele>
        <time>2024-08-03T12:29:32Z</time>
      </trkpt>
      <trkpt lat="42.91592" lon="0.73931">
        <ele>982</ele>
        <time>2024-08-03T12:29:38Z</time>
      </trkpt>
      <trkpt lat="42.91575" lon="0.73965">
        <ele>985</ele>
        <time>2024-08-03T12:29:43Z</time>
      </trkpt>
      <trkpt lat="42.9157" lon="0.74004">
        <ele>993</ele>
        <time>2024-08-03T12:29:49Z</time>
      </trkpt>
      <trkpt lat="42.91571" lon="0.74034">
        <ele>997</ele>
        <time>2024-08-03T12:29:52Z</time>
      </trkpt>
      <trkpt lat="42.91589" lon="0.74107">
        <ele>1017</ele>
        <time>2024-08-03T12:30:02Z</time>
      </trkpt>
      <trkpt lat="42.91587" lon="0.74141">
        <ele>1022</ele>
        <time>2024-08-03T12:30:07Z</time>
      </trkpt>
      <trkpt lat="42.91579" lon="0.74157">
        <ele>1021</ele>
        <time>2024-08-03T12:30:09Z</time>
      </trkpt>
      <trkpt lat="42.91549" lon="0.74177">
        <ele>1012</ele>
        <time>2024-08-03T12:30:15Z</time>
      </trkpt>
      <trkpt lat="42.91544" lon="0.74186">
        <ele>1012</ele>
        <time>2024-08-03T12:30:17Z</time>
      </trkpt>
      <trkpt lat="42.91528" lon="0.74228">
        <ele>1014</ele>
        <time>2024-08-03T12:30:23Z</time>
      </trkpt>
      <trkpt lat="42.91518" lon="0.74275">
        <ele>1018</ele>
        <time>2024-08-03T12:30:29Z</time>
      </trkpt>
      <trkpt lat="42.91515" lon="0.74297">
        <ele>1021</ele>
        <time>2024-08-03T12:30:32Z</time>
      </trkpt>
      <trkpt lat="42.91506" lon="0.74341">
        <ele>1023</ele>
        <time>2024-08-03T12:30:38Z</time>
      </trkpt>
      <trkpt lat="42.91505" lon="0.74354">
        <ele>1024</ele>
        <time>2024-08-03T12:30:40Z</time>
      </trkpt>
      <trkpt lat="42.91505" lon="0.74424">
        <ele>1035</ele>
        <time>2024-08-03T12:30:49Z</time>
      </trkpt>
      <trkpt lat="42.91492" lon="0.74493">
        <ele>1036</ele>
        <time>2024-08-03T12:30:58Z</time>
      </trkpt>
      <trkpt lat="42.91489" lon="0.74532">
        <ele>1039</ele>
        <time>2024-08-03T12:31:03Z</time>
      </trkpt>
      <trkpt lat="42.9149" lon="0.7456">
        <ele>1042</ele>
        <time>2024-08-03T12:31:07Z</time>
      </trkpt>
      <trkpt lat="42.91494" lon="0.74567">
        <ele>1044</ele>
        <time>2024-08-03T12:31:08Z</time>
      </trkpt>
      <trkpt lat="42.91502" lon="0.74566">
        <ele>1047</ele>
        <time>2024-08-03T12:31:10Z</time>
      </trkpt>
      <trkpt lat="42.91505" lon="0.74562">
        <ele>1048</ele>
        <time>2024-08-03T12:31:10Z</time>
      </trkpt>
      <trkpt lat="42.91506" lon="0.74535">
        <ele>1046</ele>
        <time>2024-08-03T12:31:14Z</time>
      </trkpt>
      <trkpt lat="42.9151" lon="0.74509">
        <ele>1046</ele>
        <time>2024-08-03T12:31:17Z</time>
      </trkpt>
      <trkpt lat="42.91517" lon="0.74494">
        <ele>1049</ele>
        <time>2024-08-03T12:31:20Z</time>
      </trkpt>
      <trkpt lat="42.91534" lon="0.74468">
        <ele>1055</ele>
        <time>2024-08-03T12:31:24Z</time>
      </trkpt>
      <trkpt lat="42.91548" lon="0.74385">
        <ele>1054</ele>
        <time>2024-08-03T12:31:35Z</time>
      </trkpt>
      <trkpt lat="42.91552" lon="0.74378">
        <ele>1056</ele>
        <time>2024-08-03T12:31:37Z</time>
      </trkpt>
      <trkpt lat="42.91558" lon="0.74378">
        <ele>1059</ele>
        <time>2024-08-03T12:31:38Z</time>
      </trkpt>
      <trkpt lat="42.91563" lon="0.74386">
        <ele>1063</ele>
        <time>2024-08-03T12:31:39Z</time>
      </trkpt>
      <trkpt lat="42.91554" lon="0.7442">
        <ele>1062</ele>
        <time>2024-08-03T12:31:44Z</time>
      </trkpt>
      <trkpt lat="42.91556" lon="0.74497">
        <ele>1070</ele>
        <time>2024-08-03T12:31:54Z</time>
      </trkpt>
      <trkpt lat="42.91552" lon="0.74528">
        <ele>1070</ele>
        <time>2024-08-03T12:31:58Z</time>
      </trkpt>
      <trkpt lat="42.91561" lon="0.74611">
        <ele>1081</ele>
        <time>2024-08-03T12:32:09Z</time>
      </trkpt>
      <trkpt lat="42.91559" lon="0.74628">
        <ele>1082</ele>
        <time>2024-08-03T12:32:11Z</time>
      </trkpt>
      <trkpt lat="42.91545" lon="0.74662">
        <ele>1078</ele>
        <time>2024-08-03T12:32:16Z</time>
      </trkpt>
      <trkpt lat="42.91543" lon="0.74717">
        <ele>1084</ele>
        <time>2024-08-03T12:32:23Z</time>
      </trkpt>
      <trkpt lat="42.91535" lon="0.74772">
        <ele>1087</ele>
        <time>2024-08-03T12:32:31Z</time>
      </trkpt>
      <trkpt lat="42.91538" lon="0.74825">
        <ele>1094</ele>
        <time>2024-08-03T12:32:38Z</time>
      </trkpt>
      <trkpt lat="42.91527" lon="0.74897">
        <ele>1098</ele>
        <time>2024-08-03T12:32:47Z</time>
      </trkpt>
      <trkpt lat="42.91522" lon="0.7495">
        <ele>1102</ele>
        <time>2024-08-03T12:32:54Z</time>
      </trkpt>
      <trkpt lat="42.91524" lon="0.74991">
        <ele>1108</ele>
        <time>2024-08-03T12:32:59Z</time>
      </trkpt>
      <trkpt lat="42.91529" lon="0.7503">
        <ele>1114</ele>
        <time>2024-08-03T12:33:05Z</time>
      </trkpt>
      <trkpt lat="42.91545" lon="0.75065">
        <ele>1125</ele>
        <time>2024-08-03T12:33:10Z</time>
      </trkpt>
      <trkpt lat="42.91543" lon="0.75102">
        <ele>1126</ele>
        <time>2024-08-03T12:33:15Z</time>
      </trkpt>
      <trkpt lat="42.91541" lon="0.75142">
        <ele>1130</ele>
        <time>2024-08-03T12:33:20Z</time>
      </trkpt>
      <trkpt lat="42.91544" lon="0.75161">
        <ele>1133</ele>
        <time>2024-08-03T12:33:23Z</time>
      </trkpt>
      <trkpt lat="42.91533" lon="0.75177">
        <ele>1134</ele>
        <time>2024-08-03T12:33:25Z</time>
      </trkpt>
      <trkpt lat="42.91499" lon="0.75175">
        <ele>1125</ele>
        <time>2024-08-03T12:33:31Z</time>
      </trkpt>
      <trkpt lat="42.9148" lon="0.75177">
        <ele>1125</ele>
        <time>2024-08-03T12:33:35Z</time>
      </trkpt>
      <trkpt lat="42.91457" lon="0.75194">
        <ele>1129</ele>
        <time>2024-08-03T12:33:40Z</time>
      </trkpt>
      <trkpt lat="42.91408" lon="0.75213">
        <ele>1130</ele>
        <time>2024-08-03T12:33:49Z</time>
      </trkpt>
      <trkpt lat="42.91373" lon="0.75254">
        <ele>1132</ele>
        <time>2024-08-03T12:33:57Z</time>
      </trkpt>
      <trkpt lat="42.91321" lon="0.75402">
        <ele>1146</ele>
        <time>2024-08-03T12:34:18Z</time>
      </trkpt>
      <trkpt lat="42.91322" lon="0.75408">
        <ele>1146</ele>
        <time>2024-08-03T12:34:19Z</time>
      </trkpt>
      <trkpt lat="42.91328" lon="0.75415">
        <ele>1148</ele>
        <time>2024-08-03T12:34:20Z</time>
      </trkpt>
      <trkpt lat="42.91336" lon="0.7541">
        <ele>1148</ele>
        <time>2024-08-03T12:34:22Z</time>
      </trkpt>
      <trkpt lat="42.91352" lon="0.75382">
        <ele>1148</ele>
        <time>2024-08-03T12:34:27Z</time>
      </trkpt>
      <trkpt lat="42.91362" lon="0.75359">
        <ele>1148</ele>
        <time>2024-08-03T12:34:30Z</time>
      </trkpt>
      <trkpt lat="42.91391" lon="0.75322">
        <ele>1152</ele>
        <time>2024-08-03T12:34:37Z</time>
      </trkpt>
      <trkpt lat="42.91406" lon="0.75306">
        <ele>1153</ele>
        <time>2024-08-03T12:34:41Z</time>
      </trkpt>
      <trkpt lat="42.91415" lon="0.75305">
        <ele>1156</ele>
        <time>2024-08-03T12:34:42Z</time>
      </trkpt>
      <trkpt lat="42.91418" lon="0.75311">
        <ele>1158</ele>
        <time>2024-08-03T12:34:43Z</time>
      </trkpt>
      <trkpt lat="42.91417" lon="0.75318">
        <ele>1159</ele>
        <time>2024-08-03T12:34:44Z</time>
      </trkpt>
      <trkpt lat="42.91406" lon="0.7534">
        <ele>1160</ele>
        <time>2024-08-03T12:34:47Z</time>
      </trkpt>
      <trkpt lat="42.91402" lon="0.75373">
        <ele>1162</ele>
        <time>2024-08-03T12:34:52Z</time>
      </trkpt>
      <trkpt lat="42.91402" lon="0.75431">
        <ele>1168</ele>
        <time>2024-08-03T12:34:59Z</time>
      </trkpt>
      <trkpt lat="42.91398" lon="0.75449">
        <ele>1169</ele>
        <time>2024-08-03T12:35:02Z</time>
      </trkpt>
      <trkpt lat="42.91369" lon="0.75505">
        <ele>1170</ele>
        <time>2024-08-03T12:35:11Z</time>
      </trkpt>
      <trkpt lat="42.91371" lon="0.75516">
        <ele>1172</ele>
        <time>2024-08-03T12:35:12Z</time>
      </trkpt>
      <trkpt lat="42.91379" lon="0.7552">
        <ele>1174</ele>
        <time>2024-08-03T12:35:14Z</time>
      </trkpt>
      <trkpt lat="42.91389" lon="0.75511">
        <ele>1175</ele>
        <time>2024-08-03T12:35:16Z</time>
      </trkpt>
      <trkpt lat="42.91409" lon="0.75486">
        <ele>1176</ele>
        <time>2024-08-03T12:35:21Z</time>
      </trkpt>
      <trkpt lat="42.9144" lon="0.75463">
        <ele>1179</ele>
        <time>2024-08-03T12:35:27Z</time>
      </trkpt>
      <trkpt lat="42.91448" lon="0.7545">
        <ele>1178</ele>
        <time>2024-08-03T12:35:29Z</time>
      </trkpt>
      <trkpt lat="42.91456" lon="0.75446">
        <ele>1179</ele>
        <time>2024-08-03T12:35:31Z</time>
      </trkpt>
      <trkpt lat="42.91463" lon="0.75448">
        <ele>1180</ele>
        <time>2024-08-03T12:35:32Z</time>
      </trkpt>
      <trkpt lat="42.91464" lon="0.75455">
        <ele>1181</ele>
        <time>2024-08-03T12:35:33Z</time>
      </trkpt>
      <trkpt lat="42.91462" lon="0.75463">
        <ele>1182</ele>
        <time>2024-08-03T12:35:34Z</time>
      </trkpt>
      <trkpt lat="42.91446" lon="0.7548">
        <ele>1182</ele>
        <time>2024-08-03T12:35:38Z</time>
      </trkpt>
      <trkpt lat="42.9144" lon="0.75503">
        <ele>1183</ele>
        <time>2024-08-03T12:35:41Z</time>
      </trkpt>
      <trkpt lat="42.91431" lon="0.75566">
        <ele>1189</ele>
        <time>2024-08-03T12:35:49Z</time>
      </trkpt>
      <trkpt lat="42.91418" lon="0.75624">
        <ele>1194</ele>
        <time>2024-08-03T12:35:57Z</time>
      </trkpt>
      <trkpt lat="42.914" lon="0.75665">
        <ele>1200</ele>
        <time>2024-08-03T12:36:03Z</time>
      </trkpt>
      <trkpt lat="42.91401" lon="0.75675">
        <ele>1202</ele>
        <time>2024-08-03T12:36:05Z</time>
      </trkpt>
      <trkpt lat="42.91406" lon="0.75681">
        <ele>1203</ele>
        <time>2024-08-03T12:36:06Z</time>
      </trkpt>
      <trkpt lat="42.91416" lon="0.7568">
        <ele>1203</ele>
        <time>2024-08-03T12:36:08Z</time>
      </trkpt>
      <trkpt lat="42.91444" lon="0.75655">
        <ele>1204</ele>
        <time>2024-08-03T12:36:14Z</time>
      </trkpt>
      <trkpt lat="42.91464" lon="0.75625">
        <ele>1205</ele>
        <time>2024-08-03T12:36:19Z</time>
      </trkpt>
      <trkpt lat="42.9148" lon="0.75587">
        <ele>1203</ele>
        <time>2024-08-03T12:36:25Z</time>
      </trkpt>
      <trkpt lat="42.91485" lon="0.75588">
        <ele>1204</ele>
        <time>2024-08-03T12:36:25Z</time>
      </trkpt>
      <trkpt lat="42.9149" lon="0.75595">
        <ele>1206</ele>
        <time>2024-08-03T12:36:27Z</time>
      </trkpt>
      <trkpt lat="42.91488" lon="0.75609">
        <ele>1208</ele>
        <time>2024-08-03T12:36:29Z</time>
      </trkpt>
      <trkpt lat="42.91484" lon="0.75624">
        <ele>1209</ele>
        <time>2024-08-03T12:36:31Z</time>
      </trkpt>
      <trkpt lat="42.91484" lon="0.75639">
        <ele>1211</ele>
        <time>2024-08-03T12:36:33Z</time>
      </trkpt>
      <trkpt lat="42.91477" lon="0.75696">
        <ele>1220</ele>
        <time>2024-08-03T12:36:40Z</time>
      </trkpt>
      <trkpt lat="42.91469" lon="0.75713">
        <ele>1222</ele>
        <time>2024-08-03T12:36:43Z</time>
      </trkpt>
      <trkpt lat="42.91468" lon="0.75725">
        <ele>1225</ele>
        <time>2024-08-03T12:36:44Z</time>
      </trkpt>
      <trkpt lat="42.91474" lon="0.75731">
        <ele>1228</ele>
        <time>2024-08-03T12:36:46Z</time>
      </trkpt>
      <trkpt lat="42.91485" lon="0.75728">
        <ele>1230</ele>
        <time>2024-08-03T12:36:48Z</time>
      </trkpt>
      <trkpt lat="42.91496" lon="0.7571">
        <ele>1228</ele>
        <time>2024-08-03T12:36:51Z</time>
      </trkpt>
      <trkpt lat="42.91512" lon="0.75676">
        <ele>1223</ele>
        <time>2024-08-03T12:36:56Z</time>
      </trkpt>
      <trkpt lat="42.91522" lon="0.75662">
        <ele>1221</ele>
        <time>2024-08-03T12:36:59Z</time>
      </trkpt>
      <trkpt lat="42.91535" lon="0.75657">
        <ele>1221</ele>
        <time>2024-08-03T12:37:01Z</time>
      </trkpt>
      <trkpt lat="42.91551" lon="0.75667">
        <ele>1225</ele>
        <time>2024-08-03T12:37:04Z</time>
      </trkpt>
      <trkpt lat="42.91567" lon="0.75684">
        <ele>1231</ele>
        <time>2024-08-03T12:37:08Z</time>
      </trkpt>
      <trkpt lat="42.91616" lon="0.75752">
        <ele>1251</ele>
        <time>2024-08-03T12:37:20Z</time>
      </trkpt>
      <trkpt lat="42.91629" lon="0.75759">
        <ele>1253</ele>
        <time>2024-08-03T12:37:23Z</time>
      </trkpt>
      <trkpt lat="42.91653" lon="0.75766">
        <ele>1255</ele>
        <time>2024-08-03T12:37:27Z</time>
      </trkpt>
      <trkpt lat="42.91671" lon="0.75764">
        <ele>1255</ele>
        <time>2024-08-03T12:37:30Z</time>
      </trkpt>
      <trkpt lat="42.91683" lon="0.7575">
        <ele>1256</ele>
        <time>2024-08-03T12:37:33Z</time>
      </trkpt>
      <trkpt lat="42.91684" lon="0.75728">
        <ele>1256</ele>
        <time>2024-08-03T12:37:36Z</time>
      </trkpt>
      <trkpt lat="42.91679" lon="0.75701">
        <ele>1253</ele>
        <time>2024-08-03T12:37:40Z</time>
      </trkpt>
      <trkpt lat="42.9168" lon="0.75615">
        <ele>1249</ele>
        <time>2024-08-03T12:37:51Z</time>
      </trkpt>
      <trkpt lat="42.91685" lon="0.7561">
        <ele>1251</ele>
        <time>2024-08-03T12:37:52Z</time>
      </trkpt>
      <trkpt lat="42.91691" lon="0.75609">
        <ele>1253</ele>
        <time>2024-08-03T12:37:53Z</time>
      </trkpt>
      <trkpt lat="42.91696" lon="0.75616">
        <ele>1256</ele>
        <time>2024-08-03T12:37:54Z</time>
      </trkpt>
      <trkpt lat="42.91697" lon="0.75628">
        <ele>1257</ele>
        <time>2024-08-03T12:37:56Z</time>
      </trkpt>
      <trkpt lat="42.91693" lon="0.75655">
        <ele>1257</ele>
        <time>2024-08-03T12:37:59Z</time>
      </trkpt>
      <trkpt lat="42.91695" lon="0.75683">
        <ele>1260</ele>
        <time>2024-08-03T12:38:03Z</time>
      </trkpt>
      <trkpt lat="42.91727" lon="0.75742">
        <ele>1274</ele>
        <time>2024-08-03T12:38:13Z</time>
      </trkpt>
      <trkpt lat="42.91746" lon="0.75786">
        <ele>1279</ele>
        <time>2024-08-03T12:38:19Z</time>
      </trkpt>
      <trkpt lat="42.91753" lon="0.75819">
        <ele>1279</ele>
        <time>2024-08-03T12:38:24Z</time>
      </trkpt>
      <trkpt lat="42.91756" lon="0.75846">
        <ele>1283</ele>
        <time>2024-08-03T12:38:27Z</time>
      </trkpt>
      <trkpt lat="42.91761" lon="0.75853">
        <ele>1286</ele>
        <time>2024-08-03T12:38:29Z</time>
      </trkpt>
      <trkpt lat="42.91768" lon="0.75853">
        <ele>1289</ele>
        <time>2024-08-03T12:38:30Z</time>
      </trkpt>
      <trkpt lat="42.91773" lon="0.75847">
        <ele>1289</ele>
        <time>2024-08-03T12:38:31Z</time>
      </trkpt>
      <trkpt lat="42.9177" lon="0.75806">
        <ele>1288</ele>
        <time>2024-08-03T12:38:36Z</time>
      </trkpt>
      <trkpt lat="42.91756" lon="0.75758">
        <ele>1286</ele>
        <time>2024-08-03T12:38:43Z</time>
      </trkpt>
      <trkpt lat="42.91759" lon="0.75751">
        <ele>1288</ele>
        <time>2024-08-03T12:38:44Z</time>
      </trkpt>
      <trkpt lat="42.91764" lon="0.75748">
        <ele>1291</ele>
        <time>2024-08-03T12:38:45Z</time>
      </trkpt>
      <trkpt lat="42.91771" lon="0.75753">
        <ele>1294</ele>
        <time>2024-08-03T12:38:46Z</time>
      </trkpt>
      <trkpt lat="42.91798" lon="0.75852">
        <ele>1298</ele>
        <time>2024-08-03T12:39:00Z</time>
      </trkpt>
      <trkpt lat="42.91804" lon="0.75878">
        <ele>1303</ele>
        <time>2024-08-03T12:39:04Z</time>
      </trkpt>
      <trkpt lat="42.91805" lon="0.75909">
        <ele>1305</ele>
        <time>2024-08-03T12:39:08Z</time>
      </trkpt>
      <trkpt lat="42.91809" lon="0.7592">
        <ele>1307</ele>
        <time>2024-08-03T12:39:09Z</time>
      </trkpt>
      <trkpt lat="42.91816" lon="0.75924">
        <ele>1308</ele>
        <time>2024-08-03T12:39:11Z</time>
      </trkpt>
      <trkpt lat="42.91826" lon="0.75916">
        <ele>1307</ele>
        <time>2024-08-03T12:39:13Z</time>
      </trkpt>
      <trkpt lat="42.91828" lon="0.75899">
        <ele>1308</ele>
        <time>2024-08-03T12:39:15Z</time>
      </trkpt>
      <trkpt lat="42.9182" lon="0.75881">
        <ele>1306</ele>
        <time>2024-08-03T12:39:18Z</time>
      </trkpt>
      <trkpt lat="42.91814" lon="0.75847">
        <ele>1304</ele>
        <time>2024-08-03T12:39:22Z</time>
      </trkpt>
      <trkpt lat="42.91814" lon="0.75811">
        <ele>1307</ele>
        <time>2024-08-03T12:39:27Z</time>
      </trkpt>
      <trkpt lat="42.91812" lon="0.75779">
        <ele>1312</ele>
        <time>2024-08-03T12:39:31Z</time>
      </trkpt>
      <trkpt lat="42.91803" lon="0.75746">
        <ele>1312</ele>
        <time>2024-08-03T12:39:36Z</time>
      </trkpt>
      <trkpt lat="42.91769" lon="0.75684">
        <ele>1296</ele>
        <time>2024-08-03T12:39:46Z</time>
      </trkpt>
      <trkpt lat="42.91767" lon="0.75672">
        <ele>1295</ele>
        <time>2024-08-03T12:39:48Z</time>
      </trkpt>
      <trkpt lat="42.91772" lon="0.75664">
        <ele>1297</ele>
        <time>2024-08-03T12:39:49Z</time>
      </trkpt>
      <trkpt lat="42.91779" lon="0.75665">
        <ele>1301</ele>
        <time>2024-08-03T12:39:50Z</time>
      </trkpt>
      <trkpt lat="42.91784" lon="0.75673">
        <ele>1304</ele>
        <time>2024-08-03T12:39:52Z</time>
      </trkpt>
      <trkpt lat="42.91788" lon="0.75696">
        <ele>1305</ele>
        <time>2024-08-03T12:39:55Z</time>
      </trkpt>
      <trkpt lat="42.91812" lon="0.75734">
        <ele>1317</ele>
        <time>2024-08-03T12:40:01Z</time>
      </trkpt>
      <trkpt lat="42.9185" lon="0.75784">
        <ele>1330</ele>
        <time>2024-08-03T12:40:11Z</time>
      </trkpt>
      <trkpt lat="42.91859" lon="0.75807">
        <ele>1330</ele>
        <time>2024-08-03T12:40:14Z</time>
      </trkpt>
      <trkpt lat="42.91865" lon="0.75839">
        <ele>1328</ele>
        <time>2024-08-03T12:40:18Z</time>
      </trkpt>
      <trkpt lat="42.9188" lon="0.75864">
        <ele>1334</ele>
        <time>2024-08-03T12:40:22Z</time>
      </trkpt>
      <trkpt lat="42.91905" lon="0.75891">
        <ele>1343</ele>
        <time>2024-08-03T12:40:28Z</time>
      </trkpt>
      <trkpt lat="42.91909" lon="0.75906">
        <ele>1342</ele>
        <time>2024-08-03T12:40:30Z</time>
      </trkpt>
      <trkpt lat="42.91908" lon="0.75941">
        <ele>1342</ele>
        <time>2024-08-03T12:40:35Z</time>
      </trkpt>
      <trkpt lat="42.91899" lon="0.75986">
        <ele>1342</ele>
        <time>2024-08-03T12:40:41Z</time>
      </trkpt>
      <trkpt lat="42.91899" lon="0.7604">
        <ele>1348</ele>
        <time>2024-08-03T12:40:48Z</time>
      </trkpt>
      <trkpt lat="42.91908" lon="0.76088">
        <ele>1355</ele>
        <time>2024-08-03T12:40:54Z</time>
      </trkpt>
      <trkpt lat="42.91919" lon="0.76134">
        <ele>1358</ele>
        <time>2024-08-03T12:41:01Z</time>
      </trkpt>
      <trkpt lat="42.91933" lon="0.76171">
        <ele>1360</ele>
        <time>2024-08-03T12:41:06Z</time>
      </trkpt>
      <trkpt lat="42.91893" lon="0.76167">
        <ele>1359</ele>
        <time>2024-08-03T12:41:13Z</time>
      </trkpt>
      <trkpt lat="42.91893" lon="0.76167">
        <ele>1359</ele>
        <time>2024-08-03T12:41:13Z</time>
      </trkpt>
      <trkpt lat="42.91933" lon="0.76171">
        <ele>1360</ele>
        <time>2024-08-03T12:41:20Z</time>
      </trkpt>
      <trkpt lat="42.91937" lon="0.76182">
        <ele>1360</ele>
        <time>2024-08-03T12:41:22Z</time>
      </trkpt>
      <trkpt lat="42.9194" lon="0.76211">
        <ele>1359</ele>
        <time>2024-08-03T12:41:26Z</time>
      </trkpt>
      <trkpt lat="42.91927" lon="0.7631">
        <ele>1355</ele>
        <time>2024-08-03T12:41:39Z</time>
      </trkpt>
      <trkpt lat="42.91917" lon="0.76417">
        <ele>1348</ele>
        <time>2024-08-03T12:41:53Z</time>
      </trkpt>
      <trkpt lat="42.9191" lon="0.76473">
        <ele>1346</ele>
        <time>2024-08-03T12:42:00Z</time>
      </trkpt>
      <trkpt lat="42.91903" lon="0.76588">
        <ele>1340</ele>
        <time>2024-08-03T12:42:15Z</time>
      </trkpt>
      <trkpt lat="42.91901" lon="0.76621">
        <ele>1339</ele>
        <time>2024-08-03T12:42:20Z</time>
      </trkpt>
      <trkpt lat="42.91902" lon="0.76666">
        <ele>1336</ele>
        <time>2024-08-03T12:42:26Z</time>
      </trkpt>
      <trkpt lat="42.91903" lon="0.76693">
        <ele>1334</ele>
        <time>2024-08-03T12:42:29Z</time>
      </trkpt>
      <trkpt lat="42.9191" lon="0.76769">
        <ele>1325</ele>
        <time>2024-08-03T12:42:39Z</time>
      </trkpt>
      <trkpt lat="42.91911" lon="0.76796">
        <ele>1321</ele>
        <time>2024-08-03T12:42:43Z</time>
      </trkpt>
      <trkpt lat="42.91909" lon="0.76823">
        <ele>1319</ele>
        <time>2024-08-03T12:42:46Z</time>
      </trkpt>
      <trkpt lat="42.91906" lon="0.7685">
        <ele>1316</ele>
        <time>2024-08-03T12:42:50Z</time>
      </trkpt>
      <trkpt lat="42.91898" lon="0.76873">
        <ele>1314</ele>
        <time>2024-08-03T12:42:53Z</time>
      </trkpt>
      <trkpt lat="42.91885" lon="0.76893">
        <ele>1314</ele>
        <time>2024-08-03T12:42:56Z</time>
      </trkpt>
      <trkpt lat="42.91837" lon="0.76927">
        <ele>1319</ele>
        <time>2024-08-03T12:43:06Z</time>
      </trkpt>
      <trkpt lat="42.91824" lon="0.76942">
        <ele>1318</ele>
        <time>2024-08-03T12:43:09Z</time>
      </trkpt>
      <trkpt lat="42.91817" lon="0.76955">
        <ele>1317</ele>
        <time>2024-08-03T12:43:11Z</time>
      </trkpt>
      <trkpt lat="42.91813" lon="0.76971">
        <ele>1315</ele>
        <time>2024-08-03T12:43:13Z</time>
      </trkpt>
      <trkpt lat="42.91822" lon="0.77017">
        <ele>1305</ele>
        <time>2024-08-03T12:43:20Z</time>
      </trkpt>
      <trkpt lat="42.91827" lon="0.77072">
        <ele>1300</ele>
        <time>2024-08-03T12:43:27Z</time>
      </trkpt>
      <trkpt lat="42.91826" lon="0.77105">
        <ele>1298</ele>
        <time>2024-08-03T12:43:31Z</time>
      </trkpt>
      <trkpt lat="42.91822" lon="0.77145">
        <ele>1297</ele>
        <time>2024-08-03T12:43:36Z</time>
      </trkpt>
      <trkpt lat="42.91828" lon="0.77181">
        <ele>1295</ele>
        <time>2024-08-03T12:43:41Z</time>
      </trkpt>
      <trkpt lat="42.9184" lon="0.77207">
        <ele>1292</ele>
        <time>2024-08-03T12:43:45Z</time>
      </trkpt>
      <trkpt lat="42.91876" lon="0.77252">
        <ele>1286</ele>
        <time>2024-08-03T12:43:54Z</time>
      </trkpt>
      <trkpt lat="42.91891" lon="0.77279">
        <ele>1283</ele>
        <time>2024-08-03T12:43:58Z</time>
      </trkpt>
      <trkpt lat="42.91901" lon="0.77309">
        <ele>1280</ele>
        <time>2024-08-03T12:44:03Z</time>
      </trkpt>
      <trkpt lat="42.91906" lon="0.77338">
        <ele>1278</ele>
        <time>2024-08-03T12:44:07Z</time>
      </trkpt>
      <trkpt lat="42.91905" lon="0.77366">
        <ele>1276</ele>
        <time>2024-08-03T12:44:10Z</time>
      </trkpt>
      <trkpt lat="42.91901" lon="0.77388">
        <ele>1276</ele>
        <time>2024-08-03T12:44:13Z</time>
      </trkpt>
      <trkpt lat="42.91886" lon="0.77453">
        <ele>1273</ele>
        <time>2024-08-03T12:44:22Z</time>
      </trkpt>
      <trkpt lat="42.91887" lon="0.77481">
        <ele>1269</ele>
        <time>2024-08-03T12:44:26Z</time>
      </trkpt>
      <trkpt lat="42.91895" lon="0.77513">
        <ele>1265</ele>
        <time>2024-08-03T12:44:30Z</time>
      </trkpt>
      <trkpt lat="42.91911" lon="0.77569">
        <ele>1259</ele>
        <time>2024-08-03T12:44:38Z</time>
      </trkpt>
      <trkpt lat="42.91915" lon="0.77588">
        <ele>1258</ele>
        <time>2024-08-03T12:44:40Z</time>
      </trkpt>
      <trkpt lat="42.9191" lon="0.776">
        <ele>1257</ele>
        <time>2024-08-03T12:44:42Z</time>
      </trkpt>
      <trkpt lat="42.91901" lon="0.77602">
        <ele>1256</ele>
        <time>2024-08-03T12:44:44Z</time>
      </trkpt>
      <trkpt lat="42.91884" lon="0.77597">
        <ele>1256</ele>
        <time>2024-08-03T12:44:47Z</time>
      </trkpt>
      <trkpt lat="42.91863" lon="0.77588">
        <ele>1257</ele>
        <time>2024-08-03T12:44:51Z</time>
      </trkpt>
      <trkpt lat="42.91845" lon="0.77584">
        <ele>1258</ele>
        <time>2024-08-03T12:44:54Z</time>
      </trkpt>
      <trkpt lat="42.91827" lon="0.77584">
        <ele>1258</ele>
        <time>2024-08-03T12:44:57Z</time>
      </trkpt>
      <trkpt lat="42.91819" lon="0.77589">
        <ele>1257</ele>
        <time>2024-08-03T12:44:59Z</time>
      </trkpt>
      <trkpt lat="42.91817" lon="0.77599">
        <ele>1254</ele>
        <time>2024-08-03T12:45:00Z</time>
      </trkpt>
      <trkpt lat="42.9182" lon="0.77608">
        <ele>1251</ele>
        <time>2024-08-03T12:45:02Z</time>
      </trkpt>
      <trkpt lat="42.91831" lon="0.77612">
        <ele>1250</ele>
        <time>2024-08-03T12:45:04Z</time>
      </trkpt>
      <trkpt lat="42.91849" lon="0.77613">
        <ele>1251</ele>
        <time>2024-08-03T12:45:07Z</time>
      </trkpt>
      <trkpt lat="42.91864" lon="0.77621">
        <ele>1250</ele>
        <time>2024-08-03T12:45:10Z</time>
      </trkpt>
      <trkpt lat="42.91892" lon="0.77681">
        <ele>1245</ele>
        <time>2024-08-03T12:45:19Z</time>
      </trkpt>
      <trkpt lat="42.91906" lon="0.77701">
        <ele>1243</ele>
        <time>2024-08-03T12:45:23Z</time>
      </trkpt>
      <trkpt lat="42.91914" lon="0.77717">
        <ele>1242</ele>
        <time>2024-08-03T12:45:25Z</time>
      </trkpt>
      <trkpt lat="42.91918" lon="0.77732">
        <ele>1240</ele>
        <time>2024-08-03T12:45:27Z</time>
      </trkpt>
      <trkpt lat="42.91949" lon="0.77848">
        <ele>1233</ele>
        <time>2024-08-03T12:45:43Z</time>
      </trkpt>
      <trkpt lat="42.91955" lon="0.77876">
        <ele>1229</ele>
        <time>2024-08-03T12:45:47Z</time>
      </trkpt>
      <trkpt lat="42.91984" lon="0.77936">
        <ele>1231</ele>
        <time>2024-08-03T12:45:56Z</time>
      </trkpt>
      <trkpt lat="42.91983" lon="0.77943">
        <ele>1228</ele>
        <time>2024-08-03T12:45:57Z</time>
      </trkpt>
      <trkpt lat="42.91979" lon="0.7795">
        <ele>1223</ele>
        <time>2024-08-03T12:45:58Z</time>
      </trkpt>
      <trkpt lat="42.91974" lon="0.77948">
        <ele>1221</ele>
        <time>2024-08-03T12:45:59Z</time>
      </trkpt>
      <trkpt lat="42.91955" lon="0.77902">
        <ele>1220</ele>
        <time>2024-08-03T12:46:06Z</time>
      </trkpt>
      <trkpt lat="42.91932" lon="0.77856">
        <ele>1219</ele>
        <time>2024-08-03T12:46:14Z</time>
      </trkpt>
      <trkpt lat="42.91903" lon="0.77812">
        <ele>1217</ele>
        <time>2024-08-03T12:46:21Z</time>
      </trkpt>
      <trkpt lat="42.91896" lon="0.77802">
        <ele>1217</ele>
        <time>2024-08-03T12:46:23Z</time>
      </trkpt>
      <trkpt lat="42.91886" lon="0.77792">
        <ele>1215</ele>
        <time>2024-08-03T12:46:25Z</time>
      </trkpt>
      <trkpt lat="42.91846" lon="0.77787">
        <ele>1203</ele>
        <time>2024-08-03T12:46:32Z</time>
      </trkpt>
      <trkpt lat="42.91822" lon="0.77777">
        <ele>1204</ele>
        <time>2024-08-03T12:46:37Z</time>
      </trkpt>
      <trkpt lat="42.91816" lon="0.77777">
        <ele>1206</ele>
        <time>2024-08-03T12:46:38Z</time>
      </trkpt>
      <trkpt lat="42.91813" lon="0.77785">
        <ele>1206</ele>
        <time>2024-08-03T12:46:39Z</time>
      </trkpt>
      <trkpt lat="42.91815" lon="0.77793">
        <ele>1204</ele>
        <time>2024-08-03T12:46:40Z</time>
      </trkpt>
      <trkpt lat="42.91841" lon="0.77813">
        <ele>1198</ele>
        <time>2024-08-03T12:46:46Z</time>
      </trkpt>
      <trkpt lat="42.919" lon="0.77878">
        <ele>1198</ele>
        <time>2024-08-03T12:46:59Z</time>
      </trkpt>
      <trkpt lat="42.91903" lon="0.77885">
        <ele>1196</ele>
        <time>2024-08-03T12:47:00Z</time>
      </trkpt>
      <trkpt lat="42.91901" lon="0.77893">
        <ele>1194</ele>
        <time>2024-08-03T12:47:01Z</time>
      </trkpt>
      <trkpt lat="42.91895" lon="0.77895">
        <ele>1192</ele>
        <time>2024-08-03T12:47:02Z</time>
      </trkpt>
      <trkpt lat="42.91874" lon="0.77879">
        <ele>1193</ele>
        <time>2024-08-03T12:47:07Z</time>
      </trkpt>
      <trkpt lat="42.91864" lon="0.77877">
        <ele>1192</ele>
        <time>2024-08-03T12:47:08Z</time>
      </trkpt>
      <trkpt lat="42.91844" lon="0.77878">
        <ele>1188</ele>
        <time>2024-08-03T12:47:12Z</time>
      </trkpt>
      <trkpt lat="42.91834" lon="0.77875">
        <ele>1187</ele>
        <time>2024-08-03T12:47:14Z</time>
      </trkpt>
      <trkpt lat="42.91828" lon="0.77875">
        <ele>1189</ele>
        <time>2024-08-03T12:47:15Z</time>
      </trkpt>
      <trkpt lat="42.91824" lon="0.77883">
        <ele>1189</ele>
        <time>2024-08-03T12:47:16Z</time>
      </trkpt>
      <trkpt lat="42.91828" lon="0.7789">
        <ele>1187</ele>
        <time>2024-08-03T12:47:17Z</time>
      </trkpt>
      <trkpt lat="42.91854" lon="0.77901">
        <ele>1186</ele>
        <time>2024-08-03T12:47:22Z</time>
      </trkpt>
      <trkpt lat="42.91873" lon="0.77913">
        <ele>1185</ele>
        <time>2024-08-03T12:47:26Z</time>
      </trkpt>
      <trkpt lat="42.91884" lon="0.77925">
        <ele>1184</ele>
        <time>2024-08-03T12:47:28Z</time>
      </trkpt>
      <trkpt lat="42.91891" lon="0.77939">
        <ele>1183</ele>
        <time>2024-08-03T12:47:31Z</time>
      </trkpt>
      <trkpt lat="42.91925" lon="0.78043">
        <ele>1170</ele>
        <time>2024-08-03T12:47:45Z</time>
      </trkpt>
      <trkpt lat="42.91933" lon="0.78062">
        <ele>1170</ele>
        <time>2024-08-03T12:47:48Z</time>
      </trkpt>
      <trkpt lat="42.91954" lon="0.78094">
        <ele>1172</ele>
        <time>2024-08-03T12:47:54Z</time>
      </trkpt>
      <trkpt lat="42.91981" lon="0.78142">
        <ele>1167</ele>
        <time>2024-08-03T12:48:02Z</time>
      </trkpt>
      <trkpt lat="42.92011" lon="0.78201">
        <ele>1158</ele>
        <time>2024-08-03T12:48:11Z</time>
      </trkpt>
      <trkpt lat="42.92021" lon="0.78219">
        <ele>1156</ele>
        <time>2024-08-03T12:48:14Z</time>
      </trkpt>
      <trkpt lat="42.92043" lon="0.78236">
        <ele>1160</ele>
        <time>2024-08-03T12:48:18Z</time>
      </trkpt>
      <trkpt lat="42.92046" lon="0.78244">
        <ele>1158</ele>
        <time>2024-08-03T12:48:20Z</time>
      </trkpt>
      <trkpt lat="42.92044" lon="0.7825">
        <ele>1155</ele>
        <time>2024-08-03T12:48:21Z</time>
      </trkpt>
      <trkpt lat="42.92038" lon="0.78255">
        <ele>1150</ele>
        <time>2024-08-03T12:48:22Z</time>
      </trkpt>
      <trkpt lat="42.92032" lon="0.7825">
        <ele>1149</ele>
        <time>2024-08-03T12:48:23Z</time>
      </trkpt>
      <trkpt lat="42.91954" lon="0.78156">
        <ele>1153</ele>
        <time>2024-08-03T12:48:42Z</time>
      </trkpt>
      <trkpt lat="42.91943" lon="0.78146">
        <ele>1153</ele>
        <time>2024-08-03T12:48:44Z</time>
      </trkpt>
      <trkpt lat="42.91935" lon="0.78142">
        <ele>1151</ele>
        <time>2024-08-03T12:48:45Z</time>
      </trkpt>
      <trkpt lat="42.9193" lon="0.78144">
        <ele>1149</ele>
        <time>2024-08-03T12:48:46Z</time>
      </trkpt>
      <trkpt lat="42.91928" lon="0.78152">
        <ele>1146</ele>
        <time>2024-08-03T12:48:47Z</time>
      </trkpt>
      <trkpt lat="42.91933" lon="0.7816">
        <ele>1146</ele>
        <time>2024-08-03T12:48:49Z</time>
      </trkpt>
      <trkpt lat="42.91946" lon="0.78168">
        <ele>1148</ele>
        <time>2024-08-03T12:48:51Z</time>
      </trkpt>
      <trkpt lat="42.91958" lon="0.7818">
        <ele>1149</ele>
        <time>2024-08-03T12:48:54Z</time>
      </trkpt>
      <trkpt lat="42.91975" lon="0.78216">
        <ele>1144</ele>
        <time>2024-08-03T12:49:00Z</time>
      </trkpt>
      <trkpt lat="42.91992" lon="0.7824">
        <ele>1138</ele>
        <time>2024-08-03T12:49:04Z</time>
      </trkpt>
      <trkpt lat="42.92037" lon="0.78321">
        <ele>1127</ele>
        <time>2024-08-03T12:49:17Z</time>
      </trkpt>
      <trkpt lat="42.92048" lon="0.78345">
        <ele>1125</ele>
        <time>2024-08-03T12:49:21Z</time>
      </trkpt>
      <trkpt lat="42.92053" lon="0.78365">
        <ele>1123</ele>
        <time>2024-08-03T12:49:24Z</time>
      </trkpt>
      <trkpt lat="42.92055" lon="0.78387">
        <ele>1119</ele>
        <time>2024-08-03T12:49:26Z</time>
      </trkpt>
      <trkpt lat="42.92063" lon="0.78408">
        <ele>1118</ele>
        <time>2024-08-03T12:49:30Z</time>
      </trkpt>
      <trkpt lat="42.92091" lon="0.78452">
        <ele>1120</ele>
        <time>2024-08-03T12:49:37Z</time>
      </trkpt>
      <trkpt lat="42.92097" lon="0.78468">
        <ele>1120</ele>
        <time>2024-08-03T12:49:40Z</time>
      </trkpt>
      <trkpt lat="42.92106" lon="0.78525">
        <ele>1113</ele>
        <time>2024-08-03T12:49:47Z</time>
      </trkpt>
      <trkpt lat="42.92128" lon="0.78595">
        <ele>1113</ele>
        <time>2024-08-03T12:49:57Z</time>
      </trkpt>
      <trkpt lat="42.92134" lon="0.78622">
        <ele>1111</ele>
        <time>2024-08-03T12:50:01Z</time>
      </trkpt>
      <trkpt lat="42.92143" lon="0.7867">
        <ele>1108</ele>
        <time>2024-08-03T12:50:07Z</time>
      </trkpt>
      <trkpt lat="42.92151" lon="0.78694">
        <ele>1109</ele>
        <time>2024-08-03T12:50:11Z</time>
      </trkpt>
      <trkpt lat="42.92151" lon="0.78702">
        <ele>1108</ele>
        <time>2024-08-03T12:50:12Z</time>
      </trkpt>
      <trkpt lat="42.92149" lon="0.78705">
        <ele>1106</ele>
        <time>2024-08-03T12:50:12Z</time>
      </trkpt>
      <trkpt lat="42.92144" lon="0.78708">
        <ele>1101</ele>
        <time>2024-08-03T12:50:13Z</time>
      </trkpt>
      <trkpt lat="42.92141" lon="0.78706">
        <ele>1100</ele>
        <time>2024-08-03T12:50:14Z</time>
      </trkpt>
      <trkpt lat="42.92136" lon="0.78674">
        <ele>1102</ele>
        <time>2024-08-03T12:50:18Z</time>
      </trkpt>
      <trkpt lat="42.92125" lon="0.78642">
        <ele>1101</ele>
        <time>2024-08-03T12:50:23Z</time>
      </trkpt>
      <trkpt lat="42.92115" lon="0.78614">
        <ele>1100</ele>
        <time>2024-08-03T12:50:27Z</time>
      </trkpt>
      <trkpt lat="42.92106" lon="0.78598">
        <ele>1097</ele>
        <time>2024-08-03T12:50:29Z</time>
      </trkpt>
      <trkpt lat="42.92094" lon="0.78587">
        <ele>1091</ele>
        <time>2024-08-03T12:50:32Z</time>
      </trkpt>
      <trkpt lat="42.92083" lon="0.7858">
        <ele>1086</ele>
        <time>2024-08-03T12:50:34Z</time>
      </trkpt>
      <trkpt lat="42.92071" lon="0.78566">
        <ele>1085</ele>
        <time>2024-08-03T12:50:37Z</time>
      </trkpt>
      <trkpt lat="42.92061" lon="0.78547">
        <ele>1086</ele>
        <time>2024-08-03T12:50:40Z</time>
      </trkpt>
      <trkpt lat="42.92056" lon="0.78529">
        <ele>1088</ele>
        <time>2024-08-03T12:50:42Z</time>
      </trkpt>
      <trkpt lat="42.92051" lon="0.78525">
        <ele>1087</ele>
        <time>2024-08-03T12:50:43Z</time>
      </trkpt>
      <trkpt lat="42.92047" lon="0.78527">
        <ele>1085</ele>
        <time>2024-08-03T12:50:44Z</time>
      </trkpt>
      <trkpt lat="42.92045" lon="0.78536">
        <ele>1083</ele>
        <time>2024-08-03T12:50:45Z</time>
      </trkpt>
      <trkpt lat="42.92052" lon="0.78555">
        <ele>1081</ele>
        <time>2024-08-03T12:50:48Z</time>
      </trkpt>
      <trkpt lat="42.92085" lon="0.78619">
        <ele>1078</ele>
        <time>2024-08-03T12:50:58Z</time>
      </trkpt>
      <trkpt lat="42.92095" lon="0.7864">
        <ele>1080</ele>
        <time>2024-08-03T12:51:02Z</time>
      </trkpt>
      <trkpt lat="42.92098" lon="0.78656">
        <ele>1078</ele>
        <time>2024-08-03T12:51:04Z</time>
      </trkpt>
      <trkpt lat="42.92106" lon="0.78722">
        <ele>1072</ele>
        <time>2024-08-03T12:51:13Z</time>
      </trkpt>
      <trkpt lat="42.92116" lon="0.7879">
        <ele>1067</ele>
        <time>2024-08-03T12:51:22Z</time>
      </trkpt>
      <trkpt lat="42.92125" lon="0.7882">
        <ele>1069</ele>
        <time>2024-08-03T12:51:26Z</time>
      </trkpt>
      <trkpt lat="42.9213" lon="0.78846">
        <ele>1068</ele>
        <time>2024-08-03T12:51:29Z</time>
      </trkpt>
      <trkpt lat="42.92137" lon="0.78892">
        <ele>1065</ele>
        <time>2024-08-03T12:51:35Z</time>
      </trkpt>
      <trkpt lat="42.92141" lon="0.78984">
        <ele>1051</ele>
        <time>2024-08-03T12:51:47Z</time>
      </trkpt>
      <trkpt lat="42.92146" lon="0.79019">
        <ele>1048</ele>
        <time>2024-08-03T12:51:52Z</time>
      </trkpt>
      <trkpt lat="42.92148" lon="0.79051">
        <ele>1043</ele>
        <time>2024-08-03T12:51:56Z</time>
      </trkpt>
      <trkpt lat="42.92153" lon="0.79065">
        <ele>1043</ele>
        <time>2024-08-03T12:51:58Z</time>
      </trkpt>
      <trkpt lat="42.92162" lon="0.79079">
        <ele>1046</ele>
        <time>2024-08-03T12:52:01Z</time>
      </trkpt>
      <trkpt lat="42.92162" lon="0.79086">
        <ele>1044</ele>
        <time>2024-08-03T12:52:02Z</time>
      </trkpt>
      <trkpt lat="42.92157" lon="0.79093">
        <ele>1040</ele>
        <time>2024-08-03T12:52:03Z</time>
      </trkpt>
      <trkpt lat="42.9215" lon="0.79092">
        <ele>1036</ele>
        <time>2024-08-03T12:52:04Z</time>
      </trkpt>
      <trkpt lat="42.92111" lon="0.78985">
        <ele>1032</ele>
        <time>2024-08-03T12:52:20Z</time>
      </trkpt>
      <trkpt lat="42.92106" lon="0.78935">
        <ele>1036</ele>
        <time>2024-08-03T12:52:26Z</time>
      </trkpt>
      <trkpt lat="42.921" lon="0.78919">
        <ele>1034</ele>
        <time>2024-08-03T12:52:29Z</time>
      </trkpt>
      <trkpt lat="42.92092" lon="0.7891">
        <ele>1030</ele>
        <time>2024-08-03T12:52:30Z</time>
      </trkpt>
      <trkpt lat="42.92067" lon="0.7889">
        <ele>1023</ele>
        <time>2024-08-03T12:52:36Z</time>
      </trkpt>
      <trkpt lat="42.92062" lon="0.78876">
        <ele>1023</ele>
        <time>2024-08-03T12:52:38Z</time>
      </trkpt>
      <trkpt lat="42.92061" lon="0.78863">
        <ele>1025</ele>
        <time>2024-08-03T12:52:39Z</time>
      </trkpt>
      <trkpt lat="42.92063" lon="0.78849">
        <ele>1028</ele>
        <time>2024-08-03T12:52:41Z</time>
      </trkpt>
      <trkpt lat="42.92061" lon="0.78841">
        <ele>1028</ele>
        <time>2024-08-03T12:52:42Z</time>
      </trkpt>
      <trkpt lat="42.92056" lon="0.78838">
        <ele>1027</ele>
        <time>2024-08-03T12:52:43Z</time>
      </trkpt>
      <trkpt lat="42.92051" lon="0.78841">
        <ele>1025</ele>
        <time>2024-08-03T12:52:44Z</time>
      </trkpt>
      <trkpt lat="42.92047" lon="0.78849">
        <ele>1023</ele>
        <time>2024-08-03T12:52:46Z</time>
      </trkpt>
      <trkpt lat="42.92036" lon="0.78881">
        <ele>1015</ele>
        <time>2024-08-03T12:52:50Z</time>
      </trkpt>
      <trkpt lat="42.92034" lon="0.78894">
        <ele>1013</ele>
        <time>2024-08-03T12:52:52Z</time>
      </trkpt>
      <trkpt lat="42.92034" lon="0.78908">
        <ele>1011</ele>
        <time>2024-08-03T12:52:54Z</time>
      </trkpt>
      <trkpt lat="42.92064" lon="0.79003">
        <ele>1004</ele>
        <time>2024-08-03T12:53:07Z</time>
      </trkpt>
      <trkpt lat="42.92102" lon="0.79108">
        <ele>1003</ele>
        <time>2024-08-03T12:53:22Z</time>
      </trkpt>
      <trkpt lat="42.92107" lon="0.79134">
        <ele>1001</ele>
        <time>2024-08-03T12:53:26Z</time>
      </trkpt>
      <trkpt lat="42.9211" lon="0.79162">
        <ele>997</ele>
        <time>2024-08-03T12:53:30Z</time>
      </trkpt>
      <trkpt lat="42.92115" lon="0.79242">
        <ele>981</ele>
        <time>2024-08-03T12:53:40Z</time>
      </trkpt>
      <trkpt lat="42.9212" lon="0.79271">
        <ele>977</ele>
        <time>2024-08-03T12:53:44Z</time>
      </trkpt>
      <trkpt lat="42.9214" lon="0.79309">
        <ele>978</ele>
        <time>2024-08-03T12:53:50Z</time>
      </trkpt>
      <trkpt lat="42.92149" lon="0.79334">
        <ele>976</ele>
        <time>2024-08-03T12:53:54Z</time>
      </trkpt>
      <trkpt lat="42.92163" lon="0.79407">
        <ele>970</ele>
        <time>2024-08-03T12:54:04Z</time>
      </trkpt>
      <trkpt lat="42.92172" lon="0.79431">
        <ele>970</ele>
        <time>2024-08-03T12:54:07Z</time>
      </trkpt>
      <trkpt lat="42.92194" lon="0.79465">
        <ele>976</ele>
        <time>2024-08-03T12:54:13Z</time>
      </trkpt>
      <trkpt lat="42.92201" lon="0.79482">
        <ele>976</ele>
        <time>2024-08-03T12:54:15Z</time>
      </trkpt>
      <trkpt lat="42.92207" lon="0.79504">
        <ele>976</ele>
        <time>2024-08-03T12:54:19Z</time>
      </trkpt>
      <trkpt lat="42.92219" lon="0.7958">
        <ele>971</ele>
        <time>2024-08-03T12:54:29Z</time>
      </trkpt>
      <trkpt lat="42.92224" lon="0.79648">
        <ele>964</ele>
        <time>2024-08-03T12:54:38Z</time>
      </trkpt>
      <trkpt lat="42.92228" lon="0.79682">
        <ele>960</ele>
        <time>2024-08-03T12:54:42Z</time>
      </trkpt>
      <trkpt lat="42.92236" lon="0.7972">
        <ele>954</ele>
        <time>2024-08-03T12:54:47Z</time>
      </trkpt>
      <trkpt lat="42.92244" lon="0.79745">
        <ele>952</ele>
        <time>2024-08-03T12:54:51Z</time>
      </trkpt>
      <trkpt lat="42.92313" lon="0.79903">
        <ele>942</ele>
        <time>2024-08-03T12:55:15Z</time>
      </trkpt>
      <trkpt lat="42.92354" lon="0.79977">
        <ele>937</ele>
        <time>2024-08-03T12:55:27Z</time>
      </trkpt>
      <trkpt lat="42.92395" lon="0.80075">
        <ele>926</ele>
        <time>2024-08-03T12:55:42Z</time>
      </trkpt>
      <trkpt lat="42.92411" lon="0.80102">
        <ele>923</ele>
        <time>2024-08-03T12:55:46Z</time>
      </trkpt>
      <trkpt lat="42.9243" lon="0.80121">
        <ele>920</ele>
        <time>2024-08-03T12:55:50Z</time>
      </trkpt>
      <trkpt lat="42.92433" lon="0.80126">
        <ele>918</ele>
        <time>2024-08-03T12:55:51Z</time>
      </trkpt>
      <trkpt lat="42.9243" lon="0.80134">
        <ele>914</ele>
        <time>2024-08-03T12:55:52Z</time>
      </trkpt>
      <trkpt lat="42.92426" lon="0.80134">
        <ele>914</ele>
        <time>2024-08-03T12:55:53Z</time>
      </trkpt>
      <trkpt lat="42.9242" lon="0.80131">
        <ele>914</ele>
        <time>2024-08-03T12:55:54Z</time>
      </trkpt>
      <trkpt lat="42.92415" lon="0.80124">
        <ele>916</ele>
        <time>2024-08-03T12:55:55Z</time>
      </trkpt>
      <trkpt lat="42.92351" lon="0.80068">
        <ele>909</ele>
        <time>2024-08-03T12:56:09Z</time>
      </trkpt>
      <trkpt lat="42.92336" lon="0.80051">
        <ele>907</ele>
        <time>2024-08-03T12:56:12Z</time>
      </trkpt>
      <trkpt lat="42.92308" lon="0.80014">
        <ele>906</ele>
        <time>2024-08-03T12:56:19Z</time>
      </trkpt>
      <trkpt lat="42.92289" lon="0.79996">
        <ele>904</ele>
        <time>2024-08-03T12:56:23Z</time>
      </trkpt>
      <trkpt lat="42.92269" lon="0.79982">
        <ele>900</ele>
        <time>2024-08-03T12:56:27Z</time>
      </trkpt>
      <trkpt lat="42.92257" lon="0.79969">
        <ele>898</ele>
        <time>2024-08-03T12:56:30Z</time>
      </trkpt>
      <trkpt lat="42.92247" lon="0.79953">
        <ele>898</ele>
        <time>2024-08-03T12:56:33Z</time>
      </trkpt>
      <trkpt lat="42.92237" lon="0.79928">
        <ele>900</ele>
        <time>2024-08-03T12:56:37Z</time>
      </trkpt>
      <trkpt lat="42.92228" lon="0.79926">
        <ele>897</ele>
        <time>2024-08-03T12:56:38Z</time>
      </trkpt>
      <trkpt lat="42.92223" lon="0.79934">
        <ele>893</ele>
        <time>2024-08-03T12:56:40Z</time>
      </trkpt>
      <trkpt lat="42.92226" lon="0.79948">
        <ele>891</ele>
        <time>2024-08-03T12:56:41Z</time>
      </trkpt>
      <trkpt lat="42.92251" lon="0.80011">
        <ele>887</ele>
        <time>2024-08-03T12:56:51Z</time>
      </trkpt>
      <trkpt lat="42.92303" lon="0.80147">
        <ele>876</ele>
        <time>2024-08-03T12:57:11Z</time>
      </trkpt>
      <trkpt lat="42.92307" lon="0.80165">
        <ele>873</ele>
        <time>2024-08-03T12:57:13Z</time>
      </trkpt>
      <trkpt lat="42.92313" lon="0.80214">
        <ele>863</ele>
        <time>2024-08-03T12:57:20Z</time>
      </trkpt>
      <trkpt lat="42.92316" lon="0.80226">
        <ele>861</ele>
        <time>2024-08-03T12:57:21Z</time>
      </trkpt>
      <trkpt lat="42.92322" lon="0.80235">
        <ele>861</ele>
        <time>2024-08-03T12:57:23Z</time>
      </trkpt>
      <trkpt lat="42.92332" lon="0.80243">
        <ele>861</ele>
        <time>2024-08-03T12:57:25Z</time>
      </trkpt>
      <trkpt lat="42.92388" lon="0.8026">
        <ele>859</ele>
        <time>2024-08-03T12:57:35Z</time>
      </trkpt>
      <trkpt lat="42.92407" lon="0.80257">
        <ele>861</ele>
        <time>2024-08-03T12:57:39Z</time>
      </trkpt>
      <trkpt lat="42.92412" lon="0.80259">
        <ele>861</ele>
        <time>2024-08-03T12:57:40Z</time>
      </trkpt>
      <trkpt lat="42.92414" lon="0.80264">
        <ele>858</ele>
        <time>2024-08-03T12:57:40Z</time>
      </trkpt>
      <trkpt lat="42.92413" lon="0.80271">
        <ele>855</ele>
        <time>2024-08-03T12:57:41Z</time>
      </trkpt>
      <trkpt lat="42.92407" lon="0.80273">
        <ele>854</ele>
        <time>2024-08-03T12:57:42Z</time>
      </trkpt>
      <trkpt lat="42.92355" lon="0.80279">
        <ele>852</ele>
        <time>2024-08-03T12:57:52Z</time>
      </trkpt>
      <trkpt lat="42.92336" lon="0.80286">
        <ele>850</ele>
        <time>2024-08-03T12:57:55Z</time>
      </trkpt>
      <trkpt lat="42.92295" lon="0.80288">
        <ele>842</ele>
        <time>2024-08-03T12:58:02Z</time>
      </trkpt>
      <trkpt lat="42.92269" lon="0.80302">
        <ele>833</ele>
        <time>2024-08-03T12:58:07Z</time>
      </trkpt>
      <trkpt lat="42.9226" lon="0.80301">
        <ele>831</ele>
        <time>2024-08-03T12:58:09Z</time>
      </trkpt>
      <trkpt lat="42.92253" lon="0.80293">
        <ele>832</ele>
        <time>2024-08-03T12:58:11Z</time>
      </trkpt>
      <trkpt lat="42.92238" lon="0.8026">
        <ele>836</ele>
        <time>2024-08-03T12:58:16Z</time>
      </trkpt>
      <trkpt lat="42.92226" lon="0.80241">
        <ele>837</ele>
        <time>2024-08-03T12:58:19Z</time>
      </trkpt>
      <trkpt lat="42.9219" lon="0.80216">
        <ele>834</ele>
        <time>2024-08-03T12:58:26Z</time>
      </trkpt>
      <trkpt lat="42.92183" lon="0.80215">
        <ele>832</ele>
        <time>2024-08-03T12:58:27Z</time>
      </trkpt>
      <trkpt lat="42.9218" lon="0.80221">
        <ele>830</ele>
        <time>2024-08-03T12:58:28Z</time>
      </trkpt>
      <trkpt lat="42.92182" lon="0.80227">
        <ele>829</ele>
        <time>2024-08-03T12:58:29Z</time>
      </trkpt>
      <trkpt lat="42.92198" lon="0.80244">
        <ele>829</ele>
        <time>2024-08-03T12:58:33Z</time>
      </trkpt>
      <trkpt lat="42.92204" lon="0.8026">
        <ele>827</ele>
        <time>2024-08-03T12:58:35Z</time>
      </trkpt>
      <trkpt lat="42.92206" lon="0.80273">
        <ele>825</ele>
        <time>2024-08-03T12:58:37Z</time>
      </trkpt>
      <trkpt lat="42.92213" lon="0.80291">
        <ele>824</ele>
        <time>2024-08-03T12:58:40Z</time>
      </trkpt>
      <trkpt lat="42.92219" lon="0.80301">
        <ele>823</ele>
        <time>2024-08-03T12:58:41Z</time>
      </trkpt>
      <trkpt lat="42.92227" lon="0.8031">
        <ele>823</ele>
        <time>2024-08-03T12:58:43Z</time>
      </trkpt>
      <trkpt lat="42.92239" lon="0.80338">
        <ele>819</ele>
        <time>2024-08-03T12:58:47Z</time>
      </trkpt>
      <trkpt lat="42.92248" lon="0.80354">
        <ele>815</ele>
        <time>2024-08-03T12:58:50Z</time>
      </trkpt>
      <trkpt lat="42.9226" lon="0.8037">
        <ele>811</ele>
        <time>2024-08-03T12:58:53Z</time>
      </trkpt>
      <trkpt lat="42.92278" lon="0.80385">
        <ele>808</ele>
        <time>2024-08-03T12:58:57Z</time>
      </trkpt>
      <trkpt lat="42.92278" lon="0.80391">
        <ele>806</ele>
        <time>2024-08-03T12:58:57Z</time>
      </trkpt>
      <trkpt lat="42.92276" lon="0.80395">
        <ele>804</ele>
        <time>2024-08-03T12:58:58Z</time>
      </trkpt>
      <trkpt lat="42.9227" lon="0.80395">
        <ele>803</ele>
        <time>2024-08-03T12:58:59Z</time>
      </trkpt>
      <trkpt lat="42.92232" lon="0.80357">
        <ele>812</ele>
        <time>2024-08-03T12:59:08Z</time>
      </trkpt>
      <trkpt lat="42.92222" lon="0.80345">
        <ele>814</ele>
        <time>2024-08-03T12:59:10Z</time>
      </trkpt>
      <trkpt lat="42.92213" lon="0.80328">
        <ele>817</ele>
        <time>2024-08-03T12:59:13Z</time>
      </trkpt>
      <trkpt lat="42.92205" lon="0.8032">
        <ele>817</ele>
        <time>2024-08-03T12:59:14Z</time>
      </trkpt>
      <trkpt lat="42.9218" lon="0.80305">
        <ele>815</ele>
        <time>2024-08-03T12:59:19Z</time>
      </trkpt>
      <trkpt lat="42.92172" lon="0.80305">
        <ele>813</ele>
        <time>2024-08-03T12:59:21Z</time>
      </trkpt>
      <trkpt lat="42.92165" lon="0.8031">
        <ele>812</ele>
        <time>2024-08-03T12:59:22Z</time>
      </trkpt>
      <trkpt lat="42.92161" lon="0.80315">
        <ele>813</ele>
        <time>2024-08-03T12:59:23Z</time>
      </trkpt>
      <trkpt lat="42.92159" lon="0.80323">
        <ele>812</ele>
        <time>2024-08-03T12:59:24Z</time>
      </trkpt>
      <trkpt lat="42.92158" lon="0.80339">
        <ele>809</ele>
        <time>2024-08-03T12:59:26Z</time>
      </trkpt>
      <trkpt lat="42.92163" lon="0.80358">
        <ele>804</ele>
        <time>2024-08-03T12:59:29Z</time>
      </trkpt>
      <trkpt lat="42.92173" lon="0.8038">
        <ele>798</ele>
        <time>2024-08-03T12:59:32Z</time>
      </trkpt>
      <trkpt lat="42.92174" lon="0.80391">
        <ele>796</ele>
        <time>2024-08-03T12:59:34Z</time>
      </trkpt>
      <trkpt lat="42.92168" lon="0.804">
        <ele>793</ele>
        <time>2024-08-03T12:59:35Z</time>
      </trkpt>
      <trkpt lat="42.92155" lon="0.80403">
        <ele>793</ele>
        <time>2024-08-03T12:59:38Z</time>
      </trkpt>
      <trkpt lat="42.92131" lon="0.80388">
        <ele>800</ele>
        <time>2024-08-03T12:59:42Z</time>
      </trkpt>
      <trkpt lat="42.92121" lon="0.80388">
        <ele>801</ele>
        <time>2024-08-03T12:59:44Z</time>
      </trkpt>
      <trkpt lat="42.92106" lon="0.80398">
        <ele>800</ele>
        <time>2024-08-03T12:59:47Z</time>
      </trkpt>
      <trkpt lat="42.92092" lon="0.80412">
        <ele>796</ele>
        <time>2024-08-03T12:59:50Z</time>
      </trkpt>
      <trkpt lat="42.92086" lon="0.80423">
        <ele>795</ele>
        <time>2024-08-03T12:59:52Z</time>
      </trkpt>
      <trkpt lat="42.92087" lon="0.80435">
        <ele>794</ele>
        <time>2024-08-03T12:59:54Z</time>
      </trkpt>
      <trkpt lat="42.92109" lon="0.80484">
        <ele>790</ele>
        <time>2024-08-03T13:00:01Z</time>
      </trkpt>
      <trkpt lat="42.92116" lon="0.80496">
        <ele>789</ele>
        <time>2024-08-03T13:00:03Z</time>
      </trkpt>
      <trkpt lat="42.92147" lon="0.80556">
        <ele>802</ele>
        <time>2024-08-03T13:00:13Z</time>
      </trkpt>
      <trkpt lat="42.92184" lon="0.80587">
        <ele>802</ele>
        <time>2024-08-03T13:00:20Z</time>
      </trkpt>
      <trkpt lat="42.92232" lon="0.80617">
        <ele>803</ele>
        <time>2024-08-03T13:00:30Z</time>
      </trkpt>
      <trkpt lat="42.92266" lon="0.80627">
        <ele>803</ele>
        <time>2024-08-03T13:00:36Z</time>
      </trkpt>
      <trkpt lat="42.92285" lon="0.80625">
        <ele>804</ele>
        <time>2024-08-03T13:00:39Z</time>
      </trkpt>
      <trkpt lat="42.92313" lon="0.80614">
        <ele>803</ele>
        <time>2024-08-03T13:00:44Z</time>
      </trkpt>
      <trkpt lat="42.92345" lon="0.80606">
        <ele>807</ele>
        <time>2024-08-03T13:00:50Z</time>
      </trkpt>
      <trkpt lat="42.92383" lon="0.80592">
        <ele>818</ele>
        <time>2024-08-03T13:00:57Z</time>
      </trkpt>
      <trkpt lat="42.92406" lon="0.80527">
        <ele>806</ele>
        <time>2024-08-03T13:01:07Z</time>
      </trkpt>
      <trkpt lat="42.9242" lon="0.80505">
        <ele>802</ele>
        <time>2024-08-03T13:01:10Z</time>
      </trkpt>
      <trkpt lat="42.92441" lon="0.80499">
        <ele>803</ele>
        <time>2024-08-03T13:01:14Z</time>
      </trkpt>
      <trkpt lat="42.9246" lon="0.80506">
        <ele>808</ele>
        <time>2024-08-03T13:01:18Z</time>
      </trkpt>
      <trkpt lat="42.92486" lon="0.80506">
        <ele>811</ele>
        <time>2024-08-03T13:01:22Z</time>
      </trkpt>
      <trkpt lat="42.92503" lon="0.80503">
        <ele>811</ele>
        <time>2024-08-03T13:01:25Z</time>
      </trkpt>
      <trkpt lat="42.9252" lon="0.80507">
        <ele>808</ele>
        <time>2024-08-03T13:01:29Z</time>
      </trkpt>
      <trkpt lat="42.92529" lon="0.80522">
        <ele>812</ele>
        <time>2024-08-03T13:01:31Z</time>
      </trkpt>
      <trkpt lat="42.92584" lon="0.80585">
        <ele>820</ele>
        <time>2024-08-03T13:01:44Z</time>
      </trkpt>
      <trkpt lat="42.92626" lon="0.80646">
        <ele>814</ele>
        <time>2024-08-03T13:01:55Z</time>
      </trkpt>
      <trkpt lat="42.92631" lon="0.80649">
        <ele>811</ele>
        <time>2024-08-03T13:01:56Z</time>
      </trkpt>
      <trkpt lat="42.92645" lon="0.80673">
        <ele>808</ele>
        <time>2024-08-03T13:02:00Z</time>
      </trkpt>
      <trkpt lat="42.92666" lon="0.80722">
        <ele>802</ele>
        <time>2024-08-03T13:02:07Z</time>
      </trkpt>
      <trkpt lat="42.92676" lon="0.8074">
        <ele>801</ele>
        <time>2024-08-03T13:02:10Z</time>
      </trkpt>
      <trkpt lat="42.92694" lon="0.80752">
        <ele>799</ele>
        <time>2024-08-03T13:02:14Z</time>
      </trkpt>
      <trkpt lat="42.92724" lon="0.80753">
        <ele>792</ele>
        <time>2024-08-03T13:02:19Z</time>
      </trkpt>
      <trkpt lat="42.92731" lon="0.80758">
        <ele>791</ele>
        <time>2024-08-03T13:02:20Z</time>
      </trkpt>
      <trkpt lat="42.92742" lon="0.80779">
        <ele>793</ele>
        <time>2024-08-03T13:02:24Z</time>
      </trkpt>
      <trkpt lat="42.92754" lon="0.80795">
        <ele>794</ele>
        <time>2024-08-03T13:02:27Z</time>
      </trkpt>
      <trkpt lat="42.9277" lon="0.80802">
        <ele>797</ele>
        <time>2024-08-03T13:02:30Z</time>
      </trkpt>
      <trkpt lat="42.92776" lon="0.80796">
        <ele>796</ele>
        <time>2024-08-03T13:02:31Z</time>
      </trkpt>
      <trkpt lat="42.92788" lon="0.80776">
        <ele>792</ele>
        <time>2024-08-03T13:02:34Z</time>
      </trkpt>
      <trkpt lat="42.92791" lon="0.80765">
        <ele>790</ele>
        <time>2024-08-03T13:02:36Z</time>
      </trkpt>
      <trkpt lat="42.92806" lon="0.80742">
        <ele>785</ele>
        <time>2024-08-03T13:02:40Z</time>
      </trkpt>
      <trkpt lat="42.92822" lon="0.80722">
        <ele>780</ele>
        <time>2024-08-03T13:02:44Z</time>
      </trkpt>
      <trkpt lat="42.92846" lon="0.80679">
        <ele>765</ele>
        <time>2024-08-03T13:02:51Z</time>
      </trkpt>
      <trkpt lat="42.92855" lon="0.80666">
        <ele>761</ele>
        <time>2024-08-03T13:02:53Z</time>
      </trkpt>
      <trkpt lat="42.92873" lon="0.80648">
        <ele>756</ele>
        <time>2024-08-03T13:02:57Z</time>
      </trkpt>
      <trkpt lat="42.92878" lon="0.80648">
        <ele>756</ele>
        <time>2024-08-03T13:02:58Z</time>
      </trkpt>
      <trkpt lat="42.92889" lon="0.80655">
        <ele>758</ele>
        <time>2024-08-03T13:03:00Z</time>
      </trkpt>
      <trkpt lat="42.92898" lon="0.80665">
        <ele>761</ele>
        <time>2024-08-03T13:03:02Z</time>
      </trkpt>
      <trkpt lat="42.92923" lon="0.80687">
        <ele>767</ele>
        <time>2024-08-03T13:03:08Z</time>
      </trkpt>
      <trkpt lat="42.92958" lon="0.80701">
        <ele>766</ele>
        <time>2024-08-03T13:03:14Z</time>
      </trkpt>
      <trkpt lat="42.92977" lon="0.807">
        <ele>762</ele>
        <time>2024-08-03T13:03:17Z</time>
      </trkpt>
      <trkpt lat="42.92996" lon="0.80689">
        <ele>754</ele>
        <time>2024-08-03T13:03:21Z</time>
      </trkpt>
      <trkpt lat="42.93011" lon="0.80685">
        <ele>750</ele>
        <time>2024-08-03T13:03:24Z</time>
      </trkpt>
      <trkpt lat="42.9304" lon="0.80702">
        <ele>750</ele>
        <time>2024-08-03T13:03:29Z</time>
      </trkpt>
      <trkpt lat="42.93042" lon="0.80707">
        <ele>751</ele>
        <time>2024-08-03T13:03:30Z</time>
      </trkpt>
      <trkpt lat="42.93056" lon="0.80721">
        <ele>752</ele>
        <time>2024-08-03T13:03:33Z</time>
      </trkpt>
      <trkpt lat="42.93095" lon="0.80728">
        <ele>744</ele>
        <time>2024-08-03T13:03:40Z</time>
      </trkpt>
      <trkpt lat="42.93125" lon="0.80738">
        <ele>739</ele>
        <time>2024-08-03T13:03:46Z</time>
      </trkpt>
      <trkpt lat="42.93136" lon="0.80754">
        <ele>739</ele>
        <time>2024-08-03T13:03:49Z</time>
      </trkpt>
      <trkpt lat="42.93147" lon="0.80774">
        <ele>740</ele>
        <time>2024-08-03T13:03:52Z</time>
      </trkpt>
      <trkpt lat="42.93165" lon="0.80786">
        <ele>737</ele>
        <time>2024-08-03T13:03:55Z</time>
      </trkpt>
      <trkpt lat="42.9318" lon="0.80792">
        <ele>736</ele>
        <time>2024-08-03T13:03:58Z</time>
      </trkpt>
      <trkpt lat="42.932" lon="0.80811">
        <ele>737</ele>
        <time>2024-08-03T13:04:03Z</time>
      </trkpt>
      <trkpt lat="42.93204" lon="0.80819">
        <ele>738</ele>
        <time>2024-08-03T13:04:04Z</time>
      </trkpt>
      <trkpt lat="42.93208" lon="0.80843">
        <ele>742</ele>
        <time>2024-08-03T13:04:07Z</time>
      </trkpt>
      <trkpt lat="42.93216" lon="0.80872">
        <ele>744</ele>
        <time>2024-08-03T13:04:11Z</time>
      </trkpt>
      <trkpt lat="42.93222" lon="0.8088">
        <ele>744</ele>
        <time>2024-08-03T13:04:13Z</time>
      </trkpt>
      <trkpt lat="42.93228" lon="0.80885">
        <ele>743</ele>
        <time>2024-08-03T13:04:14Z</time>
      </trkpt>
      <trkpt lat="42.93236" lon="0.80881">
        <ele>741</ele>
        <time>2024-08-03T13:04:15Z</time>
      </trkpt>
      <trkpt lat="42.93239" lon="0.8087">
        <ele>740</ele>
        <time>2024-08-03T13:04:17Z</time>
      </trkpt>
      <trkpt lat="42.93228" lon="0.80798">
        <ele>731</ele>
        <time>2024-08-03T13:04:26Z</time>
      </trkpt>
      <trkpt lat="42.93232" lon="0.80735">
        <ele>719</ele>
        <time>2024-08-03T13:04:35Z</time>
      </trkpt>
      <trkpt lat="42.93238" lon="0.8071">
        <ele>716</ele>
        <time>2024-08-03T13:04:38Z</time>
      </trkpt>
      <trkpt lat="42.93246" lon="0.80701">
        <ele>714</ele>
        <time>2024-08-03T13:04:40Z</time>
      </trkpt>
      <trkpt lat="42.93256" lon="0.80698">
        <ele>713</ele>
        <time>2024-08-03T13:04:42Z</time>
      </trkpt>
      <trkpt lat="42.93272" lon="0.80712">
        <ele>716</ele>
        <time>2024-08-03T13:04:45Z</time>
      </trkpt>
      <trkpt lat="42.93307" lon="0.80733">
        <ele>723</ele>
        <time>2024-08-03T13:04:52Z</time>
      </trkpt>
      <trkpt lat="42.93317" lon="0.80733">
        <ele>724</ele>
        <time>2024-08-03T13:04:54Z</time>
      </trkpt>
      <trkpt lat="42.93341" lon="0.80717">
        <ele>724</ele>
        <time>2024-08-03T13:04:58Z</time>
      </trkpt>
      <trkpt lat="42.93354" lon="0.80697">
        <ele>721</ele>
        <time>2024-08-03T13:05:02Z</time>
      </trkpt>
      <trkpt lat="42.93368" lon="0.80645">
        <ele>714</ele>
        <time>2024-08-03T13:05:09Z</time>
      </trkpt>
      <trkpt lat="42.93386" lon="0.80594">
        <ele>711</ele>
        <time>2024-08-03T13:05:17Z</time>
      </trkpt>
      <trkpt lat="42.93405" lon="0.80586">
        <ele>707</ele>
        <time>2024-08-03T13:05:20Z</time>
      </trkpt>
      <trkpt lat="42.93445" lon="0.80613">
        <ele>707</ele>
        <time>2024-08-03T13:05:28Z</time>
      </trkpt>
      <trkpt lat="42.93507" lon="0.80644">
        <ele>701</ele>
        <time>2024-08-03T13:05:40Z</time>
      </trkpt>
      <trkpt lat="42.93551" lon="0.8063">
        <ele>706</ele>
        <time>2024-08-03T13:05:48Z</time>
      </trkpt>
      <trkpt lat="42.93568" lon="0.80616">
        <ele>707</ele>
        <time>2024-08-03T13:05:51Z</time>
      </trkpt>
      <trkpt lat="42.93591" lon="0.80609">
        <ele>708</ele>
        <time>2024-08-03T13:05:56Z</time>
      </trkpt>
      <trkpt lat="42.93644" lon="0.80621">
        <ele>712</ele>
        <time>2024-08-03T13:06:05Z</time>
      </trkpt>
      <trkpt lat="42.93681" lon="0.80695">
        <ele>720</ele>
        <time>2024-08-03T13:06:17Z</time>
      </trkpt>
      <trkpt lat="42.93704" lon="0.80734">
        <ele>724</ele>
        <time>2024-08-03T13:06:23Z</time>
      </trkpt>
      <trkpt lat="42.93744" lon="0.80748">
        <ele>707</ele>
        <time>2024-08-03T13:06:31Z</time>
      </trkpt>
      <trkpt lat="42.93801" lon="0.80737">
        <ele>694</ele>
        <time>2024-08-03T13:06:41Z</time>
      </trkpt>
      <trkpt lat="42.93818" lon="0.80748">
        <ele>690</ele>
        <time>2024-08-03T13:06:44Z</time>
      </trkpt>
      <trkpt lat="42.9383" lon="0.80794">
        <ele>695</ele>
        <time>2024-08-03T13:06:51Z</time>
      </trkpt>
      <trkpt lat="42.93837" lon="0.80835">
        <ele>701</ele>
        <time>2024-08-03T13:06:56Z</time>
      </trkpt>
      <trkpt lat="42.93855" lon="0.80877">
        <ele>710</ele>
        <time>2024-08-03T13:07:02Z</time>
      </trkpt>
      <trkpt lat="42.93886" lon="0.80916">
        <ele>702</ele>
        <time>2024-08-03T13:07:10Z</time>
      </trkpt>
      <trkpt lat="42.9392" lon="0.80919">
        <ele>681</ele>
        <time>2024-08-03T13:07:16Z</time>
      </trkpt>
      <trkpt lat="42.93937" lon="0.80938">
        <ele>684</ele>
        <time>2024-08-03T13:07:20Z</time>
      </trkpt>
      <trkpt lat="42.93941" lon="0.80967">
        <ele>691</ele>
        <time>2024-08-03T13:07:24Z</time>
      </trkpt>
      <trkpt lat="42.93941" lon="0.80993">
        <ele>697</ele>
        <time>2024-08-03T13:07:27Z</time>
      </trkpt>
      <trkpt lat="42.93946" lon="0.81034">
        <ele>712</ele>
        <time>2024-08-03T13:07:32Z</time>
      </trkpt>
      <trkpt lat="42.93962" lon="0.81065">
        <ele>716</ele>
        <time>2024-08-03T13:07:37Z</time>
      </trkpt>
      <trkpt lat="42.93982" lon="0.81076">
        <ele>708</ele>
        <time>2024-08-03T13:07:41Z</time>
      </trkpt>
      <trkpt lat="42.94001" lon="0.81084">
        <ele>698</ele>
        <time>2024-08-03T13:07:45Z</time>
      </trkpt>
      <trkpt lat="42.94073" lon="0.81087">
        <ele>683</ele>
        <time>2024-08-03T13:07:58Z</time>
      </trkpt>
      <trkpt lat="42.94105" lon="0.81096">
        <ele>682</ele>
        <time>2024-08-03T13:08:03Z</time>
      </trkpt>
      <trkpt lat="42.94172" lon="0.81107">
        <ele>680</ele>
        <time>2024-08-03T13:08:15Z</time>
      </trkpt>
      <trkpt lat="42.94197" lon="0.81099">
        <ele>675</ele>
        <time>2024-08-03T13:08:20Z</time>
      </trkpt>
      <trkpt lat="42.94206" lon="0.81101">
        <ele>675</ele>
        <time>2024-08-03T13:08:22Z</time>
      </trkpt>
      <trkpt lat="42.94244" lon="0.81127">
        <ele>680</ele>
        <time>2024-08-03T13:08:29Z</time>
      </trkpt>
      <trkpt lat="42.94255" lon="0.81146">
        <ele>683</ele>
        <time>2024-08-03T13:08:32Z</time>
      </trkpt>
      <trkpt lat="42.94299" lon="0.8117">
        <ele>680</ele>
        <time>2024-08-03T13:08:41Z</time>
      </trkpt>
      <trkpt lat="42.94345" lon="0.8119">
        <ele>676</ele>
        <time>2024-08-03T13:08:49Z</time>
      </trkpt>
      <trkpt lat="42.94375" lon="0.81207">
        <ele>673</ele>
        <time>2024-08-03T13:08:55Z</time>
      </trkpt>
      <trkpt lat="42.94404" lon="0.81246">
        <ele>673</ele>
        <time>2024-08-03T13:09:02Z</time>
      </trkpt>
      <trkpt lat="42.94418" lon="0.81287">
        <ele>679</ele>
        <time>2024-08-03T13:09:08Z</time>
      </trkpt>
      <trkpt lat="42.94438" lon="0.81323">
        <ele>683</ele>
        <time>2024-08-03T13:09:14Z</time>
      </trkpt>
      <trkpt lat="42.94455" lon="0.8134">
        <ele>682</ele>
        <time>2024-08-03T13:09:18Z</time>
      </trkpt>
      <trkpt lat="42.94485" lon="0.81359">
        <ele>681</ele>
        <time>2024-08-03T13:09:24Z</time>
      </trkpt>
      <trkpt lat="42.94513" lon="0.81364">
        <ele>678</ele>
        <time>2024-08-03T13:09:29Z</time>
      </trkpt>
      <trkpt lat="42.94587" lon="0.81341">
        <ele>663</ele>
        <time>2024-08-03T13:09:42Z</time>
      </trkpt>
      <trkpt lat="42.94613" lon="0.81352">
        <ele>664</ele>
        <time>2024-08-03T13:09:47Z</time>
      </trkpt>
      <trkpt lat="42.94628" lon="0.81386">
        <ele>673</ele>
        <time>2024-08-03T13:09:52Z</time>
      </trkpt>
      <trkpt lat="42.94649" lon="0.81418">
        <ele>677</ele>
        <time>2024-08-03T13:09:58Z</time>
      </trkpt>
      <trkpt lat="42.94671" lon="0.81424">
        <ele>673</ele>
        <time>2024-08-03T13:10:02Z</time>
      </trkpt>
      <trkpt lat="42.94701" lon="0.81412">
        <ele>663</ele>
        <time>2024-08-03T13:10:07Z</time>
      </trkpt>
      <trkpt lat="42.94731" lon="0.81422">
        <ele>658</ele>
        <time>2024-08-03T13:10:13Z</time>
      </trkpt>
      <trkpt lat="42.94758" lon="0.81442">
        <ele>659</ele>
        <time>2024-08-03T13:10:18Z</time>
      </trkpt>
      <trkpt lat="42.94776" lon="0.81476">
        <ele>664</ele>
        <time>2024-08-03T13:10:24Z</time>
      </trkpt>
      <trkpt lat="42.94837" lon="0.81605">
        <ele>667</ele>
        <time>2024-08-03T13:10:44Z</time>
      </trkpt>
      <trkpt lat="42.94855" lon="0.81629">
        <ele>673</ele>
        <time>2024-08-03T13:10:48Z</time>
      </trkpt>
      <trkpt lat="42.94873" lon="0.81627">
        <ele>668</ele>
        <time>2024-08-03T13:10:52Z</time>
      </trkpt>
      <trkpt lat="42.94871" lon="0.81622">
        <ele>667</ele>
        <time>2024-08-03T13:10:52Z</time>
      </trkpt>
      <trkpt lat="42.94871" lon="0.81622">
        <ele>667</ele>
        <time>2024-08-03T13:10:52Z</time>
      </trkpt>
      <trkpt lat="42.94873" lon="0.81627">
        <ele>668</ele>
        <time>2024-08-03T13:10:53Z</time>
      </trkpt>
      <trkpt lat="42.94888" lon="0.81642">
        <ele>670</ele>
        <time>2024-08-03T13:10:56Z</time>
      </trkpt>
      <trkpt lat="42.94899" lon="0.81641">
        <ele>667</ele>
        <time>2024-08-03T13:10:58Z</time>
      </trkpt>
      <trkpt lat="42.94914" lon="0.81629">
        <ele>660</ele>
        <time>2024-08-03T13:11:01Z</time>
      </trkpt>
      <trkpt lat="42.94934" lon="0.81617">
        <ele>655</ele>
        <time>2024-08-03T13:11:05Z</time>
      </trkpt>
      <trkpt lat="42.94947" lon="0.81615">
        <ele>654</ele>
        <time>2024-08-03T13:11:08Z</time>
      </trkpt>
      <trkpt lat="42.94964" lon="0.8162">
        <ele>655</ele>
        <time>2024-08-03T13:11:11Z</time>
      </trkpt>
      <trkpt lat="42.94995" lon="0.81633">
        <ele>657</ele>
        <time>2024-08-03T13:11:17Z</time>
      </trkpt>
      <trkpt lat="42.95009" lon="0.81645">
        <ele>660</ele>
        <time>2024-08-03T13:11:19Z</time>
      </trkpt>
      <trkpt lat="42.95059" lon="0.81807">
        <ele>685</ele>
        <time>2024-08-03T13:11:42Z</time>
      </trkpt>
      <trkpt lat="42.95056" lon="0.81823">
        <ele>687</ele>
        <time>2024-08-03T13:11:45Z</time>
      </trkpt>
      <trkpt lat="42.95049" lon="0.81832">
        <ele>689</ele>
        <time>2024-08-03T13:11:46Z</time>
      </trkpt>
      <trkpt lat="42.94999" lon="0.8187">
        <ele>699</ele>
        <time>2024-08-03T13:11:56Z</time>
      </trkpt>
      <trkpt lat="42.94984" lon="0.81874">
        <ele>702</ele>
        <time>2024-08-03T13:11:59Z</time>
      </trkpt>
      <trkpt lat="42.9495" lon="0.81875">
        <ele>709</ele>
        <time>2024-08-03T13:12:05Z</time>
      </trkpt>
      <trkpt lat="42.94935" lon="0.81879">
        <ele>712</ele>
        <time>2024-08-03T13:12:08Z</time>
      </trkpt>
      <trkpt lat="42.94887" lon="0.81913">
        <ele>726</ele>
        <time>2024-08-03T13:12:18Z</time>
      </trkpt>
      <trkpt lat="42.94866" lon="0.81967">
        <ele>735</ele>
        <time>2024-08-03T13:12:25Z</time>
      </trkpt>
      <trkpt lat="42.94857" lon="0.82034">
        <ele>739</ele>
        <time>2024-08-03T13:12:34Z</time>
      </trkpt>
      <trkpt lat="42.94863" lon="0.82138">
        <ele>745</ele>
        <time>2024-08-03T13:12:48Z</time>
      </trkpt>
      <trkpt lat="42.94868" lon="0.82264">
        <ele>752</ele>
        <time>2024-08-03T13:13:04Z</time>
      </trkpt>
      <trkpt lat="42.94866" lon="0.82282">
        <ele>754</ele>
        <time>2024-08-03T13:13:07Z</time>
      </trkpt>
      <trkpt lat="42.94862" lon="0.82296">
        <ele>754</ele>
        <time>2024-08-03T13:13:09Z</time>
      </trkpt>
      <trkpt lat="42.94841" lon="0.82311">
        <ele>754</ele>
        <time>2024-08-03T13:13:13Z</time>
      </trkpt>
      <trkpt lat="42.94796" lon="0.82415">
        <ele>767</ele>
        <time>2024-08-03T13:13:29Z</time>
      </trkpt>
      <trkpt lat="42.94766" lon="0.82441">
        <ele>772</ele>
        <time>2024-08-03T13:13:35Z</time>
      </trkpt>
      <trkpt lat="42.94718" lon="0.8251">
        <ele>786</ele>
        <time>2024-08-03T13:13:47Z</time>
      </trkpt>
      <trkpt lat="42.94681" lon="0.82595">
        <ele>793</ele>
        <time>2024-08-03T13:14:00Z</time>
      </trkpt>
      <trkpt lat="42.94637" lon="0.82688">
        <ele>809</ele>
        <time>2024-08-03T13:14:15Z</time>
      </trkpt>
      <trkpt lat="42.94622" lon="0.827">
        <ele>813</ele>
        <time>2024-08-03T13:14:18Z</time>
      </trkpt>
      <trkpt lat="42.94616" lon="0.82712">
        <ele>814</ele>
        <time>2024-08-03T13:14:20Z</time>
      </trkpt>
      <trkpt lat="42.94613" lon="0.82763">
        <ele>816</ele>
        <time>2024-08-03T13:14:26Z</time>
      </trkpt>
      <trkpt lat="42.94608" lon="0.82781">
        <ele>817</ele>
        <time>2024-08-03T13:14:29Z</time>
      </trkpt>
      <trkpt lat="42.94588" lon="0.82836">
        <ele>815</ele>
        <time>2024-08-03T13:14:37Z</time>
      </trkpt>
      <trkpt lat="42.94578" lon="0.82858">
        <ele>818</ele>
        <time>2024-08-03T13:14:40Z</time>
      </trkpt>
      <trkpt lat="42.94577" lon="0.82867">
        <ele>819</ele>
        <time>2024-08-03T13:14:41Z</time>
      </trkpt>
      <trkpt lat="42.9458" lon="0.82901">
        <ele>819</ele>
        <time>2024-08-03T13:14:46Z</time>
      </trkpt>
      <trkpt lat="42.94577" lon="0.82931">
        <ele>823</ele>
        <time>2024-08-03T13:14:50Z</time>
      </trkpt>
      <trkpt lat="42.94553" lon="0.82988">
        <ele>835</ele>
        <time>2024-08-03T13:14:58Z</time>
      </trkpt>
      <trkpt lat="42.94537" lon="0.83094">
        <ele>838</ele>
        <time>2024-08-03T13:15:12Z</time>
      </trkpt>
      <trkpt lat="42.94472" lon="0.8319">
        <ele>846</ele>
        <time>2024-08-03T13:15:29Z</time>
      </trkpt>
      <trkpt lat="42.94431" lon="0.83231">
        <ele>847</ele>
        <time>2024-08-03T13:15:39Z</time>
      </trkpt>
      <trkpt lat="42.94411" lon="0.83282">
        <ele>850</ele>
        <time>2024-08-03T13:15:46Z</time>
      </trkpt>
      <trkpt lat="42.94385" lon="0.83336">
        <ele>865</ele>
        <time>2024-08-03T13:15:54Z</time>
      </trkpt>
      <trkpt lat="42.94362" lon="0.83391">
        <ele>871</ele>
        <time>2024-08-03T13:16:03Z</time>
      </trkpt>
      <trkpt lat="42.94354" lon="0.83421">
        <ele>869</ele>
        <time>2024-08-03T13:16:07Z</time>
      </trkpt>
      <trkpt lat="42.94348" lon="0.83434">
        <ele>869</ele>
        <time>2024-08-03T13:16:09Z</time>
      </trkpt>
      <trkpt lat="42.94337" lon="0.83447">
        <ele>866</ele>
        <time>2024-08-03T13:16:11Z</time>
      </trkpt>
      <trkpt lat="42.94295" lon="0.83481">
        <ele>876</ele>
        <time>2024-08-03T13:16:20Z</time>
      </trkpt>
      <trkpt lat="42.94236" lon="0.83513">
        <ele>889</ele>
        <time>2024-08-03T13:16:31Z</time>
      </trkpt>
      <trkpt lat="42.94199" lon="0.83517">
        <ele>898</ele>
        <time>2024-08-03T13:16:38Z</time>
      </trkpt>
      <trkpt lat="42.94158" lon="0.8351">
        <ele>907</ele>
        <time>2024-08-03T13:16:45Z</time>
      </trkpt>
      <trkpt lat="42.94155" lon="0.83512">
        <ele>907</ele>
        <time>2024-08-03T13:16:46Z</time>
      </trkpt>
      <trkpt lat="42.94153" lon="0.83517">
        <ele>908</ele>
        <time>2024-08-03T13:16:47Z</time>
      </trkpt>
      <trkpt lat="42.94154" lon="0.83522">
        <ele>908</ele>
        <time>2024-08-03T13:16:47Z</time>
      </trkpt>
      <trkpt lat="42.94161" lon="0.83534">
        <ele>907</ele>
        <time>2024-08-03T13:16:49Z</time>
      </trkpt>
      <trkpt lat="42.94172" lon="0.83545">
        <ele>905</ele>
        <time>2024-08-03T13:16:52Z</time>
      </trkpt>
      <trkpt lat="42.94206" lon="0.83565">
        <ele>900</ele>
        <time>2024-08-03T13:16:58Z</time>
      </trkpt>
      <trkpt lat="42.94239" lon="0.83572">
        <ele>896</ele>
        <time>2024-08-03T13:17:04Z</time>
      </trkpt>
      <trkpt lat="42.94271" lon="0.83575">
        <ele>891</ele>
        <time>2024-08-03T13:17:10Z</time>
      </trkpt>
      <trkpt lat="42.9428" lon="0.83578">
        <ele>890</ele>
        <time>2024-08-03T13:17:12Z</time>
      </trkpt>
      <trkpt lat="42.94286" lon="0.83602">
        <ele>895</ele>
        <time>2024-08-03T13:17:15Z</time>
      </trkpt>
      <trkpt lat="42.94285" lon="0.83633">
        <ele>904</ele>
        <time>2024-08-03T13:17:19Z</time>
      </trkpt>
      <trkpt lat="42.94294" lon="0.83695">
        <ele>917</ele>
        <time>2024-08-03T13:17:27Z</time>
      </trkpt>
      <trkpt lat="42.9431" lon="0.83747">
        <ele>921</ele>
        <time>2024-08-03T13:17:35Z</time>
      </trkpt>
      <trkpt lat="42.94327" lon="0.83782">
        <ele>914</ele>
        <time>2024-08-03T13:17:40Z</time>
      </trkpt>
      <trkpt lat="42.94333" lon="0.83804">
        <ele>912</ele>
        <time>2024-08-03T13:17:43Z</time>
      </trkpt>
      <trkpt lat="42.94334" lon="0.83825">
        <ele>913</ele>
        <time>2024-08-03T13:17:46Z</time>
      </trkpt>
      <trkpt lat="42.94331" lon="0.8384">
        <ele>914</ele>
        <time>2024-08-03T13:17:48Z</time>
      </trkpt>
      <trkpt lat="42.94323" lon="0.83849">
        <ele>918</ele>
        <time>2024-08-03T13:17:50Z</time>
      </trkpt>
      <trkpt lat="42.94266" lon="0.83877">
        <ele>939</ele>
        <time>2024-08-03T13:18:01Z</time>
      </trkpt>
      <trkpt lat="42.94252" lon="0.83887">
        <ele>943</ele>
        <time>2024-08-03T13:18:03Z</time>
      </trkpt>
      <trkpt lat="42.94246" lon="0.83895">
        <ele>944</ele>
        <time>2024-08-03T13:18:05Z</time>
      </trkpt>
      <trkpt lat="42.94246" lon="0.83902">
        <ele>943</ele>
        <time>2024-08-03T13:18:06Z</time>
      </trkpt>
      <trkpt lat="42.94248" lon="0.83913">
        <ele>940</ele>
        <time>2024-08-03T13:18:07Z</time>
      </trkpt>
      <trkpt lat="42.94253" lon="0.8392">
        <ele>939</ele>
        <time>2024-08-03T13:18:09Z</time>
      </trkpt>
      <trkpt lat="42.94294" lon="0.83939">
        <ele>933</ele>
        <time>2024-08-03T13:18:16Z</time>
      </trkpt>
      <trkpt lat="42.94305" lon="0.83949">
        <ele>932</ele>
        <time>2024-08-03T13:18:19Z</time>
      </trkpt>
      <trkpt lat="42.94329" lon="0.84016">
        <ele>942</ele>
        <time>2024-08-03T13:18:28Z</time>
      </trkpt>
      <trkpt lat="42.94401" lon="0.84133">
        <ele>950</ele>
        <time>2024-08-03T13:18:48Z</time>
      </trkpt>
      <trkpt lat="42.94409" lon="0.8415">
        <ele>950</ele>
        <time>2024-08-03T13:18:51Z</time>
      </trkpt>
      <trkpt lat="42.94411" lon="0.84167">
        <ele>952</ele>
        <time>2024-08-03T13:18:53Z</time>
      </trkpt>
      <trkpt lat="42.94401" lon="0.84203">
        <ele>962</ele>
        <time>2024-08-03T13:18:58Z</time>
      </trkpt>
      <trkpt lat="42.94386" lon="0.84245">
        <ele>973</ele>
        <time>2024-08-03T13:19:04Z</time>
      </trkpt>
      <trkpt lat="42.94392" lon="0.84272">
        <ele>976</ele>
        <time>2024-08-03T13:19:08Z</time>
      </trkpt>
      <trkpt lat="42.94434" lon="0.84309">
        <ele>976</ele>
        <time>2024-08-03T13:19:17Z</time>
      </trkpt>
      <trkpt lat="42.94456" lon="0.84346">
        <ele>981</ele>
        <time>2024-08-03T13:19:23Z</time>
      </trkpt>
      <trkpt lat="42.94458" lon="0.84377">
        <ele>986</ele>
        <time>2024-08-03T13:19:27Z</time>
      </trkpt>
      <trkpt lat="42.94462" lon="0.84412">
        <ele>992</ele>
        <time>2024-08-03T13:19:32Z</time>
      </trkpt>
      <trkpt lat="42.94484" lon="0.84474">
        <ele>993</ele>
        <time>2024-08-03T13:19:41Z</time>
      </trkpt>
      <trkpt lat="42.94468" lon="0.84592">
        <ele>1010</ele>
        <time>2024-08-03T13:19:56Z</time>
      </trkpt>
      <trkpt lat="42.94452" lon="0.84631">
        <ele>1015</ele>
        <time>2024-08-03T13:20:02Z</time>
      </trkpt>
      <trkpt lat="42.94449" lon="0.8468">
        <ele>1015</ele>
        <time>2024-08-03T13:20:08Z</time>
      </trkpt>
      <trkpt lat="42.94453" lon="0.84757">
        <ele>1013</ele>
        <time>2024-08-03T13:20:19Z</time>
      </trkpt>
      <trkpt lat="42.94449" lon="0.84814">
        <ele>1014</ele>
        <time>2024-08-03T13:20:26Z</time>
      </trkpt>
      <trkpt lat="42.94447" lon="0.84895">
        <ele>1022</ele>
        <time>2024-08-03T13:20:37Z</time>
      </trkpt>
      <trkpt lat="42.9444" lon="0.84936">
        <ele>1025</ele>
        <time>2024-08-03T13:20:42Z</time>
      </trkpt>
      <trkpt lat="42.94431" lon="0.84971">
        <ele>1026</ele>
        <time>2024-08-03T13:20:47Z</time>
      </trkpt>
      <trkpt lat="42.94418" lon="0.84986">
        <ele>1025</ele>
        <time>2024-08-03T13:20:50Z</time>
      </trkpt>
      <trkpt lat="42.9438" lon="0.85">
        <ele>1029</ele>
        <time>2024-08-03T13:20:57Z</time>
      </trkpt>
      <trkpt lat="42.94324" lon="0.84994">
        <ele>1034</ele>
        <time>2024-08-03T13:21:07Z</time>
      </trkpt>
      <trkpt lat="42.94276" lon="0.84984">
        <ele>1042</ele>
        <time>2024-08-03T13:21:16Z</time>
      </trkpt>
      <trkpt lat="42.94262" lon="0.84993">
        <ele>1043</ele>
        <time>2024-08-03T13:21:18Z</time>
      </trkpt>
      <trkpt lat="42.94256" lon="0.85011">
        <ele>1043</ele>
        <time>2024-08-03T13:21:21Z</time>
      </trkpt>
      <trkpt lat="42.94261" lon="0.85033">
        <ele>1044</ele>
        <time>2024-08-03T13:21:24Z</time>
      </trkpt>
      <trkpt lat="42.94327" lon="0.85178">
        <ele>1052</ele>
        <time>2024-08-03T13:21:46Z</time>
      </trkpt>
      <trkpt lat="42.94354" lon="0.85217">
        <ele>1057</ele>
        <time>2024-08-03T13:21:53Z</time>
      </trkpt>
      <trkpt lat="42.94372" lon="0.85221">
        <ele>1058</ele>
        <time>2024-08-03T13:21:56Z</time>
      </trkpt>
      <trkpt lat="42.94393" lon="0.85235">
        <ele>1059</ele>
        <time>2024-08-03T13:22:00Z</time>
      </trkpt>
      <trkpt lat="42.94464" lon="0.85348">
        <ele>1076</ele>
        <time>2024-08-03T13:22:20Z</time>
      </trkpt>
      <trkpt lat="42.94485" lon="0.85388">
        <ele>1074</ele>
        <time>2024-08-03T13:22:26Z</time>
      </trkpt>
      <trkpt lat="42.94488" lon="0.85398">
        <ele>1073</ele>
        <time>2024-08-03T13:22:28Z</time>
      </trkpt>
      <trkpt lat="42.9451" lon="0.85436">
        <ele>1069</ele>
        <time>2024-08-03T13:22:34Z</time>
      </trkpt>
      <trkpt lat="42.94515" lon="0.85442">
        <ele>1068</ele>
        <time>2024-08-03T13:22:35Z</time>
      </trkpt>
      <trkpt lat="42.94532" lon="0.85453">
        <ele>1069</ele>
        <time>2024-08-03T13:22:39Z</time>
      </trkpt>
      <trkpt lat="42.94568" lon="0.85474">
        <ele>1069</ele>
        <time>2024-08-03T13:22:46Z</time>
      </trkpt>
      <trkpt lat="42.94582" lon="0.85479">
        <ele>1070</ele>
        <time>2024-08-03T13:22:48Z</time>
      </trkpt>
      <trkpt lat="42.94587" lon="0.85483">
        <ele>1071</ele>
        <time>2024-08-03T13:22:49Z</time>
      </trkpt>
      <trkpt lat="42.94593" lon="0.85491">
        <ele>1071</ele>
        <time>2024-08-03T13:22:51Z</time>
      </trkpt>
      <trkpt lat="42.94599" lon="0.85561">
        <ele>1057</ele>
        <time>2024-08-03T13:23:00Z</time>
      </trkpt>
      <trkpt lat="42.94603" lon="0.85583">
        <ele>1054</ele>
        <time>2024-08-03T13:23:03Z</time>
      </trkpt>
      <trkpt lat="42.9461" lon="0.85609">
        <ele>1053</ele>
        <time>2024-08-03T13:23:06Z</time>
      </trkpt>
      <trkpt lat="42.94627" lon="0.85642">
        <ele>1054</ele>
        <time>2024-08-03T13:23:12Z</time>
      </trkpt>
      <trkpt lat="42.94633" lon="0.85663">
        <ele>1053</ele>
        <time>2024-08-03T13:23:15Z</time>
      </trkpt>
      <trkpt lat="42.94633" lon="0.85674">
        <ele>1052</ele>
        <time>2024-08-03T13:23:16Z</time>
      </trkpt>
      <trkpt lat="42.94627" lon="0.857">
        <ele>1047</ele>
        <time>2024-08-03T13:23:20Z</time>
      </trkpt>
      <trkpt lat="42.9463" lon="0.85723">
        <ele>1045</ele>
        <time>2024-08-03T13:23:23Z</time>
      </trkpt>
      <trkpt lat="42.9463" lon="0.85745">
        <ele>1043</ele>
        <time>2024-08-03T13:23:25Z</time>
      </trkpt>
      <trkpt lat="42.94616" lon="0.85833">
        <ele>1034</ele>
        <time>2024-08-03T13:23:37Z</time>
      </trkpt>
      <trkpt lat="42.94612" lon="0.8591">
        <ele>1028</ele>
        <time>2024-08-03T13:23:47Z</time>
      </trkpt>
      <trkpt lat="42.94625" lon="0.85983">
        <ele>1028</ele>
        <time>2024-08-03T13:23:57Z</time>
      </trkpt>
      <trkpt lat="42.94619" lon="0.85995">
        <ele>1024</ele>
        <time>2024-08-03T13:23:59Z</time>
      </trkpt>
      <trkpt lat="42.94612" lon="0.85997">
        <ele>1021</ele>
        <time>2024-08-03T13:24:00Z</time>
      </trkpt>
      <trkpt lat="42.94606" lon="0.85994">
        <ele>1018</ele>
        <time>2024-08-03T13:24:01Z</time>
      </trkpt>
      <trkpt lat="42.94574" lon="0.85899">
        <ele>1012</ele>
        <time>2024-08-03T13:24:15Z</time>
      </trkpt>
      <trkpt lat="42.94527" lon="0.85811">
        <ele>1005</ele>
        <time>2024-08-03T13:24:29Z</time>
      </trkpt>
      <trkpt lat="42.94487" lon="0.85753">
        <ele>1001</ele>
        <time>2024-08-03T13:24:39Z</time>
      </trkpt>
      <trkpt lat="42.94478" lon="0.85711">
        <ele>1007</ele>
        <time>2024-08-03T13:24:45Z</time>
      </trkpt>
      <trkpt lat="42.94471" lon="0.85703">
        <ele>1008</ele>
        <time>2024-08-03T13:24:47Z</time>
      </trkpt>
      <trkpt lat="42.94463" lon="0.85703">
        <ele>1008</ele>
        <time>2024-08-03T13:24:48Z</time>
      </trkpt>
      <trkpt lat="42.94456" lon="0.85711">
        <ele>1007</ele>
        <time>2024-08-03T13:24:50Z</time>
      </trkpt>
      <trkpt lat="42.94453" lon="0.85721">
        <ele>1005</ele>
        <time>2024-08-03T13:24:51Z</time>
      </trkpt>
      <trkpt lat="42.94455" lon="0.85853">
        <ele>982</ele>
        <time>2024-08-03T13:25:08Z</time>
      </trkpt>
      <trkpt lat="42.94457" lon="0.85888">
        <ele>978</ele>
        <time>2024-08-03T13:25:13Z</time>
      </trkpt>
      <trkpt lat="42.9448" lon="0.85928">
        <ele>978</ele>
        <time>2024-08-03T13:25:20Z</time>
      </trkpt>
      <trkpt lat="42.94489" lon="0.85961">
        <ele>974</ele>
        <time>2024-08-03T13:25:24Z</time>
      </trkpt>
      <trkpt lat="42.94494" lon="0.8604">
        <ele>963</ele>
        <time>2024-08-03T13:25:35Z</time>
      </trkpt>
      <trkpt lat="42.94503" lon="0.86066">
        <ele>963</ele>
        <time>2024-08-03T13:25:38Z</time>
      </trkpt>
      <trkpt lat="42.94509" lon="0.86094">
        <ele>963</ele>
        <time>2024-08-03T13:25:42Z</time>
      </trkpt>
      <trkpt lat="42.94508" lon="0.86121">
        <ele>961</ele>
        <time>2024-08-03T13:25:46Z</time>
      </trkpt>
      <trkpt lat="42.94495" lon="0.86163">
        <ele>955</ele>
        <time>2024-08-03T13:25:52Z</time>
      </trkpt>
      <trkpt lat="42.94469" lon="0.86223">
        <ele>946</ele>
        <time>2024-08-03T13:26:01Z</time>
      </trkpt>
      <trkpt lat="42.94452" lon="0.86276">
        <ele>941</ele>
        <time>2024-08-03T13:26:08Z</time>
      </trkpt>
      <trkpt lat="42.94428" lon="0.86409">
        <ele>932</ele>
        <time>2024-08-03T13:26:26Z</time>
      </trkpt>
      <trkpt lat="42.94418" lon="0.86486">
        <ele>925</ele>
        <time>2024-08-03T13:26:36Z</time>
      </trkpt>
      <trkpt lat="42.94417" lon="0.86508">
        <ele>924</ele>
        <time>2024-08-03T13:26:39Z</time>
      </trkpt>
      <trkpt lat="42.94421" lon="0.86527">
        <ele>923</ele>
        <time>2024-08-03T13:26:42Z</time>
      </trkpt>
      <trkpt lat="42.9443" lon="0.86545">
        <ele>925</ele>
        <time>2024-08-03T13:26:45Z</time>
      </trkpt>
      <trkpt lat="42.94432" lon="0.8656">
        <ele>924</ele>
        <time>2024-08-03T13:26:46Z</time>
      </trkpt>
      <trkpt lat="42.94428" lon="0.86572">
        <ele>922</ele>
        <time>2024-08-03T13:26:48Z</time>
      </trkpt>
      <trkpt lat="42.94421" lon="0.86577">
        <ele>920</ele>
        <time>2024-08-03T13:26:50Z</time>
      </trkpt>
      <trkpt lat="42.94412" lon="0.86575">
        <ele>919</ele>
        <time>2024-08-03T13:26:51Z</time>
      </trkpt>
      <trkpt lat="42.94399" lon="0.86555">
        <ele>918</ele>
        <time>2024-08-03T13:26:55Z</time>
      </trkpt>
      <trkpt lat="42.94383" lon="0.86534">
        <ele>915</ele>
        <time>2024-08-03T13:26:59Z</time>
      </trkpt>
      <trkpt lat="42.94346" lon="0.86476">
        <ele>905</ele>
        <time>2024-08-03T13:27:09Z</time>
      </trkpt>
      <trkpt lat="42.94312" lon="0.86402">
        <ele>903</ele>
        <time>2024-08-03T13:27:20Z</time>
      </trkpt>
      <trkpt lat="42.94306" lon="0.86363">
        <ele>905</ele>
        <time>2024-08-03T13:27:25Z</time>
      </trkpt>
      <trkpt lat="42.94301" lon="0.86349">
        <ele>906</ele>
        <time>2024-08-03T13:27:27Z</time>
      </trkpt>
      <trkpt lat="42.94294" lon="0.86346">
        <ele>907</ele>
        <time>2024-08-03T13:27:29Z</time>
      </trkpt>
      <trkpt lat="42.94286" lon="0.86348">
        <ele>906</ele>
        <time>2024-08-03T13:27:30Z</time>
      </trkpt>
      <trkpt lat="42.94282" lon="0.86355">
        <ele>905</ele>
        <time>2024-08-03T13:27:31Z</time>
      </trkpt>
      <trkpt lat="42.94281" lon="0.86367">
        <ele>904</ele>
        <time>2024-08-03T13:27:33Z</time>
      </trkpt>
      <trkpt lat="42.94283" lon="0.86393">
        <ele>900</ele>
        <time>2024-08-03T13:27:36Z</time>
      </trkpt>
      <trkpt lat="42.9428" lon="0.86414">
        <ele>897</ele>
        <time>2024-08-03T13:27:39Z</time>
      </trkpt>
      <trkpt lat="42.94259" lon="0.86485">
        <ele>888</ele>
        <time>2024-08-03T13:27:49Z</time>
      </trkpt>
      <trkpt lat="42.94246" lon="0.86484">
        <ele>886</ele>
        <time>2024-08-03T13:27:51Z</time>
      </trkpt>
      <trkpt lat="42.94197" lon="0.86489">
        <ele>880</ele>
        <time>2024-08-03T13:28:00Z</time>
      </trkpt>
      <trkpt lat="42.94127" lon="0.86483">
        <ele>878</ele>
        <time>2024-08-03T13:28:12Z</time>
      </trkpt>
      <trkpt lat="42.94119" lon="0.86486">
        <ele>877</ele>
        <time>2024-08-03T13:28:14Z</time>
      </trkpt>
      <trkpt lat="42.94111" lon="0.86502">
        <ele>873</ele>
        <time>2024-08-03T13:28:16Z</time>
      </trkpt>
      <trkpt lat="42.94107" lon="0.86523">
        <ele>872</ele>
        <time>2024-08-03T13:28:19Z</time>
      </trkpt>
      <trkpt lat="42.941" lon="0.86541">
        <ele>870</ele>
        <time>2024-08-03T13:28:22Z</time>
      </trkpt>
      <trkpt lat="42.94087" lon="0.86559">
        <ele>866</ele>
        <time>2024-08-03T13:28:25Z</time>
      </trkpt>
      <trkpt lat="42.94078" lon="0.86568">
        <ele>865</ele>
        <time>2024-08-03T13:28:27Z</time>
      </trkpt>
      <trkpt lat="42.9408" lon="0.8657">
        <ele>864</ele>
        <time>2024-08-03T13:28:28Z</time>
      </trkpt>
      <trkpt lat="42.9408" lon="0.8657">
        <ele>864</ele>
        <time>2024-08-03T13:28:28Z</time>
      </trkpt>
      <trkpt lat="42.94078" lon="0.86568">
        <ele>865</ele>
        <time>2024-08-03T13:28:28Z</time>
      </trkpt>
      <trkpt lat="42.94087" lon="0.86559">
        <ele>866</ele>
        <time>2024-08-03T13:28:30Z</time>
      </trkpt>
      <trkpt lat="42.941" lon="0.86541">
        <ele>870</ele>
        <time>2024-08-03T13:28:33Z</time>
      </trkpt>
      <trkpt lat="42.94107" lon="0.86523">
        <ele>872</ele>
        <time>2024-08-03T13:28:36Z</time>
      </trkpt>
      <trkpt lat="42.94111" lon="0.86502">
        <ele>873</ele>
        <time>2024-08-03T13:28:39Z</time>
      </trkpt>
      <trkpt lat="42.94119" lon="0.86486">
        <ele>877</ele>
        <time>2024-08-03T13:28:41Z</time>
      </trkpt>
      <trkpt lat="42.94127" lon="0.86483">
        <ele>878</ele>
        <time>2024-08-03T13:28:43Z</time>
      </trkpt>
      <trkpt lat="42.94197" lon="0.86489">
        <ele>880</ele>
        <time>2024-08-03T13:28:55Z</time>
      </trkpt>
      <trkpt lat="42.94246" lon="0.86484">
        <ele>886</ele>
        <time>2024-08-03T13:29:04Z</time>
      </trkpt>
      <trkpt lat="42.94259" lon="0.86485">
        <ele>888</ele>
        <time>2024-08-03T13:29:06Z</time>
      </trkpt>
      <trkpt lat="42.9428" lon="0.86414">
        <ele>897</ele>
        <time>2024-08-03T13:29:16Z</time>
      </trkpt>
      <trkpt lat="42.94283" lon="0.86393">
        <ele>900</ele>
        <time>2024-08-03T13:29:19Z</time>
      </trkpt>
      <trkpt lat="42.94281" lon="0.86367">
        <ele>904</ele>
        <time>2024-08-03T13:29:23Z</time>
      </trkpt>
      <trkpt lat="42.94282" lon="0.86355">
        <ele>905</ele>
        <time>2024-08-03T13:29:24Z</time>
      </trkpt>
      <trkpt lat="42.94286" lon="0.86348">
        <ele>906</ele>
        <time>2024-08-03T13:29:25Z</time>
      </trkpt>
      <trkpt lat="42.94294" lon="0.86346">
        <ele>907</ele>
        <time>2024-08-03T13:29:27Z</time>
      </trkpt>
      <trkpt lat="42.94301" lon="0.86349">
        <ele>906</ele>
        <time>2024-08-03T13:29:28Z</time>
      </trkpt>
      <trkpt lat="42.94306" lon="0.86363">
        <ele>905</ele>
        <time>2024-08-03T13:29:30Z</time>
      </trkpt>
      <trkpt lat="42.94312" lon="0.86402">
        <ele>903</ele>
        <time>2024-08-03T13:29:35Z</time>
      </trkpt>
      <trkpt lat="42.94346" lon="0.86476">
        <ele>905</ele>
        <time>2024-08-03T13:29:47Z</time>
      </trkpt>
      <trkpt lat="42.94383" lon="0.86534">
        <ele>915</ele>
        <time>2024-08-03T13:29:57Z</time>
      </trkpt>
      <trkpt lat="42.94399" lon="0.86555">
        <ele>918</ele>
        <time>2024-08-03T13:30:01Z</time>
      </trkpt>
      <trkpt lat="42.94412" lon="0.86575">
        <ele>919</ele>
        <time>2024-08-03T13:30:04Z</time>
      </trkpt>
      <trkpt lat="42.94421" lon="0.86577">
        <ele>920</ele>
        <time>2024-08-03T13:30:06Z</time>
      </trkpt>
      <trkpt lat="42.94428" lon="0.86572">
        <ele>922</ele>
        <time>2024-08-03T13:30:07Z</time>
      </trkpt>
      <trkpt lat="42.94432" lon="0.8656">
        <ele>924</ele>
        <time>2024-08-03T13:30:09Z</time>
      </trkpt>
      <trkpt lat="42.9443" lon="0.86545">
        <ele>925</ele>
        <time>2024-08-03T13:30:11Z</time>
      </trkpt>
      <trkpt lat="42.94421" lon="0.86527">
        <ele>923</ele>
        <time>2024-08-03T13:30:14Z</time>
      </trkpt>
      <trkpt lat="42.94417" lon="0.86508">
        <ele>924</ele>
        <time>2024-08-03T13:30:16Z</time>
      </trkpt>
      <trkpt lat="42.94418" lon="0.86486">
        <ele>925</ele>
        <time>2024-08-03T13:30:19Z</time>
      </trkpt>
      <trkpt lat="42.94428" lon="0.86409">
        <ele>932</ele>
        <time>2024-08-03T13:30:29Z</time>
      </trkpt>
      <trkpt lat="42.94452" lon="0.86276">
        <ele>941</ele>
        <time>2024-08-03T13:30:47Z</time>
      </trkpt>
      <trkpt lat="42.94469" lon="0.86223">
        <ele>946</ele>
        <time>2024-08-03T13:30:55Z</time>
      </trkpt>
      <trkpt lat="42.94495" lon="0.86163">
        <ele>955</ele>
        <time>2024-08-03T13:31:04Z</time>
      </trkpt>
      <trkpt lat="42.94508" lon="0.86121">
        <ele>961</ele>
        <time>2024-08-03T13:31:10Z</time>
      </trkpt>
      <trkpt lat="42.94509" lon="0.86094">
        <ele>963</ele>
        <time>2024-08-03T13:31:13Z</time>
      </trkpt>
      <trkpt lat="42.94503" lon="0.86066">
        <ele>963</ele>
        <time>2024-08-03T13:31:17Z</time>
      </trkpt>
      <trkpt lat="42.94494" lon="0.8604">
        <ele>963</ele>
        <time>2024-08-03T13:31:21Z</time>
      </trkpt>
      <trkpt lat="42.94489" lon="0.85961">
        <ele>974</ele>
        <time>2024-08-03T13:31:31Z</time>
      </trkpt>
      <trkpt lat="42.9448" lon="0.85928">
        <ele>978</ele>
        <time>2024-08-03T13:31:36Z</time>
      </trkpt>
      <trkpt lat="42.94457" lon="0.85888">
        <ele>978</ele>
        <time>2024-08-03T13:31:42Z</time>
      </trkpt>
      <trkpt lat="42.94455" lon="0.85853">
        <ele>982</ele>
        <time>2024-08-03T13:31:47Z</time>
      </trkpt>
      <trkpt lat="42.94453" lon="0.85721">
        <ele>1005</ele>
        <time>2024-08-03T13:32:04Z</time>
      </trkpt>
      <trkpt lat="42.94456" lon="0.85711">
        <ele>1007</ele>
        <time>2024-08-03T13:32:06Z</time>
      </trkpt>
      <trkpt lat="42.94463" lon="0.85703">
        <ele>1008</ele>
        <time>2024-08-03T13:32:07Z</time>
      </trkpt>
      <trkpt lat="42.94471" lon="0.85703">
        <ele>1008</ele>
        <time>2024-08-03T13:32:09Z</time>
      </trkpt>
      <trkpt lat="42.94478" lon="0.85711">
        <ele>1007</ele>
        <time>2024-08-03T13:32:10Z</time>
      </trkpt>
      <trkpt lat="42.94487" lon="0.85753">
        <ele>1001</ele>
        <time>2024-08-03T13:32:16Z</time>
      </trkpt>
      <trkpt lat="42.94527" lon="0.85811">
        <ele>1005</ele>
        <time>2024-08-03T13:32:26Z</time>
      </trkpt>
      <trkpt lat="42.94574" lon="0.85899">
        <ele>1012</ele>
        <time>2024-08-03T13:32:40Z</time>
      </trkpt>
      <trkpt lat="42.94606" lon="0.85994">
        <ele>1018</ele>
        <time>2024-08-03T13:32:54Z</time>
      </trkpt>
      <trkpt lat="42.94612" lon="0.85997">
        <ele>1021</ele>
        <time>2024-08-03T13:32:55Z</time>
      </trkpt>
      <trkpt lat="42.94619" lon="0.85995">
        <ele>1024</ele>
        <time>2024-08-03T13:32:56Z</time>
      </trkpt>
      <trkpt lat="42.94625" lon="0.85983">
        <ele>1028</ele>
        <time>2024-08-03T13:32:58Z</time>
      </trkpt>
      <trkpt lat="42.94612" lon="0.8591">
        <ele>1028</ele>
        <time>2024-08-03T13:33:08Z</time>
      </trkpt>
      <trkpt lat="42.94616" lon="0.85833">
        <ele>1034</ele>
        <time>2024-08-03T13:33:18Z</time>
      </trkpt>
      <trkpt lat="42.9463" lon="0.85745">
        <ele>1043</ele>
        <time>2024-08-03T13:33:30Z</time>
      </trkpt>
      <trkpt lat="42.9463" lon="0.85723">
        <ele>1045</ele>
        <time>2024-08-03T13:33:33Z</time>
      </trkpt>
      <trkpt lat="42.94627" lon="0.857">
        <ele>1047</ele>
        <time>2024-08-03T13:33:36Z</time>
      </trkpt>
      <trkpt lat="42.94633" lon="0.85674">
        <ele>1052</ele>
        <time>2024-08-03T13:33:39Z</time>
      </trkpt>
      <trkpt lat="42.94633" lon="0.85663">
        <ele>1053</ele>
        <time>2024-08-03T13:33:41Z</time>
      </trkpt>
      <trkpt lat="42.94627" lon="0.85642">
        <ele>1054</ele>
        <time>2024-08-03T13:33:44Z</time>
      </trkpt>
      <trkpt lat="42.9461" lon="0.85609">
        <ele>1053</ele>
        <time>2024-08-03T13:33:49Z</time>
      </trkpt>
      <trkpt lat="42.94603" lon="0.85583">
        <ele>1054</ele>
        <time>2024-08-03T13:33:53Z</time>
      </trkpt>
      <trkpt lat="42.94599" lon="0.85561">
        <ele>1057</ele>
        <time>2024-08-03T13:33:56Z</time>
      </trkpt>
      <trkpt lat="42.94593" lon="0.85491">
        <ele>1071</ele>
        <time>2024-08-03T13:34:05Z</time>
      </trkpt>
      <trkpt lat="42.94587" lon="0.85483">
        <ele>1071</ele>
        <time>2024-08-03T13:34:06Z</time>
      </trkpt>
      <trkpt lat="42.94582" lon="0.85479">
        <ele>1070</ele>
        <time>2024-08-03T13:34:07Z</time>
      </trkpt>
      <trkpt lat="42.94568" lon="0.85474">
        <ele>1069</ele>
        <time>2024-08-03T13:34:10Z</time>
      </trkpt>
      <trkpt lat="42.94532" lon="0.85453">
        <ele>1069</ele>
        <time>2024-08-03T13:34:17Z</time>
      </trkpt>
      <trkpt lat="42.94515" lon="0.85442">
        <ele>1068</ele>
        <time>2024-08-03T13:34:20Z</time>
      </trkpt>
      <trkpt lat="42.9451" lon="0.85436">
        <ele>1069</ele>
        <time>2024-08-03T13:34:21Z</time>
      </trkpt>
      <trkpt lat="42.94488" lon="0.85398">
        <ele>1073</ele>
        <time>2024-08-03T13:34:28Z</time>
      </trkpt>
      <trkpt lat="42.94485" lon="0.85388">
        <ele>1074</ele>
        <time>2024-08-03T13:34:29Z</time>
      </trkpt>
      <trkpt lat="42.94464" lon="0.85348">
        <ele>1076</ele>
        <time>2024-08-03T13:34:35Z</time>
      </trkpt>
      <trkpt lat="42.94393" lon="0.85235">
        <ele>1059</ele>
        <time>2024-08-03T13:34:55Z</time>
      </trkpt>
      <trkpt lat="42.94372" lon="0.85221">
        <ele>1058</ele>
        <time>2024-08-03T13:34:59Z</time>
      </trkpt>
      <trkpt lat="42.94354" lon="0.85217">
        <ele>1057</ele>
        <time>2024-08-03T13:35:02Z</time>
      </trkpt>
      <trkpt lat="42.94327" lon="0.85178">
        <ele>1052</ele>
        <time>2024-08-03T13:35:09Z</time>
      </trkpt>
      <trkpt lat="42.94261" lon="0.85033">
        <ele>1044</ele>
        <time>2024-08-03T13:35:32Z</time>
      </trkpt>
      <trkpt lat="42.94256" lon="0.85011">
        <ele>1043</ele>
        <time>2024-08-03T13:35:35Z</time>
      </trkpt>
      <trkpt lat="42.94262" lon="0.84993">
        <ele>1043</ele>
        <time>2024-08-03T13:35:37Z</time>
      </trkpt>
      <trkpt lat="42.94276" lon="0.84984">
        <ele>1042</ele>
        <time>2024-08-03T13:35:40Z</time>
      </trkpt>
      <trkpt lat="42.94324" lon="0.84994">
        <ele>1034</ele>
        <time>2024-08-03T13:35:48Z</time>
      </trkpt>
      <trkpt lat="42.9438" lon="0.85">
        <ele>1029</ele>
        <time>2024-08-03T13:35:58Z</time>
      </trkpt>
      <trkpt lat="42.94418" lon="0.84986">
        <ele>1025</ele>
        <time>2024-08-03T13:36:05Z</time>
      </trkpt>
      <trkpt lat="42.94431" lon="0.84971">
        <ele>1026</ele>
        <time>2024-08-03T13:36:08Z</time>
      </trkpt>
      <trkpt lat="42.9444" lon="0.84936">
        <ele>1025</ele>
        <time>2024-08-03T13:36:13Z</time>
      </trkpt>
      <trkpt lat="42.94447" lon="0.84895">
        <ele>1022</ele>
        <time>2024-08-03T13:36:19Z</time>
      </trkpt>
      <trkpt lat="42.94449" lon="0.84814">
        <ele>1014</ele>
        <time>2024-08-03T13:36:29Z</time>
      </trkpt>
      <trkpt lat="42.94453" lon="0.84757">
        <ele>1013</ele>
        <time>2024-08-03T13:36:37Z</time>
      </trkpt>
      <trkpt lat="42.94449" lon="0.8468">
        <ele>1015</ele>
        <time>2024-08-03T13:36:47Z</time>
      </trkpt>
      <trkpt lat="42.94452" lon="0.84631">
        <ele>1015</ele>
        <time>2024-08-03T13:36:53Z</time>
      </trkpt>
      <trkpt lat="42.94468" lon="0.84592">
        <ele>1010</ele>
        <time>2024-08-03T13:36:59Z</time>
      </trkpt>
      <trkpt lat="42.94484" lon="0.84474">
        <ele>993</ele>
        <time>2024-08-03T13:37:15Z</time>
      </trkpt>
      <trkpt lat="42.94462" lon="0.84412">
        <ele>992</ele>
        <time>2024-08-03T13:37:24Z</time>
      </trkpt>
      <trkpt lat="42.94458" lon="0.84377">
        <ele>986</ele>
        <time>2024-08-03T13:37:28Z</time>
      </trkpt>
      <trkpt lat="42.94456" lon="0.84346">
        <ele>981</ele>
        <time>2024-08-03T13:37:32Z</time>
      </trkpt>
      <trkpt lat="42.94434" lon="0.84309">
        <ele>976</ele>
        <time>2024-08-03T13:37:39Z</time>
      </trkpt>
      <trkpt lat="42.94392" lon="0.84272">
        <ele>976</ele>
        <time>2024-08-03T13:37:47Z</time>
      </trkpt>
      <trkpt lat="42.94386" lon="0.84245">
        <ele>973</ele>
        <time>2024-08-03T13:37:51Z</time>
      </trkpt>
      <trkpt lat="42.94401" lon="0.84203">
        <ele>962</ele>
        <time>2024-08-03T13:37:57Z</time>
      </trkpt>
      <trkpt lat="42.94411" lon="0.84167">
        <ele>952</ele>
        <time>2024-08-03T13:38:02Z</time>
      </trkpt>
      <trkpt lat="42.94409" lon="0.8415">
        <ele>950</ele>
        <time>2024-08-03T13:38:05Z</time>
      </trkpt>
      <trkpt lat="42.94401" lon="0.84133">
        <ele>950</ele>
        <time>2024-08-03T13:38:07Z</time>
      </trkpt>
      <trkpt lat="42.94329" lon="0.84016">
        <ele>942</ele>
        <time>2024-08-03T13:38:27Z</time>
      </trkpt>
      <trkpt lat="42.94305" lon="0.83949">
        <ele>932</ele>
        <time>2024-08-03T13:38:37Z</time>
      </trkpt>
      <trkpt lat="42.94294" lon="0.83939">
        <ele>933</ele>
        <time>2024-08-03T13:38:39Z</time>
      </trkpt>
      <trkpt lat="42.94253" lon="0.8392">
        <ele>939</ele>
        <time>2024-08-03T13:38:47Z</time>
      </trkpt>
      <trkpt lat="42.94248" lon="0.83913">
        <ele>940</ele>
        <time>2024-08-03T13:38:48Z</time>
      </trkpt>
      <trkpt lat="42.94246" lon="0.83902">
        <ele>943</ele>
        <time>2024-08-03T13:38:50Z</time>
      </trkpt>
      <trkpt lat="42.94246" lon="0.83895">
        <ele>944</ele>
        <time>2024-08-03T13:38:50Z</time>
      </trkpt>
      <trkpt lat="42.94252" lon="0.83887">
        <ele>943</ele>
        <time>2024-08-03T13:38:52Z</time>
      </trkpt>
      <trkpt lat="42.94266" lon="0.83877">
        <ele>939</ele>
        <time>2024-08-03T13:38:55Z</time>
      </trkpt>
      <trkpt lat="42.94323" lon="0.83849">
        <ele>918</ele>
        <time>2024-08-03T13:39:06Z</time>
      </trkpt>
      <trkpt lat="42.94331" lon="0.8384">
        <ele>914</ele>
        <time>2024-08-03T13:39:07Z</time>
      </trkpt>
      <trkpt lat="42.94334" lon="0.83825">
        <ele>913</ele>
        <time>2024-08-03T13:39:09Z</time>
      </trkpt>
      <trkpt lat="42.94333" lon="0.83804">
        <ele>912</ele>
        <time>2024-08-03T13:39:12Z</time>
      </trkpt>
      <trkpt lat="42.94327" lon="0.83782">
        <ele>914</ele>
        <time>2024-08-03T13:39:15Z</time>
      </trkpt>
      <trkpt lat="42.9431" lon="0.83747">
        <ele>921</ele>
        <time>2024-08-03T13:39:21Z</time>
      </trkpt>
      <trkpt lat="42.94294" lon="0.83695">
        <ele>917</ele>
        <time>2024-08-03T13:39:28Z</time>
      </trkpt>
      <trkpt lat="42.94285" lon="0.83633">
        <ele>904</ele>
        <time>2024-08-03T13:39:36Z</time>
      </trkpt>
      <trkpt lat="42.94286" lon="0.83602">
        <ele>895</ele>
        <time>2024-08-03T13:39:40Z</time>
      </trkpt>
      <trkpt lat="42.9428" lon="0.83578">
        <ele>890</ele>
        <time>2024-08-03T13:39:44Z</time>
      </trkpt>
      <trkpt lat="42.94271" lon="0.83575">
        <ele>891</ele>
        <time>2024-08-03T13:39:45Z</time>
      </trkpt>
      <trkpt lat="42.94239" lon="0.83572">
        <ele>896</ele>
        <time>2024-08-03T13:39:51Z</time>
      </trkpt>
      <trkpt lat="42.94206" lon="0.83565">
        <ele>900</ele>
        <time>2024-08-03T13:39:57Z</time>
      </trkpt>
      <trkpt lat="42.94172" lon="0.83545">
        <ele>905</ele>
        <time>2024-08-03T13:40:04Z</time>
      </trkpt>
      <trkpt lat="42.94161" lon="0.83534">
        <ele>907</ele>
        <time>2024-08-03T13:40:06Z</time>
      </trkpt>
      <trkpt lat="42.94154" lon="0.83522">
        <ele>908</ele>
        <time>2024-08-03T13:40:08Z</time>
      </trkpt>
      <trkpt lat="42.94153" lon="0.83517">
        <ele>908</ele>
        <time>2024-08-03T13:40:09Z</time>
      </trkpt>
      <trkpt lat="42.94155" lon="0.83512">
        <ele>907</ele>
        <time>2024-08-03T13:40:09Z</time>
      </trkpt>
      <trkpt lat="42.94158" lon="0.8351">
        <ele>907</ele>
        <time>2024-08-03T13:40:10Z</time>
      </trkpt>
      <trkpt lat="42.94199" lon="0.83517">
        <ele>898</ele>
        <time>2024-08-03T13:40:17Z</time>
      </trkpt>
      <trkpt lat="42.94236" lon="0.83513">
        <ele>889</ele>
        <time>2024-08-03T13:40:24Z</time>
      </trkpt>
      <trkpt lat="42.94295" lon="0.83481">
        <ele>876</ele>
        <time>2024-08-03T13:40:35Z</time>
      </trkpt>
      <trkpt lat="42.94337" lon="0.83447">
        <ele>866</ele>
        <time>2024-08-03T13:40:44Z</time>
      </trkpt>
      <trkpt lat="42.94348" lon="0.83434">
        <ele>869</ele>
        <time>2024-08-03T13:40:46Z</time>
      </trkpt>
      <trkpt lat="42.94354" lon="0.83421">
        <ele>869</ele>
        <time>2024-08-03T13:40:48Z</time>
      </trkpt>
      <trkpt lat="42.94362" lon="0.83391">
        <ele>871</ele>
        <time>2024-08-03T13:40:53Z</time>
      </trkpt>
      <trkpt lat="42.94385" lon="0.83336">
        <ele>865</ele>
        <time>2024-08-03T13:41:01Z</time>
      </trkpt>
      <trkpt lat="42.94411" lon="0.83282">
        <ele>850</ele>
        <time>2024-08-03T13:41:09Z</time>
      </trkpt>
      <trkpt lat="42.94431" lon="0.83231">
        <ele>847</ele>
        <time>2024-08-03T13:41:17Z</time>
      </trkpt>
      <trkpt lat="42.94472" lon="0.8319">
        <ele>846</ele>
        <time>2024-08-03T13:41:26Z</time>
      </trkpt>
      <trkpt lat="42.94537" lon="0.83094">
        <ele>838</ele>
        <time>2024-08-03T13:41:43Z</time>
      </trkpt>
      <trkpt lat="42.94553" lon="0.82988">
        <ele>835</ele>
        <time>2024-08-03T13:41:57Z</time>
      </trkpt>
      <trkpt lat="42.94577" lon="0.82931">
        <ele>823</ele>
        <time>2024-08-03T13:42:06Z</time>
      </trkpt>
      <trkpt lat="42.9458" lon="0.82901">
        <ele>819</ele>
        <time>2024-08-03T13:42:10Z</time>
      </trkpt>
      <trkpt lat="42.94577" lon="0.82867">
        <ele>819</ele>
        <time>2024-08-03T13:42:14Z</time>
      </trkpt>
      <trkpt lat="42.94578" lon="0.82858">
        <ele>818</ele>
        <time>2024-08-03T13:42:15Z</time>
      </trkpt>
      <trkpt lat="42.94588" lon="0.82836">
        <ele>815</ele>
        <time>2024-08-03T13:42:19Z</time>
      </trkpt>
      <trkpt lat="42.94608" lon="0.82781">
        <ele>817</ele>
        <time>2024-08-03T13:42:27Z</time>
      </trkpt>
      <trkpt lat="42.94613" lon="0.82763">
        <ele>816</ele>
        <time>2024-08-03T13:42:29Z</time>
      </trkpt>
      <trkpt lat="42.94616" lon="0.82712">
        <ele>814</ele>
        <time>2024-08-03T13:42:36Z</time>
      </trkpt>
      <trkpt lat="42.94622" lon="0.827">
        <ele>813</ele>
        <time>2024-08-03T13:42:38Z</time>
      </trkpt>
      <trkpt lat="42.94637" lon="0.82688">
        <ele>809</ele>
        <time>2024-08-03T13:42:41Z</time>
      </trkpt>
      <trkpt lat="42.94681" lon="0.82595">
        <ele>793</ele>
        <time>2024-08-03T13:42:55Z</time>
      </trkpt>
      <trkpt lat="42.94718" lon="0.8251">
        <ele>786</ele>
        <time>2024-08-03T13:43:08Z</time>
      </trkpt>
      <trkpt lat="42.94766" lon="0.82441">
        <ele>772</ele>
        <time>2024-08-03T13:43:20Z</time>
      </trkpt>
      <trkpt lat="42.94796" lon="0.82415">
        <ele>767</ele>
        <time>2024-08-03T13:43:27Z</time>
      </trkpt>
      <trkpt lat="42.94841" lon="0.82311">
        <ele>754</ele>
        <time>2024-08-03T13:43:42Z</time>
      </trkpt>
      <trkpt lat="42.94862" lon="0.82296">
        <ele>754</ele>
        <time>2024-08-03T13:43:47Z</time>
      </trkpt>
      <trkpt lat="42.94866" lon="0.82282">
        <ele>754</ele>
        <time>2024-08-03T13:43:49Z</time>
      </trkpt>
      <trkpt lat="42.94868" lon="0.82264">
        <ele>752</ele>
        <time>2024-08-03T13:43:51Z</time>
      </trkpt>
      <trkpt lat="42.94863" lon="0.82138">
        <ele>745</ele>
        <time>2024-08-03T13:44:07Z</time>
      </trkpt>
      <trkpt lat="42.94857" lon="0.82034">
        <ele>739</ele>
        <time>2024-08-03T13:44:21Z</time>
      </trkpt>
      <trkpt lat="42.94866" lon="0.81967">
        <ele>735</ele>
        <time>2024-08-03T13:44:30Z</time>
      </trkpt>
      <trkpt lat="42.94887" lon="0.81913">
        <ele>726</ele>
        <time>2024-08-03T13:44:38Z</time>
      </trkpt>
      <trkpt lat="42.94935" lon="0.81879">
        <ele>712</ele>
        <time>2024-08-03T13:44:47Z</time>
      </trkpt>
      <trkpt lat="42.9495" lon="0.81875">
        <ele>709</ele>
        <time>2024-08-03T13:44:50Z</time>
      </trkpt>
      <trkpt lat="42.94984" lon="0.81874">
        <ele>702</ele>
        <time>2024-08-03T13:44:56Z</time>
      </trkpt>
      <trkpt lat="42.94999" lon="0.8187">
        <ele>699</ele>
        <time>2024-08-03T13:44:59Z</time>
      </trkpt>
      <trkpt lat="42.95049" lon="0.81832">
        <ele>689</ele>
        <time>2024-08-03T13:45:09Z</time>
      </trkpt>
      <trkpt lat="42.95056" lon="0.81823">
        <ele>687</ele>
        <time>2024-08-03T13:45:11Z</time>
      </trkpt>
      <trkpt lat="42.95059" lon="0.81807">
        <ele>685</ele>
        <time>2024-08-03T13:45:13Z</time>
      </trkpt>
      <trkpt lat="42.95009" lon="0.81645">
        <ele>660</ele>
        <time>2024-08-03T13:45:36Z</time>
      </trkpt>
      <trkpt lat="42.94995" lon="0.81633">
        <ele>657</ele>
        <time>2024-08-03T13:45:39Z</time>
      </trkpt>
      <trkpt lat="42.94964" lon="0.8162">
        <ele>655</ele>
        <time>2024-08-03T13:45:45Z</time>
      </trkpt>
      <trkpt lat="42.94947" lon="0.81615">
        <ele>654</ele>
        <time>2024-08-03T13:45:48Z</time>
      </trkpt>
      <trkpt lat="42.94934" lon="0.81617">
        <ele>655</ele>
        <time>2024-08-03T13:45:50Z</time>
      </trkpt>
      <trkpt lat="42.94914" lon="0.81629">
        <ele>660</ele>
        <time>2024-08-03T13:45:54Z</time>
      </trkpt>
      <trkpt lat="42.94899" lon="0.81641">
        <ele>667</ele>
        <time>2024-08-03T13:45:57Z</time>
      </trkpt>
      <trkpt lat="42.94888" lon="0.81642">
        <ele>670</ele>
        <time>2024-08-03T13:45:59Z</time>
      </trkpt>
      <trkpt lat="42.94873" lon="0.81627">
        <ele>668</ele>
        <time>2024-08-03T13:46:02Z</time>
      </trkpt>
      <trkpt lat="42.94871" lon="0.81618">
        <ele>665</ele>
        <time>2024-08-03T13:46:03Z</time>
      </trkpt>
      <trkpt lat="42.94873" lon="0.81598">
        <ele>658</ele>
        <time>2024-08-03T13:46:06Z</time>
      </trkpt>
      <trkpt lat="42.94879" lon="0.81584">
        <ele>652</ele>
        <time>2024-08-03T13:46:08Z</time>
      </trkpt>
      <trkpt lat="42.94885" lon="0.81573">
        <ele>652</ele>
        <time>2024-08-03T13:46:10Z</time>
      </trkpt>
      <trkpt lat="42.94908" lon="0.81555">
        <ele>653</ele>
        <time>2024-08-03T13:46:15Z</time>
      </trkpt>
      <trkpt lat="42.94989" lon="0.81511">
        <ele>655</ele>
        <time>2024-08-03T13:46:30Z</time>
      </trkpt>
      <trkpt lat="42.95004" lon="0.81499">
        <ele>655</ele>
        <time>2024-08-03T13:46:33Z</time>
      </trkpt>
      <trkpt lat="42.95023" lon="0.8148">
        <ele>659</ele>
        <time>2024-08-03T13:46:38Z</time>
      </trkpt>
      <trkpt lat="42.95036" lon="0.81473">
        <ele>659</ele>
        <time>2024-08-03T13:46:40Z</time>
      </trkpt>
      <trkpt lat="42.95056" lon="0.8147">
        <ele>656</ele>
        <time>2024-08-03T13:46:44Z</time>
      </trkpt>
      <trkpt lat="42.95077" lon="0.81479">
        <ele>648</ele>
        <time>2024-08-03T13:46:48Z</time>
      </trkpt>
      <trkpt lat="42.95095" lon="0.81494">
        <ele>639</ele>
        <time>2024-08-03T13:46:51Z</time>
      </trkpt>
      <trkpt lat="42.95114" lon="0.81507">
        <ele>634</ele>
        <time>2024-08-03T13:46:55Z</time>
      </trkpt>
      <trkpt lat="42.95127" lon="0.81513">
        <ele>632</ele>
        <time>2024-08-03T13:46:57Z</time>
      </trkpt>
      <trkpt lat="42.95143" lon="0.81513">
        <ele>630</ele>
        <time>2024-08-03T13:47:00Z</time>
      </trkpt>
      <trkpt lat="42.95171" lon="0.81507">
        <ele>626</ele>
        <time>2024-08-03T13:47:05Z</time>
      </trkpt>
      <trkpt lat="42.95189" lon="0.81502">
        <ele>625</ele>
        <time>2024-08-03T13:47:09Z</time>
      </trkpt>
      <trkpt lat="42.952" lon="0.81497">
        <ele>625</ele>
        <time>2024-08-03T13:47:11Z</time>
      </trkpt>
      <trkpt lat="42.95218" lon="0.81479">
        <ele>627</ele>
        <time>2024-08-03T13:47:15Z</time>
      </trkpt>
      <trkpt lat="42.95232" lon="0.81453">
        <ele>627</ele>
        <time>2024-08-03T13:47:19Z</time>
      </trkpt>
      <trkpt lat="42.9524" lon="0.81402">
        <ele>626</ele>
        <time>2024-08-03T13:47:26Z</time>
      </trkpt>
      <trkpt lat="42.95249" lon="0.81325">
        <ele>625</ele>
        <time>2024-08-03T13:47:36Z</time>
      </trkpt>
      <trkpt lat="42.95253" lon="0.81305">
        <ele>630</ele>
        <time>2024-08-03T13:47:39Z</time>
      </trkpt>
      <trkpt lat="42.95264" lon="0.81271">
        <ele>635</ele>
        <time>2024-08-03T13:47:43Z</time>
      </trkpt>
      <trkpt lat="42.9529" lon="0.81227">
        <ele>633</ele>
        <time>2024-08-03T13:47:51Z</time>
      </trkpt>
      <trkpt lat="42.95319" lon="0.81196">
        <ele>623</ele>
        <time>2024-08-03T13:47:57Z</time>
      </trkpt>
      <trkpt lat="42.95352" lon="0.81179">
        <ele>618</ele>
        <time>2024-08-03T13:48:04Z</time>
      </trkpt>
      <trkpt lat="42.95374" lon="0.8117">
        <ele>619</ele>
        <time>2024-08-03T13:48:08Z</time>
      </trkpt>
      <trkpt lat="42.9538" lon="0.81164">
        <ele>620</ele>
        <time>2024-08-03T13:48:09Z</time>
      </trkpt>
      <trkpt lat="42.95384" lon="0.81154">
        <ele>621</ele>
        <time>2024-08-03T13:48:10Z</time>
      </trkpt>
      <trkpt lat="42.95387" lon="0.81143">
        <ele>622</ele>
        <time>2024-08-03T13:48:12Z</time>
      </trkpt>
      <trkpt lat="42.95388" lon="0.81129">
        <ele>623</ele>
        <time>2024-08-03T13:48:14Z</time>
      </trkpt>
      <trkpt lat="42.95364" lon="0.81052">
        <ele>628</ele>
        <time>2024-08-03T13:48:25Z</time>
      </trkpt>
      <trkpt lat="42.9537" lon="0.81018">
        <ele>628</ele>
        <time>2024-08-03T13:48:29Z</time>
      </trkpt>
      <trkpt lat="42.95377" lon="0.80986">
        <ele>627</ele>
        <time>2024-08-03T13:48:34Z</time>
      </trkpt>
      <trkpt lat="42.95387" lon="0.80924">
        <ele>624</ele>
        <time>2024-08-03T13:48:42Z</time>
      </trkpt>
      <trkpt lat="42.95404" lon="0.80863">
        <ele>617</ele>
        <time>2024-08-03T13:48:50Z</time>
      </trkpt>
      <trkpt lat="42.95407" lon="0.80835">
        <ele>614</ele>
        <time>2024-08-03T13:48:54Z</time>
      </trkpt>
      <trkpt lat="42.95382" lon="0.80717">
        <ele>626</ele>
        <time>2024-08-03T13:49:10Z</time>
      </trkpt>
      <trkpt lat="42.95383" lon="0.80684">
        <ele>627</ele>
        <time>2024-08-03T13:49:14Z</time>
      </trkpt>
      <trkpt lat="42.95386" lon="0.8067">
        <ele>626</ele>
        <time>2024-08-03T13:49:16Z</time>
      </trkpt>
      <trkpt lat="42.95395" lon="0.80644">
        <ele>623</ele>
        <time>2024-08-03T13:49:20Z</time>
      </trkpt>
      <trkpt lat="42.9541" lon="0.80606">
        <ele>618</ele>
        <time>2024-08-03T13:49:26Z</time>
      </trkpt>
      <trkpt lat="42.9543" lon="0.80574">
        <ele>616</ele>
        <time>2024-08-03T13:49:31Z</time>
      </trkpt>
      <trkpt lat="42.95447" lon="0.8053">
        <ele>619</ele>
        <time>2024-08-03T13:49:38Z</time>
      </trkpt>
      <trkpt lat="42.95451" lon="0.805">
        <ele>620</ele>
        <time>2024-08-03T13:49:42Z</time>
      </trkpt>
      <trkpt lat="42.95446" lon="0.8047">
        <ele>623</ele>
        <time>2024-08-03T13:49:46Z</time>
      </trkpt>
      <trkpt lat="42.95438" lon="0.80446">
        <ele>626</ele>
        <time>2024-08-03T13:49:49Z</time>
      </trkpt>
      <trkpt lat="42.954" lon="0.80395">
        <ele>643</ele>
        <time>2024-08-03T13:49:58Z</time>
      </trkpt>
      <trkpt lat="42.95398" lon="0.80384">
        <ele>646</ele>
        <time>2024-08-03T13:50:00Z</time>
      </trkpt>
      <trkpt lat="42.95398" lon="0.80371">
        <ele>648</ele>
        <time>2024-08-03T13:50:02Z</time>
      </trkpt>
      <trkpt lat="42.95403" lon="0.80361">
        <ele>648</ele>
        <time>2024-08-03T13:50:03Z</time>
      </trkpt>
      <trkpt lat="42.95412" lon="0.80359">
        <ele>646</ele>
        <time>2024-08-03T13:50:05Z</time>
      </trkpt>
      <trkpt lat="42.95423" lon="0.80363">
        <ele>643</ele>
        <time>2024-08-03T13:50:07Z</time>
      </trkpt>
      <trkpt lat="42.95465" lon="0.80388">
        <ele>632</ele>
        <time>2024-08-03T13:50:15Z</time>
      </trkpt>
      <trkpt lat="42.95481" lon="0.80394">
        <ele>629</ele>
        <time>2024-08-03T13:50:18Z</time>
      </trkpt>
      <trkpt lat="42.95495" lon="0.80391">
        <ele>628</ele>
        <time>2024-08-03T13:50:20Z</time>
      </trkpt>
      <trkpt lat="42.95588" lon="0.80302">
        <ele>632</ele>
        <time>2024-08-03T13:50:41Z</time>
      </trkpt>
      <trkpt lat="42.95606" lon="0.80295">
        <ele>631</ele>
        <time>2024-08-03T13:50:44Z</time>
      </trkpt>
      <trkpt lat="42.95639" lon="0.80298">
        <ele>623</ele>
        <time>2024-08-03T13:50:50Z</time>
      </trkpt>
      <trkpt lat="42.95668" lon="0.80307">
        <ele>614</ele>
        <time>2024-08-03T13:50:55Z</time>
      </trkpt>
      <trkpt lat="42.9568" lon="0.80304">
        <ele>614</ele>
        <time>2024-08-03T13:50:57Z</time>
      </trkpt>
      <trkpt lat="42.95697" lon="0.80295">
        <ele>616</ele>
        <time>2024-08-03T13:51:01Z</time>
      </trkpt>
      <trkpt lat="42.95742" lon="0.8025">
        <ele>621</ele>
        <time>2024-08-03T13:51:11Z</time>
      </trkpt>
      <trkpt lat="42.95775" lon="0.80222">
        <ele>618</ele>
        <time>2024-08-03T13:51:17Z</time>
      </trkpt>
      <trkpt lat="42.9581" lon="0.80206">
        <ele>609</ele>
        <time>2024-08-03T13:51:24Z</time>
      </trkpt>
      <trkpt lat="42.95833" lon="0.80178">
        <ele>604</ele>
        <time>2024-08-03T13:51:30Z</time>
      </trkpt>
      <trkpt lat="42.95908" lon="0.80047">
        <ele>599</ele>
        <time>2024-08-03T13:51:51Z</time>
      </trkpt>
      <trkpt lat="42.95974" lon="0.79901">
        <ele>591</ele>
        <time>2024-08-03T13:52:14Z</time>
      </trkpt>
      <trkpt lat="42.95978" lon="0.79889">
        <ele>589</ele>
        <time>2024-08-03T13:52:15Z</time>
      </trkpt>
      <trkpt lat="42.95975" lon="0.79858">
        <ele>591</ele>
        <time>2024-08-03T13:52:19Z</time>
      </trkpt>
      <trkpt lat="42.95931" lon="0.79733">
        <ele>602</ele>
        <time>2024-08-03T13:52:37Z</time>
      </trkpt>
      <trkpt lat="42.95929" lon="0.79708">
        <ele>603</ele>
        <time>2024-08-03T13:52:41Z</time>
      </trkpt>
      <trkpt lat="42.9593" lon="0.79691">
        <ele>604</ele>
        <time>2024-08-03T13:52:43Z</time>
      </trkpt>
      <trkpt lat="42.95937" lon="0.79684">
        <ele>605</ele>
        <time>2024-08-03T13:52:44Z</time>
      </trkpt>
      <trkpt lat="42.95945" lon="0.79681">
        <ele>605</ele>
        <time>2024-08-03T13:52:46Z</time>
      </trkpt>
      <trkpt lat="42.9595" lon="0.79686">
        <ele>605</ele>
        <time>2024-08-03T13:52:47Z</time>
      </trkpt>
      <trkpt lat="42.95959" lon="0.79724">
        <ele>598</ele>
        <time>2024-08-03T13:52:52Z</time>
      </trkpt>
      <trkpt lat="42.95964" lon="0.79733">
        <ele>596</ele>
        <time>2024-08-03T13:52:54Z</time>
      </trkpt>
      <trkpt lat="42.95985" lon="0.79737">
        <ele>591</ele>
        <time>2024-08-03T13:52:57Z</time>
      </trkpt>
      <trkpt lat="42.96081" lon="0.7974">
        <ele>577</ele>
        <time>2024-08-03T13:53:15Z</time>
      </trkpt>
      <trkpt lat="42.961" lon="0.79735">
        <ele>576</ele>
        <time>2024-08-03T13:53:18Z</time>
      </trkpt>
      <trkpt lat="42.96125" lon="0.79723">
        <ele>576</ele>
        <time>2024-08-03T13:53:23Z</time>
      </trkpt>
      <trkpt lat="42.96168" lon="0.79681">
        <ele>578</ele>
        <time>2024-08-03T13:53:32Z</time>
      </trkpt>
      <trkpt lat="42.96182" lon="0.7966">
        <ele>584</ele>
        <time>2024-08-03T13:53:36Z</time>
      </trkpt>
      <trkpt lat="42.96223" lon="0.79647">
        <ele>583</ele>
        <time>2024-08-03T13:53:43Z</time>
      </trkpt>
      <trkpt lat="42.96258" lon="0.7963">
        <ele>581</ele>
        <time>2024-08-03T13:53:50Z</time>
      </trkpt>
      <trkpt lat="42.96295" lon="0.79577">
        <ele>579</ele>
        <time>2024-08-03T13:53:59Z</time>
      </trkpt>
      <trkpt lat="42.96338" lon="0.79526">
        <ele>579</ele>
        <time>2024-08-03T13:54:10Z</time>
      </trkpt>
      <trkpt lat="42.96355" lon="0.79501">
        <ele>583</ele>
        <time>2024-08-03T13:54:14Z</time>
      </trkpt>
      <trkpt lat="42.96407" lon="0.79449">
        <ele>586</ele>
        <time>2024-08-03T13:54:25Z</time>
      </trkpt>
      <trkpt lat="42.9642" lon="0.79447">
        <ele>582</ele>
        <time>2024-08-03T13:54:28Z</time>
      </trkpt>
      <trkpt lat="42.96453" lon="0.79451">
        <ele>577</ele>
        <time>2024-08-03T13:54:34Z</time>
      </trkpt>
      <trkpt lat="42.96514" lon="0.79436">
        <ele>574</ele>
        <time>2024-08-03T13:54:45Z</time>
      </trkpt>
      <trkpt lat="42.9661" lon="0.79444">
        <ele>555</ele>
        <time>2024-08-03T13:55:02Z</time>
      </trkpt>
      <trkpt lat="42.96631" lon="0.7945">
        <ele>549</ele>
        <time>2024-08-03T13:55:06Z</time>
      </trkpt>
      <trkpt lat="42.96645" lon="0.79448">
        <ele>546</ele>
        <time>2024-08-03T13:55:08Z</time>
      </trkpt>
      <trkpt lat="42.96659" lon="0.79437">
        <ele>542</ele>
        <time>2024-08-03T13:55:11Z</time>
      </trkpt>
      <trkpt lat="42.96673" lon="0.79402">
        <ele>542</ele>
        <time>2024-08-03T13:55:16Z</time>
      </trkpt>
      <trkpt lat="42.96675" lon="0.7935">
        <ele>552</ele>
        <time>2024-08-03T13:55:23Z</time>
      </trkpt>
      <trkpt lat="42.96683" lon="0.79309">
        <ele>558</ele>
        <time>2024-08-03T13:55:28Z</time>
      </trkpt>
      <trkpt lat="42.96697" lon="0.79277">
        <ele>559</ele>
        <time>2024-08-03T13:55:33Z</time>
      </trkpt>
      <trkpt lat="42.96782" lon="0.79179">
        <ele>538</ele>
        <time>2024-08-03T13:55:53Z</time>
      </trkpt>
      <trkpt lat="42.96803" lon="0.79156">
        <ele>537</ele>
        <time>2024-08-03T13:55:58Z</time>
      </trkpt>
      <trkpt lat="42.96818" lon="0.79152">
        <ele>535</ele>
        <time>2024-08-03T13:56:01Z</time>
      </trkpt>
      <trkpt lat="42.96858" lon="0.7912">
        <ele>536</ele>
        <time>2024-08-03T13:56:09Z</time>
      </trkpt>
      <trkpt lat="42.96878" lon="0.79115">
        <ele>535</ele>
        <time>2024-08-03T13:56:13Z</time>
      </trkpt>
      <trkpt lat="42.96917" lon="0.79127">
        <ele>529</ele>
        <time>2024-08-03T13:56:20Z</time>
      </trkpt>
      <trkpt lat="42.96949" lon="0.7913">
        <ele>526</ele>
        <time>2024-08-03T13:56:25Z</time>
      </trkpt>
      <trkpt lat="42.96965" lon="0.79127">
        <ele>525</ele>
        <time>2024-08-03T13:56:28Z</time>
      </trkpt>
      <trkpt lat="42.9706" lon="0.79081">
        <ele>523</ele>
        <time>2024-08-03T13:56:46Z</time>
      </trkpt>
      <trkpt lat="42.97133" lon="0.79052">
        <ele>526</ele>
        <time>2024-08-03T13:57:00Z</time>
      </trkpt>
      <trkpt lat="42.97197" lon="0.79033">
        <ele>524</ele>
        <time>2024-08-03T13:57:11Z</time>
      </trkpt>
      <trkpt lat="42.97259" lon="0.7896">
        <ele>522</ele>
        <time>2024-08-03T13:57:26Z</time>
      </trkpt>
      <trkpt lat="42.9729" lon="0.78943">
        <ele>517</ele>
        <time>2024-08-03T13:57:32Z</time>
      </trkpt>
      <trkpt lat="42.97417" lon="0.78884">
        <ele>508</ele>
        <time>2024-08-03T13:57:56Z</time>
      </trkpt>
      <trkpt lat="42.9746" lon="0.78858">
        <ele>514</ele>
        <time>2024-08-03T13:58:04Z</time>
      </trkpt>
      <trkpt lat="42.97473" lon="0.78854">
        <ele>516</ele>
        <time>2024-08-03T13:58:06Z</time>
      </trkpt>
      <trkpt lat="42.9749" lon="0.78855">
        <ele>518</ele>
        <time>2024-08-03T13:58:09Z</time>
      </trkpt>
      <trkpt lat="42.97609" lon="0.78918">
        <ele>509</ele>
        <time>2024-08-03T13:58:32Z</time>
      </trkpt>
      <trkpt lat="42.97666" lon="0.78909">
        <ele>514</ele>
        <time>2024-08-03T13:58:42Z</time>
      </trkpt>
      <trkpt lat="42.97719" lon="0.7888">
        <ele>519</ele>
        <time>2024-08-03T13:58:53Z</time>
      </trkpt>
      <trkpt lat="42.97733" lon="0.78876">
        <ele>518</ele>
        <time>2024-08-03T13:58:55Z</time>
      </trkpt>
      <trkpt lat="42.97765" lon="0.78877">
        <ele>514</ele>
        <time>2024-08-03T13:59:01Z</time>
      </trkpt>
      <trkpt lat="42.97783" lon="0.78867">
        <ele>515</ele>
        <time>2024-08-03T13:59:04Z</time>
      </trkpt>
      <trkpt lat="42.97823" lon="0.78843">
        <ele>516</ele>
        <time>2024-08-03T13:59:12Z</time>
      </trkpt>
      <trkpt lat="42.97841" lon="0.78836">
        <ele>516</ele>
        <time>2024-08-03T13:59:15Z</time>
      </trkpt>
      <trkpt lat="42.9787" lon="0.78833">
        <ele>516</ele>
        <time>2024-08-03T13:59:21Z</time>
      </trkpt>
      <trkpt lat="42.97895" lon="0.78836">
        <ele>514</ele>
        <time>2024-08-03T13:59:25Z</time>
      </trkpt>
      <trkpt lat="42.97944" lon="0.78846">
        <ele>515</ele>
        <time>2024-08-03T13:59:34Z</time>
      </trkpt>
      <trkpt lat="42.98018" lon="0.78849">
        <ele>522</ele>
        <time>2024-08-03T13:59:47Z</time>
      </trkpt>
      <trkpt lat="42.98049" lon="0.78847">
        <ele>525</ele>
        <time>2024-08-03T13:59:52Z</time>
      </trkpt>
      <trkpt lat="42.98093" lon="0.78828">
        <ele>530</ele>
        <time>2024-08-03T14:00:01Z</time>
      </trkpt>
      <trkpt lat="42.98125" lon="0.78817">
        <ele>530</ele>
        <time>2024-08-03T14:00:07Z</time>
      </trkpt>
      <trkpt lat="42.98154" lon="0.78821">
        <ele>530</ele>
        <time>2024-08-03T14:00:12Z</time>
      </trkpt>
      <trkpt lat="42.98169" lon="0.78813">
        <ele>530</ele>
        <time>2024-08-03T14:00:15Z</time>
      </trkpt>
      <trkpt lat="42.98171" lon="0.78809">
        <ele>531</ele>
        <time>2024-08-03T14:00:15Z</time>
      </trkpt>
      <trkpt lat="42.98171" lon="0.78809">
        <ele>531</ele>
        <time>2024-08-03T14:00:15Z</time>
      </trkpt>
      <trkpt lat="42.9818" lon="0.78798">
        <ele>532</ele>
        <time>2024-08-03T14:00:17Z</time>
      </trkpt>
      <trkpt lat="42.98183" lon="0.78783">
        <ele>533</ele>
        <time>2024-08-03T14:00:19Z</time>
      </trkpt>
      <trkpt lat="42.98065" lon="0.78723">
        <ele>543</ele>
        <time>2024-08-03T14:00:42Z</time>
      </trkpt>
      <trkpt lat="42.97946" lon="0.78657">
        <ele>547</ele>
        <time>2024-08-03T14:01:05Z</time>
      </trkpt>
      <trkpt lat="42.97919" lon="0.78614">
        <ele>548</ele>
        <time>2024-08-03T14:01:12Z</time>
      </trkpt>
      <trkpt lat="42.97896" lon="0.78562">
        <ele>555</ele>
        <time>2024-08-03T14:01:20Z</time>
      </trkpt>
      <trkpt lat="42.97891" lon="0.78518">
        <ele>561</ele>
        <time>2024-08-03T14:01:26Z</time>
      </trkpt>
      <trkpt lat="42.97893" lon="0.78482">
        <ele>565</ele>
        <time>2024-08-03T14:01:30Z</time>
      </trkpt>
      <trkpt lat="42.97899" lon="0.78436">
        <ele>569</ele>
        <time>2024-08-03T14:01:37Z</time>
      </trkpt>
      <trkpt lat="42.9792" lon="0.78367">
        <ele>573</ele>
        <time>2024-08-03T14:01:46Z</time>
      </trkpt>
      <trkpt lat="42.97928" lon="0.78314">
        <ele>576</ele>
        <time>2024-08-03T14:01:53Z</time>
      </trkpt>
      <trkpt lat="42.97923" lon="0.78254">
        <ele>571</ele>
        <time>2024-08-03T14:02:01Z</time>
      </trkpt>
      <trkpt lat="42.97911" lon="0.78171">
        <ele>571</ele>
        <time>2024-08-03T14:02:12Z</time>
      </trkpt>
      <trkpt lat="42.97908" lon="0.78124">
        <ele>572</ele>
        <time>2024-08-03T14:02:18Z</time>
      </trkpt>
      <trkpt lat="42.9791" lon="0.77976">
        <ele>578</ele>
        <time>2024-08-03T14:02:38Z</time>
      </trkpt>
      <trkpt lat="42.97907" lon="0.7794">
        <ele>580</ele>
        <time>2024-08-03T14:02:42Z</time>
      </trkpt>
      <trkpt lat="42.97898" lon="0.77902">
        <ele>583</ele>
        <time>2024-08-03T14:02:47Z</time>
      </trkpt>
      <trkpt lat="42.97879" lon="0.7784">
        <ele>588</ele>
        <time>2024-08-03T14:02:56Z</time>
      </trkpt>
      <trkpt lat="42.97867" lon="0.77785">
        <ele>590</ele>
        <time>2024-08-03T14:03:04Z</time>
      </trkpt>
      <trkpt lat="42.97862" lon="0.77719">
        <ele>591</ele>
        <time>2024-08-03T14:03:12Z</time>
      </trkpt>
      <trkpt lat="42.97853" lon="0.77662">
        <ele>592</ele>
        <time>2024-08-03T14:03:20Z</time>
      </trkpt>
      <trkpt lat="42.97834" lon="0.77598">
        <ele>593</ele>
        <time>2024-08-03T14:03:29Z</time>
      </trkpt>
      <trkpt lat="42.97841" lon="0.77531">
        <ele>597</ele>
        <time>2024-08-03T14:03:38Z</time>
      </trkpt>
      <trkpt lat="42.97841" lon="0.77488">
        <ele>600</ele>
        <time>2024-08-03T14:03:43Z</time>
      </trkpt>
      <trkpt lat="42.97831" lon="0.77454">
        <ele>601</ele>
        <time>2024-08-03T14:03:48Z</time>
      </trkpt>
      <trkpt lat="42.97826" lon="0.77414">
        <ele>602</ele>
        <time>2024-08-03T14:03:53Z</time>
      </trkpt>
      <trkpt lat="42.97836" lon="0.77372">
        <ele>603</ele>
        <time>2024-08-03T14:03:59Z</time>
      </trkpt>
      <trkpt lat="42.97856" lon="0.77338">
        <ele>603</ele>
        <time>2024-08-03T14:04:05Z</time>
      </trkpt>
      <trkpt lat="42.97859" lon="0.77305">
        <ele>604</ele>
        <time>2024-08-03T14:04:09Z</time>
      </trkpt>
      <trkpt lat="42.97815" lon="0.77045">
        <ele>609</ele>
        <time>2024-08-03T14:04:44Z</time>
      </trkpt>
      <trkpt lat="42.97817" lon="0.76938">
        <ele>609</ele>
        <time>2024-08-03T14:04:58Z</time>
      </trkpt>
      <trkpt lat="42.97867" lon="0.76268">
        <ele>592</ele>
        <time>2024-08-03T14:06:25Z</time>
      </trkpt>
      <trkpt lat="42.97864" lon="0.76199">
        <ele>589</ele>
        <time>2024-08-03T14:06:34Z</time>
      </trkpt>
      <trkpt lat="42.97837" lon="0.76038">
        <ele>585</ele>
        <time>2024-08-03T14:06:56Z</time>
      </trkpt>
      <trkpt lat="42.97772" lon="0.75616">
        <ele>582</ele>
        <time>2024-08-03T14:07:52Z</time>
      </trkpt>
      <trkpt lat="42.9778" lon="0.75553">
        <ele>581</ele>
        <time>2024-08-03T14:08:00Z</time>
      </trkpt>
      <trkpt lat="42.97799" lon="0.75519">
        <ele>580</ele>
        <time>2024-08-03T14:08:06Z</time>
      </trkpt>
      <trkpt lat="42.97863" lon="0.75469">
        <ele>575</ele>
        <time>2024-08-03T14:08:19Z</time>
      </trkpt>
      <trkpt lat="42.97887" lon="0.75433">
        <ele>574</ele>
        <time>2024-08-03T14:08:25Z</time>
      </trkpt>
      <trkpt lat="42.97889" lon="0.754">
        <ele>573</ele>
        <time>2024-08-03T14:08:30Z</time>
      </trkpt>
      <trkpt lat="42.97877" lon="0.75336">
        <ele>570</ele>
        <time>2024-08-03T14:08:38Z</time>
      </trkpt>
      <trkpt lat="42.97879" lon="0.75303">
        <ele>571</ele>
        <time>2024-08-03T14:08:43Z</time>
      </trkpt>
      <trkpt lat="42.97887" lon="0.75281">
        <ele>571</ele>
        <time>2024-08-03T14:08:46Z</time>
      </trkpt>
      <trkpt lat="42.97917" lon="0.75258">
        <ele>571</ele>
        <time>2024-08-03T14:08:52Z</time>
      </trkpt>
      <trkpt lat="42.97954" lon="0.75252">
        <ele>570</ele>
        <time>2024-08-03T14:08:59Z</time>
      </trkpt>
      <trkpt lat="42.97987" lon="0.75251">
        <ele>568</ele>
        <time>2024-08-03T14:09:05Z</time>
      </trkpt>
      <trkpt lat="42.98013" lon="0.75236">
        <ele>568</ele>
        <time>2024-08-03T14:09:10Z</time>
      </trkpt>
      <trkpt lat="42.98029" lon="0.75213">
        <ele>568</ele>
        <time>2024-08-03T14:09:14Z</time>
      </trkpt>
      <trkpt lat="42.98032" lon="0.75168">
        <ele>570</ele>
        <time>2024-08-03T14:09:20Z</time>
      </trkpt>
      <trkpt lat="42.98021" lon="0.75116">
        <ele>570</ele>
        <time>2024-08-03T14:09:27Z</time>
      </trkpt>
      <trkpt lat="42.98012" lon="0.75065">
        <ele>569</ele>
        <time>2024-08-03T14:09:33Z</time>
      </trkpt>
      <trkpt lat="42.98013" lon="0.7501">
        <ele>567</ele>
        <time>2024-08-03T14:09:41Z</time>
      </trkpt>
      <trkpt lat="42.98031" lon="0.74981">
        <ele>566</ele>
        <time>2024-08-03T14:09:46Z</time>
      </trkpt>
      <trkpt lat="42.98074" lon="0.74954">
        <ele>565</ele>
        <time>2024-08-03T14:09:54Z</time>
      </trkpt>
      <trkpt lat="42.98132" lon="0.74947">
        <ele>563</ele>
        <time>2024-08-03T14:10:04Z</time>
      </trkpt>
      <trkpt lat="42.98187" lon="0.74926">
        <ele>561</ele>
        <time>2024-08-03T14:10:14Z</time>
      </trkpt>
      <trkpt lat="42.98233" lon="0.74895">
        <ele>557</ele>
        <time>2024-08-03T14:10:24Z</time>
      </trkpt>
      <trkpt lat="42.98311" lon="0.74809">
        <ele>551</ele>
        <time>2024-08-03T14:10:41Z</time>
      </trkpt>
      <trkpt lat="42.98405" lon="0.74715">
        <ele>540</ele>
        <time>2024-08-03T14:11:02Z</time>
      </trkpt>
      <trkpt lat="42.98552" lon="0.74672">
        <ele>535</ele>
        <time>2024-08-03T14:11:29Z</time>
      </trkpt>
      <trkpt lat="42.98606" lon="0.74632">
        <ele>533</ele>
        <time>2024-08-03T14:11:40Z</time>
      </trkpt>
      <trkpt lat="42.98677" lon="0.74567">
        <ele>529</ele>
        <time>2024-08-03T14:11:55Z</time>
      </trkpt>
      <trkpt lat="42.98698" lon="0.74539">
        <ele>527</ele>
        <time>2024-08-03T14:12:00Z</time>
      </trkpt>
      <trkpt lat="42.98707" lon="0.74508">
        <ele>525</ele>
        <time>2024-08-03T14:12:05Z</time>
      </trkpt>
      <trkpt lat="42.98709" lon="0.74474">
        <ele>523</ele>
        <time>2024-08-03T14:12:09Z</time>
      </trkpt>
      <trkpt lat="42.98703" lon="0.74442">
        <ele>522</ele>
        <time>2024-08-03T14:12:13Z</time>
      </trkpt>
      <trkpt lat="42.9869" lon="0.7442">
        <ele>523</ele>
        <time>2024-08-03T14:12:17Z</time>
      </trkpt>
      <trkpt lat="42.98665" lon="0.74394">
        <ele>525</ele>
        <time>2024-08-03T14:12:23Z</time>
      </trkpt>
      <trkpt lat="42.98651" lon="0.74371">
        <ele>524</ele>
        <time>2024-08-03T14:12:27Z</time>
      </trkpt>
      <trkpt lat="42.98648" lon="0.74343">
        <ele>523</ele>
        <time>2024-08-03T14:12:30Z</time>
      </trkpt>
      <trkpt lat="42.98653" lon="0.74318">
        <ele>522</ele>
        <time>2024-08-03T14:12:34Z</time>
      </trkpt>
      <trkpt lat="42.98669" lon="0.74293">
        <ele>520</ele>
        <time>2024-08-03T14:12:38Z</time>
      </trkpt>
      <trkpt lat="42.98695" lon="0.74273">
        <ele>516</ele>
        <time>2024-08-03T14:12:43Z</time>
      </trkpt>
      <trkpt lat="42.9872" lon="0.74246">
        <ele>512</ele>
        <time>2024-08-03T14:12:49Z</time>
      </trkpt>
      <trkpt lat="42.98737" lon="0.7421">
        <ele>509</ele>
        <time>2024-08-03T14:12:54Z</time>
      </trkpt>
      <trkpt lat="42.98745" lon="0.74149">
        <ele>507</ele>
        <time>2024-08-03T14:13:03Z</time>
      </trkpt>
      <trkpt lat="42.98754" lon="0.74103">
        <ele>506</ele>
        <time>2024-08-03T14:13:09Z</time>
      </trkpt>
      <trkpt lat="42.98758" lon="0.74061">
        <ele>503</ele>
        <time>2024-08-03T14:13:14Z</time>
      </trkpt>
      <trkpt lat="42.98752" lon="0.74032">
        <ele>501</ele>
        <time>2024-08-03T14:13:18Z</time>
      </trkpt>
      <trkpt lat="42.98706" lon="0.73978">
        <ele>502</ele>
        <time>2024-08-03T14:13:29Z</time>
      </trkpt>
      <trkpt lat="42.98698" lon="0.73955">
        <ele>499</ele>
        <time>2024-08-03T14:13:32Z</time>
      </trkpt>
      <trkpt lat="42.98665" lon="0.73808">
        <ele>492</ele>
        <time>2024-08-03T14:13:52Z</time>
      </trkpt>
      <trkpt lat="42.98656" lon="0.73773">
        <ele>493</ele>
        <time>2024-08-03T14:13:57Z</time>
      </trkpt>
      <trkpt lat="42.98649" lon="0.7376">
        <ele>494</ele>
        <time>2024-08-03T14:13:59Z</time>
      </trkpt>
      <trkpt lat="42.9864" lon="0.73751">
        <ele>495</ele>
        <time>2024-08-03T14:14:01Z</time>
      </trkpt>
      <trkpt lat="42.98617" lon="0.73733">
        <ele>498</ele>
        <time>2024-08-03T14:14:06Z</time>
      </trkpt>
      <trkpt lat="42.98578" lon="0.73718">
        <ele>498</ele>
        <time>2024-08-03T14:14:13Z</time>
      </trkpt>
      <trkpt lat="42.98562" lon="0.73703">
        <ele>499</ele>
        <time>2024-08-03T14:14:17Z</time>
      </trkpt>
      <trkpt lat="42.98547" lon="0.73682">
        <ele>500</ele>
        <time>2024-08-03T14:14:20Z</time>
      </trkpt>
      <trkpt lat="42.98486" lon="0.73496">
        <ele>508</ele>
        <time>2024-08-03T14:14:47Z</time>
      </trkpt>
      <trkpt lat="42.98472" lon="0.73442">
        <ele>512</ele>
        <time>2024-08-03T14:14:54Z</time>
      </trkpt>
      <trkpt lat="42.98472" lon="0.73411">
        <ele>513</ele>
        <time>2024-08-03T14:14:58Z</time>
      </trkpt>
      <trkpt lat="42.98482" lon="0.73241">
        <ele>513</ele>
        <time>2024-08-03T14:15:21Z</time>
      </trkpt>
      <trkpt lat="42.98484" lon="0.73192">
        <ele>515</ele>
        <time>2024-08-03T14:15:27Z</time>
      </trkpt>
      <trkpt lat="42.98471" lon="0.73143">
        <ele>515</ele>
        <time>2024-08-03T14:15:34Z</time>
      </trkpt>
      <trkpt lat="42.98444" lon="0.73074">
        <ele>513</ele>
        <time>2024-08-03T14:15:44Z</time>
      </trkpt>
      <trkpt lat="42.98438" lon="0.73052">
        <ele>513</ele>
        <time>2024-08-03T14:15:47Z</time>
      </trkpt>
      <trkpt lat="42.98425" lon="0.72941">
        <ele>519</ele>
        <time>2024-08-03T14:16:02Z</time>
      </trkpt>
      <trkpt lat="42.98394" lon="0.72807">
        <ele>531</ele>
        <time>2024-08-03T14:16:20Z</time>
      </trkpt>
      <trkpt lat="42.98367" lon="0.72763">
        <ele>532</ele>
        <time>2024-08-03T14:16:27Z</time>
      </trkpt>
      <trkpt lat="42.98343" lon="0.72738">
        <ele>528</ele>
        <time>2024-08-03T14:16:33Z</time>
      </trkpt>
      <trkpt lat="42.98323" lon="0.72699">
        <ele>528</ele>
        <time>2024-08-03T14:16:39Z</time>
      </trkpt>
      <trkpt lat="42.98314" lon="0.72636">
        <ele>530</ele>
        <time>2024-08-03T14:16:47Z</time>
      </trkpt>
      <trkpt lat="42.98307" lon="0.72551">
        <ele>530</ele>
        <time>2024-08-03T14:16:58Z</time>
      </trkpt>
      <trkpt lat="42.98321" lon="0.7251">
        <ele>535</ele>
        <time>2024-08-03T14:17:04Z</time>
      </trkpt>
      <trkpt lat="42.98325" lon="0.72485">
        <ele>538</ele>
        <time>2024-08-03T14:17:08Z</time>
      </trkpt>
      <trkpt lat="42.98316" lon="0.72464">
        <ele>537</ele>
        <time>2024-08-03T14:17:11Z</time>
      </trkpt>
      <trkpt lat="42.98301" lon="0.72443">
        <ele>534</ele>
        <time>2024-08-03T14:17:15Z</time>
      </trkpt>
      <trkpt lat="42.98307" lon="0.72397">
        <ele>540</ele>
        <time>2024-08-03T14:17:21Z</time>
      </trkpt>
      <trkpt lat="42.98308" lon="0.72245">
        <ele>556</ele>
        <time>2024-08-03T14:17:41Z</time>
      </trkpt>
      <trkpt lat="42.98303" lon="0.72199">
        <ele>556</ele>
        <time>2024-08-03T14:17:47Z</time>
      </trkpt>
      <trkpt lat="42.9829" lon="0.72137">
        <ele>554</ele>
        <time>2024-08-03T14:17:55Z</time>
      </trkpt>
      <trkpt lat="42.98267" lon="0.72044">
        <ele>549</ele>
        <time>2024-08-03T14:18:08Z</time>
      </trkpt>
      <trkpt lat="42.98266" lon="0.72029">
        <ele>549</ele>
        <time>2024-08-03T14:18:10Z</time>
      </trkpt>
      <trkpt lat="42.98269" lon="0.72013">
        <ele>551</ele>
        <time>2024-08-03T14:18:12Z</time>
      </trkpt>
      <trkpt lat="42.98276" lon="0.71998">
        <ele>555</ele>
        <time>2024-08-03T14:18:14Z</time>
      </trkpt>
      <trkpt lat="42.98299" lon="0.71972">
        <ele>564</ele>
        <time>2024-08-03T14:18:20Z</time>
      </trkpt>
      <trkpt lat="42.98302" lon="0.71956">
        <ele>564</ele>
        <time>2024-08-03T14:18:22Z</time>
      </trkpt>
      <trkpt lat="42.98302" lon="0.71939">
        <ele>563</ele>
        <time>2024-08-03T14:18:24Z</time>
      </trkpt>
      <trkpt lat="42.98306" lon="0.71921">
        <ele>564</ele>
        <time>2024-08-03T14:18:26Z</time>
      </trkpt>
      <trkpt lat="42.98329" lon="0.71857">
        <ele>568</ele>
        <time>2024-08-03T14:18:36Z</time>
      </trkpt>
      <trkpt lat="42.98336" lon="0.71808">
        <ele>572</ele>
        <time>2024-08-03T14:18:42Z</time>
      </trkpt>
      <trkpt lat="42.98336" lon="0.71788">
        <ele>576</ele>
        <time>2024-08-03T14:18:45Z</time>
      </trkpt>
      <trkpt lat="42.98331" lon="0.71775">
        <ele>577</ele>
        <time>2024-08-03T14:18:47Z</time>
      </trkpt>
      <trkpt lat="42.98315" lon="0.71761">
        <ele>578</ele>
        <time>2024-08-03T14:18:50Z</time>
      </trkpt>
      <trkpt lat="42.98295" lon="0.71758">
        <ele>576</ele>
        <time>2024-08-03T14:18:54Z</time>
      </trkpt>
      <trkpt lat="42.98255" lon="0.71785">
        <ele>567</ele>
        <time>2024-08-03T14:19:02Z</time>
      </trkpt>
      <trkpt lat="42.98243" lon="0.7179">
        <ele>564</ele>
        <time>2024-08-03T14:19:04Z</time>
      </trkpt>
      <trkpt lat="42.98229" lon="0.71788">
        <ele>562</ele>
        <time>2024-08-03T14:19:06Z</time>
      </trkpt>
      <trkpt lat="42.98221" lon="0.71776">
        <ele>562</ele>
        <time>2024-08-03T14:19:08Z</time>
      </trkpt>
      <trkpt lat="42.9822" lon="0.71759">
        <ele>564</ele>
        <time>2024-08-03T14:19:11Z</time>
      </trkpt>
      <trkpt lat="42.98226" lon="0.71738">
        <ele>567</ele>
        <time>2024-08-03T14:19:14Z</time>
      </trkpt>
      <trkpt lat="42.98255" lon="0.71673">
        <ele>578</ele>
        <time>2024-08-03T14:19:23Z</time>
      </trkpt>
      <trkpt lat="42.9826" lon="0.71641">
        <ele>583</ele>
        <time>2024-08-03T14:19:28Z</time>
      </trkpt>
      <trkpt lat="42.98258" lon="0.71605">
        <ele>587</ele>
        <time>2024-08-03T14:19:32Z</time>
      </trkpt>
      <trkpt lat="42.98253" lon="0.71564">
        <ele>590</ele>
        <time>2024-08-03T14:19:38Z</time>
      </trkpt>
      <trkpt lat="42.98243" lon="0.71536">
        <ele>593</ele>
        <time>2024-08-03T14:19:42Z</time>
      </trkpt>
      <trkpt lat="42.98231" lon="0.71529">
        <ele>591</ele>
        <time>2024-08-03T14:19:44Z</time>
      </trkpt>
      <trkpt lat="42.98186" lon="0.71529">
        <ele>583</ele>
        <time>2024-08-03T14:19:52Z</time>
      </trkpt>
      <trkpt lat="42.98172" lon="0.71512">
        <ele>583</ele>
        <time>2024-08-03T14:19:56Z</time>
      </trkpt>
      <trkpt lat="42.98157" lon="0.71471">
        <ele>581</ele>
        <time>2024-08-03T14:20:01Z</time>
      </trkpt>
      <trkpt lat="42.98157" lon="0.7143">
        <ele>582</ele>
        <time>2024-08-03T14:20:07Z</time>
      </trkpt>
      <trkpt lat="42.98159" lon="0.7141">
        <ele>583</ele>
        <time>2024-08-03T14:20:09Z</time>
      </trkpt>
      <trkpt lat="42.98167" lon="0.7139">
        <ele>584</ele>
        <time>2024-08-03T14:20:12Z</time>
      </trkpt>
      <trkpt lat="42.98186" lon="0.71364">
        <ele>588</ele>
        <time>2024-08-03T14:20:17Z</time>
      </trkpt>
      <trkpt lat="42.98215" lon="0.71334">
        <ele>597</ele>
        <time>2024-08-03T14:20:24Z</time>
      </trkpt>
      <trkpt lat="42.98232" lon="0.71304">
        <ele>605</ele>
        <time>2024-08-03T14:20:29Z</time>
      </trkpt>
      <trkpt lat="42.9824" lon="0.71271">
        <ele>611</ele>
        <time>2024-08-03T14:20:33Z</time>
      </trkpt>
      <trkpt lat="42.98235" lon="0.71242">
        <ele>611</ele>
        <time>2024-08-03T14:20:37Z</time>
      </trkpt>
      <trkpt lat="42.98219" lon="0.71211">
        <ele>611</ele>
        <time>2024-08-03T14:20:42Z</time>
      </trkpt>
      <trkpt lat="42.98194" lon="0.7118">
        <ele>607</ele>
        <time>2024-08-03T14:20:48Z</time>
      </trkpt>
      <trkpt lat="42.98176" lon="0.71148">
        <ele>605</ele>
        <time>2024-08-03T14:20:53Z</time>
      </trkpt>
      <trkpt lat="42.9816" lon="0.71099">
        <ele>606</ele>
        <time>2024-08-03T14:21:00Z</time>
      </trkpt>
      <trkpt lat="42.98153" lon="0.71061">
        <ele>608</ele>
        <time>2024-08-03T14:21:05Z</time>
      </trkpt>
      <trkpt lat="42.98151" lon="0.71034">
        <ele>611</ele>
        <time>2024-08-03T14:21:09Z</time>
      </trkpt>
      <trkpt lat="42.98156" lon="0.7098">
        <ele>621</ele>
        <time>2024-08-03T14:21:16Z</time>
      </trkpt>
      <trkpt lat="42.98155" lon="0.70963">
        <ele>623</ele>
        <time>2024-08-03T14:21:18Z</time>
      </trkpt>
      <trkpt lat="42.9815" lon="0.70946">
        <ele>624</ele>
        <time>2024-08-03T14:21:21Z</time>
      </trkpt>
      <trkpt lat="42.98131" lon="0.7092">
        <ele>620</ele>
        <time>2024-08-03T14:21:25Z</time>
      </trkpt>
      <trkpt lat="42.98117" lon="0.70895">
        <ele>617</ele>
        <time>2024-08-03T14:21:29Z</time>
      </trkpt>
      <trkpt lat="42.98111" lon="0.70874">
        <ele>616</ele>
        <time>2024-08-03T14:21:32Z</time>
      </trkpt>
      <trkpt lat="42.9811" lon="0.70853">
        <ele>619</ele>
        <time>2024-08-03T14:21:35Z</time>
      </trkpt>
      <trkpt lat="42.98111" lon="0.7083">
        <ele>622</ele>
        <time>2024-08-03T14:21:38Z</time>
      </trkpt>
      <trkpt lat="42.98123" lon="0.70778">
        <ele>634</ele>
        <time>2024-08-03T14:21:45Z</time>
      </trkpt>
      <trkpt lat="42.98122" lon="0.70766">
        <ele>635</ele>
        <time>2024-08-03T14:21:47Z</time>
      </trkpt>
      <trkpt lat="42.98118" lon="0.70754">
        <ele>635</ele>
        <time>2024-08-03T14:21:48Z</time>
      </trkpt>
      <trkpt lat="42.98109" lon="0.70747">
        <ele>633</ele>
        <time>2024-08-03T14:21:50Z</time>
      </trkpt>
      <trkpt lat="42.98079" lon="0.70734">
        <ele>623</ele>
        <time>2024-08-03T14:21:56Z</time>
      </trkpt>
      <trkpt lat="42.9807" lon="0.70716">
        <ele>621</ele>
        <time>2024-08-03T14:21:59Z</time>
      </trkpt>
      <trkpt lat="42.98066" lon="0.70692">
        <ele>623</ele>
        <time>2024-08-03T14:22:02Z</time>
      </trkpt>
      <trkpt lat="42.98066" lon="0.70646">
        <ele>630</ele>
        <time>2024-08-03T14:22:08Z</time>
      </trkpt>
      <trkpt lat="42.98065" lon="0.70622">
        <ele>634</ele>
        <time>2024-08-03T14:22:11Z</time>
      </trkpt>
      <trkpt lat="42.98046" lon="0.70528">
        <ele>635</ele>
        <time>2024-08-03T14:22:24Z</time>
      </trkpt>
      <trkpt lat="42.98047" lon="0.70481">
        <ele>640</ele>
        <time>2024-08-03T14:22:30Z</time>
      </trkpt>
      <trkpt lat="42.98046" lon="0.70461">
        <ele>641</ele>
        <time>2024-08-03T14:22:32Z</time>
      </trkpt>
      <trkpt lat="42.9804" lon="0.70441">
        <ele>641</ele>
        <time>2024-08-03T14:22:35Z</time>
      </trkpt>
      <trkpt lat="42.9803" lon="0.70418">
        <ele>640</ele>
        <time>2024-08-03T14:22:39Z</time>
      </trkpt>
      <trkpt lat="42.98027" lon="0.70401">
        <ele>641</ele>
        <time>2024-08-03T14:22:41Z</time>
      </trkpt>
      <trkpt lat="42.98023" lon="0.70313">
        <ele>646</ele>
        <time>2024-08-03T14:22:53Z</time>
      </trkpt>
      <trkpt lat="42.9802" lon="0.70292">
        <ele>647</ele>
        <time>2024-08-03T14:22:55Z</time>
      </trkpt>
      <trkpt lat="42.98015" lon="0.70276">
        <ele>646</ele>
        <time>2024-08-03T14:22:58Z</time>
      </trkpt>
      <trkpt lat="42.98006" lon="0.70265">
        <ele>642</ele>
        <time>2024-08-03T14:23:00Z</time>
      </trkpt>
      <trkpt lat="42.97992" lon="0.70254">
        <ele>637</ele>
        <time>2024-08-03T14:23:03Z</time>
      </trkpt>
      <trkpt lat="42.97987" lon="0.70239">
        <ele>637</ele>
        <time>2024-08-03T14:23:05Z</time>
      </trkpt>
      <trkpt lat="42.97987" lon="0.70225">
        <ele>639</ele>
        <time>2024-08-03T14:23:07Z</time>
      </trkpt>
      <trkpt lat="42.97991" lon="0.70217">
        <ele>642</ele>
        <time>2024-08-03T14:23:08Z</time>
      </trkpt>
      <trkpt lat="42.97997" lon="0.70212">
        <ele>645</ele>
        <time>2024-08-03T14:23:09Z</time>
      </trkpt>
      <trkpt lat="42.98005" lon="0.70212">
        <ele>649</ele>
        <time>2024-08-03T14:23:11Z</time>
      </trkpt>
      <trkpt lat="42.98012" lon="0.70219">
        <ele>652</ele>
        <time>2024-08-03T14:23:12Z</time>
      </trkpt>
      <trkpt lat="42.98038" lon="0.70283">
        <ele>657</ele>
        <time>2024-08-03T14:23:22Z</time>
      </trkpt>
      <trkpt lat="42.9806" lon="0.70345">
        <ele>659</ele>
        <time>2024-08-03T14:23:31Z</time>
      </trkpt>
      <trkpt lat="42.98086" lon="0.70436">
        <ele>659</ele>
        <time>2024-08-03T14:23:43Z</time>
      </trkpt>
      <trkpt lat="42.98097" lon="0.7049">
        <ele>661</ele>
        <time>2024-08-03T14:23:51Z</time>
      </trkpt>
      <trkpt lat="42.98103" lon="0.70535">
        <ele>662</ele>
        <time>2024-08-03T14:23:57Z</time>
      </trkpt>
      <trkpt lat="42.98115" lon="0.7058">
        <ele>666</ele>
        <time>2024-08-03T14:24:03Z</time>
      </trkpt>
      <trkpt lat="42.98131" lon="0.70627">
        <ele>663</ele>
        <time>2024-08-03T14:24:09Z</time>
      </trkpt>
      <trkpt lat="42.98142" lon="0.7064">
        <ele>665</ele>
        <time>2024-08-03T14:24:12Z</time>
      </trkpt>
      <trkpt lat="42.98193" lon="0.70652">
        <ele>683</ele>
        <time>2024-08-03T14:24:21Z</time>
      </trkpt>
      <trkpt lat="42.98206" lon="0.70667">
        <ele>684</ele>
        <time>2024-08-03T14:24:24Z</time>
      </trkpt>
      <trkpt lat="42.98212" lon="0.70682">
        <ele>684</ele>
        <time>2024-08-03T14:24:27Z</time>
      </trkpt>
      <trkpt lat="42.98218" lon="0.70763">
        <ele>674</ele>
        <time>2024-08-03T14:24:37Z</time>
      </trkpt>
      <trkpt lat="42.98224" lon="0.70803">
        <ele>673</ele>
        <time>2024-08-03T14:24:42Z</time>
      </trkpt>
      <trkpt lat="42.9823" lon="0.70826">
        <ele>673</ele>
        <time>2024-08-03T14:24:46Z</time>
      </trkpt>
      <trkpt lat="42.98241" lon="0.70843">
        <ele>675</ele>
        <time>2024-08-03T14:24:49Z</time>
      </trkpt>
      <trkpt lat="42.9829" lon="0.70885">
        <ele>687</ele>
        <time>2024-08-03T14:24:59Z</time>
      </trkpt>
      <trkpt lat="42.98317" lon="0.70921">
        <ele>690</ele>
        <time>2024-08-03T14:25:06Z</time>
      </trkpt>
      <trkpt lat="42.98332" lon="0.71015">
        <ele>687</ele>
        <time>2024-08-03T14:25:18Z</time>
      </trkpt>
      <trkpt lat="42.9834" lon="0.71046">
        <ele>686</ele>
        <time>2024-08-03T14:25:22Z</time>
      </trkpt>
      <trkpt lat="42.98358" lon="0.71055">
        <ele>691</ele>
        <time>2024-08-03T14:25:26Z</time>
      </trkpt>
      <trkpt lat="42.98384" lon="0.71056">
        <ele>699</ele>
        <time>2024-08-03T14:25:30Z</time>
      </trkpt>
      <trkpt lat="42.98442" lon="0.71128">
        <ele>701</ele>
        <time>2024-08-03T14:25:44Z</time>
      </trkpt>
      <trkpt lat="42.98476" lon="0.71177">
        <ele>701</ele>
        <time>2024-08-03T14:25:53Z</time>
      </trkpt>
      <trkpt lat="42.98509" lon="0.71214">
        <ele>702</ele>
        <time>2024-08-03T14:26:01Z</time>
      </trkpt>
      <trkpt lat="42.98606" lon="0.71273">
        <ele>707</ele>
        <time>2024-08-03T14:26:20Z</time>
      </trkpt>
      <trkpt lat="42.98631" lon="0.71287">
        <ele>708</ele>
        <time>2024-08-03T14:26:24Z</time>
      </trkpt>
      <trkpt lat="42.98659" lon="0.71293">
        <ele>712</ele>
        <time>2024-08-03T14:26:29Z</time>
      </trkpt>
      <trkpt lat="42.98705" lon="0.71292">
        <ele>718</ele>
        <time>2024-08-03T14:26:38Z</time>
      </trkpt>
      <trkpt lat="42.98725" lon="0.7129">
        <ele>721</ele>
        <time>2024-08-03T14:26:41Z</time>
      </trkpt>
      <trkpt lat="42.98763" lon="0.7128">
        <ele>726</ele>
        <time>2024-08-03T14:26:48Z</time>
      </trkpt>
      <trkpt lat="42.98786" lon="0.71279">
        <ele>727</ele>
        <time>2024-08-03T14:26:52Z</time>
      </trkpt>
      <trkpt lat="42.98837" lon="0.71287">
        <ele>728</ele>
        <time>2024-08-03T14:27:01Z</time>
      </trkpt>
      <trkpt lat="42.98856" lon="0.71285">
        <ele>725</ele>
        <time>2024-08-03T14:27:05Z</time>
      </trkpt>
      <trkpt lat="42.9888" lon="0.71266">
        <ele>724</ele>
        <time>2024-08-03T14:27:10Z</time>
      </trkpt>
      <trkpt lat="42.98901" lon="0.7123">
        <ele>725</ele>
        <time>2024-08-03T14:27:16Z</time>
      </trkpt>
      <trkpt lat="42.9892" lon="0.71178">
        <ele>728</ele>
        <time>2024-08-03T14:27:23Z</time>
      </trkpt>
      <trkpt lat="42.98929" lon="0.71139">
        <ele>729</ele>
        <time>2024-08-03T14:27:29Z</time>
      </trkpt>
      <trkpt lat="42.98935" lon="0.7108">
        <ele>735</ele>
        <time>2024-08-03T14:27:36Z</time>
      </trkpt>
      <trkpt lat="42.98932" lon="0.71">
        <ele>740</ele>
        <time>2024-08-03T14:27:47Z</time>
      </trkpt>
      <trkpt lat="42.98926" lon="0.70949">
        <ele>746</ele>
        <time>2024-08-03T14:27:53Z</time>
      </trkpt>
      <trkpt lat="42.98925" lon="0.70927">
        <ele>748</ele>
        <time>2024-08-03T14:27:56Z</time>
      </trkpt>
      <trkpt lat="42.98929" lon="0.70885">
        <ele>754</ele>
        <time>2024-08-03T14:28:02Z</time>
      </trkpt>
      <trkpt lat="42.98942" lon="0.70844">
        <ele>758</ele>
        <time>2024-08-03T14:28:08Z</time>
      </trkpt>
      <trkpt lat="42.98952" lon="0.70824">
        <ele>759</ele>
        <time>2024-08-03T14:28:11Z</time>
      </trkpt>
      <trkpt lat="42.9897" lon="0.70797">
        <ele>758</ele>
        <time>2024-08-03T14:28:16Z</time>
      </trkpt>
      <trkpt lat="42.9899" lon="0.70772">
        <ele>756</ele>
        <time>2024-08-03T14:28:20Z</time>
      </trkpt>
      <trkpt lat="42.99004" lon="0.70741">
        <ele>758</ele>
        <time>2024-08-03T14:28:25Z</time>
      </trkpt>
      <trkpt lat="42.99017" lon="0.70698">
        <ele>761</ele>
        <time>2024-08-03T14:28:31Z</time>
      </trkpt>
      <trkpt lat="42.99038" lon="0.70612">
        <ele>760</ele>
        <time>2024-08-03T14:28:43Z</time>
      </trkpt>
      <trkpt lat="42.9904" lon="0.70587">
        <ele>762</ele>
        <time>2024-08-03T14:28:46Z</time>
      </trkpt>
      <trkpt lat="42.99038" lon="0.70536">
        <ele>769</ele>
        <time>2024-08-03T14:28:53Z</time>
      </trkpt>
      <trkpt lat="42.9904" lon="0.70508">
        <ele>772</ele>
        <time>2024-08-03T14:28:57Z</time>
      </trkpt>
      <trkpt lat="42.99045" lon="0.70481">
        <ele>773</ele>
        <time>2024-08-03T14:29:00Z</time>
      </trkpt>
      <trkpt lat="42.99058" lon="0.70457">
        <ele>770</ele>
        <time>2024-08-03T14:29:04Z</time>
      </trkpt>
      <trkpt lat="42.99076" lon="0.70429">
        <ele>766</ele>
        <time>2024-08-03T14:29:09Z</time>
      </trkpt>
      <trkpt lat="42.99081" lon="0.70415">
        <ele>765</ele>
        <time>2024-08-03T14:29:11Z</time>
      </trkpt>
      <trkpt lat="42.99082" lon="0.7037">
        <ele>771</ele>
        <time>2024-08-03T14:29:17Z</time>
      </trkpt>
      <trkpt lat="42.9908" lon="0.70348">
        <ele>775</ele>
        <time>2024-08-03T14:29:20Z</time>
      </trkpt>
      <trkpt lat="42.99082" lon="0.70335">
        <ele>776</ele>
        <time>2024-08-03T14:29:21Z</time>
      </trkpt>
      <trkpt lat="42.99085" lon="0.70328">
        <ele>776</ele>
        <time>2024-08-03T14:29:22Z</time>
      </trkpt>
      <trkpt lat="42.99099" lon="0.70309">
        <ele>775</ele>
        <time>2024-08-03T14:29:26Z</time>
      </trkpt>
      <trkpt lat="42.99147" lon="0.70269">
        <ele>765</ele>
        <time>2024-08-03T14:29:36Z</time>
      </trkpt>
      <trkpt lat="42.99156" lon="0.70255">
        <ele>765</ele>
        <time>2024-08-03T14:29:38Z</time>
      </trkpt>
      <trkpt lat="42.9916" lon="0.70233">
        <ele>766</ele>
        <time>2024-08-03T14:29:41Z</time>
      </trkpt>
      <trkpt lat="42.99161" lon="0.70205">
        <ele>769</ele>
        <time>2024-08-03T14:29:45Z</time>
      </trkpt>
      <trkpt lat="42.99159" lon="0.7017">
        <ele>774</ele>
        <time>2024-08-03T14:29:50Z</time>
      </trkpt>
      <trkpt lat="42.99153" lon="0.70101">
        <ele>781</ele>
        <time>2024-08-03T14:29:59Z</time>
      </trkpt>
      <trkpt lat="42.99144" lon="0.70013">
        <ele>790</ele>
        <time>2024-08-03T14:30:10Z</time>
      </trkpt>
      <trkpt lat="42.99141" lon="0.69968">
        <ele>794</ele>
        <time>2024-08-03T14:30:16Z</time>
      </trkpt>
      <trkpt lat="42.99141" lon="0.69936">
        <ele>796</ele>
        <time>2024-08-03T14:30:20Z</time>
      </trkpt>
      <trkpt lat="42.99154" lon="0.69892">
        <ele>795</ele>
        <time>2024-08-03T14:30:26Z</time>
      </trkpt>
      <trkpt lat="42.99152" lon="0.69867">
        <ele>797</ele>
        <time>2024-08-03T14:30:30Z</time>
      </trkpt>
      <trkpt lat="42.99147" lon="0.69833">
        <ele>800</ele>
        <time>2024-08-03T14:30:34Z</time>
      </trkpt>
      <trkpt lat="42.99134" lon="0.69598">
        <ele>809</ele>
        <time>2024-08-03T14:31:05Z</time>
      </trkpt>
      <trkpt lat="42.99129" lon="0.69564">
        <ele>809</ele>
        <time>2024-08-03T14:31:09Z</time>
      </trkpt>
      <trkpt lat="42.99109" lon="0.6949">
        <ele>808</ele>
        <time>2024-08-03T14:31:20Z</time>
      </trkpt>
      <trkpt lat="42.99106" lon="0.69434">
        <ele>809</ele>
        <time>2024-08-03T14:31:27Z</time>
      </trkpt>
      <trkpt lat="42.991" lon="0.69396">
        <ele>810</ele>
        <time>2024-08-03T14:31:32Z</time>
      </trkpt>
      <trkpt lat="42.99093" lon="0.69375">
        <ele>811</ele>
        <time>2024-08-03T14:31:35Z</time>
      </trkpt>
      <trkpt lat="42.9906" lon="0.69338">
        <ele>808</ele>
        <time>2024-08-03T14:31:43Z</time>
      </trkpt>
      <trkpt lat="42.99033" lon="0.69327">
        <ele>804</ele>
        <time>2024-08-03T14:31:48Z</time>
      </trkpt>
      <trkpt lat="42.99013" lon="0.6933">
        <ele>803</ele>
        <time>2024-08-03T14:31:51Z</time>
      </trkpt>
      <trkpt lat="42.98989" lon="0.69352">
        <ele>806</ele>
        <time>2024-08-03T14:31:56Z</time>
      </trkpt>
      <trkpt lat="42.98944" lon="0.69352">
        <ele>804</ele>
        <time>2024-08-03T14:32:04Z</time>
      </trkpt>
      <trkpt lat="42.98929" lon="0.69345">
        <ele>802</ele>
        <time>2024-08-03T14:32:07Z</time>
      </trkpt>
      <trkpt lat="42.9888" lon="0.69256">
        <ele>795</ele>
        <time>2024-08-03T14:32:22Z</time>
      </trkpt>
      <trkpt lat="42.98875" lon="0.69219">
        <ele>793</ele>
        <time>2024-08-03T14:32:27Z</time>
      </trkpt>
      <trkpt lat="42.98892" lon="0.69159">
        <ele>785</ele>
        <time>2024-08-03T14:32:35Z</time>
      </trkpt>
      <trkpt lat="42.98881" lon="0.69095">
        <ele>782</ele>
        <time>2024-08-03T14:32:44Z</time>
      </trkpt>
      <trkpt lat="42.98835" lon="0.68972">
        <ele>775</ele>
        <time>2024-08-03T14:33:02Z</time>
      </trkpt>
      <trkpt lat="42.98822" lon="0.68949">
        <ele>772</ele>
        <time>2024-08-03T14:33:05Z</time>
      </trkpt>
      <trkpt lat="42.98803" lon="0.68935">
        <ele>771</ele>
        <time>2024-08-03T14:33:09Z</time>
      </trkpt>
      <trkpt lat="42.98761" lon="0.68928">
        <ele>776</ele>
        <time>2024-08-03T14:33:17Z</time>
      </trkpt>
      <trkpt lat="42.98741" lon="0.68918">
        <ele>778</ele>
        <time>2024-08-03T14:33:20Z</time>
      </trkpt>
      <trkpt lat="42.98728" lon="0.689">
        <ele>781</ele>
        <time>2024-08-03T14:33:24Z</time>
      </trkpt>
      <trkpt lat="42.98724" lon="0.68874">
        <ele>780</ele>
        <time>2024-08-03T14:33:27Z</time>
      </trkpt>
      <trkpt lat="42.98735" lon="0.68829">
        <ele>771</ele>
        <time>2024-08-03T14:33:33Z</time>
      </trkpt>
      <trkpt lat="42.98737" lon="0.68801">
        <ele>769</ele>
        <time>2024-08-03T14:33:37Z</time>
      </trkpt>
      <trkpt lat="42.98734" lon="0.68763">
        <ele>770</ele>
        <time>2024-08-03T14:33:42Z</time>
      </trkpt>
      <trkpt lat="42.98706" lon="0.68627">
        <ele>764</ele>
        <time>2024-08-03T14:34:00Z</time>
      </trkpt>
      <trkpt lat="42.98698" lon="0.68601">
        <ele>762</ele>
        <time>2024-08-03T14:34:04Z</time>
      </trkpt>
      <trkpt lat="42.98687" lon="0.68576">
        <ele>760</ele>
        <time>2024-08-03T14:34:08Z</time>
      </trkpt>
      <trkpt lat="42.98653" lon="0.68514">
        <ele>752</ele>
        <time>2024-08-03T14:34:18Z</time>
      </trkpt>
      <trkpt lat="42.98637" lon="0.68495">
        <ele>752</ele>
        <time>2024-08-03T14:34:22Z</time>
      </trkpt>
      <trkpt lat="42.98604" lon="0.68466">
        <ele>755</ele>
        <time>2024-08-03T14:34:29Z</time>
      </trkpt>
      <trkpt lat="42.98549" lon="0.68405">
        <ele>753</ele>
        <time>2024-08-03T14:34:41Z</time>
      </trkpt>
      <trkpt lat="42.98542" lon="0.68385">
        <ele>753</ele>
        <time>2024-08-03T14:34:44Z</time>
      </trkpt>
      <trkpt lat="42.98542" lon="0.68366">
        <ele>750</ele>
        <time>2024-08-03T14:34:47Z</time>
      </trkpt>
      <trkpt lat="42.98547" lon="0.68341">
        <ele>744</ele>
        <time>2024-08-03T14:34:50Z</time>
      </trkpt>
      <trkpt lat="42.98548" lon="0.68317">
        <ele>741</ele>
        <time>2024-08-03T14:34:53Z</time>
      </trkpt>
      <trkpt lat="42.98528" lon="0.68226">
        <ele>738</ele>
        <time>2024-08-03T14:35:06Z</time>
      </trkpt>
      <trkpt lat="42.98486" lon="0.6813">
        <ele>733</ele>
        <time>2024-08-03T14:35:20Z</time>
      </trkpt>
      <trkpt lat="42.98448" lon="0.68077">
        <ele>730</ele>
        <time>2024-08-03T14:35:30Z</time>
      </trkpt>
      <trkpt lat="42.9842" lon="0.68047">
        <ele>730</ele>
        <time>2024-08-03T14:35:36Z</time>
      </trkpt>
      <trkpt lat="42.9839" lon="0.68023">
        <ele>725</ele>
        <time>2024-08-03T14:35:42Z</time>
      </trkpt>
      <trkpt lat="42.98313" lon="0.67986">
        <ele>724</ele>
        <time>2024-08-03T14:35:57Z</time>
      </trkpt>
      <trkpt lat="42.98285" lon="0.67987">
        <ele>728</ele>
        <time>2024-08-03T14:36:02Z</time>
      </trkpt>
      <trkpt lat="42.9825" lon="0.6798">
        <ele>730</ele>
        <time>2024-08-03T14:36:08Z</time>
      </trkpt>
      <trkpt lat="42.98236" lon="0.67966">
        <ele>732</ele>
        <time>2024-08-03T14:36:11Z</time>
      </trkpt>
      <trkpt lat="42.98225" lon="0.67939">
        <ele>730</ele>
        <time>2024-08-03T14:36:15Z</time>
      </trkpt>
      <trkpt lat="42.98217" lon="0.67895">
        <ele>723</ele>
        <time>2024-08-03T14:36:21Z</time>
      </trkpt>
      <trkpt lat="42.98214" lon="0.67817">
        <ele>711</ele>
        <time>2024-08-03T14:36:31Z</time>
      </trkpt>
      <trkpt lat="42.98205" lon="0.67766">
        <ele>705</ele>
        <time>2024-08-03T14:36:38Z</time>
      </trkpt>
      <trkpt lat="42.98181" lon="0.67731">
        <ele>703</ele>
        <time>2024-08-03T14:36:44Z</time>
      </trkpt>
      <trkpt lat="42.98059" lon="0.67643">
        <ele>707</ele>
        <time>2024-08-03T14:37:09Z</time>
      </trkpt>
      <trkpt lat="42.98007" lon="0.67588">
        <ele>706</ele>
        <time>2024-08-03T14:37:21Z</time>
      </trkpt>
      <trkpt lat="42.97963" lon="0.67526">
        <ele>705</ele>
        <time>2024-08-03T14:37:32Z</time>
      </trkpt>
      <trkpt lat="42.97829" lon="0.67307">
        <ele>687</ele>
        <time>2024-08-03T14:38:09Z</time>
      </trkpt>
      <trkpt lat="42.9775" lon="0.67222">
        <ele>679</ele>
        <time>2024-08-03T14:38:27Z</time>
      </trkpt>
      <trkpt lat="42.97719" lon="0.67208">
        <ele>675</ele>
        <time>2024-08-03T14:38:33Z</time>
      </trkpt>
      <trkpt lat="42.97682" lon="0.6721">
        <ele>675</ele>
        <time>2024-08-03T14:38:39Z</time>
      </trkpt>
      <trkpt lat="42.97657" lon="0.67217">
        <ele>677</ele>
        <time>2024-08-03T14:38:44Z</time>
      </trkpt>
      <trkpt lat="42.97639" lon="0.67216">
        <ele>676</ele>
        <time>2024-08-03T14:38:47Z</time>
      </trkpt>
      <trkpt lat="42.97545" lon="0.67139">
        <ele>662</ele>
        <time>2024-08-03T14:39:06Z</time>
      </trkpt>
      <trkpt lat="42.97528" lon="0.67128">
        <ele>661</ele>
        <time>2024-08-03T14:39:10Z</time>
      </trkpt>
      <trkpt lat="42.97496" lon="0.67117">
        <ele>662</ele>
        <time>2024-08-03T14:39:16Z</time>
      </trkpt>
      <trkpt lat="42.97437" lon="0.67081">
        <ele>655</ele>
        <time>2024-08-03T14:39:27Z</time>
      </trkpt>
      <trkpt lat="42.97418" lon="0.67073">
        <ele>653</ele>
        <time>2024-08-03T14:39:31Z</time>
      </trkpt>
      <trkpt lat="42.97348" lon="0.67071">
        <ele>652</ele>
        <time>2024-08-03T14:39:43Z</time>
      </trkpt>
      <trkpt lat="42.97252" lon="0.67032">
        <ele>653</ele>
        <time>2024-08-03T14:40:01Z</time>
      </trkpt>
      <trkpt lat="42.97245" lon="0.67022">
        <ele>651</ele>
        <time>2024-08-03T14:40:03Z</time>
      </trkpt>
      <trkpt lat="42.97243" lon="0.66993">
        <ele>643</ele>
        <time>2024-08-03T14:40:07Z</time>
      </trkpt>
      <trkpt lat="42.9723" lon="0.66966">
        <ele>641</ele>
        <time>2024-08-03T14:40:11Z</time>
      </trkpt>
      <trkpt lat="42.97204" lon="0.66936">
        <ele>643</ele>
        <time>2024-08-03T14:40:17Z</time>
      </trkpt>
      <trkpt lat="42.97179" lon="0.66902">
        <ele>645</ele>
        <time>2024-08-03T14:40:23Z</time>
      </trkpt>
      <trkpt lat="42.97175" lon="0.66882">
        <ele>643</ele>
        <time>2024-08-03T14:40:26Z</time>
      </trkpt>
      <trkpt lat="42.97177" lon="0.66845">
        <ele>636</ele>
        <time>2024-08-03T14:40:31Z</time>
      </trkpt>
      <trkpt lat="42.97172" lon="0.66804">
        <ele>630</ele>
        <time>2024-08-03T14:40:36Z</time>
      </trkpt>
      <trkpt lat="42.97159" lon="0.6677">
        <ele>628</ele>
        <time>2024-08-03T14:40:41Z</time>
      </trkpt>
      <trkpt lat="42.97081" lon="0.66694">
        <ele>629</ele>
        <time>2024-08-03T14:40:58Z</time>
      </trkpt>
      <trkpt lat="42.97059" lon="0.6667">
        <ele>626</ele>
        <time>2024-08-03T14:41:03Z</time>
      </trkpt>
      <trkpt lat="42.97049" lon="0.66651">
        <ele>622</ele>
        <time>2024-08-03T14:41:06Z</time>
      </trkpt>
      <trkpt lat="42.97051" lon="0.66634">
        <ele>618</ele>
        <time>2024-08-03T14:41:08Z</time>
      </trkpt>
      <trkpt lat="42.97061" lon="0.66618">
        <ele>612</ele>
        <time>2024-08-03T14:41:11Z</time>
      </trkpt>
      <trkpt lat="42.97076" lon="0.66613">
        <ele>609</ele>
        <time>2024-08-03T14:41:14Z</time>
      </trkpt>
      <trkpt lat="42.97091" lon="0.6662">
        <ele>609</ele>
        <time>2024-08-03T14:41:17Z</time>
      </trkpt>
      <trkpt lat="42.97137" lon="0.66683">
        <ele>616</ele>
        <time>2024-08-03T14:41:28Z</time>
      </trkpt>
      <trkpt lat="42.97214" lon="0.66814">
        <ele>619</ele>
        <time>2024-08-03T14:41:50Z</time>
      </trkpt>
      <trkpt lat="42.97233" lon="0.66828">
        <ele>614</ele>
        <time>2024-08-03T14:41:54Z</time>
      </trkpt>
      <trkpt lat="42.97242" lon="0.6683">
        <ele>611</ele>
        <time>2024-08-03T14:41:56Z</time>
      </trkpt>
      <trkpt lat="42.97261" lon="0.66826">
        <ele>608</ele>
        <time>2024-08-03T14:41:59Z</time>
      </trkpt>
      <trkpt lat="42.97366" lon="0.66738">
        <ele>600</ele>
        <time>2024-08-03T14:42:21Z</time>
      </trkpt>
      <trkpt lat="42.97421" lon="0.66688">
        <ele>598</ele>
        <time>2024-08-03T14:42:33Z</time>
      </trkpt>
      <trkpt lat="42.97606" lon="0.66538">
        <ele>599</ele>
        <time>2024-08-03T14:43:11Z</time>
      </trkpt>
      <trkpt lat="42.97622" lon="0.66515">
        <ele>599</ele>
        <time>2024-08-03T14:43:15Z</time>
      </trkpt>
      <trkpt lat="42.97647" lon="0.66461">
        <ele>598</ele>
        <time>2024-08-03T14:43:23Z</time>
      </trkpt>
      <trkpt lat="42.97703" lon="0.66325">
        <ele>591</ele>
        <time>2024-08-03T14:43:44Z</time>
      </trkpt>
      <trkpt lat="42.97755" lon="0.66172">
        <ele>581</ele>
        <time>2024-08-03T14:44:06Z</time>
      </trkpt>
      <trkpt lat="42.97763" lon="0.66123">
        <ele>581</ele>
        <time>2024-08-03T14:44:12Z</time>
      </trkpt>
      <trkpt lat="42.97751" lon="0.66084">
        <ele>580</ele>
        <time>2024-08-03T14:44:18Z</time>
      </trkpt>
      <trkpt lat="42.97721" lon="0.66068">
        <ele>579</ele>
        <time>2024-08-03T14:44:24Z</time>
      </trkpt>
      <trkpt lat="42.977" lon="0.66066">
        <ele>578</ele>
        <time>2024-08-03T14:44:27Z</time>
      </trkpt>
      <trkpt lat="42.97669" lon="0.66074">
        <ele>576</ele>
        <time>2024-08-03T14:44:33Z</time>
      </trkpt>
      <trkpt lat="42.97643" lon="0.66092">
        <ele>574</ele>
        <time>2024-08-03T14:44:38Z</time>
      </trkpt>
      <trkpt lat="42.97628" lon="0.66121">
        <ele>575</ele>
        <time>2024-08-03T14:44:43Z</time>
      </trkpt>
      <trkpt lat="42.97599" lon="0.66135">
        <ele>574</ele>
        <time>2024-08-03T14:44:48Z</time>
      </trkpt>
      <trkpt lat="42.9757" lon="0.66126">
        <ele>572</ele>
        <time>2024-08-03T14:44:53Z</time>
      </trkpt>
      <trkpt lat="42.9754" lon="0.66121">
        <ele>570</ele>
        <time>2024-08-03T14:44:59Z</time>
      </trkpt>
      <trkpt lat="42.97485" lon="0.66132">
        <ele>569</ele>
        <time>2024-08-03T14:45:09Z</time>
      </trkpt>
      <trkpt lat="42.9746" lon="0.66132">
        <ele>568</ele>
        <time>2024-08-03T14:45:13Z</time>
      </trkpt>
      <trkpt lat="42.97443" lon="0.66123">
        <ele>566</ele>
        <time>2024-08-03T14:45:16Z</time>
      </trkpt>
      <trkpt lat="42.97433" lon="0.66108">
        <ele>562</ele>
        <time>2024-08-03T14:45:19Z</time>
      </trkpt>
      <trkpt lat="42.97432" lon="0.66091">
        <ele>559</ele>
        <time>2024-08-03T14:45:21Z</time>
      </trkpt>
      <trkpt lat="42.97439" lon="0.66075">
        <ele>557</ele>
        <time>2024-08-03T14:45:24Z</time>
      </trkpt>
      <trkpt lat="42.97458" lon="0.66061">
        <ele>557</ele>
        <time>2024-08-03T14:45:28Z</time>
      </trkpt>
      <trkpt lat="42.97547" lon="0.66035">
        <ele>561</ele>
        <time>2024-08-03T14:45:44Z</time>
      </trkpt>
      <trkpt lat="42.97566" lon="0.66026">
        <ele>561</ele>
        <time>2024-08-03T14:45:47Z</time>
      </trkpt>
      <trkpt lat="42.97586" lon="0.66008">
        <ele>561</ele>
        <time>2024-08-03T14:45:52Z</time>
      </trkpt>
      <trkpt lat="42.9759" lon="0.65996">
        <ele>561</ele>
        <time>2024-08-03T14:45:53Z</time>
      </trkpt>
      <trkpt lat="42.9759" lon="0.65984">
        <ele>560</ele>
        <time>2024-08-03T14:45:55Z</time>
      </trkpt>
      <trkpt lat="42.97587" lon="0.65965">
        <ele>558</ele>
        <time>2024-08-03T14:45:57Z</time>
      </trkpt>
      <trkpt lat="42.97587" lon="0.65934">
        <ele>555</ele>
        <time>2024-08-03T14:46:01Z</time>
      </trkpt>
      <trkpt lat="42.97609" lon="0.65893">
        <ele>554</ele>
        <time>2024-08-03T14:46:08Z</time>
      </trkpt>
      <trkpt lat="42.97612" lon="0.65875">
        <ele>552</ele>
        <time>2024-08-03T14:46:10Z</time>
      </trkpt>
      <trkpt lat="42.97605" lon="0.65859">
        <ele>549</ele>
        <time>2024-08-03T14:46:13Z</time>
      </trkpt>
      <trkpt lat="42.97592" lon="0.65849">
        <ele>547</ele>
        <time>2024-08-03T14:46:16Z</time>
      </trkpt>
      <trkpt lat="42.97579" lon="0.65848">
        <ele>545</ele>
        <time>2024-08-03T14:46:18Z</time>
      </trkpt>
      <trkpt lat="42.97562" lon="0.65857">
        <ele>545</ele>
        <time>2024-08-03T14:46:21Z</time>
      </trkpt>
      <trkpt lat="42.97478" lon="0.65931">
        <ele>544</ele>
        <time>2024-08-03T14:46:39Z</time>
      </trkpt>
      <trkpt lat="42.97462" lon="0.65939">
        <ele>543</ele>
        <time>2024-08-03T14:46:42Z</time>
      </trkpt>
      <trkpt lat="42.97423" lon="0.65951">
        <ele>541</ele>
        <time>2024-08-03T14:46:49Z</time>
      </trkpt>
      <trkpt lat="42.97332" lon="0.65957">
        <ele>531</ele>
        <time>2024-08-03T14:47:05Z</time>
      </trkpt>
      <trkpt lat="42.97299" lon="0.65963">
        <ele>526</ele>
        <time>2024-08-03T14:47:11Z</time>
      </trkpt>
      <trkpt lat="42.97286" lon="0.65973">
        <ele>525</ele>
        <time>2024-08-03T14:47:14Z</time>
      </trkpt>
      <trkpt lat="42.97279" lon="0.6599">
        <ele>527</ele>
        <time>2024-08-03T14:47:16Z</time>
      </trkpt>
      <trkpt lat="42.9728" lon="0.66048">
        <ele>536</ele>
        <time>2024-08-03T14:47:24Z</time>
      </trkpt>
      <trkpt lat="42.97272" lon="0.66067">
        <ele>537</ele>
        <time>2024-08-03T14:47:27Z</time>
      </trkpt>
      <trkpt lat="42.97264" lon="0.6608">
        <ele>538</ele>
        <time>2024-08-03T14:47:29Z</time>
      </trkpt>
      <trkpt lat="42.97253" lon="0.66088">
        <ele>538</ele>
        <time>2024-08-03T14:47:31Z</time>
      </trkpt>
      <trkpt lat="42.97234" lon="0.66092">
        <ele>537</ele>
        <time>2024-08-03T14:47:35Z</time>
      </trkpt>
      <trkpt lat="42.97186" lon="0.66095">
        <ele>530</ele>
        <time>2024-08-03T14:47:43Z</time>
      </trkpt>
      <trkpt lat="42.97164" lon="0.66101">
        <ele>529</ele>
        <time>2024-08-03T14:47:47Z</time>
      </trkpt>
      <trkpt lat="42.9714" lon="0.6611">
        <ele>528</ele>
        <time>2024-08-03T14:47:52Z</time>
      </trkpt>
      <trkpt lat="42.97107" lon="0.66115">
        <ele>525</ele>
        <time>2024-08-03T14:47:57Z</time>
      </trkpt>
      <trkpt lat="42.97086" lon="0.66113">
        <ele>522</ele>
        <time>2024-08-03T14:48:01Z</time>
      </trkpt>
      <trkpt lat="42.97052" lon="0.66103">
        <ele>518</ele>
        <time>2024-08-03T14:48:07Z</time>
      </trkpt>
      <trkpt lat="42.97009" lon="0.66095">
        <ele>515</ele>
        <time>2024-08-03T14:48:15Z</time>
      </trkpt>
      <trkpt lat="42.96941" lon="0.66104">
        <ele>514</ele>
        <time>2024-08-03T14:48:27Z</time>
      </trkpt>
      <trkpt lat="42.96916" lon="0.6611">
        <ele>515</ele>
        <time>2024-08-03T14:48:32Z</time>
      </trkpt>
      <trkpt lat="42.96892" lon="0.66107">
        <ele>512</ele>
        <time>2024-08-03T14:48:36Z</time>
      </trkpt>
      <trkpt lat="42.96874" lon="0.66099">
        <ele>508</ele>
        <time>2024-08-03T14:48:39Z</time>
      </trkpt>
      <trkpt lat="42.96844" lon="0.66073">
        <ele>500</ele>
        <time>2024-08-03T14:48:46Z</time>
      </trkpt>
      <trkpt lat="42.96824" lon="0.6607">
        <ele>499</ele>
        <time>2024-08-03T14:48:49Z</time>
      </trkpt>
      <trkpt lat="42.96734" lon="0.66088">
        <ele>504</ele>
        <time>2024-08-03T14:49:06Z</time>
      </trkpt>
      <trkpt lat="42.96693" lon="0.66072">
        <ele>499</ele>
        <time>2024-08-03T14:49:13Z</time>
      </trkpt>
      <trkpt lat="42.96608" lon="0.66091">
        <ele>498</ele>
        <time>2024-08-03T14:49:28Z</time>
      </trkpt>
      <trkpt lat="42.96564" lon="0.66074">
        <ele>494</ele>
        <time>2024-08-03T14:49:37Z</time>
      </trkpt>
      <trkpt lat="42.96346" lon="0.65968">
        <ele>485</ele>
        <time>2024-08-03T14:50:18Z</time>
      </trkpt>
      <trkpt lat="42.95388" lon="0.64965">
        <ele>468</ele>
        <time>2024-08-03T14:53:53Z</time>
      </trkpt>
      <trkpt lat="42.95381" lon="0.64949">
        <ele>469</ele>
        <time>2024-08-03T14:53:55Z</time>
      </trkpt>
      <trkpt lat="42.95388" lon="0.64935">
        <ele>469</ele>
        <time>2024-08-03T14:53:57Z</time>
      </trkpt>
      <trkpt lat="42.95406" lon="0.64938">
        <ele>468</ele>
        <time>2024-08-03T14:54:00Z</time>
      </trkpt>
      <trkpt lat="42.95569" lon="0.64994">
        <ele>466</ele>
        <time>2024-08-03T14:54:30Z</time>
      </trkpt>
      <trkpt lat="42.95593" lon="0.64994">
        <ele>465</ele>
        <time>2024-08-03T14:54:35Z</time>
      </trkpt>
      <trkpt lat="42.95593" lon="0.64994">
        <ele>465</ele>
        <time>2024-08-03T14:54:35Z</time>
      </trkpt>
      <trkpt lat="42.9568" lon="0.64992">
        <ele>466</ele>
        <time>2024-08-03T14:54:50Z</time>
      </trkpt>
      <trkpt lat="42.95744" lon="0.64971">
        <ele>465</ele>
        <time>2024-08-03T14:55:02Z</time>
      </trkpt>
      <trkpt lat="42.95937" lon="0.64872">
        <ele>465</ele>
        <time>2024-08-03T14:55:38Z</time>
      </trkpt>
      <trkpt lat="42.96065" lon="0.6485">
        <ele>464</ele>
        <time>2024-08-03T14:56:01Z</time>
      </trkpt>
      <trkpt lat="42.9617" lon="0.64816">
        <ele>463</ele>
        <time>2024-08-03T14:56:21Z</time>
      </trkpt>
      <trkpt lat="42.96221" lon="0.64799">
        <ele>463</ele>
        <time>2024-08-03T14:56:30Z</time>
      </trkpt>
      <trkpt lat="42.96229" lon="0.64791">
        <ele>463</ele>
        <time>2024-08-03T14:56:32Z</time>
      </trkpt>
      <trkpt lat="42.96232" lon="0.64785">
        <ele>463</ele>
        <time>2024-08-03T14:56:33Z</time>
      </trkpt>
      <trkpt lat="42.96234" lon="0.64776">
        <ele>464</ele>
        <time>2024-08-03T14:56:34Z</time>
      </trkpt>
      <trkpt lat="42.96265" lon="0.64786">
        <ele>463</ele>
        <time>2024-08-03T14:56:40Z</time>
      </trkpt>
      <trkpt lat="42.96292" lon="0.64779">
        <ele>463</ele>
        <time>2024-08-03T14:56:44Z</time>
      </trkpt>
      <trkpt lat="42.96323" lon="0.64783">
        <ele>463</ele>
        <time>2024-08-03T14:56:50Z</time>
      </trkpt>
      <trkpt lat="42.96332" lon="0.64783">
        <ele>463</ele>
        <time>2024-08-03T14:56:52Z</time>
      </trkpt>
      <trkpt lat="42.96456" lon="0.64754">
        <ele>462</ele>
        <time>2024-08-03T14:57:14Z</time>
      </trkpt>
      <trkpt lat="42.96505" lon="0.64745">
        <ele>461</ele>
        <time>2024-08-03T14:57:23Z</time>
      </trkpt>
      <trkpt lat="42.96601" lon="0.64735">
        <ele>461</ele>
        <time>2024-08-03T14:57:40Z</time>
      </trkpt>
      <trkpt lat="42.96728" lon="0.64725">
        <ele>460</ele>
        <time>2024-08-03T14:58:03Z</time>
      </trkpt>
      <trkpt lat="42.96707" lon="0.64241">
        <ele>460</ele>
        <time>2024-08-03T14:59:06Z</time>
      </trkpt>
      <trkpt lat="42.96704" lon="0.6421">
        <ele>460</ele>
        <time>2024-08-03T14:59:10Z</time>
      </trkpt>
      <trkpt lat="42.96695" lon="0.64175">
        <ele>460</ele>
        <time>2024-08-03T14:59:15Z</time>
      </trkpt>
      <trkpt lat="42.96672" lon="0.64102">
        <ele>462</ele>
        <time>2024-08-03T14:59:25Z</time>
      </trkpt>
      <trkpt lat="42.96655" lon="0.64063">
        <ele>463</ele>
        <time>2024-08-03T14:59:31Z</time>
      </trkpt>
      <trkpt lat="42.966" lon="0.63978">
        <ele>463</ele>
        <time>2024-08-03T14:59:46Z</time>
      </trkpt>
      <trkpt lat="42.96527" lon="0.63875">
        <ele>462</ele>
        <time>2024-08-03T15:00:04Z</time>
      </trkpt>
      <trkpt lat="42.96522" lon="0.63851">
        <ele>463</ele>
        <time>2024-08-03T15:00:07Z</time>
      </trkpt>
      <trkpt lat="42.96521" lon="0.63829">
        <ele>463</ele>
        <time>2024-08-03T15:00:10Z</time>
      </trkpt>
      <trkpt lat="42.96526" lon="0.63795">
        <ele>462</ele>
        <time>2024-08-03T15:00:15Z</time>
      </trkpt>
      <trkpt lat="42.96609" lon="0.63326">
        <ele>463</ele>
        <time>2024-08-03T15:01:18Z</time>
      </trkpt>
      <trkpt lat="42.96611" lon="0.63303">
        <ele>463</ele>
        <time>2024-08-03T15:01:21Z</time>
      </trkpt>
      <trkpt lat="42.96612" lon="0.63258">
        <ele>463</ele>
        <time>2024-08-03T15:01:27Z</time>
      </trkpt>
      <trkpt lat="42.96605" lon="0.63045">
        <ele>462</ele>
        <time>2024-08-03T15:01:54Z</time>
      </trkpt>
      <trkpt lat="42.96598" lon="0.62978">
        <ele>462</ele>
        <time>2024-08-03T15:02:03Z</time>
      </trkpt>
      <trkpt lat="42.9664" lon="0.6296">
        <ele>462</ele>
        <time>2024-08-03T15:02:11Z</time>
      </trkpt>
      <trkpt lat="42.96629" lon="0.6293">
        <ele>463</ele>
        <time>2024-08-03T15:02:15Z</time>
      </trkpt>
      <trkpt lat="42.96631" lon="0.6289">
        <ele>463</ele>
        <time>2024-08-03T15:02:21Z</time>
      </trkpt>
      <trkpt lat="42.96631" lon="0.6289">
        <ele>463</ele>
        <time>2024-08-03T15:02:21Z</time>
      </trkpt>
      <trkpt lat="42.96629" lon="0.6293">
        <ele>463</ele>
        <time>2024-08-03T15:02:26Z</time>
      </trkpt>
      <trkpt lat="42.96622" lon="0.62968">
        <ele>462</ele>
        <time>2024-08-03T15:02:31Z</time>
      </trkpt>
      <trkpt lat="42.96648" lon="0.62957">
        <ele>463</ele>
        <time>2024-08-03T15:02:36Z</time>
      </trkpt>
      <trkpt lat="42.97039" lon="0.62787">
        <ele>461</ele>
        <time>2024-08-03T15:03:49Z</time>
      </trkpt>
      <trkpt lat="42.97079" lon="0.62763">
        <ele>460</ele>
        <time>2024-08-03T15:03:57Z</time>
      </trkpt>
      <trkpt lat="42.9723" lon="0.62641">
        <ele>463</ele>
        <time>2024-08-03T15:04:28Z</time>
      </trkpt>
      <trkpt lat="42.97258" lon="0.62623">
        <ele>463</ele>
        <time>2024-08-03T15:04:33Z</time>
      </trkpt>
      <trkpt lat="42.97271" lon="0.62618">
        <ele>463</ele>
        <time>2024-08-03T15:04:36Z</time>
      </trkpt>
      <trkpt lat="42.97317" lon="0.62611">
        <ele>463</ele>
        <time>2024-08-03T15:04:44Z</time>
      </trkpt>
      <trkpt lat="42.97616" lon="0.62588">
        <ele>463</ele>
        <time>2024-08-03T15:05:37Z</time>
      </trkpt>
      <trkpt lat="42.97644" lon="0.62588">
        <ele>464</ele>
        <time>2024-08-03T15:05:42Z</time>
      </trkpt>
      <trkpt lat="42.97659" lon="0.62589">
        <ele>465</ele>
        <time>2024-08-03T15:05:45Z</time>
      </trkpt>
      <trkpt lat="42.97691" lon="0.62601">
        <ele>465</ele>
        <time>2024-08-03T15:05:51Z</time>
      </trkpt>
      <trkpt lat="42.97706" lon="0.62609">
        <ele>464</ele>
        <time>2024-08-03T15:05:54Z</time>
      </trkpt>
      <trkpt lat="42.97761" lon="0.62655">
        <ele>463</ele>
        <time>2024-08-03T15:06:05Z</time>
      </trkpt>
      <trkpt lat="42.97804" lon="0.62706">
        <ele>462</ele>
        <time>2024-08-03T15:06:15Z</time>
      </trkpt>
      <trkpt lat="42.9788" lon="0.62768">
        <ele>461</ele>
        <time>2024-08-03T15:06:31Z</time>
      </trkpt>
      <trkpt lat="42.97909" lon="0.62795">
        <ele>461</ele>
        <time>2024-08-03T15:06:37Z</time>
      </trkpt>
      <trkpt lat="42.98033" lon="0.62878">
        <ele>459</ele>
        <time>2024-08-03T15:07:02Z</time>
      </trkpt>
      <trkpt lat="42.98075" lon="0.62908">
        <ele>459</ele>
        <time>2024-08-03T15:07:10Z</time>
      </trkpt>
      <trkpt lat="42.98087" lon="0.62912">
        <ele>458</ele>
        <time>2024-08-03T15:07:12Z</time>
      </trkpt>
      <trkpt lat="42.98105" lon="0.6291">
        <ele>458</ele>
        <time>2024-08-03T15:07:16Z</time>
      </trkpt>
      <trkpt lat="42.98122" lon="0.629">
        <ele>459</ele>
        <time>2024-08-03T15:07:19Z</time>
      </trkpt>
      <trkpt lat="42.98144" lon="0.62879">
        <ele>459</ele>
        <time>2024-08-03T15:07:24Z</time>
      </trkpt>
      <trkpt lat="42.98159" lon="0.62852">
        <ele>460</ele>
        <time>2024-08-03T15:07:28Z</time>
      </trkpt>
      <trkpt lat="42.98199" lon="0.62765">
        <ele>461</ele>
        <time>2024-08-03T15:07:41Z</time>
      </trkpt>
      <trkpt lat="42.98224" lon="0.62724">
        <ele>464</ele>
        <time>2024-08-03T15:07:48Z</time>
      </trkpt>
      <trkpt lat="42.98243" lon="0.62703">
        <ele>465</ele>
        <time>2024-08-03T15:07:53Z</time>
      </trkpt>
      <trkpt lat="42.98326" lon="0.62624">
        <ele>470</ele>
        <time>2024-08-03T15:08:11Z</time>
      </trkpt>
      <trkpt lat="42.98346" lon="0.62614">
        <ele>471</ele>
        <time>2024-08-03T15:08:15Z</time>
      </trkpt>
      <trkpt lat="42.98414" lon="0.62607">
        <ele>471</ele>
        <time>2024-08-03T15:08:27Z</time>
      </trkpt>
      <trkpt lat="42.98746" lon="0.62599">
        <ele>463</ele>
        <time>2024-08-03T15:09:26Z</time>
      </trkpt>
      <trkpt lat="42.98767" lon="0.62596">
        <ele>462</ele>
        <time>2024-08-03T15:09:29Z</time>
      </trkpt>
      <trkpt lat="42.98798" lon="0.62585">
        <ele>461</ele>
        <time>2024-08-03T15:09:35Z</time>
      </trkpt>
      <trkpt lat="42.98829" lon="0.62578">
        <ele>461</ele>
        <time>2024-08-03T15:09:41Z</time>
      </trkpt>
      <trkpt lat="42.98856" lon="0.62575">
        <ele>460</ele>
        <time>2024-08-03T15:09:46Z</time>
      </trkpt>
      <trkpt lat="42.98904" lon="0.62576">
        <ele>458</ele>
        <time>2024-08-03T15:09:54Z</time>
      </trkpt>
      <trkpt lat="42.98917" lon="0.62573">
        <ele>458</ele>
        <time>2024-08-03T15:09:56Z</time>
      </trkpt>
      <trkpt lat="42.98936" lon="0.62562">
        <ele>458</ele>
        <time>2024-08-03T15:10:00Z</time>
      </trkpt>
      <trkpt lat="42.9895" lon="0.6255">
        <ele>459</ele>
        <time>2024-08-03T15:10:03Z</time>
      </trkpt>
      <trkpt lat="42.98969" lon="0.62525">
        <ele>460</ele>
        <time>2024-08-03T15:10:08Z</time>
      </trkpt>
      <trkpt lat="42.98991" lon="0.62507">
        <ele>459</ele>
        <time>2024-08-03T15:10:12Z</time>
      </trkpt>
      <trkpt lat="42.99611" lon="0.62042">
        <ele>463</ele>
        <time>2024-08-03T15:12:18Z</time>
      </trkpt>
      <trkpt lat="42.99634" lon="0.6202">
        <ele>465</ele>
        <time>2024-08-03T15:12:23Z</time>
      </trkpt>
      <trkpt lat="42.99741" lon="0.619">
        <ele>466</ele>
        <time>2024-08-03T15:12:48Z</time>
      </trkpt>
      <trkpt lat="42.99768" lon="0.61875">
        <ele>466</ele>
        <time>2024-08-03T15:12:54Z</time>
      </trkpt>
      <trkpt lat="42.99787" lon="0.61862">
        <ele>465</ele>
        <time>2024-08-03T15:12:57Z</time>
      </trkpt>
      <trkpt lat="42.99974" lon="0.61764">
        <ele>456</ele>
        <time>2024-08-03T15:13:33Z</time>
      </trkpt>
      <trkpt lat="43.00011" lon="0.61736">
        <ele>454</ele>
        <time>2024-08-03T15:13:41Z</time>
      </trkpt>
      <trkpt lat="43.00032" lon="0.6171">
        <ele>453</ele>
        <time>2024-08-03T15:13:46Z</time>
      </trkpt>
      <trkpt lat="43.00058" lon="0.6167">
        <ele>451</ele>
        <time>2024-08-03T15:13:53Z</time>
      </trkpt>
      <trkpt lat="43.0011" lon="0.61609">
        <ele>451</ele>
        <time>2024-08-03T15:14:05Z</time>
      </trkpt>
      <trkpt lat="43.00133" lon="0.61585">
        <ele>451</ele>
        <time>2024-08-03T15:14:10Z</time>
      </trkpt>
      <trkpt lat="43.00452" lon="0.61334">
        <ele>462</ele>
        <time>2024-08-03T15:15:15Z</time>
      </trkpt>
      <trkpt lat="43.00501" lon="0.61303">
        <ele>469</ele>
        <time>2024-08-03T15:15:25Z</time>
      </trkpt>
      <trkpt lat="43.00542" lon="0.61286">
        <ele>471</ele>
        <time>2024-08-03T15:15:33Z</time>
      </trkpt>
      <trkpt lat="43.00576" lon="0.61279">
        <ele>470</ele>
        <time>2024-08-03T15:15:39Z</time>
      </trkpt>
      <trkpt lat="43.00628" lon="0.61282">
        <ele>473</ele>
        <time>2024-08-03T15:15:48Z</time>
      </trkpt>
      <trkpt lat="43.00659" lon="0.6129">
        <ele>473</ele>
        <time>2024-08-03T15:15:54Z</time>
      </trkpt>
      <trkpt lat="43.00695" lon="0.61306">
        <ele>472</ele>
        <time>2024-08-03T15:16:00Z</time>
      </trkpt>
      <trkpt lat="43.00739" lon="0.61333">
        <ele>469</ele>
        <time>2024-08-03T15:16:09Z</time>
      </trkpt>
      <trkpt lat="43.0097" lon="0.61504">
        <ele>465</ele>
        <time>2024-08-03T15:16:56Z</time>
      </trkpt>
      <trkpt lat="43.01014" lon="0.61523">
        <ele>466</ele>
        <time>2024-08-03T15:17:04Z</time>
      </trkpt>
      <trkpt lat="43.01042" lon="0.61529">
        <ele>465</ele>
        <time>2024-08-03T15:17:09Z</time>
      </trkpt>
      <trkpt lat="43.01149" lon="0.61536">
        <ele>462</ele>
        <time>2024-08-03T15:17:28Z</time>
      </trkpt>
      <trkpt lat="43.0118" lon="0.61535">
        <ele>461</ele>
        <time>2024-08-03T15:17:33Z</time>
      </trkpt>
      <trkpt lat="43.01208" lon="0.61529">
        <ele>460</ele>
        <time>2024-08-03T15:17:39Z</time>
      </trkpt>
      <trkpt lat="43.01228" lon="0.61522">
        <ele>460</ele>
        <time>2024-08-03T15:17:42Z</time>
      </trkpt>
      <trkpt lat="43.01245" lon="0.61513">
        <ele>460</ele>
        <time>2024-08-03T15:17:45Z</time>
      </trkpt>
      <trkpt lat="43.01348" lon="0.61434">
        <ele>466</ele>
        <time>2024-08-03T15:18:06Z</time>
      </trkpt>
      <trkpt lat="43.01449" lon="0.61363">
        <ele>455</ele>
        <time>2024-08-03T15:18:27Z</time>
      </trkpt>
      <trkpt lat="43.01478" lon="0.61335">
        <ele>453</ele>
        <time>2024-08-03T15:18:33Z</time>
      </trkpt>
      <trkpt lat="43.01512" lon="0.61294">
        <ele>451</ele>
        <time>2024-08-03T15:18:41Z</time>
      </trkpt>
      <trkpt lat="43.01509" lon="0.61271">
        <ele>452</ele>
        <time>2024-08-03T15:18:44Z</time>
      </trkpt>
      <trkpt lat="43.01514" lon="0.61255">
        <ele>453</ele>
        <time>2024-08-03T15:18:46Z</time>
      </trkpt>
      <trkpt lat="43.01529" lon="0.61237">
        <ele>454</ele>
        <time>2024-08-03T15:18:50Z</time>
      </trkpt>
      <trkpt lat="43.01555" lon="0.61212">
        <ele>453</ele>
        <time>2024-08-03T15:18:56Z</time>
      </trkpt>
      <trkpt lat="43.01564" lon="0.61198">
        <ele>453</ele>
        <time>2024-08-03T15:18:58Z</time>
      </trkpt>
      <trkpt lat="43.01568" lon="0.61186">
        <ele>452</ele>
        <time>2024-08-03T15:19:00Z</time>
      </trkpt>
      <trkpt lat="43.01568" lon="0.61186">
        <ele>452</ele>
        <time>2024-08-03T15:19:00Z</time>
      </trkpt>
      <trkpt lat="43.01564" lon="0.61198">
        <ele>453</ele>
        <time>2024-08-03T15:19:01Z</time>
      </trkpt>
      <trkpt lat="43.01555" lon="0.61212">
        <ele>453</ele>
        <time>2024-08-03T15:19:04Z</time>
      </trkpt>
      <trkpt lat="43.01529" lon="0.61237">
        <ele>454</ele>
        <time>2024-08-03T15:19:09Z</time>
      </trkpt>
      <trkpt lat="43.01514" lon="0.61255">
        <ele>453</ele>
        <time>2024-08-03T15:19:13Z</time>
      </trkpt>
      <trkpt lat="43.01509" lon="0.61271">
        <ele>452</ele>
        <time>2024-08-03T15:19:15Z</time>
      </trkpt>
      <trkpt lat="43.01512" lon="0.61294">
        <ele>451</ele>
        <time>2024-08-03T15:19:18Z</time>
      </trkpt>
      <trkpt lat="43.01541" lon="0.61278">
        <ele>451</ele>
        <time>2024-08-03T15:19:24Z</time>
      </trkpt>
      <trkpt lat="43.01586" lon="0.61255">
        <ele>451</ele>
        <time>2024-08-03T15:19:32Z</time>
      </trkpt>
      <trkpt lat="43.01912" lon="0.61103">
        <ele>446</ele>
        <time>2024-08-03T15:20:34Z</time>
      </trkpt>
      <trkpt lat="43.02084" lon="0.61">
        <ele>447</ele>
        <time>2024-08-03T15:21:07Z</time>
      </trkpt>
      <trkpt lat="43.02108" lon="0.60982">
        <ele>447</ele>
        <time>2024-08-03T15:21:12Z</time>
      </trkpt>
      <trkpt lat="43.02117" lon="0.60972">
        <ele>446</ele>
        <time>2024-08-03T15:21:14Z</time>
      </trkpt>
      <trkpt lat="43.02182" lon="0.60872">
        <ele>447</ele>
        <time>2024-08-03T15:21:31Z</time>
      </trkpt>
      <trkpt lat="43.02291" lon="0.6073">
        <ele>446</ele>
        <time>2024-08-03T15:21:58Z</time>
      </trkpt>
      <trkpt lat="43.02305" lon="0.60708">
        <ele>446</ele>
        <time>2024-08-03T15:22:02Z</time>
      </trkpt>
      <trkpt lat="43.02346" lon="0.6064">
        <ele>447</ele>
        <time>2024-08-03T15:22:14Z</time>
      </trkpt>
      <trkpt lat="43.02361" lon="0.60606">
        <ele>448</ele>
        <time>2024-08-03T15:22:19Z</time>
      </trkpt>
      <trkpt lat="43.02418" lon="0.605">
        <ele>447</ele>
        <time>2024-08-03T15:22:36Z</time>
      </trkpt>
      <trkpt lat="43.02432" lon="0.60479">
        <ele>447</ele>
        <time>2024-08-03T15:22:40Z</time>
      </trkpt>
      <trkpt lat="43.02917" lon="0.59778">
        <ele>447</ele>
        <time>2024-08-03T15:24:45Z</time>
      </trkpt>
      <trkpt lat="43.03013" lon="0.59636">
        <ele>448</ele>
        <time>2024-08-03T15:25:10Z</time>
      </trkpt>
      <trkpt lat="43.03024" lon="0.59613">
        <ele>449</ele>
        <time>2024-08-03T15:25:14Z</time>
      </trkpt>
      <trkpt lat="43.03062" lon="0.59521">
        <ele>454</ele>
        <time>2024-08-03T15:25:28Z</time>
      </trkpt>
      <trkpt lat="43.03083" lon="0.59488">
        <ele>456</ele>
        <time>2024-08-03T15:25:33Z</time>
      </trkpt>
      <trkpt lat="43.03088" lon="0.59484">
        <ele>456</ele>
        <time>2024-08-03T15:25:34Z</time>
      </trkpt>
      <trkpt lat="43.03111" lon="0.59476">
        <ele>456</ele>
        <time>2024-08-03T15:25:38Z</time>
      </trkpt>
      <trkpt lat="43.03202" lon="0.59448">
        <ele>454</ele>
        <time>2024-08-03T15:25:55Z</time>
      </trkpt>
      <trkpt lat="43.03224" lon="0.59438">
        <ele>453</ele>
        <time>2024-08-03T15:25:59Z</time>
      </trkpt>
      <trkpt lat="43.03242" lon="0.59425">
        <ele>452</ele>
        <time>2024-08-03T15:26:03Z</time>
      </trkpt>
      <trkpt lat="43.03297" lon="0.59379">
        <ele>452</ele>
        <time>2024-08-03T15:26:14Z</time>
      </trkpt>
      <trkpt lat="43.03318" lon="0.59363">
        <ele>451</ele>
        <time>2024-08-03T15:26:19Z</time>
      </trkpt>
      <trkpt lat="43.0339" lon="0.59355">
        <ele>449</ele>
        <time>2024-08-03T15:26:31Z</time>
      </trkpt>
      <trkpt lat="43.03404" lon="0.59351">
        <ele>449</ele>
        <time>2024-08-03T15:26:34Z</time>
      </trkpt>
      <trkpt lat="43.03423" lon="0.59343">
        <ele>448</ele>
        <time>2024-08-03T15:26:37Z</time>
      </trkpt>
      <trkpt lat="43.03474" lon="0.59309">
        <ele>444</ele>
        <time>2024-08-03T15:26:48Z</time>
      </trkpt>
      <trkpt lat="43.03484" lon="0.59306">
        <ele>443</ele>
        <time>2024-08-03T15:26:49Z</time>
      </trkpt>
      <trkpt lat="43.03501" lon="0.59306">
        <ele>442</ele>
        <time>2024-08-03T15:26:52Z</time>
      </trkpt>
      <trkpt lat="43.03529" lon="0.59314">
        <ele>442</ele>
        <time>2024-08-03T15:26:58Z</time>
      </trkpt>
      <trkpt lat="43.0357" lon="0.59329">
        <ele>443</ele>
        <time>2024-08-03T15:27:05Z</time>
      </trkpt>
      <trkpt lat="43.03579" lon="0.5933">
        <ele>444</ele>
        <time>2024-08-03T15:27:07Z</time>
      </trkpt>
      <trkpt lat="43.03806" lon="0.59285">
        <ele>467</ele>
        <time>2024-08-03T15:27:47Z</time>
      </trkpt>
      <trkpt lat="43.03974" lon="0.59249">
        <ele>464</ele>
        <time>2024-08-03T15:28:18Z</time>
      </trkpt>
      <trkpt lat="43.04326" lon="0.59239">
        <ele>454</ele>
        <time>2024-08-03T15:29:20Z</time>
      </trkpt>
      <trkpt lat="43.04336" lon="0.59242">
        <ele>454</ele>
        <time>2024-08-03T15:29:22Z</time>
      </trkpt>
      <trkpt lat="43.04357" lon="0.59236">
        <ele>455</ele>
        <time>2024-08-03T15:29:26Z</time>
      </trkpt>
      <trkpt lat="43.04372" lon="0.59235">
        <ele>455</ele>
        <time>2024-08-03T15:29:29Z</time>
      </trkpt>
      <trkpt lat="43.04388" lon="0.59224">
        <ele>455</ele>
        <time>2024-08-03T15:29:32Z</time>
      </trkpt>
      <trkpt lat="43.04435" lon="0.59161">
        <ele>456</ele>
        <time>2024-08-03T15:29:44Z</time>
      </trkpt>
      <trkpt lat="43.04469" lon="0.59125">
        <ele>457</ele>
        <time>2024-08-03T15:29:51Z</time>
      </trkpt>
      <trkpt lat="43.04526" lon="0.59076">
        <ele>457</ele>
        <time>2024-08-03T15:30:03Z</time>
      </trkpt>
      <trkpt lat="43.04574" lon="0.59046">
        <ele>458</ele>
        <time>2024-08-03T15:30:13Z</time>
      </trkpt>
      <trkpt lat="43.04617" lon="0.59023">
        <ele>457</ele>
        <time>2024-08-03T15:30:21Z</time>
      </trkpt>
      <trkpt lat="43.04654" lon="0.5901">
        <ele>457</ele>
        <time>2024-08-03T15:30:28Z</time>
      </trkpt>
      <trkpt lat="43.04755" lon="0.59007">
        <ele>463</ele>
        <time>2024-08-03T15:30:46Z</time>
      </trkpt>
      <trkpt lat="43.0479" lon="0.59008">
        <ele>464</ele>
        <time>2024-08-03T15:30:52Z</time>
      </trkpt>
      <trkpt lat="43.04999" lon="0.5905">
        <ele>473</ele>
        <time>2024-08-03T15:31:29Z</time>
      </trkpt>
      <trkpt lat="43.0501" lon="0.5905">
        <ele>472</ele>
        <time>2024-08-03T15:31:31Z</time>
      </trkpt>
      <trkpt lat="43.05103" lon="0.59035">
        <ele>467</ele>
        <time>2024-08-03T15:31:48Z</time>
      </trkpt>
      <trkpt lat="43.05136" lon="0.59037">
        <ele>463</ele>
        <time>2024-08-03T15:31:54Z</time>
      </trkpt>
      <trkpt lat="43.05175" lon="0.59035">
        <ele>459</ele>
        <time>2024-08-03T15:32:01Z</time>
      </trkpt>
      <trkpt lat="43.05212" lon="0.59044">
        <ele>458</ele>
        <time>2024-08-03T15:32:08Z</time>
      </trkpt>
      <trkpt lat="43.05668" lon="0.58913">
        <ele>446</ele>
        <time>2024-08-03T15:33:30Z</time>
      </trkpt>
      <trkpt lat="43.05677" lon="0.58966">
        <ele>446</ele>
        <time>2024-08-03T15:33:38Z</time>
      </trkpt>
      <trkpt lat="43.05719" lon="0.59107">
        <ele>443</ele>
        <time>2024-08-03T15:33:57Z</time>
      </trkpt>
      <trkpt lat="43.05727" lon="0.59112">
        <ele>442</ele>
        <time>2024-08-03T15:33:59Z</time>
      </trkpt>
      <trkpt lat="43.05769" lon="0.59097">
        <ele>441</ele>
        <time>2024-08-03T15:34:07Z</time>
      </trkpt>
      <trkpt lat="43.05829" lon="0.59086">
        <ele>441</ele>
        <time>2024-08-03T15:34:17Z</time>
      </trkpt>
      <trkpt lat="43.0585" lon="0.59087">
        <ele>441</ele>
        <time>2024-08-03T15:34:21Z</time>
      </trkpt>
      <trkpt lat="43.05875" lon="0.59093">
        <ele>440</ele>
        <time>2024-08-03T15:34:26Z</time>
      </trkpt>
      <trkpt lat="43.05899" lon="0.59103">
        <ele>440</ele>
        <time>2024-08-03T15:34:30Z</time>
      </trkpt>
      <trkpt lat="43.05913" lon="0.59111">
        <ele>440</ele>
        <time>2024-08-03T15:34:33Z</time>
      </trkpt>
      <trkpt lat="43.05929" lon="0.59126">
        <ele>440</ele>
        <time>2024-08-03T15:34:36Z</time>
      </trkpt>
      <trkpt lat="43.05934" lon="0.59133">
        <ele>440</ele>
        <time>2024-08-03T15:34:38Z</time>
      </trkpt>
      <trkpt lat="43.05937" lon="0.59148">
        <ele>440</ele>
        <time>2024-08-03T15:34:40Z</time>
      </trkpt>
      <trkpt lat="43.05938" lon="0.59185">
        <ele>440</ele>
        <time>2024-08-03T15:34:44Z</time>
      </trkpt>
      <trkpt lat="43.0594" lon="0.59203">
        <ele>439</ele>
        <time>2024-08-03T15:34:47Z</time>
      </trkpt>
      <trkpt lat="43.05944" lon="0.59219">
        <ele>439</ele>
        <time>2024-08-03T15:34:49Z</time>
      </trkpt>
      <trkpt lat="43.05945" lon="0.59233">
        <ele>439</ele>
        <time>2024-08-03T15:34:51Z</time>
      </trkpt>
      <trkpt lat="43.05943" lon="0.59249">
        <ele>438</ele>
        <time>2024-08-03T15:34:53Z</time>
      </trkpt>
      <trkpt lat="43.05936" lon="0.59263">
        <ele>438</ele>
        <time>2024-08-03T15:34:55Z</time>
      </trkpt>
      <trkpt lat="43.05934" lon="0.59272">
        <ele>438</ele>
        <time>2024-08-03T15:34:56Z</time>
      </trkpt>
      <trkpt lat="43.05934" lon="0.5929">
        <ele>438</ele>
        <time>2024-08-03T15:34:59Z</time>
      </trkpt>
      <trkpt lat="43.05937" lon="0.59299">
        <ele>438</ele>
        <time>2024-08-03T15:35:00Z</time>
      </trkpt>
      <trkpt lat="43.05947" lon="0.59312">
        <ele>438</ele>
        <time>2024-08-03T15:35:02Z</time>
      </trkpt>
      <trkpt lat="43.05951" lon="0.59314">
        <ele>438</ele>
        <time>2024-08-03T15:35:03Z</time>
      </trkpt>
      <trkpt lat="43.05965" lon="0.59317">
        <ele>438</ele>
        <time>2024-08-03T15:35:06Z</time>
      </trkpt>
      <trkpt lat="43.05972" lon="0.59314">
        <ele>438</ele>
        <time>2024-08-03T15:35:07Z</time>
      </trkpt>
      <trkpt lat="43.05983" lon="0.59303">
        <ele>438</ele>
        <time>2024-08-03T15:35:09Z</time>
      </trkpt>
      <trkpt lat="43.05986" lon="0.59295">
        <ele>438</ele>
        <time>2024-08-03T15:35:11Z</time>
      </trkpt>
      <trkpt lat="43.05989" lon="0.59278">
        <ele>439</ele>
        <time>2024-08-03T15:35:13Z</time>
      </trkpt>
      <trkpt lat="43.05986" lon="0.59262">
        <ele>439</ele>
        <time>2024-08-03T15:35:15Z</time>
      </trkpt>
      <trkpt lat="43.05983" lon="0.59254">
        <ele>439</ele>
        <time>2024-08-03T15:35:16Z</time>
      </trkpt>
      <trkpt lat="43.05983" lon="0.59243">
        <ele>439</ele>
        <time>2024-08-03T15:35:18Z</time>
      </trkpt>
      <trkpt lat="43.05993" lon="0.59204">
        <ele>439</ele>
        <time>2024-08-03T15:35:23Z</time>
      </trkpt>
      <trkpt lat="43.06046" lon="0.59078">
        <ele>438</ele>
        <time>2024-08-03T15:35:42Z</time>
      </trkpt>
      <trkpt lat="43.06079" lon="0.5902">
        <ele>436</ele>
        <time>2024-08-03T15:35:51Z</time>
      </trkpt>
      <trkpt lat="43.06131" lon="0.58964">
        <ele>436</ele>
        <time>2024-08-03T15:36:03Z</time>
      </trkpt>
      <trkpt lat="43.06201" lon="0.58922">
        <ele>437</ele>
        <time>2024-08-03T15:36:17Z</time>
      </trkpt>
      <trkpt lat="43.06279" lon="0.58892">
        <ele>436</ele>
        <time>2024-08-03T15:36:31Z</time>
      </trkpt>
      <trkpt lat="43.06283" lon="0.589">
        <ele>436</ele>
        <time>2024-08-03T15:36:32Z</time>
      </trkpt>
      <trkpt lat="43.0629" lon="0.58904">
        <ele>435</ele>
        <time>2024-08-03T15:36:34Z</time>
      </trkpt>
      <trkpt lat="43.06294" lon="0.58904">
        <ele>435</ele>
        <time>2024-08-03T15:36:34Z</time>
      </trkpt>
      <trkpt lat="43.063" lon="0.58898">
        <ele>436</ele>
        <time>2024-08-03T15:36:36Z</time>
      </trkpt>
      <trkpt lat="43.06302" lon="0.58888">
        <ele>436</ele>
        <time>2024-08-03T15:36:37Z</time>
      </trkpt>
      <trkpt lat="43.06301" lon="0.58883">
        <ele>436</ele>
        <time>2024-08-03T15:36:38Z</time>
      </trkpt>
      <trkpt lat="43.06531" lon="0.58794">
        <ele>438</ele>
        <time>2024-08-03T15:37:20Z</time>
      </trkpt>
      <trkpt lat="43.07492" lon="0.58494">
        <ele>431</ele>
        <time>2024-08-03T15:40:16Z</time>
      </trkpt>
      <trkpt lat="43.07571" lon="0.58465">
        <ele>429</ele>
        <time>2024-08-03T15:40:30Z</time>
      </trkpt>
      <trkpt lat="43.07691" lon="0.58432">
        <ele>429</ele>
        <time>2024-08-03T15:40:52Z</time>
      </trkpt>
      <trkpt lat="43.07704" lon="0.58427">
        <ele>429</ele>
        <time>2024-08-03T15:40:54Z</time>
      </trkpt>
      <trkpt lat="43.07716" lon="0.58417">
        <ele>429</ele>
        <time>2024-08-03T15:40:57Z</time>
      </trkpt>
      <trkpt lat="43.07722" lon="0.58411">
        <ele>429</ele>
        <time>2024-08-03T15:40:58Z</time>
      </trkpt>
      <trkpt lat="43.07722" lon="0.58411">
        <ele>429</ele>
        <time>2024-08-03T15:40:58Z</time>
      </trkpt>
      <trkpt lat="43.07732" lon="0.58392">
        <ele>429</ele>
        <time>2024-08-03T15:41:01Z</time>
      </trkpt>
      <trkpt lat="43.07736" lon="0.58378">
        <ele>429</ele>
        <time>2024-08-03T15:41:03Z</time>
      </trkpt>
      <trkpt lat="43.07738" lon="0.58359">
        <ele>429</ele>
        <time>2024-08-03T15:41:06Z</time>
      </trkpt>
      <trkpt lat="43.07763" lon="0.58428">
        <ele>428</ele>
        <time>2024-08-03T15:41:16Z</time>
      </trkpt>
      <trkpt lat="43.07777" lon="0.5845">
        <ele>426</ele>
        <time>2024-08-03T15:41:20Z</time>
      </trkpt>
      <trkpt lat="43.07786" lon="0.58461">
        <ele>425</ele>
        <time>2024-08-03T15:41:22Z</time>
      </trkpt>
      <trkpt lat="43.07792" lon="0.58475">
        <ele>424</ele>
        <time>2024-08-03T15:41:24Z</time>
      </trkpt>
      <trkpt lat="43.07794" lon="0.58491">
        <ele>424</ele>
        <time>2024-08-03T15:41:26Z</time>
      </trkpt>
      <trkpt lat="43.07782" lon="0.58522">
        <ele>425</ele>
        <time>2024-08-03T15:41:31Z</time>
      </trkpt>
      <trkpt lat="43.07753" lon="0.58592">
        <ele>426</ele>
        <time>2024-08-03T15:41:41Z</time>
      </trkpt>
      <trkpt lat="43.0773" lon="0.58668">
        <ele>426</ele>
        <time>2024-08-03T15:41:52Z</time>
      </trkpt>
      <trkpt lat="43.07726" lon="0.58722">
        <ele>425</ele>
        <time>2024-08-03T15:41:59Z</time>
      </trkpt>
      <trkpt lat="43.07723" lon="0.58847">
        <ele>425</ele>
        <time>2024-08-03T15:42:15Z</time>
      </trkpt>
      <trkpt lat="43.07728" lon="0.58904">
        <ele>425</ele>
        <time>2024-08-03T15:42:22Z</time>
      </trkpt>
      <trkpt lat="43.07768" lon="0.59094">
        <ele>427</ele>
        <time>2024-08-03T15:42:48Z</time>
      </trkpt>
      <trkpt lat="43.0779" lon="0.5913">
        <ele>425</ele>
        <time>2024-08-03T15:42:54Z</time>
      </trkpt>
      <trkpt lat="43.07846" lon="0.59255">
        <ele>425</ele>
        <time>2024-08-03T15:43:13Z</time>
      </trkpt>
      <trkpt lat="43.07859" lon="0.59315">
        <ele>424</ele>
        <time>2024-08-03T15:43:21Z</time>
      </trkpt>
      <trkpt lat="43.07862" lon="0.59373">
        <ele>424</ele>
        <time>2024-08-03T15:43:29Z</time>
      </trkpt>
      <trkpt lat="43.07887" lon="0.59424">
        <ele>422</ele>
        <time>2024-08-03T15:43:37Z</time>
      </trkpt>
      <trkpt lat="43.07891" lon="0.59442">
        <ele>422</ele>
        <time>2024-08-03T15:43:39Z</time>
      </trkpt>
      <trkpt lat="43.07892" lon="0.59458">
        <ele>423</ele>
        <time>2024-08-03T15:43:42Z</time>
      </trkpt>
      <trkpt lat="43.07885" lon="0.59477">
        <ele>424</ele>
        <time>2024-08-03T15:43:44Z</time>
      </trkpt>
      <trkpt lat="43.07862" lon="0.59502">
        <ele>427</ele>
        <time>2024-08-03T15:43:49Z</time>
      </trkpt>
      <trkpt lat="43.07858" lon="0.59517">
        <ele>427</ele>
        <time>2024-08-03T15:43:52Z</time>
      </trkpt>
      <trkpt lat="43.0786" lon="0.59528">
        <ele>427</ele>
        <time>2024-08-03T15:43:53Z</time>
      </trkpt>
      <trkpt lat="43.0787" lon="0.5954">
        <ele>427</ele>
        <time>2024-08-03T15:43:55Z</time>
      </trkpt>
      <trkpt lat="43.07885" lon="0.59546">
        <ele>426</ele>
        <time>2024-08-03T15:43:58Z</time>
      </trkpt>
      <trkpt lat="43.07897" lon="0.59557">
        <ele>425</ele>
        <time>2024-08-03T15:44:01Z</time>
      </trkpt>
      <trkpt lat="43.07903" lon="0.59578">
        <ele>426</ele>
        <time>2024-08-03T15:44:04Z</time>
      </trkpt>
      <trkpt lat="43.07907" lon="0.59616">
        <ele>424</ele>
        <time>2024-08-03T15:44:09Z</time>
      </trkpt>
      <trkpt lat="43.07914" lon="0.59747">
        <ele>422</ele>
        <time>2024-08-03T15:44:26Z</time>
      </trkpt>
      <trkpt lat="43.07925" lon="0.59802">
        <ele>421</ele>
        <time>2024-08-03T15:44:33Z</time>
      </trkpt>
      <trkpt lat="43.07936" lon="0.59879">
        <ele>420</ele>
        <time>2024-08-03T15:44:43Z</time>
      </trkpt>
      <trkpt lat="43.07961" lon="0.59979">
        <ele>418</ele>
        <time>2024-08-03T15:44:57Z</time>
      </trkpt>
      <trkpt lat="43.07978" lon="0.60063">
        <ele>419</ele>
        <time>2024-08-03T15:45:08Z</time>
      </trkpt>
      <trkpt lat="43.07988" lon="0.60095">
        <ele>419</ele>
        <time>2024-08-03T15:45:13Z</time>
      </trkpt>
      <trkpt lat="43.07998" lon="0.60112">
        <ele>419</ele>
        <time>2024-08-03T15:45:16Z</time>
      </trkpt>
      <trkpt lat="43.08169" lon="0.60374">
        <ele>421</ele>
        <time>2024-08-03T15:46:01Z</time>
      </trkpt>
      <trkpt lat="43.08222" lon="0.60478">
        <ele>421</ele>
        <time>2024-08-03T15:46:18Z</time>
      </trkpt>
      <trkpt lat="43.08297" lon="0.60692">
        <ele>421</ele>
        <time>2024-08-03T15:46:49Z</time>
      </trkpt>
      <trkpt lat="43.0837" lon="0.60874">
        <ele>420</ele>
        <time>2024-08-03T15:47:16Z</time>
      </trkpt>
      <trkpt lat="43.08409" lon="0.60963">
        <ele>418</ele>
        <time>2024-08-03T15:47:29Z</time>
      </trkpt>
      <trkpt lat="43.08431" lon="0.60998">
        <ele>417</ele>
        <time>2024-08-03T15:47:35Z</time>
      </trkpt>
      <trkpt lat="43.08491" lon="0.6108">
        <ele>417</ele>
        <time>2024-08-03T15:47:50Z</time>
      </trkpt>
      <trkpt lat="43.08509" lon="0.6111">
        <ele>417</ele>
        <time>2024-08-03T15:47:55Z</time>
      </trkpt>
      <trkpt lat="43.08523" lon="0.61143">
        <ele>417</ele>
        <time>2024-08-03T15:48:00Z</time>
      </trkpt>
      <trkpt lat="43.08598" lon="0.61334">
        <ele>418</ele>
        <time>2024-08-03T15:48:29Z</time>
      </trkpt>
      <trkpt lat="43.08676" lon="0.61593">
        <ele>417</ele>
        <time>2024-08-03T15:49:05Z</time>
      </trkpt>
      <trkpt lat="43.08683" lon="0.61612">
        <ele>417</ele>
        <time>2024-08-03T15:49:08Z</time>
      </trkpt>
      <trkpt lat="43.08683" lon="0.61612">
        <ele>417</ele>
        <time>2024-08-03T15:49:08Z</time>
      </trkpt>
      <trkpt lat="43.08729" lon="0.61731">
        <ele>417</ele>
        <time>2024-08-03T15:49:25Z</time>
      </trkpt>
      <trkpt lat="43.08753" lon="0.61837">
        <ele>415</ele>
        <time>2024-08-03T15:49:40Z</time>
      </trkpt>
      <trkpt lat="43.08761" lon="0.61897">
        <ele>415</ele>
        <time>2024-08-03T15:49:48Z</time>
      </trkpt>
      <trkpt lat="43.08771" lon="0.61939">
        <ele>414</ele>
        <time>2024-08-03T15:49:53Z</time>
      </trkpt>
      <trkpt lat="43.08822" lon="0.62115">
        <ele>414</ele>
        <time>2024-08-03T15:50:18Z</time>
      </trkpt>
      <trkpt lat="43.08918" lon="0.62421">
        <ele>411</ele>
        <time>2024-08-03T15:51:01Z</time>
      </trkpt>
      <trkpt lat="43.08928" lon="0.62481">
        <ele>409</ele>
        <time>2024-08-03T15:51:09Z</time>
      </trkpt>
      <trkpt lat="43.08936" lon="0.62573">
        <ele>409</ele>
        <time>2024-08-03T15:51:21Z</time>
      </trkpt>
      <trkpt lat="43.08946" lon="0.62661">
        <ele>410</ele>
        <time>2024-08-03T15:51:33Z</time>
      </trkpt>
      <trkpt lat="43.08968" lon="0.62724">
        <ele>409</ele>
        <time>2024-08-03T15:51:42Z</time>
      </trkpt>
      <trkpt lat="43.0902" lon="0.6285">
        <ele>406</ele>
        <time>2024-08-03T15:52:01Z</time>
      </trkpt>
      <trkpt lat="43.09068" lon="0.63042">
        <ele>405</ele>
        <time>2024-08-03T15:52:27Z</time>
      </trkpt>
      <trkpt lat="43.09095" lon="0.631">
        <ele>406</ele>
        <time>2024-08-03T15:52:36Z</time>
      </trkpt>
      <trkpt lat="43.09122" lon="0.63143">
        <ele>405</ele>
        <time>2024-08-03T15:52:43Z</time>
      </trkpt>
      <trkpt lat="43.09161" lon="0.63184">
        <ele>403</ele>
        <time>2024-08-03T15:52:52Z</time>
      </trkpt>
      <trkpt lat="43.09191" lon="0.63207">
        <ele>402</ele>
        <time>2024-08-03T15:52:58Z</time>
      </trkpt>
      <trkpt lat="43.09222" lon="0.63221">
        <ele>401</ele>
        <time>2024-08-03T15:53:04Z</time>
      </trkpt>
      <trkpt lat="43.09255" lon="0.63241">
        <ele>401</ele>
        <time>2024-08-03T15:53:10Z</time>
      </trkpt>
      <trkpt lat="43.09272" lon="0.63266">
        <ele>401</ele>
        <time>2024-08-03T15:53:15Z</time>
      </trkpt>
      <trkpt lat="43.09323" lon="0.63366">
        <ele>401</ele>
        <time>2024-08-03T15:53:31Z</time>
      </trkpt>
      <trkpt lat="43.09368" lon="0.63399">
        <ele>402</ele>
        <time>2024-08-03T15:53:40Z</time>
      </trkpt>
      <trkpt lat="43.09548" lon="0.63487">
        <ele>399</ele>
        <time>2024-08-03T15:54:14Z</time>
      </trkpt>
      <trkpt lat="43.09563" lon="0.63507">
        <ele>398</ele>
        <time>2024-08-03T15:54:17Z</time>
      </trkpt>
      <trkpt lat="43.09671" lon="0.63685">
        <ele>396</ele>
        <time>2024-08-03T15:54:48Z</time>
      </trkpt>
      <trkpt lat="43.09828" lon="0.63865">
        <ele>395</ele>
        <time>2024-08-03T15:55:24Z</time>
      </trkpt>
      <trkpt lat="43.09939" lon="0.64062">
        <ele>395</ele>
        <time>2024-08-03T15:55:56Z</time>
      </trkpt>
      <trkpt lat="43.10202" lon="0.6463">
        <ele>391</ele>
        <time>2024-08-03T15:57:24Z</time>
      </trkpt>
      <trkpt lat="43.10292" lon="0.64912">
        <ele>391</ele>
        <time>2024-08-03T15:58:04Z</time>
      </trkpt>
      <trkpt lat="43.10523" lon="0.65913">
        <ele>386</ele>
        <time>2024-08-03T16:00:20Z</time>
      </trkpt>
      <trkpt lat="43.10519" lon="0.66001">
        <ele>387</ele>
        <time>2024-08-03T16:00:32Z</time>
      </trkpt>
      <trkpt lat="43.10475" lon="0.66063">
        <ele>387</ele>
        <time>2024-08-03T16:00:43Z</time>
      </trkpt>
      <trkpt lat="43.10279" lon="0.66246">
        <ele>385</ele>
        <time>2024-08-03T16:01:25Z</time>
      </trkpt>
      <trkpt lat="43.1024" lon="0.66319">
        <ele>385</ele>
        <time>2024-08-03T16:01:37Z</time>
      </trkpt>
      <trkpt lat="43.10218" lon="0.66427">
        <ele>385</ele>
        <time>2024-08-03T16:01:51Z</time>
      </trkpt>
      <trkpt lat="43.10223" lon="0.66534">
        <ele>383</ele>
        <time>2024-08-03T16:02:05Z</time>
      </trkpt>
      <trkpt lat="43.10264" lon="0.66651">
        <ele>381</ele>
        <time>2024-08-03T16:02:22Z</time>
      </trkpt>
      <trkpt lat="43.10295" lon="0.66694">
        <ele>380</ele>
        <time>2024-08-03T16:02:30Z</time>
      </trkpt>
      <trkpt lat="43.10298" lon="0.66704">
        <ele>380</ele>
        <time>2024-08-03T16:02:31Z</time>
      </trkpt>
      <trkpt lat="43.10296" lon="0.66712">
        <ele>380</ele>
        <time>2024-08-03T16:02:32Z</time>
      </trkpt>
      <trkpt lat="43.1028" lon="0.6673">
        <ele>380</ele>
        <time>2024-08-03T16:02:36Z</time>
      </trkpt>
      <trkpt lat="43.10126" lon="0.66838">
        <ele>382</ele>
        <time>2024-08-03T16:03:07Z</time>
      </trkpt>
      <trkpt lat="43.10034" lon="0.6686">
        <ele>382</ele>
        <time>2024-08-03T16:03:24Z</time>
      </trkpt>
      <trkpt lat="43.10033" lon="0.66882">
        <ele>382</ele>
        <time>2024-08-03T16:03:26Z</time>
      </trkpt>
      <trkpt lat="43.10067" lon="0.67014">
        <ele>383</ele>
        <time>2024-08-03T16:03:45Z</time>
      </trkpt>
      <trkpt lat="43.10109" lon="0.67113">
        <ele>382</ele>
        <time>2024-08-03T16:03:59Z</time>
      </trkpt>
      <trkpt lat="43.1011" lon="0.67146">
        <ele>381</ele>
        <time>2024-08-03T16:04:04Z</time>
      </trkpt>
      <trkpt lat="43.10088" lon="0.67189">
        <ele>381</ele>
        <time>2024-08-03T16:04:11Z</time>
      </trkpt>
      <trkpt lat="43.1007" lon="0.67272">
        <ele>381</ele>
        <time>2024-08-03T16:04:22Z</time>
      </trkpt>
      <trkpt lat="43.10085" lon="0.67377">
        <ele>380</ele>
        <time>2024-08-03T16:04:36Z</time>
      </trkpt>
      <trkpt lat="43.10131" lon="0.67503">
        <ele>377</ele>
        <time>2024-08-03T16:04:54Z</time>
      </trkpt>
      <trkpt lat="43.10132" lon="0.6755">
        <ele>376</ele>
        <time>2024-08-03T16:05:00Z</time>
      </trkpt>
      <trkpt lat="43.10117" lon="0.67635">
        <ele>376</ele>
        <time>2024-08-03T16:05:11Z</time>
      </trkpt>
      <trkpt lat="43.10102" lon="0.67689">
        <ele>376</ele>
        <time>2024-08-03T16:05:19Z</time>
      </trkpt>
      <trkpt lat="43.10099" lon="0.67711">
        <ele>376</ele>
        <time>2024-08-03T16:05:22Z</time>
      </trkpt>
      <trkpt lat="43.101" lon="0.67758">
        <ele>374</ele>
        <time>2024-08-03T16:05:28Z</time>
      </trkpt>
      <trkpt lat="43.10095" lon="0.67775">
        <ele>375</ele>
        <time>2024-08-03T16:05:30Z</time>
      </trkpt>
      <trkpt lat="43.10088" lon="0.67786">
        <ele>375</ele>
        <time>2024-08-03T16:05:32Z</time>
      </trkpt>
      <trkpt lat="43.10072" lon="0.67803">
        <ele>375</ele>
        <time>2024-08-03T16:05:36Z</time>
      </trkpt>
      <trkpt lat="43.10045" lon="0.67908">
        <ele>376</ele>
        <time>2024-08-03T16:05:50Z</time>
      </trkpt>
      <trkpt lat="43.10001" lon="0.68001">
        <ele>381</ele>
        <time>2024-08-03T16:06:05Z</time>
      </trkpt>
      <trkpt lat="43.0991" lon="0.68106">
        <ele>376</ele>
        <time>2024-08-03T16:06:26Z</time>
      </trkpt>
      <trkpt lat="43.09885" lon="0.68172">
        <ele>374</ele>
        <time>2024-08-03T16:06:36Z</time>
      </trkpt>
      <trkpt lat="43.09865" lon="0.68336">
        <ele>371</ele>
        <time>2024-08-03T16:06:57Z</time>
      </trkpt>
      <trkpt lat="43.09715" lon="0.69101">
        <ele>371</ele>
        <time>2024-08-03T16:08:40Z</time>
      </trkpt>
      <trkpt lat="43.09661" lon="0.69333">
        <ele>369</ele>
        <time>2024-08-03T16:09:12Z</time>
      </trkpt>
      <trkpt lat="43.09658" lon="0.69394">
        <ele>368</ele>
        <time>2024-08-03T16:09:20Z</time>
      </trkpt>
      <trkpt lat="43.09658" lon="0.69473">
        <ele>368</ele>
        <time>2024-08-03T16:09:30Z</time>
      </trkpt>
      <trkpt lat="43.09668" lon="0.69539">
        <ele>370</ele>
        <time>2024-08-03T16:09:39Z</time>
      </trkpt>
      <trkpt lat="43.09682" lon="0.69597">
        <ele>371</ele>
        <time>2024-08-03T16:09:47Z</time>
      </trkpt>
      <trkpt lat="43.09698" lon="0.69681">
        <ele>369</ele>
        <time>2024-08-03T16:09:58Z</time>
      </trkpt>
      <trkpt lat="43.09722" lon="0.69777">
        <ele>367</ele>
        <time>2024-08-03T16:10:11Z</time>
      </trkpt>
      <trkpt lat="43.0973" lon="0.69845">
        <ele>367</ele>
        <time>2024-08-03T16:10:20Z</time>
      </trkpt>
      <trkpt lat="43.09726" lon="0.69932">
        <ele>367</ele>
        <time>2024-08-03T16:10:31Z</time>
      </trkpt>
      <trkpt lat="43.09707" lon="0.70076">
        <ele>366</ele>
        <time>2024-08-03T16:10:50Z</time>
      </trkpt>
      <trkpt lat="43.09699" lon="0.701">
        <ele>366</ele>
        <time>2024-08-03T16:10:54Z</time>
      </trkpt>
      <trkpt lat="43.09666" lon="0.70115">
        <ele>365</ele>
        <time>2024-08-03T16:11:00Z</time>
      </trkpt>
      <trkpt lat="43.09659" lon="0.70122">
        <ele>365</ele>
        <time>2024-08-03T16:11:02Z</time>
      </trkpt>
      <trkpt lat="43.09659" lon="0.70136">
        <ele>365</ele>
        <time>2024-08-03T16:11:03Z</time>
      </trkpt>
      <trkpt lat="43.09673" lon="0.7019">
        <ele>364</ele>
        <time>2024-08-03T16:11:11Z</time>
      </trkpt>
      <trkpt lat="43.09676" lon="0.70212">
        <ele>364</ele>
        <time>2024-08-03T16:11:14Z</time>
      </trkpt>
      <trkpt lat="43.09669" lon="0.70214">
        <ele>364</ele>
        <time>2024-08-03T16:11:15Z</time>
      </trkpt>
      <trkpt lat="43.09647" lon="0.70215">
        <ele>364</ele>
        <time>2024-08-03T16:11:19Z</time>
      </trkpt>
      <trkpt lat="43.09617" lon="0.70209">
        <ele>365</ele>
        <time>2024-08-03T16:11:24Z</time>
        <extensions>
          <visugpx:TrkExtension xmlns:visugpx="https://www.visugpx.com/editgpx/">
            <visugpx:node>1</visugpx:node>
            </visugpx:TrkExtension>
        </extensions>
      </trkpt>
    </trkseg>
  </trk>
</gpx>